<?xml version="1.0" encoding="UTF-8" standalone="no" ?>
<gpx xmlns="http://www.topografix.com/GPX/1/1" xmlns:xsi="http://www.w3.org/2001/XMLSchema-instance" xsi:schemaLocation="http://www.topografix.com/GPX/1/1 http://www.topografix.com/GPX/1/1/gpx.xsd" version="1.1" creator="VisuGPX - https://www.visugpx.com">
  <metadata>
    <name>parcours bretagne</name>
  </metadata>
  <trk>
    <name><![CDATA[190908_081911]]></name>
    <trkseg>
      <trkpt lat="48.3592" lon="-3.745">
        <ele>237.695</ele>
        <time>2019-09-08T08:19:24 0200</time>
      </trkpt>
      <trkpt lat="48.3592" lon="-3.745">
        <ele>237.695</ele>
        <time>2019-09-08T08:19:29 0200</time>
      </trkpt>
      <trkpt lat="48.3592" lon="-3.745">
        <ele>237.695</ele>
        <time>2019-09-08T08:19:34 0200</time>
      </trkpt>
      <trkpt lat="48.3592" lon="-3.745">
        <ele>237.695</ele>
        <time>2019-09-08T08:19:39 0200</time>
      </trkpt>
      <trkpt lat="48.3592" lon="-3.745">
        <ele>237.695</ele>
        <time>2019-09-08T08:19:44 0200</time>
      </trkpt>
      <trkpt lat="48.3592" lon="-3.745">
        <ele>237.695</ele>
        <time>2019-09-08T08:19:49 0200</time>
      </trkpt>
      <trkpt lat="48.3592" lon="-3.745">
        <ele>237.695</ele>
        <time>2019-09-08T08:19:54 0200</time>
      </trkpt>
      <trkpt lat="48.3592" lon="-3.745">
        <ele>237.695</ele>
        <time>2019-09-08T08:19:59 0200</time>
      </trkpt>
      <trkpt lat="48.3592" lon="-3.745">
        <ele>237.695</ele>
        <time>2019-09-08T08:20:05 0200</time>
      </trkpt>
      <trkpt lat="48.3592" lon="-3.745">
        <ele>237.695</ele>
        <time>2019-09-08T08:20:10 0200</time>
      </trkpt>
      <trkpt lat="48.3592" lon="-3.745">
        <ele>237.695</ele>
        <time>2019-09-08T08:20:15 0200</time>
      </trkpt>
      <trkpt lat="48.3592" lon="-3.745">
        <ele>237.695</ele>
        <time>2019-09-08T08:20:20 0200</time>
      </trkpt>
      <trkpt lat="48.3592" lon="-3.745">
        <ele>237.695</ele>
        <time>2019-09-08T08:20:25 0200</time>
      </trkpt>
      <trkpt lat="48.3592" lon="-3.745">
        <ele>237.695</ele>
        <time>2019-09-08T08:20:30 0200</time>
      </trkpt>
      <trkpt lat="48.3593" lon="-3.74478">
        <ele>254.238</ele>
        <time>2019-09-08T08:20:35 0200</time>
      </trkpt>
      <trkpt lat="48.3593" lon="-3.74478">
        <ele>254.238</ele>
        <time>2019-09-08T08:20:40 0200</time>
      </trkpt>
      <trkpt lat="48.3593" lon="-3.74462">
        <ele>254.048</ele>
        <time>2019-09-08T08:20:45 0200</time>
      </trkpt>
      <trkpt lat="48.3594" lon="-3.74452">
        <ele>254.054</ele>
        <time>2019-09-08T08:20:50 0200</time>
      </trkpt>
      <trkpt lat="48.3594" lon="-3.74443">
        <ele>254.218</ele>
        <time>2019-09-08T08:20:55 0200</time>
      </trkpt>
      <trkpt lat="48.3594" lon="-3.74429">
        <ele>254.137</ele>
        <time>2019-09-08T08:21:00 0200</time>
      </trkpt>
      <trkpt lat="48.3593" lon="-3.74407">
        <ele>253.624</ele>
        <time>2019-09-08T08:21:05 0200</time>
      </trkpt>
      <trkpt lat="48.3593" lon="-3.74391">
        <ele>253.446</ele>
        <time>2019-09-08T08:21:10 0200</time>
      </trkpt>
      <trkpt lat="48.3594" lon="-3.74372">
        <ele>253.071</ele>
        <time>2019-09-08T08:21:15 0200</time>
      </trkpt>
      <trkpt lat="48.3595" lon="-3.74362">
        <ele>252.834</ele>
        <time>2019-09-08T08:21:21 0200</time>
      </trkpt>
      <trkpt lat="48.3596" lon="-3.74356">
        <ele>252.534</ele>
        <time>2019-09-08T08:21:26 0200</time>
      </trkpt>
      <trkpt lat="48.3596" lon="-3.74359">
        <ele>252.339</ele>
        <time>2019-09-08T08:21:31 0200</time>
      </trkpt>
      <trkpt lat="48.3597" lon="-3.74375">
        <ele>252.338</ele>
        <time>2019-09-08T08:21:36 0200</time>
      </trkpt>
      <trkpt lat="48.3597" lon="-3.74389">
        <ele>252.425</ele>
        <time>2019-09-08T08:21:41 0200</time>
      </trkpt>
      <trkpt lat="48.3598" lon="-3.74403">
        <ele>252.607</ele>
        <time>2019-09-08T08:21:46 0200</time>
      </trkpt>
      <trkpt lat="48.3598" lon="-3.74409">
        <ele>252.6</ele>
        <time>2019-09-08T08:21:52 0200</time>
      </trkpt>
      <trkpt lat="48.3598" lon="-3.74409">
        <ele>252.6</ele>
        <time>2019-09-08T08:21:57 0200</time>
      </trkpt>
      <trkpt lat="48.3598" lon="-3.74409">
        <ele>252.6</ele>
        <time>2019-09-08T08:22:02 0200</time>
      </trkpt>
      <trkpt lat="48.3598" lon="-3.74409">
        <ele>252.6</ele>
        <time>2019-09-08T08:22:07 0200</time>
      </trkpt>
      <trkpt lat="48.3598" lon="-3.74409">
        <ele>252.6</ele>
        <time>2019-09-08T08:22:12 0200</time>
      </trkpt>
      <trkpt lat="48.3598" lon="-3.74409">
        <ele>252.6</ele>
        <time>2019-09-08T08:22:17 0200</time>
      </trkpt>
      <trkpt lat="48.3598" lon="-3.74409">
        <ele>252.6</ele>
        <time>2019-09-08T08:22:22 0200</time>
      </trkpt>
      <trkpt lat="48.3598" lon="-3.74409">
        <ele>252.6</ele>
        <time>2019-09-08T08:22:27 0200</time>
      </trkpt>
      <trkpt lat="48.3598" lon="-3.74409">
        <ele>252.6</ele>
        <time>2019-09-08T08:22:32 0200</time>
      </trkpt>
      <trkpt lat="48.3598" lon="-3.74409">
        <ele>252.6</ele>
        <time>2019-09-08T08:22:37 0200</time>
      </trkpt>
      <trkpt lat="48.3598" lon="-3.74409">
        <ele>252.6</ele>
        <time>2019-09-08T08:22:42 0200</time>
      </trkpt>
      <trkpt lat="48.3598" lon="-3.74409">
        <ele>252.6</ele>
        <time>2019-09-08T08:22:48 0200</time>
      </trkpt>
      <trkpt lat="48.3598" lon="-3.74409">
        <ele>252.6</ele>
        <time>2019-09-08T08:22:53 0200</time>
      </trkpt>
      <trkpt lat="48.3598" lon="-3.74409">
        <ele>252.6</ele>
        <time>2019-09-08T08:22:58 0200</time>
      </trkpt>
      <trkpt lat="48.3598" lon="-3.74409">
        <ele>252.6</ele>
        <time>2019-09-08T08:23:03 0200</time>
      </trkpt>
      <trkpt lat="48.3598" lon="-3.74409">
        <ele>252.6</ele>
        <time>2019-09-08T08:23:08 0200</time>
      </trkpt>
      <trkpt lat="48.3598" lon="-3.74409">
        <ele>252.6</ele>
        <time>2019-09-08T08:23:13 0200</time>
      </trkpt>
      <trkpt lat="48.3598" lon="-3.74409">
        <ele>252.6</ele>
        <time>2019-09-08T08:23:18 0200</time>
      </trkpt>
      <trkpt lat="48.3598" lon="-3.74409">
        <ele>252.6</ele>
        <time>2019-09-08T08:23:23 0200</time>
      </trkpt>
      <trkpt lat="48.3598" lon="-3.74409">
        <ele>252.6</ele>
        <time>2019-09-08T08:23:28 0200</time>
      </trkpt>
      <trkpt lat="48.3598" lon="-3.74409">
        <ele>252.6</ele>
        <time>2019-09-08T08:23:33 0200</time>
      </trkpt>
      <trkpt lat="48.3598" lon="-3.74409">
        <ele>252.6</ele>
        <time>2019-09-08T08:23:38 0200</time>
      </trkpt>
      <trkpt lat="48.3598" lon="-3.74409">
        <ele>252.6</ele>
        <time>2019-09-08T08:23:43 0200</time>
      </trkpt>
      <trkpt lat="48.3598" lon="-3.74409">
        <ele>252.6</ele>
        <time>2019-09-08T08:23:48 0200</time>
      </trkpt>
      <trkpt lat="48.3598" lon="-3.74409">
        <ele>252.6</ele>
        <time>2019-09-08T08:23:54 0200</time>
      </trkpt>
      <trkpt lat="48.3598" lon="-3.74409">
        <ele>252.6</ele>
        <time>2019-09-08T08:23:59 0200</time>
      </trkpt>
      <trkpt lat="48.3598" lon="-3.74409">
        <ele>252.6</ele>
        <time>2019-09-08T08:24:04 0200</time>
      </trkpt>
      <trkpt lat="48.3598" lon="-3.74409">
        <ele>252.6</ele>
        <time>2019-09-08T08:24:09 0200</time>
      </trkpt>
      <trkpt lat="48.3598" lon="-3.74409">
        <ele>252.6</ele>
        <time>2019-09-08T08:24:14 0200</time>
      </trkpt>
      <trkpt lat="48.3598" lon="-3.74409">
        <ele>252.6</ele>
        <time>2019-09-08T08:24:19 0200</time>
      </trkpt>
      <trkpt lat="48.3598" lon="-3.74409">
        <ele>252.6</ele>
        <time>2019-09-08T08:24:24 0200</time>
      </trkpt>
      <trkpt lat="48.3598" lon="-3.74409">
        <ele>252.6</ele>
        <time>2019-09-08T08:24:29 0200</time>
      </trkpt>
      <trkpt lat="48.3598" lon="-3.74409">
        <ele>252.6</ele>
        <time>2019-09-08T08:24:34 0200</time>
      </trkpt>
      <trkpt lat="48.3598" lon="-3.74409">
        <ele>252.6</ele>
        <time>2019-09-08T08:24:39 0200</time>
      </trkpt>
      <trkpt lat="48.3598" lon="-3.74409">
        <ele>252.6</ele>
        <time>2019-09-08T08:24:44 0200</time>
      </trkpt>
      <trkpt lat="48.3598" lon="-3.74409">
        <ele>252.6</ele>
        <time>2019-09-08T08:24:49 0200</time>
      </trkpt>
      <trkpt lat="48.3598" lon="-3.74409">
        <ele>252.6</ele>
        <time>2019-09-08T08:24:54 0200</time>
      </trkpt>
      <trkpt lat="48.3598" lon="-3.74409">
        <ele>252.6</ele>
        <time>2019-09-08T08:24:59 0200</time>
      </trkpt>
      <trkpt lat="48.3598" lon="-3.74409">
        <ele>252.6</ele>
        <time>2019-09-08T08:25:04 0200</time>
      </trkpt>
      <trkpt lat="48.3598" lon="-3.74409">
        <ele>252.6</ele>
        <time>2019-09-08T08:25:10 0200</time>
      </trkpt>
      <trkpt lat="48.3598" lon="-3.74409">
        <ele>252.6</ele>
        <time>2019-09-08T08:25:15 0200</time>
      </trkpt>
      <trkpt lat="48.3598" lon="-3.74409">
        <ele>252.6</ele>
        <time>2019-09-08T08:25:20 0200</time>
      </trkpt>
      <trkpt lat="48.3598" lon="-3.74409">
        <ele>252.6</ele>
        <time>2019-09-08T08:25:25 0200</time>
      </trkpt>
      <trkpt lat="48.3599" lon="-3.74431">
        <ele>251.468</ele>
        <time>2019-09-08T08:25:30 0200</time>
      </trkpt>
      <trkpt lat="48.36" lon="-3.74432">
        <ele>251.094</ele>
        <time>2019-09-08T08:25:35 0200</time>
      </trkpt>
      <trkpt lat="48.3601" lon="-3.74432">
        <ele>251.017</ele>
        <time>2019-09-08T08:25:40 0200</time>
      </trkpt>
      <trkpt lat="48.3603" lon="-3.74451">
        <ele>251.179</ele>
        <time>2019-09-08T08:25:45 0200</time>
      </trkpt>
      <trkpt lat="48.3604" lon="-3.74473">
        <ele>251.407</ele>
        <time>2019-09-08T08:25:50 0200</time>
      </trkpt>
      <trkpt lat="48.3604" lon="-3.74505">
        <ele>250.509</ele>
        <time>2019-09-08T08:25:55 0200</time>
      </trkpt>
      <trkpt lat="48.3604" lon="-3.74528">
        <ele>249.784</ele>
        <time>2019-09-08T08:26:00 0200</time>
      </trkpt>
      <trkpt lat="48.3602" lon="-3.74559">
        <ele>248.968</ele>
        <time>2019-09-08T08:26:05 0200</time>
      </trkpt>
      <trkpt lat="48.36" lon="-3.74584">
        <ele>249.478</ele>
        <time>2019-09-08T08:26:10 0200</time>
      </trkpt>
      <trkpt lat="48.3599" lon="-3.74602">
        <ele>248.853</ele>
        <time>2019-09-08T08:26:16 0200</time>
      </trkpt>
      <trkpt lat="48.36" lon="-3.74622">
        <ele>244.927</ele>
        <time>2019-09-08T08:26:21 0200</time>
      </trkpt>
      <trkpt lat="48.3602" lon="-3.74627">
        <ele>245.094</ele>
        <time>2019-09-08T08:26:26 0200</time>
      </trkpt>
      <trkpt lat="48.3606" lon="-3.74634">
        <ele>243.36</ele>
        <time>2019-09-08T08:26:31 0200</time>
      </trkpt>
      <trkpt lat="48.361" lon="-3.74652">
        <ele>239.293</ele>
        <time>2019-09-08T08:26:36 0200</time>
      </trkpt>
      <trkpt lat="48.3613" lon="-3.74683">
        <ele>235.357</ele>
        <time>2019-09-08T08:26:41 0200</time>
      </trkpt>
      <trkpt lat="48.3616" lon="-3.74704">
        <ele>233.175</ele>
        <time>2019-09-08T08:26:46 0200</time>
      </trkpt>
      <trkpt lat="48.362" lon="-3.74721">
        <ele>233.627</ele>
        <time>2019-09-08T08:26:51 0200</time>
      </trkpt>
      <trkpt lat="48.3624" lon="-3.74733">
        <ele>234.194</ele>
        <time>2019-09-08T08:26:56 0200</time>
      </trkpt>
      <trkpt lat="48.3627" lon="-3.74737">
        <ele>233.753</ele>
        <time>2019-09-08T08:27:01 0200</time>
      </trkpt>
      <trkpt lat="48.3628" lon="-3.74743">
        <ele>235.037</ele>
        <time>2019-09-08T08:27:06 0200</time>
      </trkpt>
      <trkpt lat="48.3629" lon="-3.74771">
        <ele>236.066</ele>
        <time>2019-09-08T08:27:11 0200</time>
      </trkpt>
      <trkpt lat="48.3629" lon="-3.748">
        <ele>232.685</ele>
        <time>2019-09-08T08:27:16 0200</time>
      </trkpt>
      <trkpt lat="48.3629" lon="-3.74819">
        <ele>231.005</ele>
        <time>2019-09-08T08:27:22 0200</time>
      </trkpt>
      <trkpt lat="48.3629" lon="-3.74826">
        <ele>230.703</ele>
        <time>2019-09-08T08:27:27 0200</time>
      </trkpt>
      <trkpt lat="48.3628" lon="-3.74843">
        <ele>230.206</ele>
        <time>2019-09-08T08:27:32 0200</time>
      </trkpt>
      <trkpt lat="48.3628" lon="-3.74855">
        <ele>230.27</ele>
        <time>2019-09-08T08:27:37 0200</time>
      </trkpt>
      <trkpt lat="48.3627" lon="-3.74871">
        <ele>230.109</ele>
        <time>2019-09-08T08:27:42 0200</time>
      </trkpt>
      <trkpt lat="48.3626" lon="-3.74891">
        <ele>230.212</ele>
        <time>2019-09-08T08:27:47 0200</time>
      </trkpt>
      <trkpt lat="48.3625" lon="-3.74914">
        <ele>230.298</ele>
        <time>2019-09-08T08:27:52 0200</time>
      </trkpt>
      <trkpt lat="48.3624" lon="-3.74927">
        <ele>230.571</ele>
        <time>2019-09-08T08:27:57 0200</time>
      </trkpt>
      <trkpt lat="48.3623" lon="-3.74948">
        <ele>231.268</ele>
        <time>2019-09-08T08:28:02 0200</time>
      </trkpt>
      <trkpt lat="48.3622" lon="-3.74958">
        <ele>231.989</ele>
        <time>2019-09-08T08:28:09 0200</time>
      </trkpt>
      <trkpt lat="48.3621" lon="-3.74973">
        <ele>232.187</ele>
        <time>2019-09-08T08:28:14 0200</time>
      </trkpt>
      <trkpt lat="48.3621" lon="-3.74995">
        <ele>232.147</ele>
        <time>2019-09-08T08:28:19 0200</time>
      </trkpt>
      <trkpt lat="48.362" lon="-3.7501">
        <ele>232.059</ele>
        <time>2019-09-08T08:28:24 0200</time>
      </trkpt>
      <trkpt lat="48.362" lon="-3.75026">
        <ele>232.212</ele>
        <time>2019-09-08T08:28:29 0200</time>
      </trkpt>
      <trkpt lat="48.362" lon="-3.75043">
        <ele>233.081</ele>
        <time>2019-09-08T08:28:34 0200</time>
      </trkpt>
      <trkpt lat="48.362" lon="-3.75068">
        <ele>234.524</ele>
        <time>2019-09-08T08:28:39 0200</time>
      </trkpt>
      <trkpt lat="48.3619" lon="-3.75084">
        <ele>235.772</ele>
        <time>2019-09-08T08:28:44 0200</time>
      </trkpt>
      <trkpt lat="48.3619" lon="-3.75099">
        <ele>236.657</ele>
        <time>2019-09-08T08:28:49 0200</time>
      </trkpt>
      <trkpt lat="48.3618" lon="-3.7512">
        <ele>237.574</ele>
        <time>2019-09-08T08:28:54 0200</time>
      </trkpt>
      <trkpt lat="48.3618" lon="-3.75133">
        <ele>237.906</ele>
        <time>2019-09-08T08:28:59 0200</time>
      </trkpt>
      <trkpt lat="48.3617" lon="-3.75154">
        <ele>238.793</ele>
        <time>2019-09-08T08:29:04 0200</time>
      </trkpt>
      <trkpt lat="48.3616" lon="-3.75169">
        <ele>239.433</ele>
        <time>2019-09-08T08:29:09 0200</time>
      </trkpt>
      <trkpt lat="48.3615" lon="-3.75193">
        <ele>239.959</ele>
        <time>2019-09-08T08:29:14 0200</time>
      </trkpt>
      <trkpt lat="48.3615" lon="-3.75209">
        <ele>240.31</ele>
        <time>2019-09-08T08:29:19 0200</time>
      </trkpt>
      <trkpt lat="48.3614" lon="-3.75241">
        <ele>241.927</ele>
        <time>2019-09-08T08:29:24 0200</time>
      </trkpt>
      <trkpt lat="48.3613" lon="-3.75277">
        <ele>240.856</ele>
        <time>2019-09-08T08:29:29 0200</time>
      </trkpt>
      <trkpt lat="48.3612" lon="-3.75336">
        <ele>240.353</ele>
        <time>2019-09-08T08:29:34 0200</time>
      </trkpt>
      <trkpt lat="48.361" lon="-3.75382">
        <ele>239.012</ele>
        <time>2019-09-08T08:29:39 0200</time>
      </trkpt>
      <trkpt lat="48.3609" lon="-3.75429">
        <ele>234.345</ele>
        <time>2019-09-08T08:29:45 0200</time>
      </trkpt>
      <trkpt lat="48.3609" lon="-3.75467">
        <ele>230.294</ele>
        <time>2019-09-08T08:29:50 0200</time>
      </trkpt>
      <trkpt lat="48.3609" lon="-3.75484">
        <ele>229.037</ele>
        <time>2019-09-08T08:29:55 0200</time>
      </trkpt>
      <trkpt lat="48.361" lon="-3.75489">
        <ele>227.711</ele>
        <time>2019-09-08T08:30:00 0200</time>
      </trkpt>
      <trkpt lat="48.3611" lon="-3.75503">
        <ele>227.399</ele>
        <time>2019-09-08T08:30:05 0200</time>
      </trkpt>
      <trkpt lat="48.3611" lon="-3.75526">
        <ele>226.808</ele>
        <time>2019-09-08T08:30:10 0200</time>
      </trkpt>
      <trkpt lat="48.3611" lon="-3.7556">
        <ele>224.47</ele>
        <time>2019-09-08T08:30:15 0200</time>
      </trkpt>
      <trkpt lat="48.3611" lon="-3.75592">
        <ele>224.186</ele>
        <time>2019-09-08T08:30:20 0200</time>
      </trkpt>
      <trkpt lat="48.3611" lon="-3.75609">
        <ele>224.253</ele>
        <time>2019-09-08T08:30:25 0200</time>
      </trkpt>
      <trkpt lat="48.361" lon="-3.7564">
        <ele>223.67</ele>
        <time>2019-09-08T08:30:30 0200</time>
      </trkpt>
      <trkpt lat="48.3611" lon="-3.75658">
        <ele>223.505</ele>
        <time>2019-09-08T08:30:35 0200</time>
      </trkpt>
      <trkpt lat="48.361" lon="-3.75673">
        <ele>223.524</ele>
        <time>2019-09-08T08:30:41 0200</time>
      </trkpt>
      <trkpt lat="48.3607" lon="-3.75697">
        <ele>222.134</ele>
        <time>2019-09-08T08:30:46 0200</time>
      </trkpt>
      <trkpt lat="48.3605" lon="-3.75709">
        <ele>221.883</ele>
        <time>2019-09-08T08:30:51 0200</time>
      </trkpt>
      <trkpt lat="48.3604" lon="-3.75719">
        <ele>221.905</ele>
        <time>2019-09-08T08:30:56 0200</time>
      </trkpt>
      <trkpt lat="48.3602" lon="-3.75737">
        <ele>220.379</ele>
        <time>2019-09-08T08:31:01 0200</time>
      </trkpt>
      <trkpt lat="48.3601" lon="-3.75748">
        <ele>220.37</ele>
        <time>2019-09-08T08:31:06 0200</time>
      </trkpt>
      <trkpt lat="48.36" lon="-3.75776">
        <ele>219.796</ele>
        <time>2019-09-08T08:31:11 0200</time>
      </trkpt>
      <trkpt lat="48.3598" lon="-3.75795">
        <ele>217.585</ele>
        <time>2019-09-08T08:31:16 0200</time>
      </trkpt>
      <trkpt lat="48.3597" lon="-3.75804">
        <ele>217.51</ele>
        <time>2019-09-08T08:31:21 0200</time>
      </trkpt>
      <trkpt lat="48.3596" lon="-3.75819">
        <ele>217.834</ele>
        <time>2019-09-08T08:31:26 0200</time>
      </trkpt>
      <trkpt lat="48.3595" lon="-3.75834">
        <ele>218.138</ele>
        <time>2019-09-08T08:31:31 0200</time>
      </trkpt>
      <trkpt lat="48.3594" lon="-3.75849">
        <ele>218.872</ele>
        <time>2019-09-08T08:31:36 0200</time>
      </trkpt>
      <trkpt lat="48.3594" lon="-3.75849">
        <ele>218.872</ele>
        <time>2019-09-08T08:31:42 0200</time>
      </trkpt>
      <trkpt lat="48.3594" lon="-3.75871">
        <ele>219.691</ele>
        <time>2019-09-08T08:31:47 0200</time>
      </trkpt>
      <trkpt lat="48.3593" lon="-3.75905">
        <ele>219.799</ele>
        <time>2019-09-08T08:31:52 0200</time>
      </trkpt>
      <trkpt lat="48.3593" lon="-3.75924">
        <ele>219.755</ele>
        <time>2019-09-08T08:31:57 0200</time>
      </trkpt>
      <trkpt lat="48.3593" lon="-3.75951">
        <ele>220.074</ele>
        <time>2019-09-08T08:32:02 0200</time>
      </trkpt>
      <trkpt lat="48.3593" lon="-3.75971">
        <ele>220.429</ele>
        <time>2019-09-08T08:32:07 0200</time>
      </trkpt>
      <trkpt lat="48.3593" lon="-3.75992">
        <ele>220.726</ele>
        <time>2019-09-08T08:32:12 0200</time>
      </trkpt>
      <trkpt lat="48.3593" lon="-3.75999">
        <ele>220.792</ele>
        <time>2019-09-08T08:32:17 0200</time>
      </trkpt>
      <trkpt lat="48.3593" lon="-3.76043">
        <ele>220.337</ele>
        <time>2019-09-08T08:32:22 0200</time>
      </trkpt>
      <trkpt lat="48.3594" lon="-3.76069">
        <ele>221.47</ele>
        <time>2019-09-08T08:32:27 0200</time>
      </trkpt>
      <trkpt lat="48.3594" lon="-3.76095">
        <ele>221.96</ele>
        <time>2019-09-08T08:32:32 0200</time>
      </trkpt>
      <trkpt lat="48.3595" lon="-3.7611">
        <ele>221.954</ele>
        <time>2019-09-08T08:32:37 0200</time>
      </trkpt>
      <trkpt lat="48.3595" lon="-3.76119">
        <ele>221.946</ele>
        <time>2019-09-08T08:32:43 0200</time>
      </trkpt>
      <trkpt lat="48.3595" lon="-3.76119">
        <ele>221.946</ele>
        <time>2019-09-08T08:32:48 0200</time>
      </trkpt>
      <trkpt lat="48.3596" lon="-3.76128">
        <ele>222.564</ele>
        <time>2019-09-08T08:32:53 0200</time>
      </trkpt>
      <trkpt lat="48.3596" lon="-3.76132">
        <ele>222.743</ele>
        <time>2019-09-08T08:32:58 0200</time>
      </trkpt>
      <trkpt lat="48.3596" lon="-3.76132">
        <ele>222.743</ele>
        <time>2019-09-08T08:33:03 0200</time>
      </trkpt>
      <trkpt lat="48.3596" lon="-3.76132">
        <ele>222.743</ele>
        <time>2019-09-08T08:33:08 0200</time>
      </trkpt>
      <trkpt lat="48.3596" lon="-3.76132">
        <ele>222.743</ele>
        <time>2019-09-08T08:33:13 0200</time>
      </trkpt>
      <trkpt lat="48.3599" lon="-3.76143">
        <ele>225.679</ele>
        <time>2019-09-08T08:33:18 0200</time>
      </trkpt>
      <trkpt lat="48.36" lon="-3.76143">
        <ele>226.216</ele>
        <time>2019-09-08T08:33:23 0200</time>
      </trkpt>
      <trkpt lat="48.3601" lon="-3.76145">
        <ele>226.833</ele>
        <time>2019-09-08T08:33:28 0200</time>
      </trkpt>
      <trkpt lat="48.3602" lon="-3.76148">
        <ele>227.795</ele>
        <time>2019-09-08T08:33:34 0200</time>
      </trkpt>
      <trkpt lat="48.3603" lon="-3.76151">
        <ele>228.88</ele>
        <time>2019-09-08T08:33:39 0200</time>
      </trkpt>
      <trkpt lat="48.3603" lon="-3.76151">
        <ele>228.88</ele>
        <time>2019-09-08T08:33:44 0200</time>
      </trkpt>
      <trkpt lat="48.3604" lon="-3.76148">
        <ele>230.939</ele>
        <time>2019-09-08T08:33:49 0200</time>
      </trkpt>
      <trkpt lat="48.3604" lon="-3.76148">
        <ele>230.939</ele>
        <time>2019-09-08T08:33:54 0200</time>
      </trkpt>
      <trkpt lat="48.3604" lon="-3.76148">
        <ele>230.939</ele>
        <time>2019-09-08T08:33:59 0200</time>
      </trkpt>
      <trkpt lat="48.3604" lon="-3.76148">
        <ele>230.939</ele>
        <time>2019-09-08T08:34:04 0200</time>
      </trkpt>
      <trkpt lat="48.3604" lon="-3.76148">
        <ele>230.939</ele>
        <time>2019-09-08T08:34:09 0200</time>
      </trkpt>
      <trkpt lat="48.3608" lon="-3.76149">
        <ele>238.186</ele>
        <time>2019-09-08T08:34:14 0200</time>
      </trkpt>
      <trkpt lat="48.361" lon="-3.76145">
        <ele>240.088</ele>
        <time>2019-09-08T08:34:19 0200</time>
      </trkpt>
      <trkpt lat="48.3611" lon="-3.76139">
        <ele>241.182</ele>
        <time>2019-09-08T08:34:24 0200</time>
      </trkpt>
      <trkpt lat="48.3612" lon="-3.76131">
        <ele>241.852</ele>
        <time>2019-09-08T08:34:29 0200</time>
      </trkpt>
      <trkpt lat="48.3613" lon="-3.7613">
        <ele>242.23</ele>
        <time>2019-09-08T08:34:34 0200</time>
      </trkpt>
      <trkpt lat="48.3614" lon="-3.76125">
        <ele>242.811</ele>
        <time>2019-09-08T08:34:39 0200</time>
      </trkpt>
      <trkpt lat="48.3615" lon="-3.76121">
        <ele>243.093</ele>
        <time>2019-09-08T08:34:44 0200</time>
      </trkpt>
      <trkpt lat="48.3617" lon="-3.76102">
        <ele>242.981</ele>
        <time>2019-09-08T08:34:49 0200</time>
      </trkpt>
      <trkpt lat="48.3616" lon="-3.76093">
        <ele>242.8</ele>
        <time>2019-09-08T08:34:54 0200</time>
      </trkpt>
      <trkpt lat="48.3615" lon="-3.7607">
        <ele>242.707</ele>
        <time>2019-09-08T08:35:00 0200</time>
      </trkpt>
      <trkpt lat="48.3614" lon="-3.76051">
        <ele>243.05</ele>
        <time>2019-09-08T08:35:05 0200</time>
      </trkpt>
      <trkpt lat="48.3614" lon="-3.76018">
        <ele>242.91</ele>
        <time>2019-09-08T08:35:10 0200</time>
      </trkpt>
      <trkpt lat="48.3614" lon="-3.75997">
        <ele>242.438</ele>
        <time>2019-09-08T08:35:15 0200</time>
      </trkpt>
      <trkpt lat="48.3614" lon="-3.75965">
        <ele>243.032</ele>
        <time>2019-09-08T08:35:20 0200</time>
      </trkpt>
      <trkpt lat="48.3614" lon="-3.75942">
        <ele>242.909</ele>
        <time>2019-09-08T08:35:25 0200</time>
      </trkpt>
      <trkpt lat="48.3614" lon="-3.75905">
        <ele>246.503</ele>
        <time>2019-09-08T08:35:30 0200</time>
      </trkpt>
      <trkpt lat="48.3615" lon="-3.7586">
        <ele>243.1</ele>
        <time>2019-09-08T08:35:35 0200</time>
      </trkpt>
      <trkpt lat="48.3617" lon="-3.75832">
        <ele>240.008</ele>
        <time>2019-09-08T08:35:41 0200</time>
      </trkpt>
      <trkpt lat="48.3619" lon="-3.75809">
        <ele>238.418</ele>
        <time>2019-09-08T08:35:46 0200</time>
      </trkpt>
      <trkpt lat="48.3621" lon="-3.75791">
        <ele>237.09</ele>
        <time>2019-09-08T08:35:51 0200</time>
      </trkpt>
      <trkpt lat="48.3624" lon="-3.75772">
        <ele>235.645</ele>
        <time>2019-09-08T08:35:56 0200</time>
      </trkpt>
      <trkpt lat="48.3626" lon="-3.75748">
        <ele>236.381</ele>
        <time>2019-09-08T08:36:01 0200</time>
      </trkpt>
      <trkpt lat="48.3629" lon="-3.75724">
        <ele>237.759</ele>
        <time>2019-09-08T08:36:06 0200</time>
      </trkpt>
      <trkpt lat="48.3632" lon="-3.75696">
        <ele>233.279</ele>
        <time>2019-09-08T08:36:11 0200</time>
      </trkpt>
      <trkpt lat="48.3635" lon="-3.75672">
        <ele>229.407</ele>
        <time>2019-09-08T08:36:16 0200</time>
      </trkpt>
      <trkpt lat="48.3637" lon="-3.75652">
        <ele>228.811</ele>
        <time>2019-09-08T08:36:21 0200</time>
      </trkpt>
      <trkpt lat="48.364" lon="-3.75637">
        <ele>227.662</ele>
        <time>2019-09-08T08:36:26 0200</time>
      </trkpt>
      <trkpt lat="48.3642" lon="-3.75619">
        <ele>226.4</ele>
        <time>2019-09-08T08:36:31 0200</time>
      </trkpt>
      <trkpt lat="48.3644" lon="-3.75608">
        <ele>227.539</ele>
        <time>2019-09-08T08:36:36 0200</time>
      </trkpt>
      <trkpt lat="48.3646" lon="-3.75642">
        <ele>229.258</ele>
        <time>2019-09-08T08:36:42 0200</time>
      </trkpt>
      <trkpt lat="48.3648" lon="-3.75677">
        <ele>226.789</ele>
        <time>2019-09-08T08:36:47 0200</time>
      </trkpt>
      <trkpt lat="48.3649" lon="-3.75719">
        <ele>225.401</ele>
        <time>2019-09-08T08:36:52 0200</time>
      </trkpt>
      <trkpt lat="48.3651" lon="-3.75756">
        <ele>224.813</ele>
        <time>2019-09-08T08:36:57 0200</time>
      </trkpt>
      <trkpt lat="48.3652" lon="-3.75774">
        <ele>224.829</ele>
        <time>2019-09-08T08:37:02 0200</time>
      </trkpt>
      <trkpt lat="48.3654" lon="-3.75802">
        <ele>222.577</ele>
        <time>2019-09-08T08:37:07 0200</time>
      </trkpt>
      <trkpt lat="48.3654" lon="-3.75828">
        <ele>222.103</ele>
        <time>2019-09-08T08:37:12 0200</time>
      </trkpt>
      <trkpt lat="48.3655" lon="-3.75853">
        <ele>222.702</ele>
        <time>2019-09-08T08:37:17 0200</time>
      </trkpt>
      <trkpt lat="48.3656" lon="-3.75882">
        <ele>223.214</ele>
        <time>2019-09-08T08:37:22 0200</time>
      </trkpt>
      <trkpt lat="48.3656" lon="-3.75898">
        <ele>223.459</ele>
        <time>2019-09-08T08:37:27 0200</time>
      </trkpt>
      <trkpt lat="48.3657" lon="-3.75924">
        <ele>224.018</ele>
        <time>2019-09-08T08:37:32 0200</time>
      </trkpt>
      <trkpt lat="48.3657" lon="-3.75944">
        <ele>224.086</ele>
        <time>2019-09-08T08:37:37 0200</time>
      </trkpt>
      <trkpt lat="48.3657" lon="-3.7597">
        <ele>223.784</ele>
        <time>2019-09-08T08:37:42 0200</time>
      </trkpt>
      <trkpt lat="48.3658" lon="-3.75988">
        <ele>223.939</ele>
        <time>2019-09-08T08:37:47 0200</time>
      </trkpt>
      <trkpt lat="48.3658" lon="-3.76017">
        <ele>224.109</ele>
        <time>2019-09-08T08:37:53 0200</time>
      </trkpt>
      <trkpt lat="48.3658" lon="-3.7604">
        <ele>224.35</ele>
        <time>2019-09-08T08:37:58 0200</time>
      </trkpt>
      <trkpt lat="48.3658" lon="-3.7606">
        <ele>224.407</ele>
        <time>2019-09-08T08:38:03 0200</time>
      </trkpt>
      <trkpt lat="48.3657" lon="-3.76077">
        <ele>224.915</ele>
        <time>2019-09-08T08:38:08 0200</time>
      </trkpt>
      <trkpt lat="48.3656" lon="-3.76085">
        <ele>225.392</ele>
        <time>2019-09-08T08:38:13 0200</time>
      </trkpt>
      <trkpt lat="48.3656" lon="-3.76102">
        <ele>226.06</ele>
        <time>2019-09-08T08:38:18 0200</time>
      </trkpt>
      <trkpt lat="48.3655" lon="-3.76109">
        <ele>226.334</ele>
        <time>2019-09-08T08:38:23 0200</time>
      </trkpt>
      <trkpt lat="48.3655" lon="-3.76109">
        <ele>226.334</ele>
        <time>2019-09-08T08:38:28 0200</time>
      </trkpt>
      <trkpt lat="48.3654" lon="-3.76129">
        <ele>227.262</ele>
        <time>2019-09-08T08:38:33 0200</time>
      </trkpt>
      <trkpt lat="48.3653" lon="-3.76147">
        <ele>228.328</ele>
        <time>2019-09-08T08:38:38 0200</time>
      </trkpt>
      <trkpt lat="48.3652" lon="-3.76156">
        <ele>229.144</ele>
        <time>2019-09-08T08:38:43 0200</time>
      </trkpt>
      <trkpt lat="48.3651" lon="-3.7617">
        <ele>230.341</ele>
        <time>2019-09-08T08:38:48 0200</time>
      </trkpt>
      <trkpt lat="48.3651" lon="-3.7617">
        <ele>230.341</ele>
        <time>2019-09-08T08:38:53 0200</time>
      </trkpt>
      <trkpt lat="48.3651" lon="-3.7617">
        <ele>230.341</ele>
        <time>2019-09-08T08:38:59 0200</time>
      </trkpt>
      <trkpt lat="48.3649" lon="-3.7621">
        <ele>233.033</ele>
        <time>2019-09-08T08:39:04 0200</time>
      </trkpt>
      <trkpt lat="48.3648" lon="-3.76223">
        <ele>234.007</ele>
        <time>2019-09-08T08:39:09 0200</time>
      </trkpt>
      <trkpt lat="48.3647" lon="-3.76229">
        <ele>234.547</ele>
        <time>2019-09-08T08:39:14 0200</time>
      </trkpt>
      <trkpt lat="48.3646" lon="-3.76241">
        <ele>235.053</ele>
        <time>2019-09-08T08:39:19 0200</time>
      </trkpt>
      <trkpt lat="48.3646" lon="-3.76246">
        <ele>235.302</ele>
        <time>2019-09-08T08:39:24 0200</time>
      </trkpt>
      <trkpt lat="48.3645" lon="-3.76259">
        <ele>235.88</ele>
        <time>2019-09-08T08:39:29 0200</time>
      </trkpt>
      <trkpt lat="48.3644" lon="-3.76265">
        <ele>236.176</ele>
        <time>2019-09-08T08:39:34 0200</time>
      </trkpt>
      <trkpt lat="48.3643" lon="-3.76276">
        <ele>237.104</ele>
        <time>2019-09-08T08:39:39 0200</time>
      </trkpt>
      <trkpt lat="48.3642" lon="-3.76283">
        <ele>237.691</ele>
        <time>2019-09-08T08:39:44 0200</time>
      </trkpt>
      <trkpt lat="48.3642" lon="-3.76295">
        <ele>238.534</ele>
        <time>2019-09-08T08:39:49 0200</time>
      </trkpt>
      <trkpt lat="48.3641" lon="-3.76311">
        <ele>239.737</ele>
        <time>2019-09-08T08:39:54 0200</time>
      </trkpt>
      <trkpt lat="48.3639" lon="-3.76322">
        <ele>239.996</ele>
        <time>2019-09-08T08:40:00 0200</time>
      </trkpt>
      <trkpt lat="48.3639" lon="-3.76322">
        <ele>239.996</ele>
        <time>2019-09-08T08:40:05 0200</time>
      </trkpt>
      <trkpt lat="48.3639" lon="-3.76322">
        <ele>239.996</ele>
        <time>2019-09-08T08:40:10 0200</time>
      </trkpt>
      <trkpt lat="48.3639" lon="-3.76322">
        <ele>239.996</ele>
        <time>2019-09-08T08:40:15 0200</time>
      </trkpt>
      <trkpt lat="48.3639" lon="-3.76322">
        <ele>239.996</ele>
        <time>2019-09-08T08:40:20 0200</time>
      </trkpt>
      <trkpt lat="48.3641" lon="-3.76362">
        <ele>240.981</ele>
        <time>2019-09-08T08:40:25 0200</time>
      </trkpt>
      <trkpt lat="48.3642" lon="-3.76372">
        <ele>241.544</ele>
        <time>2019-09-08T08:40:30 0200</time>
      </trkpt>
      <trkpt lat="48.3644" lon="-3.76394">
        <ele>244.219</ele>
        <time>2019-09-08T08:40:35 0200</time>
      </trkpt>
      <trkpt lat="48.3646" lon="-3.76421">
        <ele>243.744</ele>
        <time>2019-09-08T08:40:40 0200</time>
      </trkpt>
      <trkpt lat="48.3649" lon="-3.76441">
        <ele>244.542</ele>
        <time>2019-09-08T08:40:45 0200</time>
      </trkpt>
      <trkpt lat="48.3652" lon="-3.76462">
        <ele>246.527</ele>
        <time>2019-09-08T08:40:50 0200</time>
      </trkpt>
      <trkpt lat="48.3655" lon="-3.76485">
        <ele>246.283</ele>
        <time>2019-09-08T08:40:55 0200</time>
      </trkpt>
      <trkpt lat="48.3658" lon="-3.76527">
        <ele>242.206</ele>
        <time>2019-09-08T08:41:01 0200</time>
      </trkpt>
      <trkpt lat="48.366" lon="-3.76562">
        <ele>241.704</ele>
        <time>2019-09-08T08:41:06 0200</time>
      </trkpt>
      <trkpt lat="48.3661" lon="-3.76597">
        <ele>243.229</ele>
        <time>2019-09-08T08:41:11 0200</time>
      </trkpt>
      <trkpt lat="48.3661" lon="-3.76629">
        <ele>244.759</ele>
        <time>2019-09-08T08:41:16 0200</time>
      </trkpt>
      <trkpt lat="48.3661" lon="-3.76664">
        <ele>245.998</ele>
        <time>2019-09-08T08:41:21 0200</time>
      </trkpt>
      <trkpt lat="48.3661" lon="-3.767">
        <ele>246.502</ele>
        <time>2019-09-08T08:41:26 0200</time>
      </trkpt>
      <trkpt lat="48.3661" lon="-3.76737">
        <ele>245.443</ele>
        <time>2019-09-08T08:41:31 0200</time>
      </trkpt>
      <trkpt lat="48.3661" lon="-3.76788">
        <ele>246.882</ele>
        <time>2019-09-08T08:41:36 0200</time>
      </trkpt>
      <trkpt lat="48.366" lon="-3.76827">
        <ele>245.853</ele>
        <time>2019-09-08T08:41:41 0200</time>
      </trkpt>
      <trkpt lat="48.366" lon="-3.76845">
        <ele>245.543</ele>
        <time>2019-09-08T08:41:46 0200</time>
      </trkpt>
      <trkpt lat="48.366" lon="-3.76879">
        <ele>245.132</ele>
        <time>2019-09-08T08:41:51 0200</time>
      </trkpt>
      <trkpt lat="48.366" lon="-3.76908">
        <ele>244.279</ele>
        <time>2019-09-08T08:41:56 0200</time>
      </trkpt>
      <trkpt lat="48.366" lon="-3.7693">
        <ele>244.186</ele>
        <time>2019-09-08T08:42:01 0200</time>
      </trkpt>
      <trkpt lat="48.366" lon="-3.7693">
        <ele>244.186</ele>
        <time>2019-09-08T08:42:07 0200</time>
      </trkpt>
      <trkpt lat="48.366" lon="-3.7693">
        <ele>244.186</ele>
        <time>2019-09-08T08:42:12 0200</time>
      </trkpt>
      <trkpt lat="48.366" lon="-3.7699">
        <ele>243.26</ele>
        <time>2019-09-08T08:42:17 0200</time>
      </trkpt>
      <trkpt lat="48.366" lon="-3.77006">
        <ele>244.032</ele>
        <time>2019-09-08T08:42:22 0200</time>
      </trkpt>
      <trkpt lat="48.366" lon="-3.77014">
        <ele>244.59</ele>
        <time>2019-09-08T08:42:27 0200</time>
      </trkpt>
      <trkpt lat="48.3661" lon="-3.77048">
        <ele>245.537</ele>
        <time>2019-09-08T08:42:32 0200</time>
      </trkpt>
      <trkpt lat="48.3662" lon="-3.7708">
        <ele>246.127</ele>
        <time>2019-09-08T08:42:37 0200</time>
      </trkpt>
      <trkpt lat="48.3662" lon="-3.77096">
        <ele>246.517</ele>
        <time>2019-09-08T08:42:42 0200</time>
      </trkpt>
      <trkpt lat="48.3663" lon="-3.77122">
        <ele>246.889</ele>
        <time>2019-09-08T08:42:47 0200</time>
      </trkpt>
      <trkpt lat="48.3664" lon="-3.77155">
        <ele>246.917</ele>
        <time>2019-09-08T08:42:52 0200</time>
      </trkpt>
      <trkpt lat="48.3664" lon="-3.77175">
        <ele>246.764</ele>
        <time>2019-09-08T08:42:57 0200</time>
      </trkpt>
      <trkpt lat="48.3665" lon="-3.77205">
        <ele>246.595</ele>
        <time>2019-09-08T08:43:02 0200</time>
      </trkpt>
      <trkpt lat="48.3667" lon="-3.77233">
        <ele>245.24</ele>
        <time>2019-09-08T08:43:07 0200</time>
      </trkpt>
      <trkpt lat="48.3668" lon="-3.77254">
        <ele>245.103</ele>
        <time>2019-09-08T08:43:13 0200</time>
      </trkpt>
      <trkpt lat="48.3669" lon="-3.77263">
        <ele>245.243</ele>
        <time>2019-09-08T08:43:18 0200</time>
      </trkpt>
      <trkpt lat="48.3672" lon="-3.77283">
        <ele>246.726</ele>
        <time>2019-09-08T08:43:23 0200</time>
      </trkpt>
      <trkpt lat="48.3673" lon="-3.77307">
        <ele>246.289</ele>
        <time>2019-09-08T08:43:28 0200</time>
      </trkpt>
      <trkpt lat="48.3676" lon="-3.77333">
        <ele>246.028</ele>
        <time>2019-09-08T08:43:33 0200</time>
      </trkpt>
      <trkpt lat="48.3677" lon="-3.77352">
        <ele>245.71</ele>
        <time>2019-09-08T08:43:38 0200</time>
      </trkpt>
      <trkpt lat="48.3679" lon="-3.77369">
        <ele>244.948</ele>
        <time>2019-09-08T08:43:43 0200</time>
      </trkpt>
      <trkpt lat="48.368" lon="-3.77392">
        <ele>244.945</ele>
        <time>2019-09-08T08:43:48 0200</time>
      </trkpt>
      <trkpt lat="48.3681" lon="-3.77423">
        <ele>244.741</ele>
        <time>2019-09-08T08:43:53 0200</time>
      </trkpt>
      <trkpt lat="48.3681" lon="-3.77454">
        <ele>245.178</ele>
        <time>2019-09-08T08:43:58 0200</time>
      </trkpt>
      <trkpt lat="48.3681" lon="-3.77486">
        <ele>245.834</ele>
        <time>2019-09-08T08:44:03 0200</time>
      </trkpt>
      <trkpt lat="48.3681" lon="-3.7751">
        <ele>244.882</ele>
        <time>2019-09-08T08:44:08 0200</time>
      </trkpt>
      <trkpt lat="48.3681" lon="-3.77545">
        <ele>244.012</ele>
        <time>2019-09-08T08:44:13 0200</time>
      </trkpt>
      <trkpt lat="48.3682" lon="-3.77566">
        <ele>243.073</ele>
        <time>2019-09-08T08:44:18 0200</time>
      </trkpt>
      <trkpt lat="48.3682" lon="-3.77598">
        <ele>243.961</ele>
        <time>2019-09-08T08:44:23 0200</time>
      </trkpt>
      <trkpt lat="48.3683" lon="-3.7763">
        <ele>244.375</ele>
        <time>2019-09-08T08:44:29 0200</time>
      </trkpt>
      <trkpt lat="48.3683" lon="-3.77659">
        <ele>246.5</ele>
        <time>2019-09-08T08:44:34 0200</time>
      </trkpt>
      <trkpt lat="48.3683" lon="-3.77689">
        <ele>247.536</ele>
        <time>2019-09-08T08:44:39 0200</time>
      </trkpt>
      <trkpt lat="48.3684" lon="-3.77729">
        <ele>249.081</ele>
        <time>2019-09-08T08:44:44 0200</time>
      </trkpt>
      <trkpt lat="48.3684" lon="-3.77765">
        <ele>247.158</ele>
        <time>2019-09-08T08:44:49 0200</time>
      </trkpt>
      <trkpt lat="48.3685" lon="-3.77798">
        <ele>245.066</ele>
        <time>2019-09-08T08:44:54 0200</time>
      </trkpt>
      <trkpt lat="48.3685" lon="-3.77819">
        <ele>244.874</ele>
        <time>2019-09-08T08:44:59 0200</time>
      </trkpt>
      <trkpt lat="48.3685" lon="-3.77851">
        <ele>244.177</ele>
        <time>2019-09-08T08:45:04 0200</time>
      </trkpt>
      <trkpt lat="48.3686" lon="-3.77873">
        <ele>243.899</ele>
        <time>2019-09-08T08:45:09 0200</time>
      </trkpt>
      <trkpt lat="48.3686" lon="-3.77906">
        <ele>245.903</ele>
        <time>2019-09-08T08:45:14 0200</time>
      </trkpt>
      <trkpt lat="48.3687" lon="-3.77948">
        <ele>246.958</ele>
        <time>2019-09-08T08:45:19 0200</time>
      </trkpt>
      <trkpt lat="48.3687" lon="-3.77968">
        <ele>247.13</ele>
        <time>2019-09-08T08:45:25 0200</time>
      </trkpt>
      <trkpt lat="48.3688" lon="-3.77995">
        <ele>247.366</ele>
        <time>2019-09-08T08:45:30 0200</time>
      </trkpt>
      <trkpt lat="48.3688" lon="-3.78015">
        <ele>247.275</ele>
        <time>2019-09-08T08:45:35 0200</time>
      </trkpt>
      <trkpt lat="48.3688" lon="-3.78045">
        <ele>248.034</ele>
        <time>2019-09-08T08:45:40 0200</time>
      </trkpt>
      <trkpt lat="48.3688" lon="-3.78063">
        <ele>248.309</ele>
        <time>2019-09-08T08:45:45 0200</time>
      </trkpt>
      <trkpt lat="48.3689" lon="-3.78092">
        <ele>248.215</ele>
        <time>2019-09-08T08:45:50 0200</time>
      </trkpt>
      <trkpt lat="48.3689" lon="-3.7811">
        <ele>248.337</ele>
        <time>2019-09-08T08:45:55 0200</time>
      </trkpt>
      <trkpt lat="48.3689" lon="-3.78117">
        <ele>248.604</ele>
        <time>2019-09-08T08:46:00 0200</time>
      </trkpt>
      <trkpt lat="48.369" lon="-3.78135">
        <ele>249.295</ele>
        <time>2019-09-08T08:46:05 0200</time>
      </trkpt>
      <trkpt lat="48.3691" lon="-3.78146">
        <ele>250.315</ele>
        <time>2019-09-08T08:46:10 0200</time>
      </trkpt>
      <trkpt lat="48.3691" lon="-3.78155">
        <ele>251.386</ele>
        <time>2019-09-08T08:46:15 0200</time>
      </trkpt>
      <trkpt lat="48.3692" lon="-3.78171">
        <ele>252.725</ele>
        <time>2019-09-08T08:46:20 0200</time>
      </trkpt>
      <trkpt lat="48.3693" lon="-3.78185">
        <ele>253.991</ele>
        <time>2019-09-08T08:46:25 0200</time>
      </trkpt>
      <trkpt lat="48.3694" lon="-3.78214">
        <ele>255.343</ele>
        <time>2019-09-08T08:46:31 0200</time>
      </trkpt>
      <trkpt lat="48.3694" lon="-3.78235">
        <ele>256.449</ele>
        <time>2019-09-08T08:46:36 0200</time>
      </trkpt>
      <trkpt lat="48.3695" lon="-3.78265">
        <ele>257.688</ele>
        <time>2019-09-08T08:46:41 0200</time>
      </trkpt>
      <trkpt lat="48.3695" lon="-3.78285">
        <ele>258.068</ele>
        <time>2019-09-08T08:46:46 0200</time>
      </trkpt>
      <trkpt lat="48.3695" lon="-3.7832">
        <ele>257.671</ele>
        <time>2019-09-08T08:46:51 0200</time>
      </trkpt>
      <trkpt lat="48.3695" lon="-3.7834">
        <ele>257.266</ele>
        <time>2019-09-08T08:46:56 0200</time>
      </trkpt>
      <trkpt lat="48.3695" lon="-3.78358">
        <ele>256.787</ele>
        <time>2019-09-08T08:47:01 0200</time>
      </trkpt>
      <trkpt lat="48.3695" lon="-3.78389">
        <ele>256.844</ele>
        <time>2019-09-08T08:47:06 0200</time>
      </trkpt>
      <trkpt lat="48.3695" lon="-3.7841">
        <ele>257.266</ele>
        <time>2019-09-08T08:47:11 0200</time>
      </trkpt>
      <trkpt lat="48.3695" lon="-3.78433">
        <ele>257.465</ele>
        <time>2019-09-08T08:47:16 0200</time>
      </trkpt>
      <trkpt lat="48.3695" lon="-3.78459">
        <ele>258.19</ele>
        <time>2019-09-08T08:47:21 0200</time>
      </trkpt>
      <trkpt lat="48.3695" lon="-3.78476">
        <ele>258.798</ele>
        <time>2019-09-08T08:47:26 0200</time>
      </trkpt>
      <trkpt lat="48.3696" lon="-3.78495">
        <ele>259.158</ele>
        <time>2019-09-08T08:47:31 0200</time>
      </trkpt>
      <trkpt lat="48.3696" lon="-3.78529">
        <ele>259.102</ele>
        <time>2019-09-08T08:47:36 0200</time>
      </trkpt>
      <trkpt lat="48.3697" lon="-3.7856">
        <ele>259.317</ele>
        <time>2019-09-08T08:47:41 0200</time>
      </trkpt>
      <trkpt lat="48.3698" lon="-3.78577">
        <ele>259.413</ele>
        <time>2019-09-08T08:47:46 0200</time>
      </trkpt>
      <trkpt lat="48.3698" lon="-3.78608">
        <ele>258.862</ele>
        <time>2019-09-08T08:47:51 0200</time>
      </trkpt>
      <trkpt lat="48.3699" lon="-3.78629">
        <ele>258.807</ele>
        <time>2019-09-08T08:47:56 0200</time>
      </trkpt>
      <trkpt lat="48.3699" lon="-3.78644">
        <ele>259.005</ele>
        <time>2019-09-08T08:48:01 0200</time>
      </trkpt>
      <trkpt lat="48.3699" lon="-3.78668">
        <ele>259.832</ele>
        <time>2019-09-08T08:48:07 0200</time>
      </trkpt>
      <trkpt lat="48.3701" lon="-3.78695">
        <ele>262.834</ele>
        <time>2019-09-08T08:48:12 0200</time>
      </trkpt>
      <trkpt lat="48.3702" lon="-3.78721">
        <ele>263.214</ele>
        <time>2019-09-08T08:48:17 0200</time>
      </trkpt>
      <trkpt lat="48.3703" lon="-3.78741">
        <ele>263.254</ele>
        <time>2019-09-08T08:48:22 0200</time>
      </trkpt>
      <trkpt lat="48.3704" lon="-3.78762">
        <ele>262.927</ele>
        <time>2019-09-08T08:48:27 0200</time>
      </trkpt>
      <trkpt lat="48.3706" lon="-3.78782">
        <ele>263.034</ele>
        <time>2019-09-08T08:48:32 0200</time>
      </trkpt>
      <trkpt lat="48.3706" lon="-3.78795">
        <ele>263.265</ele>
        <time>2019-09-08T08:48:37 0200</time>
      </trkpt>
      <trkpt lat="48.3706" lon="-3.7882">
        <ele>263.957</ele>
        <time>2019-09-08T08:48:42 0200</time>
      </trkpt>
      <trkpt lat="48.3704" lon="-3.78834">
        <ele>262.287</ele>
        <time>2019-09-08T08:48:47 0200</time>
      </trkpt>
      <trkpt lat="48.3701" lon="-3.78848">
        <ele>262.288</ele>
        <time>2019-09-08T08:48:52 0200</time>
      </trkpt>
      <trkpt lat="48.3697" lon="-3.78867">
        <ele>262.405</ele>
        <time>2019-09-08T08:48:57 0200</time>
      </trkpt>
      <trkpt lat="48.3692" lon="-3.78898">
        <ele>260.45</ele>
        <time>2019-09-08T08:49:02 0200</time>
      </trkpt>
      <trkpt lat="48.3685" lon="-3.78928">
        <ele>252.084</ele>
        <time>2019-09-08T08:49:07 0200</time>
      </trkpt>
      <trkpt lat="48.3681" lon="-3.78959">
        <ele>244.279</ele>
        <time>2019-09-08T08:49:13 0200</time>
      </trkpt>
      <trkpt lat="48.368" lon="-3.79004">
        <ele>237.963</ele>
        <time>2019-09-08T08:49:18 0200</time>
      </trkpt>
      <trkpt lat="48.3679" lon="-3.79058">
        <ele>234.16</ele>
        <time>2019-09-08T08:49:23 0200</time>
      </trkpt>
      <trkpt lat="48.3678" lon="-3.79072">
        <ele>234.29</ele>
        <time>2019-09-08T08:49:28 0200</time>
      </trkpt>
      <trkpt lat="48.3677" lon="-3.7908">
        <ele>234.144</ele>
        <time>2019-09-08T08:49:33 0200</time>
      </trkpt>
      <trkpt lat="48.3676" lon="-3.79073">
        <ele>234.091</ele>
        <time>2019-09-08T08:49:38 0200</time>
      </trkpt>
      <trkpt lat="48.3674" lon="-3.79056">
        <ele>233.883</ele>
        <time>2019-09-08T08:49:43 0200</time>
      </trkpt>
      <trkpt lat="48.3673" lon="-3.79044">
        <ele>233.745</ele>
        <time>2019-09-08T08:49:48 0200</time>
      </trkpt>
      <trkpt lat="48.3672" lon="-3.79032">
        <ele>233.993</ele>
        <time>2019-09-08T08:49:53 0200</time>
      </trkpt>
      <trkpt lat="48.3671" lon="-3.78999">
        <ele>234.778</ele>
        <time>2019-09-08T08:49:58 0200</time>
      </trkpt>
      <trkpt lat="48.367" lon="-3.78982">
        <ele>234.933</ele>
        <time>2019-09-08T08:50:03 0200</time>
      </trkpt>
      <trkpt lat="48.367" lon="-3.78982">
        <ele>234.933</ele>
        <time>2019-09-08T08:50:08 0200</time>
      </trkpt>
      <trkpt lat="48.367" lon="-3.78982">
        <ele>234.933</ele>
        <time>2019-09-08T08:50:13 0200</time>
      </trkpt>
      <trkpt lat="48.3671" lon="-3.79018">
        <ele>234.463</ele>
        <time>2019-09-08T08:50:18 0200</time>
      </trkpt>
      <trkpt lat="48.3671" lon="-3.79027">
        <ele>235.027</ele>
        <time>2019-09-08T08:50:23 0200</time>
      </trkpt>
      <trkpt lat="48.367" lon="-3.79034">
        <ele>236.502</ele>
        <time>2019-09-08T08:50:28 0200</time>
      </trkpt>
      <trkpt lat="48.3668" lon="-3.79032">
        <ele>237.995</ele>
        <time>2019-09-08T08:50:34 0200</time>
      </trkpt>
      <trkpt lat="48.3668" lon="-3.79032">
        <ele>237.995</ele>
        <time>2019-09-08T08:50:39 0200</time>
      </trkpt>
      <trkpt lat="48.3667" lon="-3.79027">
        <ele>240.738</ele>
        <time>2019-09-08T08:50:44 0200</time>
      </trkpt>
      <trkpt lat="48.3666" lon="-3.79023">
        <ele>241.455</ele>
        <time>2019-09-08T08:50:49 0200</time>
      </trkpt>
      <trkpt lat="48.3664" lon="-3.79019">
        <ele>242.671</ele>
        <time>2019-09-08T08:50:54 0200</time>
      </trkpt>
      <trkpt lat="48.3664" lon="-3.7901">
        <ele>243.674</ele>
        <time>2019-09-08T08:50:58 0200</time>
      </trkpt>
      <trkpt lat="48.3663" lon="-3.78996">
        <ele>244.934</ele>
        <time>2019-09-08T08:51:03 0200</time>
      </trkpt>
      <trkpt lat="48.3662" lon="-3.78991">
        <ele>245.389</ele>
        <time>2019-09-08T08:51:08 0200</time>
      </trkpt>
      <trkpt lat="48.3662" lon="-3.78981">
        <ele>246.68</ele>
        <time>2019-09-08T08:51:13 0200</time>
      </trkpt>
      <trkpt lat="48.3661" lon="-3.78975">
        <ele>246.979</ele>
        <time>2019-09-08T08:51:18 0200</time>
      </trkpt>
      <trkpt lat="48.3661" lon="-3.7896">
        <ele>247.613</ele>
        <time>2019-09-08T08:51:23 0200</time>
      </trkpt>
      <trkpt lat="48.3661" lon="-3.78953">
        <ele>248.046</ele>
        <time>2019-09-08T08:51:28 0200</time>
      </trkpt>
      <trkpt lat="48.3661" lon="-3.78953">
        <ele>248.046</ele>
        <time>2019-09-08T08:51:34 0200</time>
      </trkpt>
      <trkpt lat="48.366" lon="-3.78942">
        <ele>248.528</ele>
        <time>2019-09-08T08:51:39 0200</time>
      </trkpt>
      <trkpt lat="48.366" lon="-3.78936">
        <ele>248.879</ele>
        <time>2019-09-08T08:51:44 0200</time>
      </trkpt>
      <trkpt lat="48.366" lon="-3.78927">
        <ele>249.983</ele>
        <time>2019-09-08T08:51:49 0200</time>
      </trkpt>
      <trkpt lat="48.3659" lon="-3.78919">
        <ele>250.668</ele>
        <time>2019-09-08T08:51:54 0200</time>
      </trkpt>
      <trkpt lat="48.3659" lon="-3.78919">
        <ele>250.668</ele>
        <time>2019-09-08T08:51:59 0200</time>
      </trkpt>
      <trkpt lat="48.3659" lon="-3.78919">
        <ele>250.668</ele>
        <time>2019-09-08T08:52:04 0200</time>
      </trkpt>
      <trkpt lat="48.3659" lon="-3.78919">
        <ele>250.668</ele>
        <time>2019-09-08T08:52:09 0200</time>
      </trkpt>
      <trkpt lat="48.3658" lon="-3.78893">
        <ele>258.146</ele>
        <time>2019-09-08T08:52:14 0200</time>
      </trkpt>
      <trkpt lat="48.3659" lon="-3.78877">
        <ele>260.074</ele>
        <time>2019-09-08T08:52:19 0200</time>
      </trkpt>
      <trkpt lat="48.3659" lon="-3.78877">
        <ele>260.074</ele>
        <time>2019-09-08T08:52:24 0200</time>
      </trkpt>
      <trkpt lat="48.3658" lon="-3.78862">
        <ele>263.917</ele>
        <time>2019-09-08T08:52:29 0200</time>
      </trkpt>
      <trkpt lat="48.3658" lon="-3.78862">
        <ele>263.917</ele>
        <time>2019-09-08T08:52:34 0200</time>
      </trkpt>
      <trkpt lat="48.3658" lon="-3.78844">
        <ele>267.07</ele>
        <time>2019-09-08T08:52:39 0200</time>
      </trkpt>
      <trkpt lat="48.3658" lon="-3.78844">
        <ele>267.07</ele>
        <time>2019-09-08T08:52:44 0200</time>
      </trkpt>
      <trkpt lat="48.3658" lon="-3.78844">
        <ele>267.07</ele>
        <time>2019-09-08T08:52:49 0200</time>
      </trkpt>
      <trkpt lat="48.3658" lon="-3.78844">
        <ele>267.07</ele>
        <time>2019-09-08T08:52:54 0200</time>
      </trkpt>
      <trkpt lat="48.3658" lon="-3.78844">
        <ele>267.07</ele>
        <time>2019-09-08T08:53:00 0200</time>
      </trkpt>
      <trkpt lat="48.3658" lon="-3.78844">
        <ele>267.07</ele>
        <time>2019-09-08T08:53:05 0200</time>
      </trkpt>
      <trkpt lat="48.3657" lon="-3.78808">
        <ele>275.596</ele>
        <time>2019-09-08T08:53:10 0200</time>
      </trkpt>
      <trkpt lat="48.3656" lon="-3.78806">
        <ele>276.687</ele>
        <time>2019-09-08T08:53:15 0200</time>
      </trkpt>
      <trkpt lat="48.3656" lon="-3.78806">
        <ele>276.687</ele>
        <time>2019-09-08T08:53:20 0200</time>
      </trkpt>
      <trkpt lat="48.3656" lon="-3.78807">
        <ele>278.039</ele>
        <time>2019-09-08T08:53:25 0200</time>
      </trkpt>
      <trkpt lat="48.3655" lon="-3.78802">
        <ele>279.328</ele>
        <time>2019-09-08T08:53:30 0200</time>
      </trkpt>
      <trkpt lat="48.3654" lon="-3.788">
        <ele>280.369</ele>
        <time>2019-09-08T08:53:35 0200</time>
      </trkpt>
      <trkpt lat="48.3654" lon="-3.78796">
        <ele>280.918</ele>
        <time>2019-09-08T08:53:40 0200</time>
      </trkpt>
      <trkpt lat="48.3654" lon="-3.78796">
        <ele>280.918</ele>
        <time>2019-09-08T08:53:45 0200</time>
      </trkpt>
      <trkpt lat="48.3654" lon="-3.78796">
        <ele>280.918</ele>
        <time>2019-09-08T08:53:50 0200</time>
      </trkpt>
      <trkpt lat="48.3651" lon="-3.78774">
        <ele>285.228</ele>
        <time>2019-09-08T08:53:55 0200</time>
      </trkpt>
      <trkpt lat="48.3651" lon="-3.7877">
        <ele>285.866</ele>
        <time>2019-09-08T08:54:00 0200</time>
      </trkpt>
      <trkpt lat="48.365" lon="-3.78763">
        <ele>286.213</ele>
        <time>2019-09-08T08:54:05 0200</time>
      </trkpt>
      <trkpt lat="48.3649" lon="-3.78756">
        <ele>287.179</ele>
        <time>2019-09-08T08:54:10 0200</time>
      </trkpt>
      <trkpt lat="48.3649" lon="-3.78756">
        <ele>287.179</ele>
        <time>2019-09-08T08:54:15 0200</time>
      </trkpt>
      <trkpt lat="48.3649" lon="-3.78756">
        <ele>287.179</ele>
        <time>2019-09-08T08:54:20 0200</time>
      </trkpt>
      <trkpt lat="48.3649" lon="-3.78756">
        <ele>287.179</ele>
        <time>2019-09-08T08:54:25 0200</time>
      </trkpt>
      <trkpt lat="48.3648" lon="-3.78748">
        <ele>288.966</ele>
        <time>2019-09-08T08:54:30 0200</time>
      </trkpt>
      <trkpt lat="48.3648" lon="-3.78748">
        <ele>288.966</ele>
        <time>2019-09-08T08:54:36 0200</time>
      </trkpt>
      <trkpt lat="48.3647" lon="-3.78745">
        <ele>290.09</ele>
        <time>2019-09-08T08:54:41 0200</time>
      </trkpt>
      <trkpt lat="48.3647" lon="-3.78745">
        <ele>290.09</ele>
        <time>2019-09-08T08:54:46 0200</time>
      </trkpt>
      <trkpt lat="48.3647" lon="-3.78745">
        <ele>290.09</ele>
        <time>2019-09-08T08:54:51 0200</time>
      </trkpt>
      <trkpt lat="48.3647" lon="-3.78745">
        <ele>290.09</ele>
        <time>2019-09-08T08:54:56 0200</time>
      </trkpt>
      <trkpt lat="48.3647" lon="-3.78745">
        <ele>290.09</ele>
        <time>2019-09-08T08:55:01 0200</time>
      </trkpt>
      <trkpt lat="48.3647" lon="-3.78745">
        <ele>290.09</ele>
        <time>2019-09-08T08:55:06 0200</time>
      </trkpt>
      <trkpt lat="48.3647" lon="-3.78745">
        <ele>290.09</ele>
        <time>2019-09-08T08:55:11 0200</time>
      </trkpt>
      <trkpt lat="48.3646" lon="-3.78729">
        <ele>292.043</ele>
        <time>2019-09-08T08:55:16 0200</time>
      </trkpt>
      <trkpt lat="48.3646" lon="-3.78729">
        <ele>292.043</ele>
        <time>2019-09-08T08:55:21 0200</time>
      </trkpt>
      <trkpt lat="48.3645" lon="-3.78725">
        <ele>292.409</ele>
        <time>2019-09-08T08:55:26 0200</time>
      </trkpt>
      <trkpt lat="48.3645" lon="-3.78725">
        <ele>292.409</ele>
        <time>2019-09-08T08:55:31 0200</time>
      </trkpt>
      <trkpt lat="48.3644" lon="-3.78718">
        <ele>295.447</ele>
        <time>2019-09-08T08:55:36 0200</time>
      </trkpt>
      <trkpt lat="48.3644" lon="-3.78714">
        <ele>296.364</ele>
        <time>2019-09-08T08:55:41 0200</time>
      </trkpt>
      <trkpt lat="48.3644" lon="-3.78714">
        <ele>296.364</ele>
        <time>2019-09-08T08:55:46 0200</time>
      </trkpt>
      <trkpt lat="48.3643" lon="-3.78706">
        <ele>299.88</ele>
        <time>2019-09-08T08:55:51 0200</time>
      </trkpt>
      <trkpt lat="48.3642" lon="-3.78697">
        <ele>300.592</ele>
        <time>2019-09-08T08:55:56 0200</time>
      </trkpt>
      <trkpt lat="48.3642" lon="-3.78694">
        <ele>300.908</ele>
        <time>2019-09-08T08:56:01 0200</time>
      </trkpt>
      <trkpt lat="48.3642" lon="-3.78694">
        <ele>300.908</ele>
        <time>2019-09-08T08:56:06 0200</time>
      </trkpt>
      <trkpt lat="48.3642" lon="-3.78694">
        <ele>300.908</ele>
        <time>2019-09-08T08:56:12 0200</time>
      </trkpt>
      <trkpt lat="48.3642" lon="-3.78694">
        <ele>300.908</ele>
        <time>2019-09-08T08:56:17 0200</time>
      </trkpt>
      <trkpt lat="48.3642" lon="-3.78694">
        <ele>300.908</ele>
        <time>2019-09-08T08:56:22 0200</time>
      </trkpt>
      <trkpt lat="48.3642" lon="-3.78694">
        <ele>300.908</ele>
        <time>2019-09-08T08:56:27 0200</time>
      </trkpt>
      <trkpt lat="48.364" lon="-3.78702">
        <ele>300.958</ele>
        <time>2019-09-08T08:56:32 0200</time>
      </trkpt>
      <trkpt lat="48.3639" lon="-3.78721">
        <ele>300.783</ele>
        <time>2019-09-08T08:56:37 0200</time>
      </trkpt>
      <trkpt lat="48.3639" lon="-3.7873">
        <ele>300.922</ele>
        <time>2019-09-08T08:56:42 0200</time>
      </trkpt>
      <trkpt lat="48.3639" lon="-3.78738">
        <ele>301.317</ele>
        <time>2019-09-08T08:56:47 0200</time>
      </trkpt>
      <trkpt lat="48.3638" lon="-3.7874">
        <ele>303.09</ele>
        <time>2019-09-08T08:56:52 0200</time>
      </trkpt>
      <trkpt lat="48.3637" lon="-3.78739">
        <ele>304.135</ele>
        <time>2019-09-08T08:56:57 0200</time>
      </trkpt>
      <trkpt lat="48.3636" lon="-3.78738">
        <ele>304.919</ele>
        <time>2019-09-08T08:57:02 0200</time>
      </trkpt>
      <trkpt lat="48.3636" lon="-3.78738">
        <ele>304.919</ele>
        <time>2019-09-08T08:57:07 0200</time>
      </trkpt>
      <trkpt lat="48.3634" lon="-3.78742">
        <ele>308.86</ele>
        <time>2019-09-08T08:57:12 0200</time>
      </trkpt>
      <trkpt lat="48.3634" lon="-3.78742">
        <ele>308.86</ele>
        <time>2019-09-08T08:57:17 0200</time>
      </trkpt>
      <trkpt lat="48.3633" lon="-3.78747">
        <ele>310.035</ele>
        <time>2019-09-08T08:57:22 0200</time>
      </trkpt>
      <trkpt lat="48.3632" lon="-3.78752">
        <ele>310.075</ele>
        <time>2019-09-08T08:57:27 0200</time>
      </trkpt>
      <trkpt lat="48.3631" lon="-3.78763">
        <ele>309.843</ele>
        <time>2019-09-08T08:57:32 0200</time>
      </trkpt>
      <trkpt lat="48.363" lon="-3.78774">
        <ele>309.078</ele>
        <time>2019-09-08T08:57:37 0200</time>
      </trkpt>
      <trkpt lat="48.3629" lon="-3.78785">
        <ele>308.412</ele>
        <time>2019-09-08T08:57:42 0200</time>
      </trkpt>
      <trkpt lat="48.3627" lon="-3.788">
        <ele>308.097</ele>
        <time>2019-09-08T08:57:47 0200</time>
      </trkpt>
      <trkpt lat="48.3625" lon="-3.78823">
        <ele>307.999</ele>
        <time>2019-09-08T08:57:52 0200</time>
      </trkpt>
      <trkpt lat="48.3624" lon="-3.78839">
        <ele>307.356</ele>
        <time>2019-09-08T08:57:57 0200</time>
      </trkpt>
      <trkpt lat="48.3623" lon="-3.78859">
        <ele>305.634</ele>
        <time>2019-09-08T08:58:02 0200</time>
      </trkpt>
      <trkpt lat="48.3623" lon="-3.78878">
        <ele>304.523</ele>
        <time>2019-09-08T08:58:07 0200</time>
      </trkpt>
      <trkpt lat="48.36275" lon="-3.78917">
        <ele>252</ele>
        <time>2019-09-08T09:05:22 0200</time>
      </trkpt>
      <trkpt lat="48.36304" lon="-3.78934">
        <ele>251.5</ele>
        <time>2019-09-08T09:05:27 0200</time>
      </trkpt>
      <trkpt lat="48.36395" lon="-3.79269">
        <ele>248.4</ele>
        <time>2019-09-08T09:05:32 0200</time>
      </trkpt>
      <trkpt lat="48.36412" lon="-3.79312">
        <ele>248.1</ele>
        <time>2019-09-08T09:05:38 0200</time>
      </trkpt>
      <trkpt lat="48.36463" lon="-3.79543">
        <ele>253.9</ele>
        <time>2019-09-08T09:05:43 0200</time>
      </trkpt>
      <trkpt lat="48.3648" lon="-3.79578">
        <ele>253.7</ele>
        <time>2019-09-08T09:05:48 0200</time>
      </trkpt>
      <trkpt lat="48.36458" lon="-3.79646">
        <ele>255.2</ele>
        <time>2019-09-08T09:05:53 0200</time>
      </trkpt>
      <trkpt lat="48.36458" lon="-3.79698">
        <ele>256.5</ele>
        <time>2019-09-08T09:05:58 0200</time>
      </trkpt>
      <trkpt lat="48.36469" lon="-3.79724">
        <ele>257</ele>
        <time>2019-09-08T09:06:03 0200</time>
      </trkpt>
      <trkpt lat="48.36475" lon="-3.79758">
        <ele>260.1</ele>
        <time>2019-09-08T09:06:08 0200</time>
      </trkpt>
      <trkpt lat="48.36475" lon="-3.79861">
        <ele>265.2</ele>
        <time>2019-09-08T09:06:13 0200</time>
      </trkpt>
      <trkpt lat="48.36475" lon="-3.79964">
        <ele>267.7</ele>
        <time>2019-09-08T09:06:18 0200</time>
      </trkpt>
      <trkpt lat="48.36469" lon="-3.79998">
        <ele>268</ele>
        <time>2019-09-08T09:06:23 0200</time>
      </trkpt>
      <trkpt lat="48.3644" lon="-3.80033">
        <ele>269.6</ele>
        <time>2019-09-08T09:06:28 0200</time>
      </trkpt>
      <trkpt lat="48.36406" lon="-3.8005">
        <ele>271.2</ele>
        <time>2019-09-08T09:06:33 0200</time>
      </trkpt>
      <trkpt lat="48.36361" lon="-3.80058">
        <ele>271.4</ele>
        <time>2019-09-08T09:06:38 0200</time>
      </trkpt>
      <trkpt lat="48.36332" lon="-3.80101">
        <ele>270.4</ele>
        <time>2019-09-08T09:06:43 0200</time>
      </trkpt>
      <trkpt lat="48.36326" lon="-3.80118">
        <ele>269.7</ele>
        <time>2019-09-08T09:06:48 0200</time>
      </trkpt>
      <trkpt lat="48.3632" lon="-3.80134">
        <ele>269.3</ele>
        <time>2019-09-08T09:06:53 0200</time>
      </trkpt>
      <trkpt lat="48.3631" lon="-3.80138">
        <ele>315.063</ele>
        <time>2019-09-08T09:06:58 0200</time>
      </trkpt>
      <trkpt lat="48.363" lon="-3.80157">
        <ele>315.319</ele>
        <time>2019-09-08T09:07:03 0200</time>
      </trkpt>
      <trkpt lat="48.3629" lon="-3.80183">
        <ele>315.279</ele>
        <time>2019-09-08T09:07:08 0200</time>
      </trkpt>
      <trkpt lat="48.3629" lon="-3.80205">
        <ele>316.498</ele>
        <time>2019-09-08T09:07:13 0200</time>
      </trkpt>
      <trkpt lat="48.3629" lon="-3.8023">
        <ele>316.45</ele>
        <time>2019-09-08T09:07:18 0200</time>
      </trkpt>
      <trkpt lat="48.363" lon="-3.80243">
        <ele>316.145</ele>
        <time>2019-09-08T09:07:24 0200</time>
      </trkpt>
      <trkpt lat="48.363" lon="-3.80272">
        <ele>316.027</ele>
        <time>2019-09-08T09:07:29 0200</time>
      </trkpt>
      <trkpt lat="48.363" lon="-3.80299">
        <ele>315.887</ele>
        <time>2019-09-08T09:07:34 0200</time>
      </trkpt>
      <trkpt lat="48.363" lon="-3.80324">
        <ele>315.741</ele>
        <time>2019-09-08T09:07:39 0200</time>
      </trkpt>
      <trkpt lat="48.363" lon="-3.80342">
        <ele>315.764</ele>
        <time>2019-09-08T09:07:44 0200</time>
      </trkpt>
      <trkpt lat="48.363" lon="-3.80357">
        <ele>315.849</ele>
        <time>2019-09-08T09:07:49 0200</time>
      </trkpt>
      <trkpt lat="48.363" lon="-3.80386">
        <ele>315.938</ele>
        <time>2019-09-08T09:07:54 0200</time>
      </trkpt>
      <trkpt lat="48.363" lon="-3.80403">
        <ele>315.876</ele>
        <time>2019-09-08T09:07:59 0200</time>
      </trkpt>
      <trkpt lat="48.3629" lon="-3.80427">
        <ele>315.659</ele>
        <time>2019-09-08T09:08:04 0200</time>
      </trkpt>
      <trkpt lat="48.3629" lon="-3.80451">
        <ele>315.724</ele>
        <time>2019-09-08T09:08:09 0200</time>
      </trkpt>
      <trkpt lat="48.3628" lon="-3.80472">
        <ele>316.038</ele>
        <time>2019-09-08T09:08:14 0200</time>
      </trkpt>
      <trkpt lat="48.3628" lon="-3.80497">
        <ele>316.634</ele>
        <time>2019-09-08T09:08:19 0200</time>
      </trkpt>
      <trkpt lat="48.3627" lon="-3.80515">
        <ele>317.549</ele>
        <time>2019-09-08T09:08:25 0200</time>
      </trkpt>
      <trkpt lat="48.3626" lon="-3.80542">
        <ele>318.906</ele>
        <time>2019-09-08T09:08:30 0200</time>
      </trkpt>
      <trkpt lat="48.3626" lon="-3.80563">
        <ele>319.601</ele>
        <time>2019-09-08T09:08:35 0200</time>
      </trkpt>
      <trkpt lat="48.3624" lon="-3.80596">
        <ele>322.116</ele>
        <time>2019-09-08T09:08:40 0200</time>
      </trkpt>
      <trkpt lat="48.3624" lon="-3.80611">
        <ele>321.254</ele>
        <time>2019-09-08T09:08:45 0200</time>
      </trkpt>
      <trkpt lat="48.3622" lon="-3.80638">
        <ele>319.589</ele>
        <time>2019-09-08T09:08:50 0200</time>
      </trkpt>
      <trkpt lat="48.3621" lon="-3.80673">
        <ele>319.067</ele>
        <time>2019-09-08T09:08:55 0200</time>
      </trkpt>
      <trkpt lat="48.362" lon="-3.80712">
        <ele>317.118</ele>
        <time>2019-09-08T09:09:00 0200</time>
      </trkpt>
      <trkpt lat="48.3619" lon="-3.80742">
        <ele>319.087</ele>
        <time>2019-09-08T09:09:05 0200</time>
      </trkpt>
      <trkpt lat="48.3618" lon="-3.80785">
        <ele>321.058</ele>
        <time>2019-09-08T09:09:10 0200</time>
      </trkpt>
      <trkpt lat="48.3618" lon="-3.8082">
        <ele>322.203</ele>
        <time>2019-09-08T09:09:15 0200</time>
      </trkpt>
      <trkpt lat="48.3618" lon="-3.80853">
        <ele>321.442</ele>
        <time>2019-09-08T09:09:20 0200</time>
      </trkpt>
      <trkpt lat="48.3619" lon="-3.80881">
        <ele>321.771</ele>
        <time>2019-09-08T09:09:25 0200</time>
      </trkpt>
      <trkpt lat="48.3619" lon="-3.80917">
        <ele>319.481</ele>
        <time>2019-09-08T09:09:30 0200</time>
      </trkpt>
      <trkpt lat="48.3619" lon="-3.80945">
        <ele>318.055</ele>
        <time>2019-09-08T09:09:35 0200</time>
      </trkpt>
      <trkpt lat="48.3619" lon="-3.80986">
        <ele>316.502</ele>
        <time>2019-09-08T09:09:40 0200</time>
      </trkpt>
      <trkpt lat="48.362" lon="-3.8102">
        <ele>316.132</ele>
        <time>2019-09-08T09:09:45 0200</time>
      </trkpt>
      <trkpt lat="48.362" lon="-3.81052">
        <ele>314.345</ele>
        <time>2019-09-08T09:09:50 0200</time>
      </trkpt>
      <trkpt lat="48.362" lon="-3.811">
        <ele>316.778</ele>
        <time>2019-09-08T09:09:55 0200</time>
      </trkpt>
      <trkpt lat="48.362" lon="-3.81142">
        <ele>316.96</ele>
        <time>2019-09-08T09:10:01 0200</time>
      </trkpt>
      <trkpt lat="48.3621" lon="-3.81197">
        <ele>315.529</ele>
        <time>2019-09-08T09:10:06 0200</time>
      </trkpt>
      <trkpt lat="48.3621" lon="-3.81245">
        <ele>316.181</ele>
        <time>2019-09-08T09:10:11 0200</time>
      </trkpt>
      <trkpt lat="48.362" lon="-3.81276">
        <ele>316.29</ele>
        <time>2019-09-08T09:10:16 0200</time>
      </trkpt>
      <trkpt lat="48.362" lon="-3.81315">
        <ele>317.438</ele>
        <time>2019-09-08T09:10:21 0200</time>
      </trkpt>
      <trkpt lat="48.362" lon="-3.81348">
        <ele>317.724</ele>
        <time>2019-09-08T09:10:26 0200</time>
      </trkpt>
      <trkpt lat="48.362" lon="-3.81382">
        <ele>317.813</ele>
        <time>2019-09-08T09:10:32 0200</time>
      </trkpt>
      <trkpt lat="48.3621" lon="-3.81429">
        <ele>314.773</ele>
        <time>2019-09-08T09:10:37 0200</time>
      </trkpt>
      <trkpt lat="48.362" lon="-3.81461">
        <ele>316.591</ele>
        <time>2019-09-08T09:10:42 0200</time>
      </trkpt>
      <trkpt lat="48.362" lon="-3.81484">
        <ele>316.336</ele>
        <time>2019-09-08T09:10:47 0200</time>
      </trkpt>
      <trkpt lat="48.362" lon="-3.81519">
        <ele>317.742</ele>
        <time>2019-09-08T09:10:52 0200</time>
      </trkpt>
      <trkpt lat="48.362" lon="-3.81549">
        <ele>318.172</ele>
        <time>2019-09-08T09:10:57 0200</time>
      </trkpt>
      <trkpt lat="48.362" lon="-3.8157">
        <ele>317.968</ele>
        <time>2019-09-08T09:11:02 0200</time>
      </trkpt>
      <trkpt lat="48.3618" lon="-3.81576">
        <ele>317.337</ele>
        <time>2019-09-08T09:11:07 0200</time>
      </trkpt>
      <trkpt lat="48.3615" lon="-3.81561">
        <ele>318.125</ele>
        <time>2019-09-08T09:11:12 0200</time>
      </trkpt>
      <trkpt lat="48.3612" lon="-3.81541">
        <ele>318.279</ele>
        <time>2019-09-08T09:11:17 0200</time>
      </trkpt>
      <trkpt lat="48.3608" lon="-3.81523">
        <ele>315.118</ele>
        <time>2019-09-08T09:11:22 0200</time>
      </trkpt>
      <trkpt lat="48.3605" lon="-3.81508">
        <ele>313.532</ele>
        <time>2019-09-08T09:11:27 0200</time>
      </trkpt>
      <trkpt lat="48.3602" lon="-3.8149">
        <ele>310.196</ele>
        <time>2019-09-08T09:11:32 0200</time>
      </trkpt>
      <trkpt lat="48.36" lon="-3.81481">
        <ele>309.669</ele>
        <time>2019-09-08T09:11:37 0200</time>
      </trkpt>
      <trkpt lat="48.3599" lon="-3.81496">
        <ele>303.994</ele>
        <time>2019-09-08T09:11:42 0200</time>
      </trkpt>
      <trkpt lat="48.3596" lon="-3.81525">
        <ele>300.685</ele>
        <time>2019-09-08T09:11:48 0200</time>
      </trkpt>
      <trkpt lat="48.3593" lon="-3.8155">
        <ele>299.839</ele>
        <time>2019-09-08T09:11:53 0200</time>
      </trkpt>
      <trkpt lat="48.3591" lon="-3.81575">
        <ele>298.056</ele>
        <time>2019-09-08T09:11:58 0200</time>
      </trkpt>
      <trkpt lat="48.3587" lon="-3.81587">
        <ele>295.772</ele>
        <time>2019-09-08T09:12:03 0200</time>
      </trkpt>
      <trkpt lat="48.3584" lon="-3.81595">
        <ele>294.37</ele>
        <time>2019-09-08T09:12:08 0200</time>
      </trkpt>
      <trkpt lat="48.3581" lon="-3.81601">
        <ele>295.263</ele>
        <time>2019-09-08T09:12:13 0200</time>
      </trkpt>
      <trkpt lat="48.3579" lon="-3.81608">
        <ele>295.949</ele>
        <time>2019-09-08T09:12:18 0200</time>
      </trkpt>
      <trkpt lat="48.3577" lon="-3.81601">
        <ele>297.25</ele>
        <time>2019-09-08T09:12:23 0200</time>
      </trkpt>
      <trkpt lat="48.3575" lon="-3.81592">
        <ele>298.663</ele>
        <time>2019-09-08T09:12:28 0200</time>
      </trkpt>
      <trkpt lat="48.3572" lon="-3.81584">
        <ele>300.842</ele>
        <time>2019-09-08T09:12:33 0200</time>
      </trkpt>
      <trkpt lat="48.3571" lon="-3.81592">
        <ele>300.196</ele>
        <time>2019-09-08T09:12:38 0200</time>
      </trkpt>
      <trkpt lat="48.3569" lon="-3.81607">
        <ele>300.142</ele>
        <time>2019-09-08T09:12:43 0200</time>
      </trkpt>
      <trkpt lat="48.3566" lon="-3.81624">
        <ele>299.421</ele>
        <time>2019-09-08T09:12:48 0200</time>
      </trkpt>
      <trkpt lat="48.3562" lon="-3.8164">
        <ele>296.128</ele>
        <time>2019-09-08T09:12:54 0200</time>
      </trkpt>
      <trkpt lat="48.3559" lon="-3.81646">
        <ele>294.18</ele>
        <time>2019-09-08T09:12:59 0200</time>
      </trkpt>
      <trkpt lat="48.3556" lon="-3.8168">
        <ele>293.436</ele>
        <time>2019-09-08T09:13:04 0200</time>
      </trkpt>
      <trkpt lat="48.3554" lon="-3.81704">
        <ele>287.292</ele>
        <time>2019-09-08T09:13:09 0200</time>
      </trkpt>
      <trkpt lat="48.3552" lon="-3.81726">
        <ele>284.489</ele>
        <time>2019-09-08T09:13:14 0200</time>
      </trkpt>
      <trkpt lat="48.3548" lon="-3.81754">
        <ele>282.878</ele>
        <time>2019-09-08T09:13:19 0200</time>
      </trkpt>
      <trkpt lat="48.3546" lon="-3.8177">
        <ele>283.323</ele>
        <time>2019-09-08T09:13:24 0200</time>
      </trkpt>
      <trkpt lat="48.3543" lon="-3.8179">
        <ele>283.843</ele>
        <time>2019-09-08T09:13:29 0200</time>
      </trkpt>
      <trkpt lat="48.3541" lon="-3.81804">
        <ele>281.705</ele>
        <time>2019-09-08T09:13:34 0200</time>
      </trkpt>
      <trkpt lat="48.3539" lon="-3.81813">
        <ele>280.749</ele>
        <time>2019-09-08T09:13:39 0200</time>
      </trkpt>
      <trkpt lat="48.3537" lon="-3.81834">
        <ele>281.086</ele>
        <time>2019-09-08T09:13:44 0200</time>
      </trkpt>
      <trkpt lat="48.3534" lon="-3.81844">
        <ele>279.477</ele>
        <time>2019-09-08T09:13:49 0200</time>
      </trkpt>
      <trkpt lat="48.3531" lon="-3.81851">
        <ele>276.58</ele>
        <time>2019-09-08T09:13:54 0200</time>
      </trkpt>
      <trkpt lat="48.3528" lon="-3.81866">
        <ele>275.656</ele>
        <time>2019-09-08T09:13:59 0200</time>
      </trkpt>
      <trkpt lat="48.3527" lon="-3.81881">
        <ele>274.021</ele>
        <time>2019-09-08T09:14:04 0200</time>
      </trkpt>
      <trkpt lat="48.3525" lon="-3.81901">
        <ele>271.116</ele>
        <time>2019-09-08T09:14:09 0200</time>
      </trkpt>
      <trkpt lat="48.3523" lon="-3.81923">
        <ele>269.05</ele>
        <time>2019-09-08T09:14:14 0200</time>
      </trkpt>
      <trkpt lat="48.3521" lon="-3.81948">
        <ele>269.354</ele>
        <time>2019-09-08T09:14:19 0200</time>
      </trkpt>
      <trkpt lat="48.3518" lon="-3.8197">
        <ele>273.175</ele>
        <time>2019-09-08T09:14:24 0200</time>
      </trkpt>
      <trkpt lat="48.3515" lon="-3.81983">
        <ele>275.224</ele>
        <time>2019-09-08T09:14:29 0200</time>
      </trkpt>
      <trkpt lat="48.3514" lon="-3.81996">
        <ele>273.355</ele>
        <time>2019-09-08T09:14:34 0200</time>
      </trkpt>
      <trkpt lat="48.3512" lon="-3.82008">
        <ele>272.395</ele>
        <time>2019-09-08T09:14:39 0200</time>
      </trkpt>
      <trkpt lat="48.3512" lon="-3.82008">
        <ele>272.395</ele>
        <time>2019-09-08T09:14:44 0200</time>
      </trkpt>
      <trkpt lat="48.3512" lon="-3.82008">
        <ele>272.395</ele>
        <time>2019-09-08T09:14:49 0200</time>
      </trkpt>
      <trkpt lat="48.351" lon="-3.82016">
        <ele>270.239</ele>
        <time>2019-09-08T09:14:55 0200</time>
      </trkpt>
      <trkpt lat="48.351" lon="-3.82016">
        <ele>270.239</ele>
        <time>2019-09-08T09:15:00 0200</time>
      </trkpt>
      <trkpt lat="48.351" lon="-3.82016">
        <ele>270.239</ele>
        <time>2019-09-08T09:15:05 0200</time>
      </trkpt>
      <trkpt lat="48.351" lon="-3.82016">
        <ele>270.239</ele>
        <time>2019-09-08T09:15:10 0200</time>
      </trkpt>
      <trkpt lat="48.3509" lon="-3.82022">
        <ele>270.111</ele>
        <time>2019-09-08T09:15:15 0200</time>
      </trkpt>
      <trkpt lat="48.3509" lon="-3.82022">
        <ele>270.111</ele>
        <time>2019-09-08T09:15:21 0200</time>
      </trkpt>
      <trkpt lat="48.3509" lon="-3.82022">
        <ele>270.111</ele>
        <time>2019-09-08T09:15:26 0200</time>
      </trkpt>
      <trkpt lat="48.3509" lon="-3.82022">
        <ele>270.111</ele>
        <time>2019-09-08T09:15:31 0200</time>
      </trkpt>
      <trkpt lat="48.3509" lon="-3.82022">
        <ele>270.111</ele>
        <time>2019-09-08T09:15:36 0200</time>
      </trkpt>
      <trkpt lat="48.3509" lon="-3.82022">
        <ele>270.111</ele>
        <time>2019-09-08T09:15:41 0200</time>
      </trkpt>
      <trkpt lat="48.3509" lon="-3.82022">
        <ele>270.111</ele>
        <time>2019-09-08T09:15:46 0200</time>
      </trkpt>
      <trkpt lat="48.3509" lon="-3.82022">
        <ele>270.111</ele>
        <time>2019-09-08T09:15:51 0200</time>
      </trkpt>
      <trkpt lat="48.3509" lon="-3.82022">
        <ele>270.111</ele>
        <time>2019-09-08T09:15:56 0200</time>
      </trkpt>
      <trkpt lat="48.3509" lon="-3.82022">
        <ele>270.111</ele>
        <time>2019-09-08T09:16:01 0200</time>
      </trkpt>
      <trkpt lat="48.3509" lon="-3.82022">
        <ele>270.111</ele>
        <time>2019-09-08T09:16:06 0200</time>
      </trkpt>
      <trkpt lat="48.3509" lon="-3.82022">
        <ele>270.111</ele>
        <time>2019-09-08T09:16:11 0200</time>
      </trkpt>
      <trkpt lat="48.3507" lon="-3.82035">
        <ele>266.77</ele>
        <time>2019-09-08T09:16:16 0200</time>
      </trkpt>
      <trkpt lat="48.3507" lon="-3.82035">
        <ele>266.77</ele>
        <time>2019-09-08T09:16:21 0200</time>
      </trkpt>
      <trkpt lat="48.3507" lon="-3.82035">
        <ele>266.77</ele>
        <time>2019-09-08T09:16:26 0200</time>
      </trkpt>
      <trkpt lat="48.3507" lon="-3.82035">
        <ele>266.77</ele>
        <time>2019-09-08T09:16:31 0200</time>
      </trkpt>
      <trkpt lat="48.3507" lon="-3.82035">
        <ele>266.77</ele>
        <time>2019-09-08T09:16:36 0200</time>
      </trkpt>
      <trkpt lat="48.3507" lon="-3.82035">
        <ele>266.77</ele>
        <time>2019-09-08T09:16:41 0200</time>
      </trkpt>
      <trkpt lat="48.3505" lon="-3.82032">
        <ele>260.898</ele>
        <time>2019-09-08T09:16:46 0200</time>
      </trkpt>
      <trkpt lat="48.3505" lon="-3.82032">
        <ele>260.898</ele>
        <time>2019-09-08T09:16:51 0200</time>
      </trkpt>
      <trkpt lat="48.3505" lon="-3.82032">
        <ele>260.898</ele>
        <time>2019-09-08T09:16:56 0200</time>
      </trkpt>
      <trkpt lat="48.3504" lon="-3.82025">
        <ele>262.135</ele>
        <time>2019-09-08T09:17:01 0200</time>
      </trkpt>
      <trkpt lat="48.3502" lon="-3.82016">
        <ele>262.469</ele>
        <time>2019-09-08T09:17:06 0200</time>
      </trkpt>
      <trkpt lat="48.3501" lon="-3.82015">
        <ele>262.22</ele>
        <time>2019-09-08T09:17:11 0200</time>
      </trkpt>
      <trkpt lat="48.35" lon="-3.82011">
        <ele>262.068</ele>
        <time>2019-09-08T09:17:16 0200</time>
      </trkpt>
      <trkpt lat="48.3499" lon="-3.82002">
        <ele>262.312</ele>
        <time>2019-09-08T09:17:22 0200</time>
      </trkpt>
      <trkpt lat="48.3498" lon="-3.81997">
        <ele>262.583</ele>
        <time>2019-09-08T09:17:27 0200</time>
      </trkpt>
      <trkpt lat="48.3498" lon="-3.81992">
        <ele>262.748</ele>
        <time>2019-09-08T09:17:32 0200</time>
      </trkpt>
      <trkpt lat="48.3497" lon="-3.8199">
        <ele>262.549</ele>
        <time>2019-09-08T09:17:37 0200</time>
      </trkpt>
      <trkpt lat="48.3497" lon="-3.8199">
        <ele>262.549</ele>
        <time>2019-09-08T09:17:42 0200</time>
      </trkpt>
      <trkpt lat="48.3497" lon="-3.8199">
        <ele>262.549</ele>
        <time>2019-09-08T09:17:47 0200</time>
      </trkpt>
      <trkpt lat="48.3497" lon="-3.81986">
        <ele>262.016</ele>
        <time>2019-09-08T09:17:51 0200</time>
      </trkpt>
      <trkpt lat="48.3496" lon="-3.81983">
        <ele>260.866</ele>
        <time>2019-09-08T09:17:57 0200</time>
      </trkpt>
      <trkpt lat="48.3496" lon="-3.81983">
        <ele>260.866</ele>
        <time>2019-09-08T09:18:02 0200</time>
      </trkpt>
      <trkpt lat="48.3496" lon="-3.81983">
        <ele>260.866</ele>
        <time>2019-09-08T09:18:07 0200</time>
      </trkpt>
      <trkpt lat="48.3496" lon="-3.81983">
        <ele>260.866</ele>
        <time>2019-09-08T09:18:12 0200</time>
      </trkpt>
      <trkpt lat="48.3496" lon="-3.81983">
        <ele>260.866</ele>
        <time>2019-09-08T09:18:17 0200</time>
      </trkpt>
      <trkpt lat="48.3496" lon="-3.81983">
        <ele>260.866</ele>
        <time>2019-09-08T09:18:22 0200</time>
      </trkpt>
      <trkpt lat="48.3494" lon="-3.81958">
        <ele>260.003</ele>
        <time>2019-09-08T09:18:27 0200</time>
      </trkpt>
      <trkpt lat="48.3494" lon="-3.81958">
        <ele>260.003</ele>
        <time>2019-09-08T09:18:32 0200</time>
      </trkpt>
      <trkpt lat="48.3494" lon="-3.81958">
        <ele>260.003</ele>
        <time>2019-09-08T09:18:37 0200</time>
      </trkpt>
      <trkpt lat="48.3494" lon="-3.81958">
        <ele>260.003</ele>
        <time>2019-09-08T09:18:42 0200</time>
      </trkpt>
      <trkpt lat="48.3493" lon="-3.81956">
        <ele>259.9</ele>
        <time>2019-09-08T09:18:47 0200</time>
      </trkpt>
      <trkpt lat="48.3491" lon="-3.81954">
        <ele>260.028</ele>
        <time>2019-09-08T09:18:52 0200</time>
      </trkpt>
      <trkpt lat="48.3491" lon="-3.81954">
        <ele>260.028</ele>
        <time>2019-09-08T09:18:57 0200</time>
      </trkpt>
      <trkpt lat="48.3491" lon="-3.81954">
        <ele>260.028</ele>
        <time>2019-09-08T09:19:02 0200</time>
      </trkpt>
      <trkpt lat="48.3491" lon="-3.81954">
        <ele>260.028</ele>
        <time>2019-09-08T09:19:07 0200</time>
      </trkpt>
      <trkpt lat="48.3491" lon="-3.81954">
        <ele>260.028</ele>
        <time>2019-09-08T09:19:12 0200</time>
      </trkpt>
      <trkpt lat="48.3491" lon="-3.81954">
        <ele>260.028</ele>
        <time>2019-09-08T09:19:17 0200</time>
      </trkpt>
      <trkpt lat="48.3491" lon="-3.81954">
        <ele>260.028</ele>
        <time>2019-09-08T09:19:22 0200</time>
      </trkpt>
      <trkpt lat="48.3491" lon="-3.81954">
        <ele>260.028</ele>
        <time>2019-09-08T09:19:27 0200</time>
      </trkpt>
      <trkpt lat="48.3491" lon="-3.81954">
        <ele>260.028</ele>
        <time>2019-09-08T09:19:32 0200</time>
      </trkpt>
      <trkpt lat="48.3491" lon="-3.81954">
        <ele>260.028</ele>
        <time>2019-09-08T09:19:37 0200</time>
      </trkpt>
      <trkpt lat="48.3488" lon="-3.81971">
        <ele>261.663</ele>
        <time>2019-09-08T09:19:43 0200</time>
      </trkpt>
      <trkpt lat="48.3487" lon="-3.81976">
        <ele>262.007</ele>
        <time>2019-09-08T09:19:48 0200</time>
      </trkpt>
      <trkpt lat="48.3487" lon="-3.81975">
        <ele>262.606</ele>
        <time>2019-09-08T09:19:53 0200</time>
      </trkpt>
      <trkpt lat="48.3487" lon="-3.81975">
        <ele>262.606</ele>
        <time>2019-09-08T09:19:58 0200</time>
      </trkpt>
      <trkpt lat="48.3486" lon="-3.8198">
        <ele>264.472</ele>
        <time>2019-09-08T09:20:03 0200</time>
      </trkpt>
      <trkpt lat="48.3486" lon="-3.8198">
        <ele>264.472</ele>
        <time>2019-09-08T09:20:08 0200</time>
      </trkpt>
      <trkpt lat="48.3486" lon="-3.8198">
        <ele>264.472</ele>
        <time>2019-09-08T09:20:13 0200</time>
      </trkpt>
      <trkpt lat="48.3486" lon="-3.8198">
        <ele>264.472</ele>
        <time>2019-09-08T09:20:18 0200</time>
      </trkpt>
      <trkpt lat="48.3485" lon="-3.8199">
        <ele>265.677</ele>
        <time>2019-09-08T09:20:23 0200</time>
      </trkpt>
      <trkpt lat="48.3483" lon="-3.82">
        <ele>266.991</ele>
        <time>2019-09-08T09:20:28 0200</time>
      </trkpt>
      <trkpt lat="48.3482" lon="-3.82003">
        <ele>268.191</ele>
        <time>2019-09-08T09:20:33 0200</time>
      </trkpt>
      <trkpt lat="48.3481" lon="-3.82005">
        <ele>268.889</ele>
        <time>2019-09-08T09:20:38 0200</time>
      </trkpt>
      <trkpt lat="48.3478" lon="-3.82013">
        <ele>269.364</ele>
        <time>2019-09-08T09:20:43 0200</time>
      </trkpt>
      <trkpt lat="48.3476" lon="-3.82018">
        <ele>270.716</ele>
        <time>2019-09-08T09:20:48 0200</time>
      </trkpt>
      <trkpt lat="48.3474" lon="-3.82022">
        <ele>270.968</ele>
        <time>2019-09-08T09:20:53 0200</time>
      </trkpt>
      <trkpt lat="48.3471" lon="-3.82028">
        <ele>271.145</ele>
        <time>2019-09-08T09:20:58 0200</time>
      </trkpt>
      <trkpt lat="48.3469" lon="-3.82032">
        <ele>270.698</ele>
        <time>2019-09-08T09:21:03 0200</time>
      </trkpt>
      <trkpt lat="48.3466" lon="-3.82027">
        <ele>270.648</ele>
        <time>2019-09-08T09:21:08 0200</time>
      </trkpt>
      <trkpt lat="48.3463" lon="-3.81999">
        <ele>271.241</ele>
        <time>2019-09-08T09:21:13 0200</time>
      </trkpt>
      <trkpt lat="48.3462" lon="-3.8198">
        <ele>270.91</ele>
        <time>2019-09-08T09:21:18 0200</time>
      </trkpt>
      <trkpt lat="48.346" lon="-3.81958">
        <ele>270.756</ele>
        <time>2019-09-08T09:21:24 0200</time>
      </trkpt>
      <trkpt lat="48.3459" lon="-3.81931">
        <ele>269.746</ele>
        <time>2019-09-08T09:21:29 0200</time>
      </trkpt>
      <trkpt lat="48.3457" lon="-3.81906">
        <ele>269.237</ele>
        <time>2019-09-08T09:21:34 0200</time>
      </trkpt>
      <trkpt lat="48.3457" lon="-3.81891">
        <ele>269.479</ele>
        <time>2019-09-08T09:21:39 0200</time>
      </trkpt>
      <trkpt lat="48.3457" lon="-3.81877">
        <ele>269.77</ele>
        <time>2019-09-08T09:21:44 0200</time>
      </trkpt>
      <trkpt lat="48.3456" lon="-3.81865">
        <ele>269.772</ele>
        <time>2019-09-08T09:21:49 0200</time>
      </trkpt>
      <trkpt lat="48.3455" lon="-3.81843">
        <ele>269.679</ele>
        <time>2019-09-08T09:21:54 0200</time>
      </trkpt>
      <trkpt lat="48.3453" lon="-3.81824">
        <ele>269.271</ele>
        <time>2019-09-08T09:21:59 0200</time>
      </trkpt>
      <trkpt lat="48.3452" lon="-3.81816">
        <ele>269.123</ele>
        <time>2019-09-08T09:22:04 0200</time>
      </trkpt>
      <trkpt lat="48.3451" lon="-3.81811">
        <ele>268.844</ele>
        <time>2019-09-08T09:22:09 0200</time>
      </trkpt>
      <trkpt lat="48.345" lon="-3.81809">
        <ele>268.813</ele>
        <time>2019-09-08T09:22:14 0200</time>
      </trkpt>
      <trkpt lat="48.3448" lon="-3.81809">
        <ele>269.183</ele>
        <time>2019-09-08T09:22:19 0200</time>
      </trkpt>
      <trkpt lat="48.3447" lon="-3.81809">
        <ele>269.487</ele>
        <time>2019-09-08T09:22:24 0200</time>
      </trkpt>
      <trkpt lat="48.3445" lon="-3.81806">
        <ele>270.191</ele>
        <time>2019-09-08T09:22:29 0200</time>
      </trkpt>
      <trkpt lat="48.3443" lon="-3.818">
        <ele>273.683</ele>
        <time>2019-09-08T09:22:34 0200</time>
      </trkpt>
      <trkpt lat="48.344" lon="-3.81779">
        <ele>273.571</ele>
        <time>2019-09-08T09:22:39 0200</time>
      </trkpt>
      <trkpt lat="48.3438" lon="-3.81754">
        <ele>272.458</ele>
        <time>2019-09-08T09:22:44 0200</time>
      </trkpt>
      <trkpt lat="48.3436" lon="-3.8173">
        <ele>270.613</ele>
        <time>2019-09-08T09:22:49 0200</time>
      </trkpt>
      <trkpt lat="48.3433" lon="-3.81706">
        <ele>273.015</ele>
        <time>2019-09-08T09:22:54 0200</time>
      </trkpt>
      <trkpt lat="48.3432" lon="-3.81686">
        <ele>272.828</ele>
        <time>2019-09-08T09:23:00 0200</time>
      </trkpt>
      <trkpt lat="48.343" lon="-3.81656">
        <ele>270.275</ele>
        <time>2019-09-08T09:23:05 0200</time>
      </trkpt>
      <trkpt lat="48.3429" lon="-3.81638">
        <ele>268.103</ele>
        <time>2019-09-08T09:23:10 0200</time>
      </trkpt>
      <trkpt lat="48.3427" lon="-3.81632">
        <ele>265.539</ele>
        <time>2019-09-08T09:23:15 0200</time>
      </trkpt>
      <trkpt lat="48.3425" lon="-3.81628">
        <ele>264.627</ele>
        <time>2019-09-08T09:23:20 0200</time>
      </trkpt>
      <trkpt lat="48.3423" lon="-3.81607">
        <ele>263.937</ele>
        <time>2019-09-08T09:23:25 0200</time>
      </trkpt>
      <trkpt lat="48.3422" lon="-3.81576">
        <ele>263.557</ele>
        <time>2019-09-08T09:23:30 0200</time>
      </trkpt>
      <trkpt lat="48.3421" lon="-3.81553">
        <ele>263.634</ele>
        <time>2019-09-08T09:23:35 0200</time>
      </trkpt>
      <trkpt lat="48.342" lon="-3.81526">
        <ele>263.639</ele>
        <time>2019-09-08T09:23:40 0200</time>
      </trkpt>
      <trkpt lat="48.3419" lon="-3.81502">
        <ele>263.818</ele>
        <time>2019-09-08T09:23:45 0200</time>
      </trkpt>
      <trkpt lat="48.3418" lon="-3.81474">
        <ele>266.184</ele>
        <time>2019-09-08T09:23:50 0200</time>
      </trkpt>
      <trkpt lat="48.3418" lon="-3.81438">
        <ele>268.067</ele>
        <time>2019-09-08T09:23:55 0200</time>
      </trkpt>
      <trkpt lat="48.3417" lon="-3.81436">
        <ele>268.62</ele>
        <time>2019-09-08T09:24:00 0200</time>
      </trkpt>
      <trkpt lat="48.3416" lon="-3.81452">
        <ele>269.059</ele>
        <time>2019-09-08T09:24:05 0200</time>
      </trkpt>
      <trkpt lat="48.3416" lon="-3.81481">
        <ele>269.839</ele>
        <time>2019-09-08T09:24:10 0200</time>
      </trkpt>
      <trkpt lat="48.3417" lon="-3.81514">
        <ele>270.232</ele>
        <time>2019-09-08T09:24:15 0200</time>
      </trkpt>
      <trkpt lat="48.3415" lon="-3.81545">
        <ele>270.803</ele>
        <time>2019-09-08T09:24:20 0200</time>
      </trkpt>
      <trkpt lat="48.3413" lon="-3.81579">
        <ele>275.833</ele>
        <time>2019-09-08T09:24:25 0200</time>
      </trkpt>
      <trkpt lat="48.3412" lon="-3.81608">
        <ele>273.206</ele>
        <time>2019-09-08T09:24:30 0200</time>
      </trkpt>
      <trkpt lat="48.341" lon="-3.81635">
        <ele>273.963</ele>
        <time>2019-09-08T09:24:35 0200</time>
      </trkpt>
      <trkpt lat="48.3408" lon="-3.81666">
        <ele>272.712</ele>
        <time>2019-09-08T09:24:40 0200</time>
      </trkpt>
      <trkpt lat="48.3407" lon="-3.81712">
        <ele>271.735</ele>
        <time>2019-09-08T09:24:45 0200</time>
      </trkpt>
      <trkpt lat="48.3406" lon="-3.81763">
        <ele>270.543</ele>
        <time>2019-09-08T09:24:50 0200</time>
      </trkpt>
      <trkpt lat="48.3405" lon="-3.81785">
        <ele>268.871</ele>
        <time>2019-09-08T09:24:55 0200</time>
      </trkpt>
      <trkpt lat="48.3402" lon="-3.81794">
        <ele>266.996</ele>
        <time>2019-09-08T09:25:00 0200</time>
      </trkpt>
      <trkpt lat="48.3398" lon="-3.81799">
        <ele>265.664</ele>
        <time>2019-09-08T09:25:06 0200</time>
      </trkpt>
      <trkpt lat="48.3396" lon="-3.81816">
        <ele>263.662</ele>
        <time>2019-09-08T09:25:11 0200</time>
      </trkpt>
      <trkpt lat="48.3394" lon="-3.81822">
        <ele>262.93</ele>
        <time>2019-09-08T09:25:16 0200</time>
      </trkpt>
      <trkpt lat="48.3392" lon="-3.8181">
        <ele>262.33</ele>
        <time>2019-09-08T09:25:21 0200</time>
      </trkpt>
      <trkpt lat="48.339" lon="-3.81799">
        <ele>262.31</ele>
        <time>2019-09-08T09:25:26 0200</time>
      </trkpt>
      <trkpt lat="48.3389" lon="-3.81807">
        <ele>262.065</ele>
        <time>2019-09-08T09:25:31 0200</time>
      </trkpt>
      <trkpt lat="48.3388" lon="-3.81827">
        <ele>261.432</ele>
        <time>2019-09-08T09:25:36 0200</time>
      </trkpt>
      <trkpt lat="48.3388" lon="-3.8184">
        <ele>261.189</ele>
        <time>2019-09-08T09:25:41 0200</time>
      </trkpt>
      <trkpt lat="48.3386" lon="-3.81876">
        <ele>260.314</ele>
        <time>2019-09-08T09:25:46 0200</time>
      </trkpt>
      <trkpt lat="48.3386" lon="-3.81901">
        <ele>262.279</ele>
        <time>2019-09-08T09:25:51 0200</time>
      </trkpt>
      <trkpt lat="48.3387" lon="-3.8192">
        <ele>262.785</ele>
        <time>2019-09-08T09:25:56 0200</time>
      </trkpt>
      <trkpt lat="48.3388" lon="-3.81939">
        <ele>262.142</ele>
        <time>2019-09-08T09:26:01 0200</time>
      </trkpt>
      <trkpt lat="48.339" lon="-3.81953">
        <ele>261.987</ele>
        <time>2019-09-08T09:26:06 0200</time>
      </trkpt>
      <trkpt lat="48.3391" lon="-3.81984">
        <ele>261.974</ele>
        <time>2019-09-08T09:26:12 0200</time>
      </trkpt>
      <trkpt lat="48.3391" lon="-3.82017">
        <ele>262.309</ele>
        <time>2019-09-08T09:26:17 0200</time>
      </trkpt>
      <trkpt lat="48.3391" lon="-3.82047">
        <ele>263.445</ele>
        <time>2019-09-08T09:26:22 0200</time>
      </trkpt>
      <trkpt lat="48.3391" lon="-3.82069">
        <ele>262.999</ele>
        <time>2019-09-08T09:26:27 0200</time>
      </trkpt>
      <trkpt lat="48.3391" lon="-3.82101">
        <ele>263.34</ele>
        <time>2019-09-08T09:26:32 0200</time>
      </trkpt>
      <trkpt lat="48.3391" lon="-3.82115">
        <ele>262.756</ele>
        <time>2019-09-08T09:26:37 0200</time>
      </trkpt>
      <trkpt lat="48.339" lon="-3.82143">
        <ele>262.242</ele>
        <time>2019-09-08T09:26:42 0200</time>
      </trkpt>
      <trkpt lat="48.339" lon="-3.82164">
        <ele>262.012</ele>
        <time>2019-09-08T09:26:47 0200</time>
      </trkpt>
      <trkpt lat="48.3389" lon="-3.82187">
        <ele>261.939</ele>
        <time>2019-09-08T09:26:52 0200</time>
      </trkpt>
      <trkpt lat="48.3388" lon="-3.82202">
        <ele>262.289</ele>
        <time>2019-09-08T09:26:57 0200</time>
      </trkpt>
      <trkpt lat="48.3387" lon="-3.82231">
        <ele>262.614</ele>
        <time>2019-09-08T09:27:02 0200</time>
      </trkpt>
      <trkpt lat="48.3387" lon="-3.82248">
        <ele>262.671</ele>
        <time>2019-09-08T09:27:07 0200</time>
      </trkpt>
      <trkpt lat="48.3386" lon="-3.82266">
        <ele>262.539</ele>
        <time>2019-09-08T09:27:12 0200</time>
      </trkpt>
      <trkpt lat="48.3386" lon="-3.82282">
        <ele>262.389</ele>
        <time>2019-09-08T09:27:18 0200</time>
      </trkpt>
      <trkpt lat="48.3386" lon="-3.82297">
        <ele>262.914</ele>
        <time>2019-09-08T09:27:23 0200</time>
      </trkpt>
      <trkpt lat="48.3385" lon="-3.82305">
        <ele>263.38</ele>
        <time>2019-09-08T09:27:28 0200</time>
      </trkpt>
      <trkpt lat="48.3385" lon="-3.82318">
        <ele>264.702</ele>
        <time>2019-09-08T09:27:33 0200</time>
      </trkpt>
      <trkpt lat="48.3384" lon="-3.82326">
        <ele>265.972</ele>
        <time>2019-09-08T09:27:38 0200</time>
      </trkpt>
      <trkpt lat="48.3384" lon="-3.82332">
        <ele>266.589</ele>
        <time>2019-09-08T09:27:43 0200</time>
      </trkpt>
      <trkpt lat="48.3384" lon="-3.82345">
        <ele>268.051</ele>
        <time>2019-09-08T09:27:48 0200</time>
      </trkpt>
      <trkpt lat="48.3383" lon="-3.82357">
        <ele>269.757</ele>
        <time>2019-09-08T09:27:53 0200</time>
      </trkpt>
      <trkpt lat="48.3383" lon="-3.8237">
        <ele>270.39</ele>
        <time>2019-09-08T09:27:58 0200</time>
      </trkpt>
      <trkpt lat="48.3382" lon="-3.82382">
        <ele>271.531</ele>
        <time>2019-09-08T09:28:03 0200</time>
      </trkpt>
      <trkpt lat="48.3381" lon="-3.82395">
        <ele>272.413</ele>
        <time>2019-09-08T09:28:08 0200</time>
      </trkpt>
      <trkpt lat="48.3381" lon="-3.8241">
        <ele>273.194</ele>
        <time>2019-09-08T09:28:13 0200</time>
      </trkpt>
      <trkpt lat="48.338" lon="-3.8242">
        <ele>273.674</ele>
        <time>2019-09-08T09:28:18 0200</time>
      </trkpt>
      <trkpt lat="48.3379" lon="-3.82434">
        <ele>274.229</ele>
        <time>2019-09-08T09:28:23 0200</time>
      </trkpt>
      <trkpt lat="48.3378" lon="-3.82447">
        <ele>274.46</ele>
        <time>2019-09-08T09:28:28 0200</time>
      </trkpt>
      <trkpt lat="48.3378" lon="-3.82459">
        <ele>275.76</ele>
        <time>2019-09-08T09:28:33 0200</time>
      </trkpt>
      <trkpt lat="48.3376" lon="-3.82466">
        <ele>277.238</ele>
        <time>2019-09-08T09:28:38 0200</time>
      </trkpt>
      <trkpt lat="48.3376" lon="-3.82467">
        <ele>277.892</ele>
        <time>2019-09-08T09:28:43 0200</time>
      </trkpt>
      <trkpt lat="48.3375" lon="-3.82468">
        <ele>278.301</ele>
        <time>2019-09-08T09:28:48 0200</time>
      </trkpt>
      <trkpt lat="48.3375" lon="-3.82466">
        <ele>279.147</ele>
        <time>2019-09-08T09:28:53 0200</time>
      </trkpt>
      <trkpt lat="48.3374" lon="-3.82465">
        <ele>280.748</ele>
        <time>2019-09-08T09:28:58 0200</time>
      </trkpt>
      <trkpt lat="48.3373" lon="-3.82461">
        <ele>282.782</ele>
        <time>2019-09-08T09:29:03 0200</time>
      </trkpt>
      <trkpt lat="48.3373" lon="-3.82461">
        <ele>282.782</ele>
        <time>2019-09-08T09:29:08 0200</time>
      </trkpt>
      <trkpt lat="48.3372" lon="-3.82466">
        <ele>285.34</ele>
        <time>2019-09-08T09:29:14 0200</time>
      </trkpt>
      <trkpt lat="48.3372" lon="-3.82466">
        <ele>285.34</ele>
        <time>2019-09-08T09:29:19 0200</time>
      </trkpt>
      <trkpt lat="48.3371" lon="-3.8248">
        <ele>287.307</ele>
        <time>2019-09-08T09:29:24 0200</time>
      </trkpt>
      <trkpt lat="48.3371" lon="-3.82487">
        <ele>287.532</ele>
        <time>2019-09-08T09:29:29 0200</time>
      </trkpt>
      <trkpt lat="48.337" lon="-3.825">
        <ele>287.903</ele>
        <time>2019-09-08T09:29:34 0200</time>
      </trkpt>
      <trkpt lat="48.337" lon="-3.82529">
        <ele>288.582</ele>
        <time>2019-09-08T09:29:39 0200</time>
      </trkpt>
      <trkpt lat="48.337" lon="-3.82549">
        <ele>289.09</ele>
        <time>2019-09-08T09:29:44 0200</time>
      </trkpt>
      <trkpt lat="48.337" lon="-3.82568">
        <ele>289.279</ele>
        <time>2019-09-08T09:29:49 0200</time>
      </trkpt>
      <trkpt lat="48.337" lon="-3.82584">
        <ele>289.414</ele>
        <time>2019-09-08T09:29:54 0200</time>
      </trkpt>
      <trkpt lat="48.337" lon="-3.8261">
        <ele>289.42</ele>
        <time>2019-09-08T09:29:59 0200</time>
      </trkpt>
      <trkpt lat="48.337" lon="-3.82636">
        <ele>290.208</ele>
        <time>2019-09-08T09:30:04 0200</time>
      </trkpt>
      <trkpt lat="48.337" lon="-3.82656">
        <ele>290.798</ele>
        <time>2019-09-08T09:30:09 0200</time>
      </trkpt>
      <trkpt lat="48.3369" lon="-3.82679">
        <ele>291.319</ele>
        <time>2019-09-08T09:30:14 0200</time>
      </trkpt>
      <trkpt lat="48.3369" lon="-3.82696">
        <ele>291.902</ele>
        <time>2019-09-08T09:30:19 0200</time>
      </trkpt>
      <trkpt lat="48.3369" lon="-3.82715">
        <ele>292.812</ele>
        <time>2019-09-08T09:30:24 0200</time>
      </trkpt>
      <trkpt lat="48.3369" lon="-3.82733">
        <ele>293.343</ele>
        <time>2019-09-08T09:30:29 0200</time>
      </trkpt>
      <trkpt lat="48.3368" lon="-3.82748">
        <ele>293.641</ele>
        <time>2019-09-08T09:30:34 0200</time>
      </trkpt>
      <trkpt lat="48.3368" lon="-3.8278">
        <ele>293.953</ele>
        <time>2019-09-08T09:30:39 0200</time>
      </trkpt>
      <trkpt lat="48.3368" lon="-3.82795">
        <ele>294.432</ele>
        <time>2019-09-08T09:30:44 0200</time>
      </trkpt>
      <trkpt lat="48.3367" lon="-3.82822">
        <ele>295.248</ele>
        <time>2019-09-08T09:30:49 0200</time>
      </trkpt>
      <trkpt lat="48.3367" lon="-3.82847">
        <ele>295.804</ele>
        <time>2019-09-08T09:30:54 0200</time>
      </trkpt>
      <trkpt lat="48.3366" lon="-3.82861">
        <ele>296.089</ele>
        <time>2019-09-08T09:30:59 0200</time>
      </trkpt>
      <trkpt lat="48.3365" lon="-3.82886">
        <ele>296.672</ele>
        <time>2019-09-08T09:31:04 0200</time>
      </trkpt>
      <trkpt lat="48.3365" lon="-3.82906">
        <ele>296.991</ele>
        <time>2019-09-08T09:31:09 0200</time>
      </trkpt>
      <trkpt lat="48.3364" lon="-3.82941">
        <ele>297.323</ele>
        <time>2019-09-08T09:31:14 0200</time>
      </trkpt>
      <trkpt lat="48.3363" lon="-3.82976">
        <ele>297.08</ele>
        <time>2019-09-08T09:31:20 0200</time>
      </trkpt>
      <trkpt lat="48.3362" lon="-3.82994">
        <ele>297.228</ele>
        <time>2019-09-08T09:31:25 0200</time>
      </trkpt>
      <trkpt lat="48.3361" lon="-3.83016">
        <ele>297.898</ele>
        <time>2019-09-08T09:31:30 0200</time>
      </trkpt>
      <trkpt lat="48.3361" lon="-3.83035">
        <ele>298.55</ele>
        <time>2019-09-08T09:31:35 0200</time>
      </trkpt>
      <trkpt lat="48.336" lon="-3.83062">
        <ele>298.436</ele>
        <time>2019-09-08T09:31:40 0200</time>
      </trkpt>
      <trkpt lat="48.336" lon="-3.8308">
        <ele>298.147</ele>
        <time>2019-09-08T09:31:45 0200</time>
      </trkpt>
      <trkpt lat="48.336" lon="-3.83098">
        <ele>298.002</ele>
        <time>2019-09-08T09:31:50 0200</time>
      </trkpt>
      <trkpt lat="48.336" lon="-3.83131">
        <ele>297.624</ele>
        <time>2019-09-08T09:31:55 0200</time>
      </trkpt>
      <trkpt lat="48.336" lon="-3.83152">
        <ele>297.619</ele>
        <time>2019-09-08T09:32:00 0200</time>
      </trkpt>
      <trkpt lat="48.336" lon="-3.83182">
        <ele>297.402</ele>
        <time>2019-09-08T09:32:05 0200</time>
      </trkpt>
      <trkpt lat="48.3359" lon="-3.83209">
        <ele>297.666</ele>
        <time>2019-09-08T09:32:10 0200</time>
      </trkpt>
      <trkpt lat="48.3358" lon="-3.83236">
        <ele>298.322</ele>
        <time>2019-09-08T09:32:15 0200</time>
      </trkpt>
      <trkpt lat="48.3358" lon="-3.83259">
        <ele>298.991</ele>
        <time>2019-09-08T09:32:20 0200</time>
      </trkpt>
      <trkpt lat="48.3357" lon="-3.83278">
        <ele>299.69</ele>
        <time>2019-09-08T09:32:25 0200</time>
      </trkpt>
      <trkpt lat="48.3356" lon="-3.83291">
        <ele>300.252</ele>
        <time>2019-09-08T09:32:30 0200</time>
      </trkpt>
      <trkpt lat="48.3355" lon="-3.83304">
        <ele>300.219</ele>
        <time>2019-09-08T09:32:35 0200</time>
      </trkpt>
      <trkpt lat="48.3353" lon="-3.8332">
        <ele>299.847</ele>
        <time>2019-09-08T09:32:40 0200</time>
      </trkpt>
      <trkpt lat="48.3352" lon="-3.83333">
        <ele>299.445</ele>
        <time>2019-09-08T09:32:45 0200</time>
      </trkpt>
      <trkpt lat="48.3352" lon="-3.83356">
        <ele>299.129</ele>
        <time>2019-09-08T09:32:50 0200</time>
      </trkpt>
      <trkpt lat="48.3351" lon="-3.83394">
        <ele>299.902</ele>
        <time>2019-09-08T09:32:55 0200</time>
      </trkpt>
      <trkpt lat="48.3351" lon="-3.83412">
        <ele>300.077</ele>
        <time>2019-09-08T09:33:00 0200</time>
      </trkpt>
      <trkpt lat="48.335" lon="-3.83438">
        <ele>300.302</ele>
        <time>2019-09-08T09:33:05 0200</time>
      </trkpt>
      <trkpt lat="48.335" lon="-3.83452">
        <ele>300.605</ele>
        <time>2019-09-08T09:33:10 0200</time>
      </trkpt>
      <trkpt lat="48.3349" lon="-3.8348">
        <ele>300.736</ele>
        <time>2019-09-08T09:33:16 0200</time>
      </trkpt>
      <trkpt lat="48.3348" lon="-3.83505">
        <ele>301.21</ele>
        <time>2019-09-08T09:33:21 0200</time>
      </trkpt>
      <trkpt lat="48.3347" lon="-3.83523">
        <ele>301.053</ele>
        <time>2019-09-08T09:33:26 0200</time>
      </trkpt>
      <trkpt lat="48.3346" lon="-3.83548">
        <ele>300.266</ele>
        <time>2019-09-08T09:33:31 0200</time>
      </trkpt>
      <trkpt lat="48.3346" lon="-3.83566">
        <ele>299.758</ele>
        <time>2019-09-08T09:33:36 0200</time>
      </trkpt>
      <trkpt lat="48.3345" lon="-3.83593">
        <ele>299.115</ele>
        <time>2019-09-08T09:33:41 0200</time>
      </trkpt>
      <trkpt lat="48.3344" lon="-3.83614">
        <ele>299.61</ele>
        <time>2019-09-08T09:33:46 0200</time>
      </trkpt>
      <trkpt lat="48.3342" lon="-3.83643">
        <ele>299.884</ele>
        <time>2019-09-08T09:33:51 0200</time>
      </trkpt>
      <trkpt lat="48.3341" lon="-3.83663">
        <ele>300.541</ele>
        <time>2019-09-08T09:33:56 0200</time>
      </trkpt>
      <trkpt lat="48.334" lon="-3.83682">
        <ele>301.629</ele>
        <time>2019-09-08T09:34:01 0200</time>
      </trkpt>
      <trkpt lat="48.3338" lon="-3.83705">
        <ele>303.421</ele>
        <time>2019-09-08T09:34:06 0200</time>
      </trkpt>
      <trkpt lat="48.3337" lon="-3.83728">
        <ele>304.471</ele>
        <time>2019-09-08T09:34:11 0200</time>
      </trkpt>
      <trkpt lat="48.3336" lon="-3.83753">
        <ele>304.418</ele>
        <time>2019-09-08T09:34:16 0200</time>
      </trkpt>
      <trkpt lat="48.3335" lon="-3.83775">
        <ele>302.815</ele>
        <time>2019-09-08T09:34:21 0200</time>
      </trkpt>
      <trkpt lat="48.3333" lon="-3.83798">
        <ele>302.069</ele>
        <time>2019-09-08T09:34:26 0200</time>
      </trkpt>
      <trkpt lat="48.3331" lon="-3.83819">
        <ele>300.653</ele>
        <time>2019-09-08T09:34:31 0200</time>
      </trkpt>
      <trkpt lat="48.333" lon="-3.83834">
        <ele>300.427</ele>
        <time>2019-09-08T09:34:36 0200</time>
      </trkpt>
      <trkpt lat="48.3329" lon="-3.83855">
        <ele>300.578</ele>
        <time>2019-09-08T09:34:41 0200</time>
      </trkpt>
      <trkpt lat="48.3327" lon="-3.83877">
        <ele>300.975</ele>
        <time>2019-09-08T09:34:46 0200</time>
      </trkpt>
      <trkpt lat="48.3326" lon="-3.83892">
        <ele>301.451</ele>
        <time>2019-09-08T09:34:51 0200</time>
      </trkpt>
      <trkpt lat="48.3325" lon="-3.83914">
        <ele>303.412</ele>
        <time>2019-09-08T09:34:56 0200</time>
      </trkpt>
      <trkpt lat="48.3324" lon="-3.83927">
        <ele>303.728</ele>
        <time>2019-09-08T09:35:01 0200</time>
      </trkpt>
      <trkpt lat="48.3322" lon="-3.83951">
        <ele>304.25</ele>
        <time>2019-09-08T09:35:06 0200</time>
      </trkpt>
      <trkpt lat="48.3321" lon="-3.83967">
        <ele>305.456</ele>
        <time>2019-09-08T09:35:11 0200</time>
      </trkpt>
      <trkpt lat="48.3319" lon="-3.8399">
        <ele>305.213</ele>
        <time>2019-09-08T09:35:16 0200</time>
      </trkpt>
      <trkpt lat="48.3318" lon="-3.84011">
        <ele>304.062</ele>
        <time>2019-09-08T09:35:21 0200</time>
      </trkpt>
      <trkpt lat="48.3316" lon="-3.84032">
        <ele>304.511</ele>
        <time>2019-09-08T09:35:26 0200</time>
      </trkpt>
      <trkpt lat="48.3315" lon="-3.84045">
        <ele>304.635</ele>
        <time>2019-09-08T09:35:31 0200</time>
      </trkpt>
      <trkpt lat="48.3314" lon="-3.84057">
        <ele>305.054</ele>
        <time>2019-09-08T09:35:37 0200</time>
      </trkpt>
      <trkpt lat="48.3313" lon="-3.84066">
        <ele>305.411</ele>
        <time>2019-09-08T09:35:42 0200</time>
      </trkpt>
      <trkpt lat="48.3312" lon="-3.84073">
        <ele>305.412</ele>
        <time>2019-09-08T09:35:47 0200</time>
      </trkpt>
      <trkpt lat="48.3311" lon="-3.84063">
        <ele>305.727</ele>
        <time>2019-09-08T09:35:52 0200</time>
      </trkpt>
      <trkpt lat="48.331" lon="-3.84056">
        <ele>305.999</ele>
        <time>2019-09-08T09:35:57 0200</time>
      </trkpt>
      <trkpt lat="48.331" lon="-3.84042">
        <ele>306.509</ele>
        <time>2019-09-08T09:36:02 0200</time>
      </trkpt>
      <trkpt lat="48.331" lon="-3.84034">
        <ele>306.994</ele>
        <time>2019-09-08T09:36:07 0200</time>
      </trkpt>
      <trkpt lat="48.331" lon="-3.84019">
        <ele>307.752</ele>
        <time>2019-09-08T09:36:12 0200</time>
      </trkpt>
      <trkpt lat="48.3311" lon="-3.84003">
        <ele>308.941</ele>
        <time>2019-09-08T09:36:17 0200</time>
      </trkpt>
      <trkpt lat="48.3311" lon="-3.83988">
        <ele>310.226</ele>
        <time>2019-09-08T09:36:22 0200</time>
      </trkpt>
      <trkpt lat="48.3311" lon="-3.8398">
        <ele>310.708</ele>
        <time>2019-09-08T09:36:27 0200</time>
      </trkpt>
      <trkpt lat="48.3312" lon="-3.83966">
        <ele>311.806</ele>
        <time>2019-09-08T09:36:32 0200</time>
      </trkpt>
      <trkpt lat="48.3312" lon="-3.83959">
        <ele>312.412</ele>
        <time>2019-09-08T09:36:37 0200</time>
      </trkpt>
      <trkpt lat="48.3312" lon="-3.83943">
        <ele>313.775</ele>
        <time>2019-09-08T09:36:42 0200</time>
      </trkpt>
      <trkpt lat="48.3312" lon="-3.83936">
        <ele>314.272</ele>
        <time>2019-09-08T09:36:47 0200</time>
      </trkpt>
      <trkpt lat="48.3312" lon="-3.83923">
        <ele>315.222</ele>
        <time>2019-09-08T09:36:52 0200</time>
      </trkpt>
      <trkpt lat="48.3313" lon="-3.83915">
        <ele>315.777</ele>
        <time>2019-09-08T09:36:57 0200</time>
      </trkpt>
      <trkpt lat="48.3313" lon="-3.839">
        <ele>316.771</ele>
        <time>2019-09-08T09:37:02 0200</time>
      </trkpt>
      <trkpt lat="48.3313" lon="-3.83884">
        <ele>317.674</ele>
        <time>2019-09-08T09:37:07 0200</time>
      </trkpt>
      <trkpt lat="48.3313" lon="-3.83878">
        <ele>318.297</ele>
        <time>2019-09-08T09:37:12 0200</time>
      </trkpt>
      <trkpt lat="48.3313" lon="-3.83871">
        <ele>318.973</ele>
        <time>2019-09-08T09:37:17 0200</time>
      </trkpt>
      <trkpt lat="48.3314" lon="-3.83855">
        <ele>319.931</ele>
        <time>2019-09-08T09:37:22 0200</time>
      </trkpt>
      <trkpt lat="48.3313" lon="-3.83849">
        <ele>320.537</ele>
        <time>2019-09-08T09:37:27 0200</time>
      </trkpt>
      <trkpt lat="48.3313" lon="-3.83841">
        <ele>321.044</ele>
        <time>2019-09-08T09:37:32 0200</time>
      </trkpt>
      <trkpt lat="48.3314" lon="-3.83829">
        <ele>321.75</ele>
        <time>2019-09-08T09:37:37 0200</time>
      </trkpt>
      <trkpt lat="48.3314" lon="-3.83822">
        <ele>322.213</ele>
        <time>2019-09-08T09:37:42 0200</time>
      </trkpt>
      <trkpt lat="48.3315" lon="-3.83809">
        <ele>323.017</ele>
        <time>2019-09-08T09:37:47 0200</time>
      </trkpt>
      <trkpt lat="48.3315" lon="-3.83794">
        <ele>323.37</ele>
        <time>2019-09-08T09:37:53 0200</time>
      </trkpt>
      <trkpt lat="48.3315" lon="-3.83785">
        <ele>323.697</ele>
        <time>2019-09-08T09:37:58 0200</time>
      </trkpt>
      <trkpt lat="48.3315" lon="-3.83771">
        <ele>324.233</ele>
        <time>2019-09-08T09:38:03 0200</time>
      </trkpt>
      <trkpt lat="48.3316" lon="-3.83762">
        <ele>324.616</ele>
        <time>2019-09-08T09:38:08 0200</time>
      </trkpt>
      <trkpt lat="48.3316" lon="-3.83745">
        <ele>325.511</ele>
        <time>2019-09-08T09:38:13 0200</time>
      </trkpt>
      <trkpt lat="48.3316" lon="-3.8373">
        <ele>326.35</ele>
        <time>2019-09-08T09:38:18 0200</time>
      </trkpt>
      <trkpt lat="48.3316" lon="-3.83723">
        <ele>327.085</ele>
        <time>2019-09-08T09:38:23 0200</time>
      </trkpt>
      <trkpt lat="48.3315" lon="-3.83711">
        <ele>327.798</ele>
        <time>2019-09-08T09:38:28 0200</time>
      </trkpt>
      <trkpt lat="48.3315" lon="-3.83703">
        <ele>328.283</ele>
        <time>2019-09-08T09:38:33 0200</time>
      </trkpt>
      <trkpt lat="48.3314" lon="-3.83691">
        <ele>329.297</ele>
        <time>2019-09-08T09:38:38 0200</time>
      </trkpt>
      <trkpt lat="48.3314" lon="-3.83684">
        <ele>329.778</ele>
        <time>2019-09-08T09:38:43 0200</time>
      </trkpt>
      <trkpt lat="48.3313" lon="-3.8367">
        <ele>330.825</ele>
        <time>2019-09-08T09:38:48 0200</time>
      </trkpt>
      <trkpt lat="48.3313" lon="-3.83653">
        <ele>332.033</ele>
        <time>2019-09-08T09:38:53 0200</time>
      </trkpt>
      <trkpt lat="48.3313" lon="-3.83646">
        <ele>332.568</ele>
        <time>2019-09-08T09:38:58 0200</time>
      </trkpt>
      <trkpt lat="48.3313" lon="-3.83628">
        <ele>333.401</ele>
        <time>2019-09-08T09:39:03 0200</time>
      </trkpt>
      <trkpt lat="48.3313" lon="-3.83613">
        <ele>334.396</ele>
        <time>2019-09-08T09:39:08 0200</time>
      </trkpt>
      <trkpt lat="48.3313" lon="-3.83606">
        <ele>334.752</ele>
        <time>2019-09-08T09:39:13 0200</time>
      </trkpt>
      <trkpt lat="48.3312" lon="-3.83615">
        <ele>335.515</ele>
        <time>2019-09-08T09:39:18 0200</time>
      </trkpt>
      <trkpt lat="48.3311" lon="-3.83619">
        <ele>335.544</ele>
        <time>2019-09-08T09:39:23 0200</time>
      </trkpt>
      <trkpt lat="48.331" lon="-3.83629">
        <ele>335.655</ele>
        <time>2019-09-08T09:39:28 0200</time>
      </trkpt>
      <trkpt lat="48.3308" lon="-3.83629">
        <ele>335.904</ele>
        <time>2019-09-08T09:39:34 0200</time>
      </trkpt>
      <trkpt lat="48.3306" lon="-3.83634">
        <ele>336.143</ele>
        <time>2019-09-08T09:39:39 0200</time>
      </trkpt>
      <trkpt lat="48.3304" lon="-3.83633">
        <ele>336.075</ele>
        <time>2019-09-08T09:39:44 0200</time>
      </trkpt>
      <trkpt lat="48.3301" lon="-3.83631">
        <ele>333.369</ele>
        <time>2019-09-08T09:39:49 0200</time>
      </trkpt>
      <trkpt lat="48.3299" lon="-3.83641">
        <ele>332.112</ele>
        <time>2019-09-08T09:39:54 0200</time>
      </trkpt>
      <trkpt lat="48.3297" lon="-3.83664">
        <ele>331.925</ele>
        <time>2019-09-08T09:39:59 0200</time>
      </trkpt>
      <trkpt lat="48.3295" lon="-3.83679">
        <ele>330.885</ele>
        <time>2019-09-08T09:40:04 0200</time>
      </trkpt>
      <trkpt lat="48.3293" lon="-3.83685">
        <ele>329.745</ele>
        <time>2019-09-08T09:40:09 0200</time>
      </trkpt>
      <trkpt lat="48.329" lon="-3.83691">
        <ele>329.693</ele>
        <time>2019-09-08T09:40:14 0200</time>
      </trkpt>
      <trkpt lat="48.3289" lon="-3.83681">
        <ele>329.087</ele>
        <time>2019-09-08T09:40:19 0200</time>
      </trkpt>
      <trkpt lat="48.3287" lon="-3.83666">
        <ele>327.327</ele>
        <time>2019-09-08T09:40:24 0200</time>
      </trkpt>
      <trkpt lat="48.3286" lon="-3.83657">
        <ele>327.115</ele>
        <time>2019-09-08T09:40:30 0200</time>
      </trkpt>
      <trkpt lat="48.3286" lon="-3.83672">
        <ele>326.705</ele>
        <time>2019-09-08T09:40:35 0200</time>
      </trkpt>
      <trkpt lat="48.3285" lon="-3.83705">
        <ele>322.577</ele>
        <time>2019-09-08T09:40:40 0200</time>
      </trkpt>
      <trkpt lat="48.3285" lon="-3.83731">
        <ele>321.32</ele>
        <time>2019-09-08T09:40:45 0200</time>
      </trkpt>
      <trkpt lat="48.3285" lon="-3.83766">
        <ele>321.807</ele>
        <time>2019-09-08T09:40:50 0200</time>
      </trkpt>
      <trkpt lat="48.3284" lon="-3.83799">
        <ele>321.111</ele>
        <time>2019-09-08T09:40:55 0200</time>
      </trkpt>
      <trkpt lat="48.3283" lon="-3.83816">
        <ele>321.052</ele>
        <time>2019-09-08T09:41:00 0200</time>
      </trkpt>
      <trkpt lat="48.3282" lon="-3.83839">
        <ele>320.945</ele>
        <time>2019-09-08T09:41:05 0200</time>
      </trkpt>
      <trkpt lat="48.3282" lon="-3.83852">
        <ele>320.432</ele>
        <time>2019-09-08T09:41:10 0200</time>
      </trkpt>
      <trkpt lat="48.3282" lon="-3.83852">
        <ele>320.432</ele>
        <time>2019-09-08T09:41:15 0200</time>
      </trkpt>
      <trkpt lat="48.3282" lon="-3.8386">
        <ele>319.91</ele>
        <time>2019-09-08T09:41:20 0200</time>
      </trkpt>
      <trkpt lat="48.3282" lon="-3.83867">
        <ele>319.79</ele>
        <time>2019-09-08T09:41:25 0200</time>
      </trkpt>
      <trkpt lat="48.3282" lon="-3.8388">
        <ele>319.564</ele>
        <time>2019-09-08T09:41:30 0200</time>
      </trkpt>
      <trkpt lat="48.3282" lon="-3.8388">
        <ele>319.564</ele>
        <time>2019-09-08T09:41:35 0200</time>
      </trkpt>
      <trkpt lat="48.3283" lon="-3.8389">
        <ele>319.66</ele>
        <time>2019-09-08T09:41:40 0200</time>
      </trkpt>
      <trkpt lat="48.3283" lon="-3.83896">
        <ele>319.627</ele>
        <time>2019-09-08T09:41:45 0200</time>
      </trkpt>
      <trkpt lat="48.3284" lon="-3.839">
        <ele>319.609</ele>
        <time>2019-09-08T09:41:50 0200</time>
      </trkpt>
      <trkpt lat="48.3284" lon="-3.83906">
        <ele>319.334</ele>
        <time>2019-09-08T09:41:55 0200</time>
      </trkpt>
      <trkpt lat="48.3284" lon="-3.83914">
        <ele>319.1</ele>
        <time>2019-09-08T09:42:00 0200</time>
      </trkpt>
      <trkpt lat="48.3284" lon="-3.83914">
        <ele>319.1</ele>
        <time>2019-09-08T09:42:06 0200</time>
      </trkpt>
      <trkpt lat="48.3284" lon="-3.83928">
        <ele>318.798</ele>
        <time>2019-09-08T09:42:11 0200</time>
      </trkpt>
      <trkpt lat="48.3284" lon="-3.83946">
        <ele>318.431</ele>
        <time>2019-09-08T09:42:16 0200</time>
      </trkpt>
      <trkpt lat="48.3284" lon="-3.83971">
        <ele>317.659</ele>
        <time>2019-09-08T09:42:21 0200</time>
      </trkpt>
      <trkpt lat="48.3283" lon="-3.83994">
        <ele>317.297</ele>
        <time>2019-09-08T09:42:26 0200</time>
      </trkpt>
      <trkpt lat="48.3283" lon="-3.8402">
        <ele>316.583</ele>
        <time>2019-09-08T09:42:31 0200</time>
      </trkpt>
      <trkpt lat="48.3283" lon="-3.84036">
        <ele>315.904</ele>
        <time>2019-09-08T09:42:36 0200</time>
      </trkpt>
      <trkpt lat="48.3283" lon="-3.84062">
        <ele>314.722</ele>
        <time>2019-09-08T09:42:41 0200</time>
      </trkpt>
      <trkpt lat="48.3283" lon="-3.84085">
        <ele>313.93</ele>
        <time>2019-09-08T09:42:46 0200</time>
      </trkpt>
      <trkpt lat="48.3283" lon="-3.84118">
        <ele>312.961</ele>
        <time>2019-09-08T09:42:51 0200</time>
      </trkpt>
      <trkpt lat="48.3282" lon="-3.84144">
        <ele>310.257</ele>
        <time>2019-09-08T09:42:56 0200</time>
      </trkpt>
      <trkpt lat="48.3282" lon="-3.84176">
        <ele>308.176</ele>
        <time>2019-09-08T09:43:01 0200</time>
      </trkpt>
      <trkpt lat="48.3282" lon="-3.84198">
        <ele>307.613</ele>
        <time>2019-09-08T09:43:06 0200</time>
      </trkpt>
      <trkpt lat="48.3282" lon="-3.84228">
        <ele>305.931</ele>
        <time>2019-09-08T09:43:11 0200</time>
      </trkpt>
      <trkpt lat="48.3281" lon="-3.84258">
        <ele>305.546</ele>
        <time>2019-09-08T09:43:16 0200</time>
      </trkpt>
      <trkpt lat="48.3282" lon="-3.8427">
        <ele>305.432</ele>
        <time>2019-09-08T09:43:21 0200</time>
      </trkpt>
      <trkpt lat="48.3284" lon="-3.84277">
        <ele>306.004</ele>
        <time>2019-09-08T09:43:26 0200</time>
      </trkpt>
      <trkpt lat="48.3286" lon="-3.84291">
        <ele>305.678</ele>
        <time>2019-09-08T09:43:32 0200</time>
      </trkpt>
      <trkpt lat="48.3288" lon="-3.84318">
        <ele>305.964</ele>
        <time>2019-09-08T09:43:37 0200</time>
      </trkpt>
      <trkpt lat="48.3289" lon="-3.84336">
        <ele>304.997</ele>
        <time>2019-09-08T09:43:42 0200</time>
      </trkpt>
      <trkpt lat="48.3291" lon="-3.8436">
        <ele>307.699</ele>
        <time>2019-09-08T09:43:47 0200</time>
      </trkpt>
      <trkpt lat="48.3293" lon="-3.84388">
        <ele>309.023</ele>
        <time>2019-09-08T09:43:52 0200</time>
      </trkpt>
      <trkpt lat="48.3295" lon="-3.84411">
        <ele>307.409</ele>
        <time>2019-09-08T09:43:57 0200</time>
      </trkpt>
      <trkpt lat="48.3297" lon="-3.84432">
        <ele>305.776</ele>
        <time>2019-09-08T09:44:02 0200</time>
      </trkpt>
      <trkpt lat="48.33" lon="-3.84444">
        <ele>303.046</ele>
        <time>2019-09-08T09:44:07 0200</time>
      </trkpt>
      <trkpt lat="48.3301" lon="-3.84449">
        <ele>302.364</ele>
        <time>2019-09-08T09:44:12 0200</time>
      </trkpt>
      <trkpt lat="48.3303" lon="-3.84462">
        <ele>301.603</ele>
        <time>2019-09-08T09:44:17 0200</time>
      </trkpt>
      <trkpt lat="48.3302" lon="-3.84489">
        <ele>301.308</ele>
        <time>2019-09-08T09:44:22 0200</time>
      </trkpt>
      <trkpt lat="48.3301" lon="-3.84513">
        <ele>301.481</ele>
        <time>2019-09-08T09:44:27 0200</time>
      </trkpt>
      <trkpt lat="48.3301" lon="-3.84533">
        <ele>300.838</ele>
        <time>2019-09-08T09:44:32 0200</time>
      </trkpt>
      <trkpt lat="48.33" lon="-3.84558">
        <ele>300.557</ele>
        <time>2019-09-08T09:44:37 0200</time>
      </trkpt>
      <trkpt lat="48.3299" lon="-3.84583">
        <ele>300.42</ele>
        <time>2019-09-08T09:44:42 0200</time>
      </trkpt>
      <trkpt lat="48.3297" lon="-3.84616">
        <ele>300.916</ele>
        <time>2019-09-08T09:44:47 0200</time>
      </trkpt>
      <trkpt lat="48.3297" lon="-3.84644">
        <ele>300.84</ele>
        <time>2019-09-08T09:44:52 0200</time>
      </trkpt>
      <trkpt lat="48.3296" lon="-3.84671">
        <ele>300.846</ele>
        <time>2019-09-08T09:44:57 0200</time>
      </trkpt>
      <trkpt lat="48.3295" lon="-3.84688">
        <ele>300.71</ele>
        <time>2019-09-08T09:45:02 0200</time>
      </trkpt>
      <trkpt lat="48.3293" lon="-3.84713">
        <ele>301.398</ele>
        <time>2019-09-08T09:45:07 0200</time>
      </trkpt>
      <trkpt lat="48.3293" lon="-3.8473">
        <ele>301.661</ele>
        <time>2019-09-08T09:45:12 0200</time>
      </trkpt>
      <trkpt lat="48.3291" lon="-3.84755">
        <ele>303.002</ele>
        <time>2019-09-08T09:45:18 0200</time>
      </trkpt>
      <trkpt lat="48.3289" lon="-3.84776">
        <ele>301.406</ele>
        <time>2019-09-08T09:45:23 0200</time>
      </trkpt>
      <trkpt lat="48.3288" lon="-3.84807">
        <ele>300.088</ele>
        <time>2019-09-08T09:45:28 0200</time>
      </trkpt>
      <trkpt lat="48.3286" lon="-3.84829">
        <ele>294.865</ele>
        <time>2019-09-08T09:45:33 0200</time>
      </trkpt>
      <trkpt lat="48.3285" lon="-3.84855">
        <ele>293.902</ele>
        <time>2019-09-08T09:45:38 0200</time>
      </trkpt>
      <trkpt lat="48.3285" lon="-3.84874">
        <ele>294.112</ele>
        <time>2019-09-08T09:45:43 0200</time>
      </trkpt>
      <trkpt lat="48.3285" lon="-3.84904">
        <ele>294.63</ele>
        <time>2019-09-08T09:45:48 0200</time>
      </trkpt>
      <trkpt lat="48.3284" lon="-3.84918">
        <ele>295.146</ele>
        <time>2019-09-08T09:45:53 0200</time>
      </trkpt>
      <trkpt lat="48.3282" lon="-3.84929">
        <ele>296.086</ele>
        <time>2019-09-08T09:45:58 0200</time>
      </trkpt>
      <trkpt lat="48.328" lon="-3.8494">
        <ele>296.469</ele>
        <time>2019-09-08T09:46:03 0200</time>
      </trkpt>
      <trkpt lat="48.3279" lon="-3.84949">
        <ele>296.879</ele>
        <time>2019-09-08T09:46:08 0200</time>
      </trkpt>
      <trkpt lat="48.3277" lon="-3.84958">
        <ele>297.652</ele>
        <time>2019-09-08T09:46:13 0200</time>
      </trkpt>
      <trkpt lat="48.3276" lon="-3.84963">
        <ele>298.145</ele>
        <time>2019-09-08T09:46:18 0200</time>
      </trkpt>
      <trkpt lat="48.3275" lon="-3.84984">
        <ele>298.964</ele>
        <time>2019-09-08T09:46:23 0200</time>
      </trkpt>
      <trkpt lat="48.3273" lon="-3.85001">
        <ele>299.575</ele>
        <time>2019-09-08T09:46:28 0200</time>
      </trkpt>
      <trkpt lat="48.3272" lon="-3.8502">
        <ele>300.205</ele>
        <time>2019-09-08T09:46:33 0200</time>
      </trkpt>
      <trkpt lat="48.3271" lon="-3.85032">
        <ele>303.217</ele>
        <time>2019-09-08T09:46:38 0200</time>
      </trkpt>
      <trkpt lat="48.3269" lon="-3.85054">
        <ele>303.478</ele>
        <time>2019-09-08T09:46:43 0200</time>
      </trkpt>
      <trkpt lat="48.3268" lon="-3.85067">
        <ele>303.961</ele>
        <time>2019-09-08T09:46:48 0200</time>
      </trkpt>
      <trkpt lat="48.3266" lon="-3.85088">
        <ele>304.409</ele>
        <time>2019-09-08T09:46:53 0200</time>
      </trkpt>
      <trkpt lat="48.3266" lon="-3.85118">
        <ele>304.773</ele>
        <time>2019-09-08T09:46:58 0200</time>
      </trkpt>
      <trkpt lat="48.3266" lon="-3.85143">
        <ele>305.979</ele>
        <time>2019-09-08T09:47:03 0200</time>
      </trkpt>
      <trkpt lat="48.3267" lon="-3.85181">
        <ele>309.854</ele>
        <time>2019-09-08T09:47:08 0200</time>
      </trkpt>
      <trkpt lat="48.3267" lon="-3.85217">
        <ele>310.412</ele>
        <time>2019-09-08T09:47:13 0200</time>
      </trkpt>
      <trkpt lat="48.3267" lon="-3.85249">
        <ele>309.343</ele>
        <time>2019-09-08T09:47:19 0200</time>
      </trkpt>
      <trkpt lat="48.3267" lon="-3.85273">
        <ele>308.53</ele>
        <time>2019-09-08T09:47:24 0200</time>
      </trkpt>
      <trkpt lat="48.3266" lon="-3.85304">
        <ele>306.871</ele>
        <time>2019-09-08T09:47:29 0200</time>
      </trkpt>
      <trkpt lat="48.3267" lon="-3.85332">
        <ele>306.159</ele>
        <time>2019-09-08T09:47:34 0200</time>
      </trkpt>
      <trkpt lat="48.3267" lon="-3.85357">
        <ele>305.762</ele>
        <time>2019-09-08T09:47:39 0200</time>
      </trkpt>
      <trkpt lat="48.3268" lon="-3.85392">
        <ele>307.482</ele>
        <time>2019-09-08T09:47:44 0200</time>
      </trkpt>
      <trkpt lat="48.3268" lon="-3.85418">
        <ele>307.549</ele>
        <time>2019-09-08T09:47:49 0200</time>
      </trkpt>
      <trkpt lat="48.3268" lon="-3.85445">
        <ele>307.435</ele>
        <time>2019-09-08T09:47:54 0200</time>
      </trkpt>
      <trkpt lat="48.3268" lon="-3.85481">
        <ele>307.405</ele>
        <time>2019-09-08T09:47:58 0200</time>
      </trkpt>
      <trkpt lat="48.3269" lon="-3.85511">
        <ele>308.73</ele>
        <time>2019-09-08T09:48:03 0200</time>
      </trkpt>
      <trkpt lat="48.3269" lon="-3.85533">
        <ele>308.961</ele>
        <time>2019-09-08T09:48:08 0200</time>
      </trkpt>
      <trkpt lat="48.3269" lon="-3.85568">
        <ele>310.604</ele>
        <time>2019-09-08T09:48:13 0200</time>
      </trkpt>
      <trkpt lat="48.3269" lon="-3.856">
        <ele>310.866</ele>
        <time>2019-09-08T09:48:18 0200</time>
      </trkpt>
      <trkpt lat="48.3269" lon="-3.8563">
        <ele>309.095</ele>
        <time>2019-09-08T09:48:23 0200</time>
      </trkpt>
      <trkpt lat="48.3269" lon="-3.85664">
        <ele>308.295</ele>
        <time>2019-09-08T09:48:29 0200</time>
      </trkpt>
      <trkpt lat="48.3269" lon="-3.85699">
        <ele>307.512</ele>
        <time>2019-09-08T09:48:34 0200</time>
      </trkpt>
      <trkpt lat="48.3268" lon="-3.85733">
        <ele>306.987</ele>
        <time>2019-09-08T09:48:39 0200</time>
      </trkpt>
      <trkpt lat="48.3268" lon="-3.85761">
        <ele>305.916</ele>
        <time>2019-09-08T09:48:44 0200</time>
      </trkpt>
      <trkpt lat="48.3267" lon="-3.85798">
        <ele>304.903</ele>
        <time>2019-09-08T09:48:49 0200</time>
      </trkpt>
      <trkpt lat="48.3266" lon="-3.85826">
        <ele>304.31</ele>
        <time>2019-09-08T09:48:54 0200</time>
      </trkpt>
      <trkpt lat="48.3266" lon="-3.85857">
        <ele>303.227</ele>
        <time>2019-09-08T09:48:59 0200</time>
      </trkpt>
      <trkpt lat="48.3265" lon="-3.85887">
        <ele>302.91</ele>
        <time>2019-09-08T09:49:04 0200</time>
      </trkpt>
      <trkpt lat="48.3264" lon="-3.85905">
        <ele>303</ele>
        <time>2019-09-08T09:49:09 0200</time>
      </trkpt>
      <trkpt lat="48.3263" lon="-3.85957">
        <ele>302.614</ele>
        <time>2019-09-08T09:49:14 0200</time>
      </trkpt>
      <trkpt lat="48.3262" lon="-3.8599">
        <ele>300.877</ele>
        <time>2019-09-08T09:49:19 0200</time>
      </trkpt>
      <trkpt lat="48.3261" lon="-3.86018">
        <ele>299.543</ele>
        <time>2019-09-08T09:49:24 0200</time>
      </trkpt>
      <trkpt lat="48.326" lon="-3.86049">
        <ele>298.752</ele>
        <time>2019-09-08T09:49:29 0200</time>
      </trkpt>
      <trkpt lat="48.3259" lon="-3.86083">
        <ele>297.079</ele>
        <time>2019-09-08T09:49:34 0200</time>
      </trkpt>
      <trkpt lat="48.3257" lon="-3.86119">
        <ele>294.308</ele>
        <time>2019-09-08T09:49:39 0200</time>
      </trkpt>
      <trkpt lat="48.3255" lon="-3.86146">
        <ele>292.584</ele>
        <time>2019-09-08T09:49:44 0200</time>
      </trkpt>
      <trkpt lat="48.3253" lon="-3.86171">
        <ele>289.221</ele>
        <time>2019-09-08T09:49:49 0200</time>
      </trkpt>
      <trkpt lat="48.3251" lon="-3.86195">
        <ele>288.472</ele>
        <time>2019-09-08T09:49:54 0200</time>
      </trkpt>
      <trkpt lat="48.3249" lon="-3.86224">
        <ele>289.419</ele>
        <time>2019-09-08T09:49:59 0200</time>
      </trkpt>
      <trkpt lat="48.3247" lon="-3.86253">
        <ele>289.216</ele>
        <time>2019-09-08T09:50:04 0200</time>
      </trkpt>
      <trkpt lat="48.3245" lon="-3.86285">
        <ele>286.663</ele>
        <time>2019-09-08T09:50:09 0200</time>
      </trkpt>
      <trkpt lat="48.3244" lon="-3.86317">
        <ele>285.178</ele>
        <time>2019-09-08T09:50:15 0200</time>
      </trkpt>
      <trkpt lat="48.3243" lon="-3.86346">
        <ele>286.858</ele>
        <time>2019-09-08T09:50:20 0200</time>
      </trkpt>
      <trkpt lat="48.3241" lon="-3.86389">
        <ele>287.45</ele>
        <time>2019-09-08T09:50:25 0200</time>
      </trkpt>
      <trkpt lat="48.324" lon="-3.86414">
        <ele>286.839</ele>
        <time>2019-09-08T09:50:30 0200</time>
      </trkpt>
      <trkpt lat="48.324" lon="-3.86422">
        <ele>286.871</ele>
        <time>2019-09-08T09:50:35 0200</time>
      </trkpt>
      <trkpt lat="48.3241" lon="-3.8642">
        <ele>287.167</ele>
        <time>2019-09-08T09:50:40 0200</time>
      </trkpt>
      <trkpt lat="48.3242" lon="-3.86415">
        <ele>287.525</ele>
        <time>2019-09-08T09:50:45 0200</time>
      </trkpt>
      <trkpt lat="48.3243" lon="-3.86405">
        <ele>287.6</ele>
        <time>2019-09-08T09:50:50 0200</time>
      </trkpt>
      <trkpt lat="48.3244" lon="-3.86395">
        <ele>287.435</ele>
        <time>2019-09-08T09:50:55 0200</time>
      </trkpt>
      <trkpt lat="48.3245" lon="-3.86387">
        <ele>287.873</ele>
        <time>2019-09-08T09:51:00 0200</time>
      </trkpt>
      <trkpt lat="48.3246" lon="-3.86378">
        <ele>288.548</ele>
        <time>2019-09-08T09:51:05 0200</time>
      </trkpt>
      <trkpt lat="48.3247" lon="-3.86372">
        <ele>289.032</ele>
        <time>2019-09-08T09:51:10 0200</time>
      </trkpt>
      <trkpt lat="48.3248" lon="-3.8637">
        <ele>289.949</ele>
        <time>2019-09-08T09:51:15 0200</time>
      </trkpt>
      <trkpt lat="48.3249" lon="-3.86372">
        <ele>290.335</ele>
        <time>2019-09-08T09:51:20 0200</time>
      </trkpt>
      <trkpt lat="48.325" lon="-3.86379">
        <ele>291.235</ele>
        <time>2019-09-08T09:51:25 0200</time>
      </trkpt>
      <trkpt lat="48.325" lon="-3.86383">
        <ele>292.166</ele>
        <time>2019-09-08T09:51:30 0200</time>
      </trkpt>
      <trkpt lat="48.3251" lon="-3.8639">
        <ele>293.545</ele>
        <time>2019-09-08T09:51:35 0200</time>
      </trkpt>
      <trkpt lat="48.3251" lon="-3.86404">
        <ele>294.693</ele>
        <time>2019-09-08T09:51:40 0200</time>
      </trkpt>
      <trkpt lat="48.3252" lon="-3.8641">
        <ele>295.262</ele>
        <time>2019-09-08T09:51:45 0200</time>
      </trkpt>
      <trkpt lat="48.3252" lon="-3.86421">
        <ele>296.319</ele>
        <time>2019-09-08T09:51:50 0200</time>
      </trkpt>
      <trkpt lat="48.3253" lon="-3.86435">
        <ele>297.562</ele>
        <time>2019-09-08T09:51:55 0200</time>
      </trkpt>
      <trkpt lat="48.3254" lon="-3.86443">
        <ele>298.502</ele>
        <time>2019-09-08T09:52:00 0200</time>
      </trkpt>
      <trkpt lat="48.3254" lon="-3.86455">
        <ele>299.809</ele>
        <time>2019-09-08T09:52:05 0200</time>
      </trkpt>
      <trkpt lat="48.3255" lon="-3.86469">
        <ele>301.066</ele>
        <time>2019-09-08T09:52:11 0200</time>
      </trkpt>
      <trkpt lat="48.3255" lon="-3.86475">
        <ele>301.539</ele>
        <time>2019-09-08T09:52:16 0200</time>
      </trkpt>
      <trkpt lat="48.3256" lon="-3.86487">
        <ele>302.568</ele>
        <time>2019-09-08T09:52:21 0200</time>
      </trkpt>
      <trkpt lat="48.3256" lon="-3.865">
        <ele>303.445</ele>
        <time>2019-09-08T09:52:26 0200</time>
      </trkpt>
      <trkpt lat="48.3257" lon="-3.86505">
        <ele>303.569</ele>
        <time>2019-09-08T09:52:31 0200</time>
      </trkpt>
      <trkpt lat="48.3258" lon="-3.86516">
        <ele>304.171</ele>
        <time>2019-09-08T09:52:36 0200</time>
      </trkpt>
      <trkpt lat="48.3258" lon="-3.86522">
        <ele>304.508</ele>
        <time>2019-09-08T09:52:41 0200</time>
      </trkpt>
      <trkpt lat="48.326" lon="-3.86527">
        <ele>304.825</ele>
        <time>2019-09-08T09:52:46 0200</time>
      </trkpt>
      <trkpt lat="48.326" lon="-3.86527">
        <ele>305.281</ele>
        <time>2019-09-08T09:52:51 0200</time>
      </trkpt>
      <trkpt lat="48.3261" lon="-3.8653">
        <ele>306.384</ele>
        <time>2019-09-08T09:52:56 0200</time>
      </trkpt>
      <trkpt lat="48.3262" lon="-3.86535">
        <ele>307.944</ele>
        <time>2019-09-08T09:53:01 0200</time>
      </trkpt>
      <trkpt lat="48.3264" lon="-3.86539">
        <ele>308.896</ele>
        <time>2019-09-08T09:53:06 0200</time>
      </trkpt>
      <trkpt lat="48.3264" lon="-3.86544">
        <ele>309.336</ele>
        <time>2019-09-08T09:53:11 0200</time>
      </trkpt>
      <trkpt lat="48.3265" lon="-3.86556">
        <ele>310.399</ele>
        <time>2019-09-08T09:53:16 0200</time>
      </trkpt>
      <trkpt lat="48.3266" lon="-3.86565">
        <ele>311.895</ele>
        <time>2019-09-08T09:53:21 0200</time>
      </trkpt>
      <trkpt lat="48.3267" lon="-3.86577">
        <ele>313.005</ele>
        <time>2019-09-08T09:53:26 0200</time>
      </trkpt>
      <trkpt lat="48.3267" lon="-3.86583">
        <ele>313.427</ele>
        <time>2019-09-08T09:53:32 0200</time>
      </trkpt>
      <trkpt lat="48.3268" lon="-3.86598">
        <ele>314.577</ele>
        <time>2019-09-08T09:53:37 0200</time>
      </trkpt>
      <trkpt lat="48.3268" lon="-3.86612">
        <ele>315.829</ele>
        <time>2019-09-08T09:53:42 0200</time>
      </trkpt>
      <trkpt lat="48.3269" lon="-3.86622">
        <ele>316.846</ele>
        <time>2019-09-08T09:53:47 0200</time>
      </trkpt>
      <trkpt lat="48.327" lon="-3.86643">
        <ele>318.447</ele>
        <time>2019-09-08T09:53:52 0200</time>
      </trkpt>
      <trkpt lat="48.327" lon="-3.86661">
        <ele>319.804</ele>
        <time>2019-09-08T09:53:57 0200</time>
      </trkpt>
      <trkpt lat="48.327" lon="-3.86677">
        <ele>320.699</ele>
        <time>2019-09-08T09:54:02 0200</time>
      </trkpt>
      <trkpt lat="48.3271" lon="-3.86696">
        <ele>321.299</ele>
        <time>2019-09-08T09:54:07 0200</time>
      </trkpt>
      <trkpt lat="48.3272" lon="-3.86704">
        <ele>321.67</ele>
        <time>2019-09-08T09:54:12 0200</time>
      </trkpt>
      <trkpt lat="48.3272" lon="-3.86716">
        <ele>322.413</ele>
        <time>2019-09-08T09:54:17 0200</time>
      </trkpt>
      <trkpt lat="48.3273" lon="-3.86723">
        <ele>323.165</ele>
        <time>2019-09-08T09:54:22 0200</time>
      </trkpt>
      <trkpt lat="48.3274" lon="-3.8673">
        <ele>323.58</ele>
        <time>2019-09-08T09:54:27 0200</time>
      </trkpt>
      <trkpt lat="48.3275" lon="-3.86735">
        <ele>323.886</ele>
        <time>2019-09-08T09:54:32 0200</time>
      </trkpt>
      <trkpt lat="48.3277" lon="-3.86736">
        <ele>324.626</ele>
        <time>2019-09-08T09:54:37 0200</time>
      </trkpt>
      <trkpt lat="48.3278" lon="-3.86744">
        <ele>324.475</ele>
        <time>2019-09-08T09:54:42 0200</time>
      </trkpt>
      <trkpt lat="48.3279" lon="-3.86743">
        <ele>324.218</ele>
        <time>2019-09-08T09:54:47 0200</time>
      </trkpt>
      <trkpt lat="48.328" lon="-3.86745">
        <ele>324.307</ele>
        <time>2019-09-08T09:54:52 0200</time>
      </trkpt>
      <trkpt lat="48.3281" lon="-3.86742">
        <ele>324.855</ele>
        <time>2019-09-08T09:54:57 0200</time>
      </trkpt>
      <trkpt lat="48.3283" lon="-3.86745">
        <ele>325.869</ele>
        <time>2019-09-08T09:55:02 0200</time>
      </trkpt>
      <trkpt lat="48.3284" lon="-3.86751">
        <ele>326.626</ele>
        <time>2019-09-08T09:55:07 0200</time>
      </trkpt>
      <trkpt lat="48.3286" lon="-3.86757">
        <ele>327.853</ele>
        <time>2019-09-08T09:55:13 0200</time>
      </trkpt>
      <trkpt lat="48.3287" lon="-3.86764">
        <ele>333.208</ele>
        <time>2019-09-08T09:55:18 0200</time>
      </trkpt>
      <trkpt lat="48.3289" lon="-3.86773">
        <ele>334.622</ele>
        <time>2019-09-08T09:55:23 0200</time>
      </trkpt>
      <trkpt lat="48.3291" lon="-3.86787">
        <ele>337.195</ele>
        <time>2019-09-08T09:55:28 0200</time>
      </trkpt>
      <trkpt lat="48.3294" lon="-3.86804">
        <ele>338.638</ele>
        <time>2019-09-08T09:55:33 0200</time>
      </trkpt>
      <trkpt lat="48.3297" lon="-3.86819">
        <ele>339.971</ele>
        <time>2019-09-08T09:55:38 0200</time>
      </trkpt>
      <trkpt lat="48.3299" lon="-3.8683">
        <ele>341.348</ele>
        <time>2019-09-08T09:55:43 0200</time>
      </trkpt>
      <trkpt lat="48.3302" lon="-3.86843">
        <ele>335.297</ele>
        <time>2019-09-08T09:55:48 0200</time>
      </trkpt>
      <trkpt lat="48.3304" lon="-3.8685">
        <ele>331.97</ele>
        <time>2019-09-08T09:55:53 0200</time>
      </trkpt>
      <trkpt lat="48.3307" lon="-3.86857">
        <ele>329.79</ele>
        <time>2019-09-08T09:55:58 0200</time>
      </trkpt>
      <trkpt lat="48.3309" lon="-3.86865">
        <ele>328.337</ele>
        <time>2019-09-08T09:56:03 0200</time>
      </trkpt>
      <trkpt lat="48.3311" lon="-3.86873">
        <ele>329.554</ele>
        <time>2019-09-08T09:56:08 0200</time>
      </trkpt>
      <trkpt lat="48.3314" lon="-3.86885">
        <ele>331.923</ele>
        <time>2019-09-08T09:56:13 0200</time>
      </trkpt>
      <trkpt lat="48.3316" lon="-3.86896">
        <ele>333.632</ele>
        <time>2019-09-08T09:56:18 0200</time>
      </trkpt>
      <trkpt lat="48.3317" lon="-3.86925">
        <ele>333.98</ele>
        <time>2019-09-08T09:56:23 0200</time>
      </trkpt>
      <trkpt lat="48.3318" lon="-3.86959">
        <ele>332.283</ele>
        <time>2019-09-08T09:56:28 0200</time>
      </trkpt>
      <trkpt lat="48.3319" lon="-3.86999">
        <ele>332.934</ele>
        <time>2019-09-08T09:56:33 0200</time>
      </trkpt>
      <trkpt lat="48.332" lon="-3.87038">
        <ele>331.574</ele>
        <time>2019-09-08T09:56:38 0200</time>
      </trkpt>
      <trkpt lat="48.3322" lon="-3.87076">
        <ele>330.013</ele>
        <time>2019-09-08T09:56:43 0200</time>
      </trkpt>
      <trkpt lat="48.3323" lon="-3.87118">
        <ele>328.314</ele>
        <time>2019-09-08T09:56:48 0200</time>
      </trkpt>
      <trkpt lat="48.3324" lon="-3.87159">
        <ele>328.504</ele>
        <time>2019-09-08T09:56:54 0200</time>
      </trkpt>
      <trkpt lat="48.3325" lon="-3.87198">
        <ele>329.448</ele>
        <time>2019-09-08T09:56:59 0200</time>
      </trkpt>
      <trkpt lat="48.3326" lon="-3.87241">
        <ele>327.089</ele>
        <time>2019-09-08T09:57:04 0200</time>
      </trkpt>
      <trkpt lat="48.3327" lon="-3.87293">
        <ele>323.792</ele>
        <time>2019-09-08T09:57:09 0200</time>
      </trkpt>
      <trkpt lat="48.3327" lon="-3.87338">
        <ele>320.68</ele>
        <time>2019-09-08T09:57:14 0200</time>
      </trkpt>
      <trkpt lat="48.3328" lon="-3.87376">
        <ele>318.574</ele>
        <time>2019-09-08T09:57:19 0200</time>
      </trkpt>
      <trkpt lat="48.3329" lon="-3.87412">
        <ele>316.763</ele>
        <time>2019-09-08T09:57:24 0200</time>
      </trkpt>
      <trkpt lat="48.333" lon="-3.87435">
        <ele>316.664</ele>
        <time>2019-09-08T09:57:29 0200</time>
      </trkpt>
      <trkpt lat="48.3331" lon="-3.87479">
        <ele>316.631</ele>
        <time>2019-09-08T09:57:34 0200</time>
      </trkpt>
      <trkpt lat="48.3332" lon="-3.87525">
        <ele>319.734</ele>
        <time>2019-09-08T09:57:40 0200</time>
      </trkpt>
      <trkpt lat="48.3333" lon="-3.8756">
        <ele>318.729</ele>
        <time>2019-09-08T09:57:45 0200</time>
      </trkpt>
      <trkpt lat="48.3334" lon="-3.87594">
        <ele>319.607</ele>
        <time>2019-09-08T09:57:49 0200</time>
      </trkpt>
      <trkpt lat="48.3334" lon="-3.87632">
        <ele>317.395</ele>
        <time>2019-09-08T09:57:54 0200</time>
      </trkpt>
      <trkpt lat="48.3335" lon="-3.87673">
        <ele>318.65</ele>
        <time>2019-09-08T09:57:59 0200</time>
      </trkpt>
      <trkpt lat="48.3335" lon="-3.87704">
        <ele>318.15</ele>
        <time>2019-09-08T09:58:04 0200</time>
      </trkpt>
      <trkpt lat="48.3336" lon="-3.87742">
        <ele>316.958</ele>
        <time>2019-09-08T09:58:09 0200</time>
      </trkpt>
      <trkpt lat="48.3337" lon="-3.87783">
        <ele>315.258</ele>
        <time>2019-09-08T09:58:15 0200</time>
      </trkpt>
      <trkpt lat="48.3337" lon="-3.87812">
        <ele>315.245</ele>
        <time>2019-09-08T09:58:20 0200</time>
      </trkpt>
      <trkpt lat="48.3339" lon="-3.87844">
        <ele>316.006</ele>
        <time>2019-09-08T09:58:25 0200</time>
      </trkpt>
      <trkpt lat="48.334" lon="-3.87877">
        <ele>316.564</ele>
        <time>2019-09-08T09:58:30 0200</time>
      </trkpt>
      <trkpt lat="48.334" lon="-3.87909">
        <ele>317.763</ele>
        <time>2019-09-08T09:58:35 0200</time>
      </trkpt>
      <trkpt lat="48.3341" lon="-3.87942">
        <ele>319.128</ele>
        <time>2019-09-08T09:58:40 0200</time>
      </trkpt>
      <trkpt lat="48.3343" lon="-3.87979">
        <ele>319.015</ele>
        <time>2019-09-08T09:58:45 0200</time>
      </trkpt>
      <trkpt lat="48.3343" lon="-3.88008">
        <ele>320.249</ele>
        <time>2019-09-08T09:58:50 0200</time>
      </trkpt>
      <trkpt lat="48.3344" lon="-3.88036">
        <ele>319.229</ele>
        <time>2019-09-08T09:58:55 0200</time>
      </trkpt>
      <trkpt lat="48.3345" lon="-3.88065">
        <ele>316.501</ele>
        <time>2019-09-08T09:59:00 0200</time>
      </trkpt>
      <trkpt lat="48.3346" lon="-3.88093">
        <ele>314.713</ele>
        <time>2019-09-08T09:59:06 0200</time>
      </trkpt>
      <trkpt lat="48.3347" lon="-3.88128">
        <ele>314.892</ele>
        <time>2019-09-08T09:59:11 0200</time>
      </trkpt>
      <trkpt lat="48.3348" lon="-3.88153">
        <ele>315.624</ele>
        <time>2019-09-08T09:59:16 0200</time>
      </trkpt>
      <trkpt lat="48.3349" lon="-3.88179">
        <ele>315.76</ele>
        <time>2019-09-08T09:59:21 0200</time>
      </trkpt>
      <trkpt lat="48.335" lon="-3.88212">
        <ele>317.917</ele>
        <time>2019-09-08T09:59:26 0200</time>
      </trkpt>
      <trkpt lat="48.3351" lon="-3.88243">
        <ele>316.442</ele>
        <time>2019-09-08T09:59:31 0200</time>
      </trkpt>
      <trkpt lat="48.3352" lon="-3.88287">
        <ele>315.542</ele>
        <time>2019-09-08T09:59:36 0200</time>
      </trkpt>
      <trkpt lat="48.3353" lon="-3.88323">
        <ele>316.868</ele>
        <time>2019-09-08T09:59:41 0200</time>
      </trkpt>
      <trkpt lat="48.3354" lon="-3.88357">
        <ele>316.84</ele>
        <time>2019-09-08T09:59:46 0200</time>
      </trkpt>
      <trkpt lat="48.3355" lon="-3.88384">
        <ele>316.121</ele>
        <time>2019-09-08T09:59:51 0200</time>
      </trkpt>
      <trkpt lat="48.3356" lon="-3.88417">
        <ele>316.589</ele>
        <time>2019-09-08T09:59:56 0200</time>
      </trkpt>
      <trkpt lat="48.3357" lon="-3.88445">
        <ele>318.947</ele>
        <time>2019-09-08T10:00:01 0200</time>
      </trkpt>
      <trkpt lat="48.3358" lon="-3.88473">
        <ele>317.186</ele>
        <time>2019-09-08T10:00:06 0200</time>
      </trkpt>
      <trkpt lat="48.3359" lon="-3.885">
        <ele>315.886</ele>
        <time>2019-09-08T10:00:11 0200</time>
      </trkpt>
      <trkpt lat="48.336" lon="-3.88527">
        <ele>314.741</ele>
        <time>2019-09-08T10:00:17 0200</time>
      </trkpt>
      <trkpt lat="48.3361" lon="-3.88564">
        <ele>316.881</ele>
        <time>2019-09-08T10:00:22 0200</time>
      </trkpt>
      <trkpt lat="48.3362" lon="-3.88593">
        <ele>315.989</ele>
        <time>2019-09-08T10:00:27 0200</time>
      </trkpt>
      <trkpt lat="48.3363" lon="-3.88614">
        <ele>315.039</ele>
        <time>2019-09-08T10:00:32 0200</time>
      </trkpt>
      <trkpt lat="48.3364" lon="-3.88644">
        <ele>315.605</ele>
        <time>2019-09-08T10:00:37 0200</time>
      </trkpt>
      <trkpt lat="48.3366" lon="-3.88678">
        <ele>316.176</ele>
        <time>2019-09-08T10:00:42 0200</time>
      </trkpt>
      <trkpt lat="48.3367" lon="-3.88706">
        <ele>314.651</ele>
        <time>2019-09-08T10:00:47 0200</time>
      </trkpt>
      <trkpt lat="48.3368" lon="-3.8873">
        <ele>314.529</ele>
        <time>2019-09-08T10:00:52 0200</time>
      </trkpt>
      <trkpt lat="48.337" lon="-3.88758">
        <ele>316.814</ele>
        <time>2019-09-08T10:00:57 0200</time>
      </trkpt>
      <trkpt lat="48.3371" lon="-3.88781">
        <ele>316.509</ele>
        <time>2019-09-08T10:01:02 0200</time>
      </trkpt>
      <trkpt lat="48.3372" lon="-3.8881">
        <ele>316.354</ele>
        <time>2019-09-08T10:01:07 0200</time>
      </trkpt>
      <trkpt lat="48.3373" lon="-3.88849">
        <ele>317.452</ele>
        <time>2019-09-08T10:01:12 0200</time>
      </trkpt>
      <trkpt lat="48.3374" lon="-3.88884">
        <ele>316.434</ele>
        <time>2019-09-08T10:01:18 0200</time>
      </trkpt>
      <trkpt lat="48.3376" lon="-3.88927">
        <ele>315.955</ele>
        <time>2019-09-08T10:01:23 0200</time>
      </trkpt>
      <trkpt lat="48.3377" lon="-3.88961">
        <ele>315.458</ele>
        <time>2019-09-08T10:01:28 0200</time>
      </trkpt>
      <trkpt lat="48.3378" lon="-3.88996">
        <ele>313.696</ele>
        <time>2019-09-08T10:01:33 0200</time>
      </trkpt>
      <trkpt lat="48.3378" lon="-3.89028">
        <ele>314.505</ele>
        <time>2019-09-08T10:01:38 0200</time>
      </trkpt>
      <trkpt lat="48.3379" lon="-3.89066">
        <ele>314.256</ele>
        <time>2019-09-08T10:01:43 0200</time>
      </trkpt>
      <trkpt lat="48.338" lon="-3.89102">
        <ele>311.422</ele>
        <time>2019-09-08T10:01:48 0200</time>
      </trkpt>
      <trkpt lat="48.338" lon="-3.89138">
        <ele>309.297</ele>
        <time>2019-09-08T10:01:54 0200</time>
      </trkpt>
      <trkpt lat="48.3381" lon="-3.8917">
        <ele>309.53</ele>
        <time>2019-09-08T10:01:59 0200</time>
      </trkpt>
      <trkpt lat="48.3382" lon="-3.89206">
        <ele>309.852</ele>
        <time>2019-09-08T10:02:04 0200</time>
      </trkpt>
      <trkpt lat="48.3383" lon="-3.89239">
        <ele>310.777</ele>
        <time>2019-09-08T10:02:09 0200</time>
      </trkpt>
      <trkpt lat="48.3384" lon="-3.89254">
        <ele>310.947</ele>
        <time>2019-09-08T10:02:14 0200</time>
      </trkpt>
      <trkpt lat="48.3385" lon="-3.89279">
        <ele>310.942</ele>
        <time>2019-09-08T10:02:19 0200</time>
      </trkpt>
      <trkpt lat="48.3386" lon="-3.89296">
        <ele>310.348</ele>
        <time>2019-09-08T10:02:24 0200</time>
      </trkpt>
      <trkpt lat="48.3387" lon="-3.89326">
        <ele>308.624</ele>
        <time>2019-09-08T10:02:29 0200</time>
      </trkpt>
      <trkpt lat="48.3388" lon="-3.89363">
        <ele>307.726</ele>
        <time>2019-09-08T10:02:34 0200</time>
      </trkpt>
      <trkpt lat="48.3389" lon="-3.89396">
        <ele>307.003</ele>
        <time>2019-09-08T10:02:39 0200</time>
      </trkpt>
      <trkpt lat="48.3391" lon="-3.89431">
        <ele>304.587</ele>
        <time>2019-09-08T10:02:44 0200</time>
      </trkpt>
      <trkpt lat="48.3392" lon="-3.89456">
        <ele>304.881</ele>
        <time>2019-09-08T10:02:49 0200</time>
      </trkpt>
      <trkpt lat="48.3394" lon="-3.89488">
        <ele>307.769</ele>
        <time>2019-09-08T10:02:54 0200</time>
      </trkpt>
      <trkpt lat="48.3395" lon="-3.89522">
        <ele>307.993</ele>
        <time>2019-09-08T10:02:59 0200</time>
      </trkpt>
      <trkpt lat="48.3396" lon="-3.89556">
        <ele>307.659</ele>
        <time>2019-09-08T10:03:04 0200</time>
      </trkpt>
      <trkpt lat="48.3398" lon="-3.89582">
        <ele>307.385</ele>
        <time>2019-09-08T10:03:09 0200</time>
      </trkpt>
      <trkpt lat="48.3399" lon="-3.89622">
        <ele>306.763</ele>
        <time>2019-09-08T10:03:14 0200</time>
      </trkpt>
      <trkpt lat="48.34" lon="-3.89653">
        <ele>303.248</ele>
        <time>2019-09-08T10:03:19 0200</time>
      </trkpt>
      <trkpt lat="48.3401" lon="-3.89688">
        <ele>300.539</ele>
        <time>2019-09-08T10:03:25 0200</time>
      </trkpt>
      <trkpt lat="48.3403" lon="-3.8973">
        <ele>302.469</ele>
        <time>2019-09-08T10:03:30 0200</time>
      </trkpt>
      <trkpt lat="48.3404" lon="-3.89757">
        <ele>302.657</ele>
        <time>2019-09-08T10:03:35 0200</time>
      </trkpt>
      <trkpt lat="48.3404" lon="-3.89779">
        <ele>302.842</ele>
        <time>2019-09-08T10:03:40 0200</time>
      </trkpt>
      <trkpt lat="48.3405" lon="-3.89797">
        <ele>302.706</ele>
        <time>2019-09-08T10:03:45 0200</time>
      </trkpt>
      <trkpt lat="48.3406" lon="-3.89799">
        <ele>301.806</ele>
        <time>2019-09-08T10:03:50 0200</time>
      </trkpt>
      <trkpt lat="48.3408" lon="-3.89798">
        <ele>301.597</ele>
        <time>2019-09-08T10:03:55 0200</time>
      </trkpt>
      <trkpt lat="48.3409" lon="-3.89802">
        <ele>301.375</ele>
        <time>2019-09-08T10:04:00 0200</time>
      </trkpt>
      <trkpt lat="48.3411" lon="-3.89804">
        <ele>301.529</ele>
        <time>2019-09-08T10:04:05 0200</time>
      </trkpt>
      <trkpt lat="48.3413" lon="-3.89803">
        <ele>301.772</ele>
        <time>2019-09-08T10:04:10 0200</time>
      </trkpt>
      <trkpt lat="48.3414" lon="-3.89805">
        <ele>301.903</ele>
        <time>2019-09-08T10:04:15 0200</time>
      </trkpt>
      <trkpt lat="48.3416" lon="-3.89803">
        <ele>302.525</ele>
        <time>2019-09-08T10:04:20 0200</time>
      </trkpt>
      <trkpt lat="48.3417" lon="-3.89803">
        <ele>302.885</ele>
        <time>2019-09-08T10:04:25 0200</time>
      </trkpt>
      <trkpt lat="48.3419" lon="-3.89803">
        <ele>303.137</ele>
        <time>2019-09-08T10:04:30 0200</time>
      </trkpt>
      <trkpt lat="48.3421" lon="-3.89804">
        <ele>303.059</ele>
        <time>2019-09-08T10:04:35 0200</time>
      </trkpt>
      <trkpt lat="48.3422" lon="-3.89804">
        <ele>303.266</ele>
        <time>2019-09-08T10:04:40 0200</time>
      </trkpt>
      <trkpt lat="48.3423" lon="-3.89803">
        <ele>303.372</ele>
        <time>2019-09-08T10:04:46 0200</time>
      </trkpt>
      <trkpt lat="48.3424" lon="-3.89805">
        <ele>303.436</ele>
        <time>2019-09-08T10:04:51 0200</time>
      </trkpt>
      <trkpt lat="48.3426" lon="-3.89812">
        <ele>303.253</ele>
        <time>2019-09-08T10:04:56 0200</time>
      </trkpt>
      <trkpt lat="48.3428" lon="-3.8981">
        <ele>302.692</ele>
        <time>2019-09-08T10:05:01 0200</time>
      </trkpt>
      <trkpt lat="48.3431" lon="-3.89812">
        <ele>301.779</ele>
        <time>2019-09-08T10:05:06 0200</time>
      </trkpt>
      <trkpt lat="48.3433" lon="-3.89815">
        <ele>300.196</ele>
        <time>2019-09-08T10:05:11 0200</time>
      </trkpt>
      <trkpt lat="48.3434" lon="-3.89844">
        <ele>298.553</ele>
        <time>2019-09-08T10:05:16 0200</time>
      </trkpt>
      <trkpt lat="48.3435" lon="-3.89877">
        <ele>300.506</ele>
        <time>2019-09-08T10:05:21 0200</time>
      </trkpt>
      <trkpt lat="48.3435" lon="-3.89905">
        <ele>299.476</ele>
        <time>2019-09-08T10:05:26 0200</time>
      </trkpt>
      <trkpt lat="48.3436" lon="-3.89939">
        <ele>298.279</ele>
        <time>2019-09-08T10:05:31 0200</time>
      </trkpt>
      <trkpt lat="48.3436" lon="-3.89963">
        <ele>299.621</ele>
        <time>2019-09-08T10:05:36 0200</time>
      </trkpt>
      <trkpt lat="48.3437" lon="-3.89996">
        <ele>298.552</ele>
        <time>2019-09-08T10:05:41 0200</time>
      </trkpt>
      <trkpt lat="48.3438" lon="-3.90025">
        <ele>299.54</ele>
        <time>2019-09-08T10:05:46 0200</time>
      </trkpt>
      <trkpt lat="48.3438" lon="-3.90046">
        <ele>299.945</ele>
        <time>2019-09-08T10:05:51 0200</time>
      </trkpt>
      <trkpt lat="48.3439" lon="-3.9008">
        <ele>301.43</ele>
        <time>2019-09-08T10:05:56 0200</time>
      </trkpt>
      <trkpt lat="48.3439" lon="-3.90109">
        <ele>301.362</ele>
        <time>2019-09-08T10:06:01 0200</time>
      </trkpt>
      <trkpt lat="48.344" lon="-3.9013">
        <ele>302.421</ele>
        <time>2019-09-08T10:06:06 0200</time>
      </trkpt>
      <trkpt lat="48.344" lon="-3.90158">
        <ele>301.313</ele>
        <time>2019-09-08T10:06:11 0200</time>
      </trkpt>
      <trkpt lat="48.3441" lon="-3.90181">
        <ele>301.649</ele>
        <time>2019-09-08T10:06:16 0200</time>
      </trkpt>
      <trkpt lat="48.3441" lon="-3.90217">
        <ele>301.877</ele>
        <time>2019-09-08T10:06:21 0200</time>
      </trkpt>
      <trkpt lat="48.3442" lon="-3.90246">
        <ele>303.861</ele>
        <time>2019-09-08T10:06:26 0200</time>
      </trkpt>
      <trkpt lat="48.3443" lon="-3.90276">
        <ele>304.372</ele>
        <time>2019-09-08T10:06:31 0200</time>
      </trkpt>
      <trkpt lat="48.3443" lon="-3.90298">
        <ele>304.305</ele>
        <time>2019-09-08T10:06:36 0200</time>
      </trkpt>
      <trkpt lat="48.3443" lon="-3.90329">
        <ele>304.228</ele>
        <time>2019-09-08T10:06:41 0200</time>
      </trkpt>
      <trkpt lat="48.3444" lon="-3.90349">
        <ele>304.254</ele>
        <time>2019-09-08T10:06:46 0200</time>
      </trkpt>
      <trkpt lat="48.3445" lon="-3.90379">
        <ele>303.992</ele>
        <time>2019-09-08T10:06:51 0200</time>
      </trkpt>
      <trkpt lat="48.3445" lon="-3.90401">
        <ele>303.75</ele>
        <time>2019-09-08T10:06:56 0200</time>
      </trkpt>
      <trkpt lat="48.3446" lon="-3.90432">
        <ele>302.592</ele>
        <time>2019-09-08T10:07:01 0200</time>
      </trkpt>
      <trkpt lat="48.3446" lon="-3.90452">
        <ele>302.157</ele>
        <time>2019-09-08T10:07:07 0200</time>
      </trkpt>
      <trkpt lat="48.3446" lon="-3.90481">
        <ele>301.485</ele>
        <time>2019-09-08T10:07:12 0200</time>
      </trkpt>
      <trkpt lat="48.3447" lon="-3.905">
        <ele>301.562</ele>
        <time>2019-09-08T10:07:17 0200</time>
      </trkpt>
      <trkpt lat="48.3447" lon="-3.90528">
        <ele>301.964</ele>
        <time>2019-09-08T10:07:22 0200</time>
      </trkpt>
      <trkpt lat="48.3448" lon="-3.90546">
        <ele>302.257</ele>
        <time>2019-09-08T10:07:27 0200</time>
      </trkpt>
      <trkpt lat="48.3448" lon="-3.90578">
        <ele>302.603</ele>
        <time>2019-09-08T10:07:32 0200</time>
      </trkpt>
      <trkpt lat="48.3449" lon="-3.90601">
        <ele>302.888</ele>
        <time>2019-09-08T10:07:37 0200</time>
      </trkpt>
      <trkpt lat="48.3449" lon="-3.90631">
        <ele>302.927</ele>
        <time>2019-09-08T10:07:42 0200</time>
      </trkpt>
      <trkpt lat="48.345" lon="-3.90657">
        <ele>302.461</ele>
        <time>2019-09-08T10:07:47 0200</time>
      </trkpt>
      <trkpt lat="48.3451" lon="-3.90686">
        <ele>302.299</ele>
        <time>2019-09-08T10:07:52 0200</time>
      </trkpt>
      <trkpt lat="48.3451" lon="-3.90707">
        <ele>303.221</ele>
        <time>2019-09-08T10:07:57 0200</time>
      </trkpt>
      <trkpt lat="48.3452" lon="-3.90742">
        <ele>304.548</ele>
        <time>2019-09-08T10:08:02 0200</time>
      </trkpt>
      <trkpt lat="48.3452" lon="-3.90765">
        <ele>304.414</ele>
        <time>2019-09-08T10:08:07 0200</time>
      </trkpt>
      <trkpt lat="48.3453" lon="-3.90796">
        <ele>303.314</ele>
        <time>2019-09-08T10:08:13 0200</time>
      </trkpt>
      <trkpt lat="48.3453" lon="-3.90825">
        <ele>304.61</ele>
        <time>2019-09-08T10:08:18 0200</time>
      </trkpt>
      <trkpt lat="48.3454" lon="-3.90848">
        <ele>304.05</ele>
        <time>2019-09-08T10:08:23 0200</time>
      </trkpt>
      <trkpt lat="48.3454" lon="-3.90884">
        <ele>306.462</ele>
        <time>2019-09-08T10:08:28 0200</time>
      </trkpt>
      <trkpt lat="48.3455" lon="-3.90905">
        <ele>307.093</ele>
        <time>2019-09-08T10:08:33 0200</time>
      </trkpt>
      <trkpt lat="48.3455" lon="-3.90937">
        <ele>308.5</ele>
        <time>2019-09-08T10:08:38 0200</time>
      </trkpt>
      <trkpt lat="48.3456" lon="-3.90958">
        <ele>308.644</ele>
        <time>2019-09-08T10:08:43 0200</time>
      </trkpt>
      <trkpt lat="48.3457" lon="-3.90991">
        <ele>310.692</ele>
        <time>2019-09-08T10:08:48 0200</time>
      </trkpt>
      <trkpt lat="48.3457" lon="-3.91014">
        <ele>311.821</ele>
        <time>2019-09-08T10:08:53 0200</time>
      </trkpt>
      <trkpt lat="48.3457" lon="-3.91044">
        <ele>311.968</ele>
        <time>2019-09-08T10:08:58 0200</time>
      </trkpt>
      <trkpt lat="48.3458" lon="-3.91067">
        <ele>311.999</ele>
        <time>2019-09-08T10:09:03 0200</time>
      </trkpt>
      <trkpt lat="48.3458" lon="-3.91094">
        <ele>310.871</ele>
        <time>2019-09-08T10:09:08 0200</time>
      </trkpt>
      <trkpt lat="48.3459" lon="-3.91116">
        <ele>309.667</ele>
        <time>2019-09-08T10:09:13 0200</time>
      </trkpt>
      <trkpt lat="48.3459" lon="-3.91151">
        <ele>310.897</ele>
        <time>2019-09-08T10:09:18 0200</time>
      </trkpt>
      <trkpt lat="48.346" lon="-3.91172">
        <ele>311.606</ele>
        <time>2019-09-08T10:09:23 0200</time>
      </trkpt>
      <trkpt lat="48.3461" lon="-3.91204">
        <ele>310.778</ele>
        <time>2019-09-08T10:09:28 0200</time>
      </trkpt>
      <trkpt lat="48.3461" lon="-3.91225">
        <ele>310.634</ele>
        <time>2019-09-08T10:09:33 0200</time>
      </trkpt>
      <trkpt lat="48.3462" lon="-3.91256">
        <ele>310.627</ele>
        <time>2019-09-08T10:09:38 0200</time>
      </trkpt>
      <trkpt lat="48.3462" lon="-3.91275">
        <ele>310.753</ele>
        <time>2019-09-08T10:09:43 0200</time>
      </trkpt>
      <trkpt lat="48.3462" lon="-3.91302">
        <ele>310.873</ele>
        <time>2019-09-08T10:09:48 0200</time>
      </trkpt>
      <trkpt lat="48.3463" lon="-3.9133">
        <ele>310.985</ele>
        <time>2019-09-08T10:09:53 0200</time>
      </trkpt>
      <trkpt lat="48.3463" lon="-3.9135">
        <ele>311.32</ele>
        <time>2019-09-08T10:09:59 0200</time>
      </trkpt>
      <trkpt lat="48.3464" lon="-3.91379">
        <ele>311.985</ele>
        <time>2019-09-08T10:10:04 0200</time>
      </trkpt>
      <trkpt lat="48.3464" lon="-3.91396">
        <ele>312.328</ele>
        <time>2019-09-08T10:10:09 0200</time>
      </trkpt>
      <trkpt lat="48.3464" lon="-3.91425">
        <ele>312.822</ele>
        <time>2019-09-08T10:10:14 0200</time>
      </trkpt>
      <trkpt lat="48.3465" lon="-3.91445">
        <ele>313.151</ele>
        <time>2019-09-08T10:10:19 0200</time>
      </trkpt>
      <trkpt lat="48.3465" lon="-3.91473">
        <ele>313.592</ele>
        <time>2019-09-08T10:10:24 0200</time>
      </trkpt>
      <trkpt lat="48.3465" lon="-3.91491">
        <ele>313.856</ele>
        <time>2019-09-08T10:10:29 0200</time>
      </trkpt>
      <trkpt lat="48.3465" lon="-3.9152">
        <ele>314.13</ele>
        <time>2019-09-08T10:10:34 0200</time>
      </trkpt>
      <trkpt lat="48.3466" lon="-3.91541">
        <ele>314.468</ele>
        <time>2019-09-08T10:10:39 0200</time>
      </trkpt>
      <trkpt lat="48.3466" lon="-3.91573">
        <ele>317.03</ele>
        <time>2019-09-08T10:10:44 0200</time>
      </trkpt>
      <trkpt lat="48.3467" lon="-3.91605">
        <ele>318.107</ele>
        <time>2019-09-08T10:10:49 0200</time>
      </trkpt>
      <trkpt lat="48.3467" lon="-3.91639">
        <ele>317.558</ele>
        <time>2019-09-08T10:10:54 0200</time>
      </trkpt>
      <trkpt lat="48.3468" lon="-3.91674">
        <ele>318.074</ele>
        <time>2019-09-08T10:10:59 0200</time>
      </trkpt>
      <trkpt lat="48.3468" lon="-3.91701">
        <ele>317.848</ele>
        <time>2019-09-08T10:11:04 0200</time>
      </trkpt>
      <trkpt lat="48.3469" lon="-3.91735">
        <ele>317.477</ele>
        <time>2019-09-08T10:11:09 0200</time>
      </trkpt>
      <trkpt lat="48.347" lon="-3.91773">
        <ele>314.821</ele>
        <time>2019-09-08T10:11:14 0200</time>
      </trkpt>
      <trkpt lat="48.3471" lon="-3.91802">
        <ele>315.901</ele>
        <time>2019-09-08T10:11:19 0200</time>
      </trkpt>
      <trkpt lat="48.3471" lon="-3.9182">
        <ele>315.876</ele>
        <time>2019-09-08T10:11:24 0200</time>
      </trkpt>
      <trkpt lat="48.3471" lon="-3.91831">
        <ele>315.644</ele>
        <time>2019-09-08T10:11:29 0200</time>
      </trkpt>
      <trkpt lat="48.3469" lon="-3.91836">
        <ele>315.152</ele>
        <time>2019-09-08T10:11:34 0200</time>
      </trkpt>
      <trkpt lat="48.3468" lon="-3.91841">
        <ele>314.888</ele>
        <time>2019-09-08T10:11:39 0200</time>
      </trkpt>
      <trkpt lat="48.3467" lon="-3.91844">
        <ele>314.927</ele>
        <time>2019-09-08T10:11:44 0200</time>
      </trkpt>
      <trkpt lat="48.3467" lon="-3.91846">
        <ele>315.109</ele>
        <time>2019-09-08T10:11:49 0200</time>
      </trkpt>
      <trkpt lat="48.3465" lon="-3.91851">
        <ele>315.658</ele>
        <time>2019-09-08T10:11:54 0200</time>
      </trkpt>
      <trkpt lat="48.3464" lon="-3.91855">
        <ele>316.204</ele>
        <time>2019-09-08T10:11:59 0200</time>
      </trkpt>
      <trkpt lat="48.3464" lon="-3.91857">
        <ele>316.342</ele>
        <time>2019-09-08T10:12:04 0200</time>
      </trkpt>
      <trkpt lat="48.3463" lon="-3.91862">
        <ele>316.44</ele>
        <time>2019-09-08T10:12:10 0200</time>
      </trkpt>
      <trkpt lat="48.3462" lon="-3.91865">
        <ele>316.207</ele>
        <time>2019-09-08T10:12:15 0200</time>
      </trkpt>
      <trkpt lat="48.3461" lon="-3.91868">
        <ele>316.193</ele>
        <time>2019-09-08T10:12:20 0200</time>
      </trkpt>
      <trkpt lat="48.3461" lon="-3.9187">
        <ele>316.308</ele>
        <time>2019-09-08T10:12:25 0200</time>
      </trkpt>
      <trkpt lat="48.346" lon="-3.91871">
        <ele>316.359</ele>
        <time>2019-09-08T10:12:30 0200</time>
      </trkpt>
      <trkpt lat="48.3459" lon="-3.91873">
        <ele>317.15</ele>
        <time>2019-09-08T10:12:35 0200</time>
      </trkpt>
      <trkpt lat="48.3459" lon="-3.91875">
        <ele>317.693</ele>
        <time>2019-09-08T10:12:40 0200</time>
      </trkpt>
      <trkpt lat="48.3458" lon="-3.91874">
        <ele>318.548</ele>
        <time>2019-09-08T10:12:45 0200</time>
      </trkpt>
      <trkpt lat="48.3458" lon="-3.91874">
        <ele>319.363</ele>
        <time>2019-09-08T10:12:50 0200</time>
      </trkpt>
      <trkpt lat="48.3457" lon="-3.91876">
        <ele>319.865</ele>
        <time>2019-09-08T10:12:55 0200</time>
      </trkpt>
      <trkpt lat="48.3457" lon="-3.91878">
        <ele>320.72</ele>
        <time>2019-09-08T10:13:00 0200</time>
      </trkpt>
      <trkpt lat="48.3456" lon="-3.91879">
        <ele>321.737</ele>
        <time>2019-09-08T10:13:05 0200</time>
      </trkpt>
      <trkpt lat="48.3456" lon="-3.91879">
        <ele>321.737</ele>
        <time>2019-09-08T10:13:10 0200</time>
      </trkpt>
      <trkpt lat="48.3456" lon="-3.91879">
        <ele>321.737</ele>
        <time>2019-09-08T10:13:15 0200</time>
      </trkpt>
      <trkpt lat="48.3456" lon="-3.91879">
        <ele>321.737</ele>
        <time>2019-09-08T10:13:20 0200</time>
      </trkpt>
      <trkpt lat="48.3456" lon="-3.91881">
        <ele>323.599</ele>
        <time>2019-09-08T10:13:25 0200</time>
      </trkpt>
      <trkpt lat="48.3456" lon="-3.91881">
        <ele>323.599</ele>
        <time>2019-09-08T10:13:30 0200</time>
      </trkpt>
      <trkpt lat="48.3455" lon="-3.91886">
        <ele>325.052</ele>
        <time>2019-09-08T10:13:35 0200</time>
      </trkpt>
      <trkpt lat="48.3454" lon="-3.91887">
        <ele>325.646</ele>
        <time>2019-09-08T10:13:40 0200</time>
      </trkpt>
      <trkpt lat="48.3453" lon="-3.91893">
        <ele>326.647</ele>
        <time>2019-09-08T10:13:45 0200</time>
      </trkpt>
      <trkpt lat="48.3453" lon="-3.91895">
        <ele>326.984</ele>
        <time>2019-09-08T10:13:50 0200</time>
      </trkpt>
      <trkpt lat="48.3452" lon="-3.91897">
        <ele>327.649</ele>
        <time>2019-09-08T10:13:55 0200</time>
      </trkpt>
      <trkpt lat="48.3452" lon="-3.91898">
        <ele>328.659</ele>
        <time>2019-09-08T10:14:00 0200</time>
      </trkpt>
      <trkpt lat="48.3451" lon="-3.91899">
        <ele>329.277</ele>
        <time>2019-09-08T10:14:05 0200</time>
      </trkpt>
      <trkpt lat="48.345" lon="-3.91899">
        <ele>330.296</ele>
        <time>2019-09-08T10:14:10 0200</time>
      </trkpt>
      <trkpt lat="48.345" lon="-3.91901">
        <ele>331.565</ele>
        <time>2019-09-08T10:14:15 0200</time>
      </trkpt>
      <trkpt lat="48.3449" lon="-3.91905">
        <ele>332.793</ele>
        <time>2019-09-08T10:14:21 0200</time>
      </trkpt>
      <trkpt lat="48.3448" lon="-3.91906">
        <ele>333.873</ele>
        <time>2019-09-08T10:14:26 0200</time>
      </trkpt>
      <trkpt lat="48.3448" lon="-3.91906">
        <ele>333.873</ele>
        <time>2019-09-08T10:14:31 0200</time>
      </trkpt>
      <trkpt lat="48.3448" lon="-3.91906">
        <ele>333.873</ele>
        <time>2019-09-08T10:14:36 0200</time>
      </trkpt>
      <trkpt lat="48.3448" lon="-3.91906">
        <ele>333.873</ele>
        <time>2019-09-08T10:14:41 0200</time>
      </trkpt>
      <trkpt lat="48.3448" lon="-3.91906">
        <ele>333.873</ele>
        <time>2019-09-08T10:14:46 0200</time>
      </trkpt>
      <trkpt lat="48.3447" lon="-3.91908">
        <ele>336</ele>
        <time>2019-09-08T10:14:51 0200</time>
      </trkpt>
      <trkpt lat="48.3446" lon="-3.91914">
        <ele>336.572</ele>
        <time>2019-09-08T10:14:56 0200</time>
      </trkpt>
      <trkpt lat="48.3445" lon="-3.91917">
        <ele>336.723</ele>
        <time>2019-09-08T10:15:01 0200</time>
      </trkpt>
      <trkpt lat="48.3443" lon="-3.91923">
        <ele>336.886</ele>
        <time>2019-09-08T10:15:06 0200</time>
      </trkpt>
      <trkpt lat="48.3442" lon="-3.91925">
        <ele>337.079</ele>
        <time>2019-09-08T10:15:11 0200</time>
      </trkpt>
      <trkpt lat="48.3441" lon="-3.91928">
        <ele>337.349</ele>
        <time>2019-09-08T10:15:16 0200</time>
      </trkpt>
      <trkpt lat="48.344" lon="-3.91929">
        <ele>337.567</ele>
        <time>2019-09-08T10:15:21 0200</time>
      </trkpt>
      <trkpt lat="48.3438" lon="-3.91934">
        <ele>338.395</ele>
        <time>2019-09-08T10:15:26 0200</time>
      </trkpt>
      <trkpt lat="48.3436" lon="-3.91935">
        <ele>340.263</ele>
        <time>2019-09-08T10:15:31 0200</time>
      </trkpt>
      <trkpt lat="48.3434" lon="-3.9194">
        <ele>343.138</ele>
        <time>2019-09-08T10:15:36 0200</time>
      </trkpt>
      <trkpt lat="48.3432" lon="-3.91944">
        <ele>344.328</ele>
        <time>2019-09-08T10:15:41 0200</time>
      </trkpt>
      <trkpt lat="48.343" lon="-3.91947">
        <ele>343.959</ele>
        <time>2019-09-08T10:15:47 0200</time>
      </trkpt>
      <trkpt lat="48.3427" lon="-3.91951">
        <ele>342.484</ele>
        <time>2019-09-08T10:15:52 0200</time>
      </trkpt>
      <trkpt lat="48.3425" lon="-3.91955">
        <ele>342.272</ele>
        <time>2019-09-08T10:15:57 0200</time>
      </trkpt>
      <trkpt lat="48.3423" lon="-3.91959">
        <ele>343.753</ele>
        <time>2019-09-08T10:16:02 0200</time>
      </trkpt>
      <trkpt lat="48.342" lon="-3.91963">
        <ele>344.74</ele>
        <time>2019-09-08T10:16:07 0200</time>
      </trkpt>
      <trkpt lat="48.3418" lon="-3.91966">
        <ele>344.428</ele>
        <time>2019-09-08T10:16:12 0200</time>
      </trkpt>
      <trkpt lat="48.3417" lon="-3.91979">
        <ele>344.376</ele>
        <time>2019-09-08T10:16:17 0200</time>
      </trkpt>
      <trkpt lat="48.3418" lon="-3.92007">
        <ele>343.512</ele>
        <time>2019-09-08T10:16:22 0200</time>
      </trkpt>
      <trkpt lat="48.3419" lon="-3.92037">
        <ele>339.1</ele>
        <time>2019-09-08T10:16:27 0200</time>
      </trkpt>
      <trkpt lat="48.342" lon="-3.92077">
        <ele>336.469</ele>
        <time>2019-09-08T10:16:32 0200</time>
      </trkpt>
      <trkpt lat="48.3421" lon="-3.9211">
        <ele>335.153</ele>
        <time>2019-09-08T10:16:37 0200</time>
      </trkpt>
      <trkpt lat="48.3422" lon="-3.92143">
        <ele>334.772</ele>
        <time>2019-09-08T10:16:42 0200</time>
      </trkpt>
      <trkpt lat="48.3423" lon="-3.92166">
        <ele>335.836</ele>
        <time>2019-09-08T10:16:47 0200</time>
      </trkpt>
      <trkpt lat="48.3424" lon="-3.92202">
        <ele>336.241</ele>
        <time>2019-09-08T10:16:52 0200</time>
      </trkpt>
      <trkpt lat="48.3425" lon="-3.92231">
        <ele>337.864</ele>
        <time>2019-09-08T10:16:57 0200</time>
      </trkpt>
      <trkpt lat="48.3427" lon="-3.92263">
        <ele>336.905</ele>
        <time>2019-09-08T10:17:02 0200</time>
      </trkpt>
      <trkpt lat="48.3428" lon="-3.92293">
        <ele>334.834</ele>
        <time>2019-09-08T10:17:07 0200</time>
      </trkpt>
      <trkpt lat="48.3429" lon="-3.92324">
        <ele>331.18</ele>
        <time>2019-09-08T10:17:12 0200</time>
      </trkpt>
      <trkpt lat="48.3431" lon="-3.92361">
        <ele>331.379</ele>
        <time>2019-09-08T10:17:17 0200</time>
      </trkpt>
      <trkpt lat="48.3432" lon="-3.924">
        <ele>331.117</ele>
        <time>2019-09-08T10:17:22 0200</time>
      </trkpt>
      <trkpt lat="48.3434" lon="-3.92433">
        <ele>329.05</ele>
        <time>2019-09-08T10:17:27 0200</time>
      </trkpt>
      <trkpt lat="48.3435" lon="-3.9247">
        <ele>328.091</ele>
        <time>2019-09-08T10:17:32 0200</time>
      </trkpt>
      <trkpt lat="48.3436" lon="-3.92505">
        <ele>326.927</ele>
        <time>2019-09-08T10:17:37 0200</time>
      </trkpt>
      <trkpt lat="48.3438" lon="-3.9254">
        <ele>327.822</ele>
        <time>2019-09-08T10:17:42 0200</time>
      </trkpt>
      <trkpt lat="48.3439" lon="-3.92571">
        <ele>326.832</ele>
        <time>2019-09-08T10:17:47 0200</time>
      </trkpt>
      <trkpt lat="48.3441" lon="-3.92604">
        <ele>325.33</ele>
        <time>2019-09-08T10:17:52 0200</time>
      </trkpt>
      <trkpt lat="48.3442" lon="-3.9264">
        <ele>321.396</ele>
        <time>2019-09-08T10:17:57 0200</time>
      </trkpt>
      <trkpt lat="48.3444" lon="-3.92659">
        <ele>318.076</ele>
        <time>2019-09-08T10:18:02 0200</time>
      </trkpt>
      <trkpt lat="48.3446" lon="-3.92665">
        <ele>314.704</ele>
        <time>2019-09-08T10:18:08 0200</time>
      </trkpt>
      <trkpt lat="48.3448" lon="-3.92665">
        <ele>314.788</ele>
        <time>2019-09-08T10:18:13 0200</time>
      </trkpt>
      <trkpt lat="48.3449" lon="-3.92658">
        <ele>314.777</ele>
        <time>2019-09-08T10:18:18 0200</time>
      </trkpt>
      <trkpt lat="48.3451" lon="-3.92656">
        <ele>315.201</ele>
        <time>2019-09-08T10:18:23 0200</time>
      </trkpt>
      <trkpt lat="48.3451" lon="-3.92655">
        <ele>315.58</ele>
        <time>2019-09-08T10:18:28 0200</time>
      </trkpt>
      <trkpt lat="48.3452" lon="-3.92655">
        <ele>315.914</ele>
        <time>2019-09-08T10:18:33 0200</time>
      </trkpt>
      <trkpt lat="48.3452" lon="-3.92655">
        <ele>315.914</ele>
        <time>2019-09-08T10:18:38 0200</time>
      </trkpt>
      <trkpt lat="48.3452" lon="-3.92661">
        <ele>316.494</ele>
        <time>2019-09-08T10:18:43 0200</time>
      </trkpt>
      <trkpt lat="48.3452" lon="-3.92661">
        <ele>316.494</ele>
        <time>2019-09-08T10:18:48 0200</time>
      </trkpt>
      <trkpt lat="48.3452" lon="-3.92668">
        <ele>317.005</ele>
        <time>2019-09-08T10:18:53 0200</time>
      </trkpt>
      <trkpt lat="48.3452" lon="-3.92668">
        <ele>317.005</ele>
        <time>2019-09-08T10:18:58 0200</time>
      </trkpt>
      <trkpt lat="48.3452" lon="-3.92674">
        <ele>318.543</ele>
        <time>2019-09-08T10:19:03 0200</time>
      </trkpt>
      <trkpt lat="48.3453" lon="-3.92679">
        <ele>319.004</ele>
        <time>2019-09-08T10:19:08 0200</time>
      </trkpt>
      <trkpt lat="48.3453" lon="-3.92679">
        <ele>319.004</ele>
        <time>2019-09-08T10:19:13 0200</time>
      </trkpt>
      <trkpt lat="48.3453" lon="-3.92678">
        <ele>319.415</ele>
        <time>2019-09-08T10:19:18 0200</time>
      </trkpt>
      <trkpt lat="48.3453" lon="-3.92678">
        <ele>319.415</ele>
        <time>2019-09-08T10:19:23 0200</time>
      </trkpt>
      <trkpt lat="48.3453" lon="-3.92678">
        <ele>319.415</ele>
        <time>2019-09-08T10:19:28 0200</time>
      </trkpt>
      <trkpt lat="48.3454" lon="-3.92679">
        <ele>320.09</ele>
        <time>2019-09-08T10:19:33 0200</time>
      </trkpt>
      <trkpt lat="48.3454" lon="-3.92679">
        <ele>320.09</ele>
        <time>2019-09-08T10:19:39 0200</time>
      </trkpt>
      <trkpt lat="48.3454" lon="-3.92679">
        <ele>320.09</ele>
        <time>2019-09-08T10:19:44 0200</time>
      </trkpt>
      <trkpt lat="48.3454" lon="-3.92679">
        <ele>320.09</ele>
        <time>2019-09-08T10:19:49 0200</time>
      </trkpt>
      <trkpt lat="48.3454" lon="-3.92683">
        <ele>321.23</ele>
        <time>2019-09-08T10:19:54 0200</time>
      </trkpt>
      <trkpt lat="48.3454" lon="-3.92683">
        <ele>321.23</ele>
        <time>2019-09-08T10:19:59 0200</time>
      </trkpt>
      <trkpt lat="48.3454" lon="-3.92683">
        <ele>321.23</ele>
        <time>2019-09-08T10:20:04 0200</time>
      </trkpt>
      <trkpt lat="48.3454" lon="-3.92683">
        <ele>321.23</ele>
        <time>2019-09-08T10:20:09 0200</time>
      </trkpt>
      <trkpt lat="48.3454" lon="-3.92683">
        <ele>321.23</ele>
        <time>2019-09-08T10:20:14 0200</time>
      </trkpt>
      <trkpt lat="48.3454" lon="-3.92683">
        <ele>321.23</ele>
        <time>2019-09-08T10:20:19 0200</time>
      </trkpt>
      <trkpt lat="48.3454" lon="-3.92683">
        <ele>321.23</ele>
        <time>2019-09-08T10:20:24 0200</time>
      </trkpt>
      <trkpt lat="48.3454" lon="-3.92683">
        <ele>321.23</ele>
        <time>2019-09-08T10:20:29 0200</time>
      </trkpt>
      <trkpt lat="48.3454" lon="-3.92683">
        <ele>321.23</ele>
        <time>2019-09-08T10:20:34 0200</time>
      </trkpt>
      <trkpt lat="48.3454" lon="-3.92683">
        <ele>321.23</ele>
        <time>2019-09-08T10:20:39 0200</time>
      </trkpt>
      <trkpt lat="48.3454" lon="-3.92683">
        <ele>321.23</ele>
        <time>2019-09-08T10:20:44 0200</time>
      </trkpt>
      <trkpt lat="48.3454" lon="-3.92683">
        <ele>321.23</ele>
        <time>2019-09-08T10:20:49 0200</time>
      </trkpt>
      <trkpt lat="48.3454" lon="-3.92683">
        <ele>321.23</ele>
        <time>2019-09-08T10:20:54 0200</time>
      </trkpt>
      <trkpt lat="48.3454" lon="-3.92683">
        <ele>321.23</ele>
        <time>2019-09-08T10:20:59 0200</time>
      </trkpt>
      <trkpt lat="48.3454" lon="-3.92683">
        <ele>321.23</ele>
        <time>2019-09-08T10:21:04 0200</time>
      </trkpt>
      <trkpt lat="48.3454" lon="-3.92679">
        <ele>322.755</ele>
        <time>2019-09-08T10:21:09 0200</time>
      </trkpt>
      <trkpt lat="48.3454" lon="-3.92679">
        <ele>322.755</ele>
        <time>2019-09-08T10:21:14 0200</time>
      </trkpt>
      <trkpt lat="48.3454" lon="-3.92679">
        <ele>322.755</ele>
        <time>2019-09-08T10:21:19 0200</time>
      </trkpt>
      <trkpt lat="48.3454" lon="-3.92679">
        <ele>322.755</ele>
        <time>2019-09-08T10:21:24 0200</time>
      </trkpt>
      <trkpt lat="48.3454" lon="-3.92679">
        <ele>322.755</ele>
        <time>2019-09-08T10:21:29 0200</time>
      </trkpt>
      <trkpt lat="48.3454" lon="-3.92679">
        <ele>322.755</ele>
        <time>2019-09-08T10:21:34 0200</time>
      </trkpt>
      <trkpt lat="48.3454" lon="-3.92679">
        <ele>322.755</ele>
        <time>2019-09-08T10:21:39 0200</time>
      </trkpt>
      <trkpt lat="48.3454" lon="-3.92679">
        <ele>322.755</ele>
        <time>2019-09-08T10:21:44 0200</time>
      </trkpt>
      <trkpt lat="48.3454" lon="-3.92679">
        <ele>322.755</ele>
        <time>2019-09-08T10:21:49 0200</time>
      </trkpt>
      <trkpt lat="48.3454" lon="-3.92679">
        <ele>322.755</ele>
        <time>2019-09-08T10:21:54 0200</time>
      </trkpt>
      <trkpt lat="48.3454" lon="-3.92679">
        <ele>322.755</ele>
        <time>2019-09-08T10:22:00 0200</time>
      </trkpt>
      <trkpt lat="48.3454" lon="-3.92679">
        <ele>322.755</ele>
        <time>2019-09-08T10:22:05 0200</time>
      </trkpt>
      <trkpt lat="48.3454" lon="-3.92679">
        <ele>322.755</ele>
        <time>2019-09-08T10:22:10 0200</time>
      </trkpt>
      <trkpt lat="48.3454" lon="-3.92679">
        <ele>322.755</ele>
        <time>2019-09-08T10:22:15 0200</time>
      </trkpt>
      <trkpt lat="48.3454" lon="-3.92679">
        <ele>322.755</ele>
        <time>2019-09-08T10:22:20 0200</time>
      </trkpt>
      <trkpt lat="48.3454" lon="-3.92679">
        <ele>322.755</ele>
        <time>2019-09-08T10:22:25 0200</time>
      </trkpt>
      <trkpt lat="48.3454" lon="-3.92679">
        <ele>322.755</ele>
        <time>2019-09-08T10:22:30 0200</time>
      </trkpt>
      <trkpt lat="48.3454" lon="-3.92679">
        <ele>322.755</ele>
        <time>2019-09-08T10:22:35 0200</time>
      </trkpt>
      <trkpt lat="48.3454" lon="-3.92679">
        <ele>322.755</ele>
        <time>2019-09-08T10:22:40 0200</time>
      </trkpt>
      <trkpt lat="48.3454" lon="-3.92679">
        <ele>322.755</ele>
        <time>2019-09-08T10:22:45 0200</time>
      </trkpt>
      <trkpt lat="48.3454" lon="-3.92679">
        <ele>322.755</ele>
        <time>2019-09-08T10:22:50 0200</time>
      </trkpt>
      <trkpt lat="48.3454" lon="-3.92679">
        <ele>322.755</ele>
        <time>2019-09-08T10:22:55 0200</time>
      </trkpt>
      <trkpt lat="48.3454" lon="-3.92679">
        <ele>322.755</ele>
        <time>2019-09-08T10:23:00 0200</time>
      </trkpt>
      <trkpt lat="48.3454" lon="-3.92679">
        <ele>322.755</ele>
        <time>2019-09-08T10:23:05 0200</time>
      </trkpt>
      <trkpt lat="48.3454" lon="-3.92679">
        <ele>322.755</ele>
        <time>2019-09-08T10:23:10 0200</time>
      </trkpt>
      <trkpt lat="48.3454" lon="-3.92679">
        <ele>322.755</ele>
        <time>2019-09-08T10:23:15 0200</time>
      </trkpt>
      <trkpt lat="48.3454" lon="-3.92679">
        <ele>322.755</ele>
        <time>2019-09-08T10:23:20 0200</time>
      </trkpt>
      <trkpt lat="48.3454" lon="-3.92679">
        <ele>322.755</ele>
        <time>2019-09-08T10:23:25 0200</time>
      </trkpt>
      <trkpt lat="48.3454" lon="-3.92679">
        <ele>322.755</ele>
        <time>2019-09-08T10:23:30 0200</time>
      </trkpt>
      <trkpt lat="48.3454" lon="-3.92679">
        <ele>322.755</ele>
        <time>2019-09-08T10:23:35 0200</time>
      </trkpt>
      <trkpt lat="48.3454" lon="-3.92679">
        <ele>322.755</ele>
        <time>2019-09-08T10:23:40 0200</time>
      </trkpt>
      <trkpt lat="48.3454" lon="-3.92679">
        <ele>322.755</ele>
        <time>2019-09-08T10:23:45 0200</time>
      </trkpt>
      <trkpt lat="48.3454" lon="-3.92679">
        <ele>322.755</ele>
        <time>2019-09-08T10:23:50 0200</time>
      </trkpt>
      <trkpt lat="48.3454" lon="-3.92679">
        <ele>322.755</ele>
        <time>2019-09-08T10:23:55 0200</time>
      </trkpt>
      <trkpt lat="48.3454" lon="-3.92679">
        <ele>322.755</ele>
        <time>2019-09-08T10:24:00 0200</time>
      </trkpt>
      <trkpt lat="48.3454" lon="-3.92679">
        <ele>322.755</ele>
        <time>2019-09-08T10:24:05 0200</time>
      </trkpt>
      <trkpt lat="48.3454" lon="-3.92679">
        <ele>322.755</ele>
        <time>2019-09-08T10:24:10 0200</time>
      </trkpt>
      <trkpt lat="48.3454" lon="-3.92679">
        <ele>322.755</ele>
        <time>2019-09-08T10:24:16 0200</time>
      </trkpt>
      <trkpt lat="48.3454" lon="-3.92679">
        <ele>322.755</ele>
        <time>2019-09-08T10:24:21 0200</time>
      </trkpt>
      <trkpt lat="48.3454" lon="-3.92679">
        <ele>322.755</ele>
        <time>2019-09-08T10:24:26 0200</time>
      </trkpt>
      <trkpt lat="48.3454" lon="-3.92679">
        <ele>322.755</ele>
        <time>2019-09-08T10:24:31 0200</time>
      </trkpt>
      <trkpt lat="48.3454" lon="-3.92679">
        <ele>322.755</ele>
        <time>2019-09-08T10:24:36 0200</time>
      </trkpt>
      <trkpt lat="48.3454" lon="-3.92679">
        <ele>322.755</ele>
        <time>2019-09-08T10:24:41 0200</time>
      </trkpt>
      <trkpt lat="48.3454" lon="-3.92679">
        <ele>322.755</ele>
        <time>2019-09-08T10:24:45 0200</time>
      </trkpt>
      <trkpt lat="48.3454" lon="-3.92679">
        <ele>322.755</ele>
        <time>2019-09-08T10:24:50 0200</time>
      </trkpt>
      <trkpt lat="48.3454" lon="-3.9268">
        <ele>325.205</ele>
        <time>2019-09-08T10:24:55 0200</time>
      </trkpt>
      <trkpt lat="48.3454" lon="-3.9268">
        <ele>325.205</ele>
        <time>2019-09-08T10:25:00 0200</time>
      </trkpt>
      <trkpt lat="48.3454" lon="-3.9268">
        <ele>325.205</ele>
        <time>2019-09-08T10:25:05 0200</time>
      </trkpt>
      <trkpt lat="48.3454" lon="-3.9268">
        <ele>325.205</ele>
        <time>2019-09-08T10:25:11 0200</time>
      </trkpt>
      <trkpt lat="48.3454" lon="-3.9268">
        <ele>325.205</ele>
        <time>2019-09-08T10:25:16 0200</time>
      </trkpt>
      <trkpt lat="48.3454" lon="-3.9268">
        <ele>325.205</ele>
        <time>2019-09-08T10:25:21 0200</time>
      </trkpt>
      <trkpt lat="48.3454" lon="-3.9268">
        <ele>325.205</ele>
        <time>2019-09-08T10:25:26 0200</time>
      </trkpt>
      <trkpt lat="48.3454" lon="-3.9268">
        <ele>325.205</ele>
        <time>2019-09-08T10:25:31 0200</time>
      </trkpt>
      <trkpt lat="48.3453" lon="-3.92683">
        <ele>325.638</ele>
        <time>2019-09-08T10:25:36 0200</time>
      </trkpt>
      <trkpt lat="48.3453" lon="-3.92683">
        <ele>325.638</ele>
        <time>2019-09-08T10:25:41 0200</time>
      </trkpt>
      <trkpt lat="48.3453" lon="-3.92683">
        <ele>325.638</ele>
        <time>2019-09-08T10:25:46 0200</time>
      </trkpt>
      <trkpt lat="48.3453" lon="-3.92683">
        <ele>325.638</ele>
        <time>2019-09-08T10:25:51 0200</time>
      </trkpt>
      <trkpt lat="48.3453" lon="-3.92683">
        <ele>325.638</ele>
        <time>2019-09-08T10:25:56 0200</time>
      </trkpt>
      <trkpt lat="48.3453" lon="-3.92683">
        <ele>325.638</ele>
        <time>2019-09-08T10:26:01 0200</time>
      </trkpt>
      <trkpt lat="48.3453" lon="-3.92683">
        <ele>325.638</ele>
        <time>2019-09-08T10:26:06 0200</time>
      </trkpt>
      <trkpt lat="48.3453" lon="-3.92683">
        <ele>325.638</ele>
        <time>2019-09-08T10:26:11 0200</time>
      </trkpt>
      <trkpt lat="48.3453" lon="-3.92683">
        <ele>325.638</ele>
        <time>2019-09-08T10:26:16 0200</time>
      </trkpt>
      <trkpt lat="48.3453" lon="-3.92687">
        <ele>325.924</ele>
        <time>2019-09-08T10:26:21 0200</time>
      </trkpt>
      <trkpt lat="48.3453" lon="-3.92687">
        <ele>325.924</ele>
        <time>2019-09-08T10:26:26 0200</time>
      </trkpt>
      <trkpt lat="48.3453" lon="-3.92682">
        <ele>325.788</ele>
        <time>2019-09-08T10:26:32 0200</time>
      </trkpt>
      <trkpt lat="48.3452" lon="-3.92674">
        <ele>325.411</ele>
        <time>2019-09-08T10:26:37 0200</time>
      </trkpt>
      <trkpt lat="48.3453" lon="-3.92667">
        <ele>325.312</ele>
        <time>2019-09-08T10:26:42 0200</time>
      </trkpt>
      <trkpt lat="48.3453" lon="-3.92661">
        <ele>325.33</ele>
        <time>2019-09-08T10:26:47 0200</time>
      </trkpt>
      <trkpt lat="48.3453" lon="-3.92661">
        <ele>325.33</ele>
        <time>2019-09-08T10:26:52 0200</time>
      </trkpt>
      <trkpt lat="48.3453" lon="-3.92657">
        <ele>324.95</ele>
        <time>2019-09-08T10:26:57 0200</time>
      </trkpt>
      <trkpt lat="48.3454" lon="-3.92655">
        <ele>324.68</ele>
        <time>2019-09-08T10:27:02 0200</time>
      </trkpt>
      <trkpt lat="48.3455" lon="-3.92655">
        <ele>323.726</ele>
        <time>2019-09-08T10:27:07 0200</time>
      </trkpt>
      <trkpt lat="48.3455" lon="-3.92656">
        <ele>323.635</ele>
        <time>2019-09-08T10:27:12 0200</time>
      </trkpt>
      <trkpt lat="48.3456" lon="-3.92654">
        <ele>322.931</ele>
        <time>2019-09-08T10:27:18 0200</time>
      </trkpt>
      <trkpt lat="48.3457" lon="-3.9266">
        <ele>322.479</ele>
        <time>2019-09-08T10:27:23 0200</time>
      </trkpt>
      <trkpt lat="48.3458" lon="-3.92689">
        <ele>322.535</ele>
        <time>2019-09-08T10:27:28 0200</time>
      </trkpt>
      <trkpt lat="48.3459" lon="-3.92706">
        <ele>322.75</ele>
        <time>2019-09-08T10:27:33 0200</time>
      </trkpt>
      <trkpt lat="48.3459" lon="-3.92722">
        <ele>323.024</ele>
        <time>2019-09-08T10:27:38 0200</time>
      </trkpt>
      <trkpt lat="48.3459" lon="-3.92722">
        <ele>323.024</ele>
        <time>2019-09-08T10:27:43 0200</time>
      </trkpt>
      <trkpt lat="48.346" lon="-3.92746">
        <ele>323.924</ele>
        <time>2019-09-08T10:27:48 0200</time>
      </trkpt>
      <trkpt lat="48.3459" lon="-3.92755">
        <ele>324.219</ele>
        <time>2019-09-08T10:27:53 0200</time>
      </trkpt>
      <trkpt lat="48.346" lon="-3.9278">
        <ele>324.852</ele>
        <time>2019-09-08T10:27:58 0200</time>
      </trkpt>
      <trkpt lat="48.3459" lon="-3.92797">
        <ele>324.882</ele>
        <time>2019-09-08T10:28:03 0200</time>
      </trkpt>
      <trkpt lat="48.346" lon="-3.92821">
        <ele>324.974</ele>
        <time>2019-09-08T10:28:08 0200</time>
      </trkpt>
      <trkpt lat="48.346" lon="-3.92837">
        <ele>324.953</ele>
        <time>2019-09-08T10:28:13 0200</time>
      </trkpt>
      <trkpt lat="48.346" lon="-3.92853">
        <ele>324.991</ele>
        <time>2019-09-08T10:28:18 0200</time>
      </trkpt>
      <trkpt lat="48.3461" lon="-3.92866">
        <ele>325.046</ele>
        <time>2019-09-08T10:28:24 0200</time>
      </trkpt>
      <trkpt lat="48.3462" lon="-3.92878">
        <ele>325.629</ele>
        <time>2019-09-08T10:28:29 0200</time>
      </trkpt>
      <trkpt lat="48.3463" lon="-3.92897">
        <ele>326.211</ele>
        <time>2019-09-08T10:28:34 0200</time>
      </trkpt>
      <trkpt lat="48.3463" lon="-3.92921">
        <ele>326.355</ele>
        <time>2019-09-08T10:28:39 0200</time>
      </trkpt>
      <trkpt lat="48.3463" lon="-3.92936">
        <ele>326.347</ele>
        <time>2019-09-08T10:28:44 0200</time>
      </trkpt>
      <trkpt lat="48.3464" lon="-3.92955">
        <ele>326.514</ele>
        <time>2019-09-08T10:28:49 0200</time>
      </trkpt>
      <trkpt lat="48.3463" lon="-3.92978">
        <ele>326.442</ele>
        <time>2019-09-08T10:28:54 0200</time>
      </trkpt>
      <trkpt lat="48.3463" lon="-3.92994">
        <ele>326.6</ele>
        <time>2019-09-08T10:28:59 0200</time>
      </trkpt>
      <trkpt lat="48.3462" lon="-3.93017">
        <ele>326.791</ele>
        <time>2019-09-08T10:29:04 0200</time>
      </trkpt>
      <trkpt lat="48.3462" lon="-3.93033">
        <ele>327.021</ele>
        <time>2019-09-08T10:29:09 0200</time>
      </trkpt>
      <trkpt lat="48.3462" lon="-3.9305">
        <ele>327.41</ele>
        <time>2019-09-08T10:29:14 0200</time>
      </trkpt>
      <trkpt lat="48.3462" lon="-3.93067">
        <ele>327.838</ele>
        <time>2019-09-08T10:29:19 0200</time>
      </trkpt>
      <trkpt lat="48.3462" lon="-3.93089">
        <ele>328.061</ele>
        <time>2019-09-08T10:29:24 0200</time>
      </trkpt>
      <trkpt lat="48.3461" lon="-3.93105">
        <ele>327.833</ele>
        <time>2019-09-08T10:29:29 0200</time>
      </trkpt>
      <trkpt lat="48.3461" lon="-3.9312">
        <ele>328.124</ele>
        <time>2019-09-08T10:29:34 0200</time>
      </trkpt>
      <trkpt lat="48.346" lon="-3.9314">
        <ele>328.644</ele>
        <time>2019-09-08T10:29:39 0200</time>
      </trkpt>
      <trkpt lat="48.346" lon="-3.93155">
        <ele>328.998</ele>
        <time>2019-09-08T10:29:44 0200</time>
      </trkpt>
      <trkpt lat="48.346" lon="-3.9317">
        <ele>329.282</ele>
        <time>2019-09-08T10:29:49 0200</time>
      </trkpt>
      <trkpt lat="48.3459" lon="-3.93196">
        <ele>329.488</ele>
        <time>2019-09-08T10:29:54 0200</time>
      </trkpt>
      <trkpt lat="48.346" lon="-3.93223">
        <ele>330.041</ele>
        <time>2019-09-08T10:30:00 0200</time>
      </trkpt>
      <trkpt lat="48.346" lon="-3.93237">
        <ele>330.452</ele>
        <time>2019-09-08T10:30:05 0200</time>
      </trkpt>
      <trkpt lat="48.3461" lon="-3.93264">
        <ele>330.987</ele>
        <time>2019-09-08T10:30:10 0200</time>
      </trkpt>
      <trkpt lat="48.3461" lon="-3.93281">
        <ele>331.409</ele>
        <time>2019-09-08T10:30:15 0200</time>
      </trkpt>
      <trkpt lat="48.3461" lon="-3.93306">
        <ele>331.802</ele>
        <time>2019-09-08T10:30:20 0200</time>
      </trkpt>
      <trkpt lat="48.3462" lon="-3.93324">
        <ele>332.355</ele>
        <time>2019-09-08T10:30:25 0200</time>
      </trkpt>
      <trkpt lat="48.3462" lon="-3.93349">
        <ele>332.631</ele>
        <time>2019-09-08T10:30:30 0200</time>
      </trkpt>
      <trkpt lat="48.3462" lon="-3.93366">
        <ele>333.011</ele>
        <time>2019-09-08T10:30:35 0200</time>
      </trkpt>
      <trkpt lat="48.3463" lon="-3.93379">
        <ele>333.059</ele>
        <time>2019-09-08T10:30:40 0200</time>
      </trkpt>
      <trkpt lat="48.3463" lon="-3.934">
        <ele>333.012</ele>
        <time>2019-09-08T10:30:45 0200</time>
      </trkpt>
      <trkpt lat="48.3464" lon="-3.93418">
        <ele>333.217</ele>
        <time>2019-09-08T10:30:50 0200</time>
      </trkpt>
      <trkpt lat="48.3464" lon="-3.93441">
        <ele>333.434</ele>
        <time>2019-09-08T10:30:55 0200</time>
      </trkpt>
      <trkpt lat="48.3465" lon="-3.93456">
        <ele>333.299</ele>
        <time>2019-09-08T10:31:00 0200</time>
      </trkpt>
      <trkpt lat="48.3465" lon="-3.93474">
        <ele>333.464</ele>
        <time>2019-09-08T10:31:05 0200</time>
      </trkpt>
      <trkpt lat="48.3465" lon="-3.93498">
        <ele>334.136</ele>
        <time>2019-09-08T10:31:10 0200</time>
      </trkpt>
      <trkpt lat="48.3466" lon="-3.93515">
        <ele>334.572</ele>
        <time>2019-09-08T10:31:15 0200</time>
      </trkpt>
      <trkpt lat="48.3466" lon="-3.93531">
        <ele>334.991</ele>
        <time>2019-09-08T10:31:20 0200</time>
      </trkpt>
      <trkpt lat="48.3467" lon="-3.93548">
        <ele>335.64</ele>
        <time>2019-09-08T10:31:25 0200</time>
      </trkpt>
      <trkpt lat="48.3467" lon="-3.93562">
        <ele>336.134</ele>
        <time>2019-09-08T10:31:30 0200</time>
      </trkpt>
      <trkpt lat="48.3467" lon="-3.93578">
        <ele>336.583</ele>
        <time>2019-09-08T10:31:35 0200</time>
      </trkpt>
      <trkpt lat="48.3467" lon="-3.93603">
        <ele>337.284</ele>
        <time>2019-09-08T10:31:40 0200</time>
      </trkpt>
      <trkpt lat="48.3467" lon="-3.9362">
        <ele>337.998</ele>
        <time>2019-09-08T10:31:45 0200</time>
      </trkpt>
      <trkpt lat="48.3468" lon="-3.93629">
        <ele>338.394</ele>
        <time>2019-09-08T10:31:50 0200</time>
      </trkpt>
      <trkpt lat="48.3468" lon="-3.93648">
        <ele>339.187</ele>
        <time>2019-09-08T10:31:55 0200</time>
      </trkpt>
      <trkpt lat="48.3468" lon="-3.93662">
        <ele>339.905</ele>
        <time>2019-09-08T10:32:00 0200</time>
      </trkpt>
      <trkpt lat="48.3468" lon="-3.93676">
        <ele>340.975</ele>
        <time>2019-09-08T10:32:06 0200</time>
      </trkpt>
      <trkpt lat="48.3468" lon="-3.93683">
        <ele>342.152</ele>
        <time>2019-09-08T10:32:11 0200</time>
      </trkpt>
      <trkpt lat="48.3468" lon="-3.93683">
        <ele>342.152</ele>
        <time>2019-09-08T10:32:16 0200</time>
      </trkpt>
      <trkpt lat="48.3468" lon="-3.93683">
        <ele>342.152</ele>
        <time>2019-09-08T10:32:21 0200</time>
      </trkpt>
      <trkpt lat="48.3468" lon="-3.93699">
        <ele>343.732</ele>
        <time>2019-09-08T10:32:26 0200</time>
      </trkpt>
      <trkpt lat="48.3468" lon="-3.93699">
        <ele>343.732</ele>
        <time>2019-09-08T10:32:31 0200</time>
      </trkpt>
      <trkpt lat="48.3468" lon="-3.93699">
        <ele>343.732</ele>
        <time>2019-09-08T10:32:36 0200</time>
      </trkpt>
      <trkpt lat="48.3468" lon="-3.93699">
        <ele>343.732</ele>
        <time>2019-09-08T10:32:41 0200</time>
      </trkpt>
      <trkpt lat="48.3469" lon="-3.93735">
        <ele>345.309</ele>
        <time>2019-09-08T10:32:46 0200</time>
      </trkpt>
      <trkpt lat="48.3469" lon="-3.93742">
        <ele>345.723</ele>
        <time>2019-09-08T10:32:51 0200</time>
      </trkpt>
      <trkpt lat="48.3469" lon="-3.93758">
        <ele>346.314</ele>
        <time>2019-09-08T10:32:56 0200</time>
      </trkpt>
      <trkpt lat="48.3469" lon="-3.93766">
        <ele>346.513</ele>
        <time>2019-09-08T10:33:01 0200</time>
      </trkpt>
      <trkpt lat="48.3469" lon="-3.93773">
        <ele>346.619</ele>
        <time>2019-09-08T10:33:06 0200</time>
      </trkpt>
      <trkpt lat="48.3469" lon="-3.93781">
        <ele>346.937</ele>
        <time>2019-09-08T10:33:11 0200</time>
      </trkpt>
      <trkpt lat="48.3468" lon="-3.93755">
        <ele>347.761</ele>
        <time>2019-09-08T10:33:16 0200</time>
      </trkpt>
      <trkpt lat="48.3467" lon="-3.93725">
        <ele>350.181</ele>
        <time>2019-09-08T10:33:21 0200</time>
      </trkpt>
      <trkpt lat="48.3466" lon="-3.93696">
        <ele>349.769</ele>
        <time>2019-09-08T10:33:26 0200</time>
      </trkpt>
      <trkpt lat="48.3464" lon="-3.93676">
        <ele>349.05</ele>
        <time>2019-09-08T10:33:31 0200</time>
      </trkpt>
      <trkpt lat="48.3462" lon="-3.93661">
        <ele>347.836</ele>
        <time>2019-09-08T10:33:36 0200</time>
      </trkpt>
      <trkpt lat="48.346" lon="-3.93649">
        <ele>348.2</ele>
        <time>2019-09-08T10:33:41 0200</time>
      </trkpt>
      <trkpt lat="48.3458" lon="-3.93639">
        <ele>347.881</ele>
        <time>2019-09-08T10:33:47 0200</time>
      </trkpt>
      <trkpt lat="48.3455" lon="-3.93631">
        <ele>347.214</ele>
        <time>2019-09-08T10:33:52 0200</time>
      </trkpt>
      <trkpt lat="48.3452" lon="-3.93628">
        <ele>346.141</ele>
        <time>2019-09-08T10:33:57 0200</time>
      </trkpt>
      <trkpt lat="48.3449" lon="-3.93629">
        <ele>345.04</ele>
        <time>2019-09-08T10:34:02 0200</time>
      </trkpt>
      <trkpt lat="48.3446" lon="-3.93636">
        <ele>343.102</ele>
        <time>2019-09-08T10:34:07 0200</time>
      </trkpt>
      <trkpt lat="48.3443" lon="-3.93645">
        <ele>341.227</ele>
        <time>2019-09-08T10:34:12 0200</time>
      </trkpt>
      <trkpt lat="48.344" lon="-3.93657">
        <ele>340.23</ele>
        <time>2019-09-08T10:34:17 0200</time>
      </trkpt>
      <trkpt lat="48.3438" lon="-3.93668">
        <ele>340.151</ele>
        <time>2019-09-08T10:34:22 0200</time>
      </trkpt>
      <trkpt lat="48.3438" lon="-3.93675">
        <ele>340.121</ele>
        <time>2019-09-08T10:34:27 0200</time>
      </trkpt>
      <trkpt lat="48.3438" lon="-3.93694">
        <ele>340.085</ele>
        <time>2019-09-08T10:34:32 0200</time>
      </trkpt>
      <trkpt lat="48.3438" lon="-3.93709">
        <ele>340.168</ele>
        <time>2019-09-08T10:34:37 0200</time>
      </trkpt>
      <trkpt lat="48.3437" lon="-3.93733">
        <ele>340.738</ele>
        <time>2019-09-08T10:34:42 0200</time>
      </trkpt>
      <trkpt lat="48.3437" lon="-3.93749">
        <ele>341.185</ele>
        <time>2019-09-08T10:34:47 0200</time>
      </trkpt>
      <trkpt lat="48.3436" lon="-3.93779">
        <ele>341.332</ele>
        <time>2019-09-08T10:34:52 0200</time>
      </trkpt>
      <trkpt lat="48.3436" lon="-3.93798">
        <ele>341.492</ele>
        <time>2019-09-08T10:34:57 0200</time>
      </trkpt>
      <trkpt lat="48.3436" lon="-3.9383">
        <ele>342.548</ele>
        <time>2019-09-08T10:35:02 0200</time>
      </trkpt>
      <trkpt lat="48.3435" lon="-3.93852">
        <ele>342.704</ele>
        <time>2019-09-08T10:35:07 0200</time>
      </trkpt>
      <trkpt lat="48.3435" lon="-3.93882">
        <ele>343.625</ele>
        <time>2019-09-08T10:35:12 0200</time>
      </trkpt>
      <trkpt lat="48.3434" lon="-3.93902">
        <ele>343.758</ele>
        <time>2019-09-08T10:35:17 0200</time>
      </trkpt>
      <trkpt lat="48.3434" lon="-3.93932">
        <ele>343.863</ele>
        <time>2019-09-08T10:35:22 0200</time>
      </trkpt>
      <trkpt lat="48.3433" lon="-3.93965">
        <ele>344.664</ele>
        <time>2019-09-08T10:35:27 0200</time>
      </trkpt>
      <trkpt lat="48.3433" lon="-3.93987">
        <ele>344.107</ele>
        <time>2019-09-08T10:35:32 0200</time>
      </trkpt>
      <trkpt lat="48.3432" lon="-3.94022">
        <ele>342.937</ele>
        <time>2019-09-08T10:35:37 0200</time>
      </trkpt>
      <trkpt lat="48.3432" lon="-3.94046">
        <ele>343.177</ele>
        <time>2019-09-08T10:35:43 0200</time>
      </trkpt>
      <trkpt lat="48.3431" lon="-3.94082">
        <ele>343.495</ele>
        <time>2019-09-08T10:35:48 0200</time>
      </trkpt>
      <trkpt lat="48.3431" lon="-3.94111">
        <ele>344.041</ele>
        <time>2019-09-08T10:35:53 0200</time>
      </trkpt>
      <trkpt lat="48.343" lon="-3.94143">
        <ele>343.609</ele>
        <time>2019-09-08T10:35:58 0200</time>
      </trkpt>
      <trkpt lat="48.3429" lon="-3.94176">
        <ele>343.059</ele>
        <time>2019-09-08T10:36:03 0200</time>
      </trkpt>
      <trkpt lat="48.3428" lon="-3.94209">
        <ele>343.701</ele>
        <time>2019-09-08T10:36:08 0200</time>
      </trkpt>
      <trkpt lat="48.3427" lon="-3.94238">
        <ele>343.63</ele>
        <time>2019-09-08T10:36:13 0200</time>
      </trkpt>
      <trkpt lat="48.3426" lon="-3.9426">
        <ele>343.564</ele>
        <time>2019-09-08T10:36:18 0200</time>
      </trkpt>
      <trkpt lat="48.3425" lon="-3.94283">
        <ele>343.419</ele>
        <time>2019-09-08T10:36:23 0200</time>
      </trkpt>
      <trkpt lat="48.3426" lon="-3.94292">
        <ele>343.268</ele>
        <time>2019-09-08T10:36:28 0200</time>
      </trkpt>
      <trkpt lat="48.3429" lon="-3.94306">
        <ele>341.626</ele>
        <time>2019-09-08T10:36:33 0200</time>
      </trkpt>
      <trkpt lat="48.343" lon="-3.9432">
        <ele>343.138</ele>
        <time>2019-09-08T10:36:38 0200</time>
      </trkpt>
      <trkpt lat="48.3432" lon="-3.94331">
        <ele>343.94</ele>
        <time>2019-09-08T10:36:43 0200</time>
      </trkpt>
      <trkpt lat="48.3434" lon="-3.94352">
        <ele>341.723</ele>
        <time>2019-09-08T10:36:48 0200</time>
      </trkpt>
      <trkpt lat="48.3435" lon="-3.94371">
        <ele>341.015</ele>
        <time>2019-09-08T10:36:53 0200</time>
      </trkpt>
      <trkpt lat="48.3436" lon="-3.94399">
        <ele>341.972</ele>
        <time>2019-09-08T10:36:58 0200</time>
      </trkpt>
      <trkpt lat="48.3438" lon="-3.94414">
        <ele>342.74</ele>
        <time>2019-09-08T10:37:03 0200</time>
      </trkpt>
      <trkpt lat="48.3439" lon="-3.94439">
        <ele>341.849</ele>
        <time>2019-09-08T10:37:08 0200</time>
      </trkpt>
      <trkpt lat="48.344" lon="-3.94455">
        <ele>341.727</ele>
        <time>2019-09-08T10:37:13 0200</time>
      </trkpt>
      <trkpt lat="48.3442" lon="-3.94475">
        <ele>342.476</ele>
        <time>2019-09-08T10:37:19 0200</time>
      </trkpt>
      <trkpt lat="48.3443" lon="-3.9449">
        <ele>342.444</ele>
        <time>2019-09-08T10:37:24 0200</time>
      </trkpt>
      <trkpt lat="48.3445" lon="-3.94502">
        <ele>341.939</ele>
        <time>2019-09-08T10:37:29 0200</time>
      </trkpt>
      <trkpt lat="48.3446" lon="-3.94516">
        <ele>341.502</ele>
        <time>2019-09-08T10:37:34 0200</time>
      </trkpt>
      <trkpt lat="48.3447" lon="-3.94527">
        <ele>341.184</ele>
        <time>2019-09-08T10:37:39 0200</time>
      </trkpt>
      <trkpt lat="48.3449" lon="-3.94543">
        <ele>339.263</ele>
        <time>2019-09-08T10:37:44 0200</time>
      </trkpt>
      <trkpt lat="48.3451" lon="-3.94562">
        <ele>335.868</ele>
        <time>2019-09-08T10:37:49 0200</time>
      </trkpt>
      <trkpt lat="48.3452" lon="-3.94579">
        <ele>337.025</ele>
        <time>2019-09-08T10:37:54 0200</time>
      </trkpt>
      <trkpt lat="48.3453" lon="-3.94602">
        <ele>337.004</ele>
        <time>2019-09-08T10:37:59 0200</time>
      </trkpt>
      <trkpt lat="48.3454" lon="-3.94619">
        <ele>338.995</ele>
        <time>2019-09-08T10:38:04 0200</time>
      </trkpt>
      <trkpt lat="48.3456" lon="-3.94645">
        <ele>340.809</ele>
        <time>2019-09-08T10:38:09 0200</time>
      </trkpt>
      <trkpt lat="48.3457" lon="-3.94658">
        <ele>340.96</ele>
        <time>2019-09-08T10:38:14 0200</time>
      </trkpt>
      <trkpt lat="48.3458" lon="-3.9467">
        <ele>340.857</ele>
        <time>2019-09-08T10:38:19 0200</time>
      </trkpt>
      <trkpt lat="48.3458" lon="-3.94693">
        <ele>340.917</ele>
        <time>2019-09-08T10:38:24 0200</time>
      </trkpt>
      <trkpt lat="48.3459" lon="-3.94706">
        <ele>340.909</ele>
        <time>2019-09-08T10:38:30 0200</time>
      </trkpt>
      <trkpt lat="48.346" lon="-3.94727">
        <ele>341.145</ele>
        <time>2019-09-08T10:38:35 0200</time>
      </trkpt>
      <trkpt lat="48.3461" lon="-3.94738">
        <ele>341.112</ele>
        <time>2019-09-08T10:38:40 0200</time>
      </trkpt>
      <trkpt lat="48.3462" lon="-3.94756">
        <ele>341.325</ele>
        <time>2019-09-08T10:38:45 0200</time>
      </trkpt>
      <trkpt lat="48.3463" lon="-3.94767">
        <ele>341.8</ele>
        <time>2019-09-08T10:38:50 0200</time>
      </trkpt>
      <trkpt lat="48.3464" lon="-3.94781">
        <ele>342.268</ele>
        <time>2019-09-08T10:38:55 0200</time>
      </trkpt>
      <trkpt lat="48.3465" lon="-3.948">
        <ele>342.577</ele>
        <time>2019-09-08T10:39:00 0200</time>
      </trkpt>
      <trkpt lat="48.3465" lon="-3.94814">
        <ele>342.453</ele>
        <time>2019-09-08T10:39:05 0200</time>
      </trkpt>
      <trkpt lat="48.3466" lon="-3.94831">
        <ele>342.505</ele>
        <time>2019-09-08T10:39:10 0200</time>
      </trkpt>
      <trkpt lat="48.3467" lon="-3.94841">
        <ele>342.467</ele>
        <time>2019-09-08T10:39:15 0200</time>
      </trkpt>
      <trkpt lat="48.3468" lon="-3.94853">
        <ele>342.437</ele>
        <time>2019-09-08T10:39:20 0200</time>
      </trkpt>
      <trkpt lat="48.3469" lon="-3.94864">
        <ele>342.703</ele>
        <time>2019-09-08T10:39:25 0200</time>
      </trkpt>
      <trkpt lat="48.347" lon="-3.94881">
        <ele>343.168</ele>
        <time>2019-09-08T10:39:30 0200</time>
      </trkpt>
      <trkpt lat="48.347" lon="-3.94894">
        <ele>343.328</ele>
        <time>2019-09-08T10:39:35 0200</time>
      </trkpt>
      <trkpt lat="48.3471" lon="-3.94907">
        <ele>343.784</ele>
        <time>2019-09-08T10:39:40 0200</time>
      </trkpt>
      <trkpt lat="48.3472" lon="-3.94927">
        <ele>344.239</ele>
        <time>2019-09-08T10:39:45 0200</time>
      </trkpt>
      <trkpt lat="48.3473" lon="-3.94941">
        <ele>344.564</ele>
        <time>2019-09-08T10:39:50 0200</time>
      </trkpt>
      <trkpt lat="48.3473" lon="-3.94941">
        <ele>344.564</ele>
        <time>2019-09-08T10:39:55 0200</time>
      </trkpt>
      <trkpt lat="48.3473" lon="-3.94941">
        <ele>344.564</ele>
        <time>2019-09-08T10:40:00 0200</time>
      </trkpt>
      <trkpt lat="48.3473" lon="-3.94941">
        <ele>344.564</ele>
        <time>2019-09-08T10:40:05 0200</time>
      </trkpt>
      <trkpt lat="48.3473" lon="-3.94941">
        <ele>344.564</ele>
        <time>2019-09-08T10:40:10 0200</time>
      </trkpt>
      <trkpt lat="48.3473" lon="-3.94941">
        <ele>344.564</ele>
        <time>2019-09-08T10:40:15 0200</time>
      </trkpt>
      <trkpt lat="48.3473" lon="-3.94941">
        <ele>344.564</ele>
        <time>2019-09-08T10:40:20 0200</time>
      </trkpt>
      <trkpt lat="48.3473" lon="-3.94941">
        <ele>344.564</ele>
        <time>2019-09-08T10:40:25 0200</time>
      </trkpt>
      <trkpt lat="48.3474" lon="-3.94955">
        <ele>345.849</ele>
        <time>2019-09-08T10:40:30 0200</time>
      </trkpt>
      <trkpt lat="48.3475" lon="-3.94974">
        <ele>346.374</ele>
        <time>2019-09-08T10:40:35 0200</time>
      </trkpt>
      <trkpt lat="48.3476" lon="-3.94988">
        <ele>346.528</ele>
        <time>2019-09-08T10:40:41 0200</time>
      </trkpt>
      <trkpt lat="48.3478" lon="-3.9501">
        <ele>346.88</ele>
        <time>2019-09-08T10:40:46 0200</time>
      </trkpt>
      <trkpt lat="48.3478" lon="-3.9502">
        <ele>347.125</ele>
        <time>2019-09-08T10:40:51 0200</time>
      </trkpt>
      <trkpt lat="48.3479" lon="-3.95032">
        <ele>347.538</ele>
        <time>2019-09-08T10:40:56 0200</time>
      </trkpt>
      <trkpt lat="48.3481" lon="-3.95051">
        <ele>347.975</ele>
        <time>2019-09-08T10:41:01 0200</time>
      </trkpt>
      <trkpt lat="48.3481" lon="-3.95061">
        <ele>348.226</ele>
        <time>2019-09-08T10:41:06 0200</time>
      </trkpt>
      <trkpt lat="48.3483" lon="-3.95081">
        <ele>348.779</ele>
        <time>2019-09-08T10:41:11 0200</time>
      </trkpt>
      <trkpt lat="48.3484" lon="-3.95094">
        <ele>349.183</ele>
        <time>2019-09-08T10:41:16 0200</time>
      </trkpt>
      <trkpt lat="48.3486" lon="-3.95114">
        <ele>349.721</ele>
        <time>2019-09-08T10:41:21 0200</time>
      </trkpt>
      <trkpt lat="48.3487" lon="-3.95127">
        <ele>349.732</ele>
        <time>2019-09-08T10:41:26 0200</time>
      </trkpt>
      <trkpt lat="48.3488" lon="-3.95141">
        <ele>349.636</ele>
        <time>2019-09-08T10:41:31 0200</time>
      </trkpt>
      <trkpt lat="48.3489" lon="-3.95151">
        <ele>349.645</ele>
        <time>2019-09-08T10:41:36 0200</time>
      </trkpt>
      <trkpt lat="48.3491" lon="-3.95167">
        <ele>349.575</ele>
        <time>2019-09-08T10:41:41 0200</time>
      </trkpt>
      <trkpt lat="48.3492" lon="-3.95179">
        <ele>349.906</ele>
        <time>2019-09-08T10:41:46 0200</time>
      </trkpt>
      <trkpt lat="48.3493" lon="-3.95195">
        <ele>350.541</ele>
        <time>2019-09-08T10:41:51 0200</time>
      </trkpt>
      <trkpt lat="48.3494" lon="-3.95204">
        <ele>350.828</ele>
        <time>2019-09-08T10:41:56 0200</time>
      </trkpt>
      <trkpt lat="48.3495" lon="-3.95222">
        <ele>351.478</ele>
        <time>2019-09-08T10:42:01 0200</time>
      </trkpt>
      <trkpt lat="48.3496" lon="-3.95233">
        <ele>352.126</ele>
        <time>2019-09-08T10:42:06 0200</time>
      </trkpt>
      <trkpt lat="48.3497" lon="-3.95251">
        <ele>352.62</ele>
        <time>2019-09-08T10:42:11 0200</time>
      </trkpt>
      <trkpt lat="48.3498" lon="-3.95263">
        <ele>352.911</ele>
        <time>2019-09-08T10:42:16 0200</time>
      </trkpt>
      <trkpt lat="48.3499" lon="-3.95279">
        <ele>353.163</ele>
        <time>2019-09-08T10:42:21 0200</time>
      </trkpt>
      <trkpt lat="48.3501" lon="-3.95294">
        <ele>353.713</ele>
        <time>2019-09-08T10:42:26 0200</time>
      </trkpt>
      <trkpt lat="48.3501" lon="-3.95305">
        <ele>354.092</ele>
        <time>2019-09-08T10:42:32 0200</time>
      </trkpt>
      <trkpt lat="48.3503" lon="-3.95318">
        <ele>354.674</ele>
        <time>2019-09-08T10:42:37 0200</time>
      </trkpt>
      <trkpt lat="48.3504" lon="-3.95325">
        <ele>355.307</ele>
        <time>2019-09-08T10:42:42 0200</time>
      </trkpt>
      <trkpt lat="48.3504" lon="-3.9533">
        <ele>355.91</ele>
        <time>2019-09-08T10:42:47 0200</time>
      </trkpt>
      <trkpt lat="48.3506" lon="-3.95338">
        <ele>357.392</ele>
        <time>2019-09-08T10:42:52 0200</time>
      </trkpt>
      <trkpt lat="48.3507" lon="-3.95343">
        <ele>357.961</ele>
        <time>2019-09-08T10:42:57 0200</time>
      </trkpt>
      <trkpt lat="48.3508" lon="-3.95352">
        <ele>358.469</ele>
        <time>2019-09-08T10:43:02 0200</time>
      </trkpt>
      <trkpt lat="48.3509" lon="-3.9536">
        <ele>358.969</ele>
        <time>2019-09-08T10:43:07 0200</time>
      </trkpt>
      <trkpt lat="48.351" lon="-3.95367">
        <ele>359.563</ele>
        <time>2019-09-08T10:43:12 0200</time>
      </trkpt>
      <trkpt lat="48.3511" lon="-3.95375">
        <ele>360.106</ele>
        <time>2019-09-08T10:43:18 0200</time>
      </trkpt>
      <trkpt lat="48.3512" lon="-3.95381">
        <ele>360.686</ele>
        <time>2019-09-08T10:43:23 0200</time>
      </trkpt>
      <trkpt lat="48.3513" lon="-3.95389">
        <ele>361.274</ele>
        <time>2019-09-08T10:43:28 0200</time>
      </trkpt>
      <trkpt lat="48.3514" lon="-3.95396">
        <ele>361.601</ele>
        <time>2019-09-08T10:43:33 0200</time>
      </trkpt>
      <trkpt lat="48.3515" lon="-3.95405">
        <ele>362.28</ele>
        <time>2019-09-08T10:43:38 0200</time>
      </trkpt>
      <trkpt lat="48.3516" lon="-3.95409">
        <ele>362.617</ele>
        <time>2019-09-08T10:43:43 0200</time>
      </trkpt>
      <trkpt lat="48.3517" lon="-3.95418">
        <ele>362.704</ele>
        <time>2019-09-08T10:43:48 0200</time>
      </trkpt>
      <trkpt lat="48.3518" lon="-3.95426">
        <ele>362.787</ele>
        <time>2019-09-08T10:43:53 0200</time>
      </trkpt>
      <trkpt lat="48.3519" lon="-3.95435">
        <ele>363.479</ele>
        <time>2019-09-08T10:43:58 0200</time>
      </trkpt>
      <trkpt lat="48.3521" lon="-3.95439">
        <ele>364.441</ele>
        <time>2019-09-08T10:44:03 0200</time>
      </trkpt>
      <trkpt lat="48.3522" lon="-3.95443">
        <ele>365.162</ele>
        <time>2019-09-08T10:44:08 0200</time>
      </trkpt>
      <trkpt lat="48.3523" lon="-3.95445">
        <ele>365.698</ele>
        <time>2019-09-08T10:44:13 0200</time>
      </trkpt>
      <trkpt lat="48.3524" lon="-3.95448">
        <ele>366.962</ele>
        <time>2019-09-08T10:44:18 0200</time>
      </trkpt>
      <trkpt lat="48.3525" lon="-3.95451">
        <ele>367.515</ele>
        <time>2019-09-08T10:44:23 0200</time>
      </trkpt>
      <trkpt lat="48.3527" lon="-3.95455">
        <ele>368.373</ele>
        <time>2019-09-08T10:44:28 0200</time>
      </trkpt>
      <trkpt lat="48.3528" lon="-3.9546">
        <ele>369.031</ele>
        <time>2019-09-08T10:44:33 0200</time>
      </trkpt>
      <trkpt lat="48.3529" lon="-3.95465">
        <ele>369.431</ele>
        <time>2019-09-08T10:44:38 0200</time>
      </trkpt>
      <trkpt lat="48.353" lon="-3.95472">
        <ele>369.838</ele>
        <time>2019-09-08T10:44:43 0200</time>
      </trkpt>
      <trkpt lat="48.3531" lon="-3.95475">
        <ele>370.113</ele>
        <time>2019-09-08T10:44:48 0200</time>
      </trkpt>
      <trkpt lat="48.3532" lon="-3.95477">
        <ele>371.312</ele>
        <time>2019-09-08T10:44:53 0200</time>
      </trkpt>
      <trkpt lat="48.3533" lon="-3.95481">
        <ele>371.803</ele>
        <time>2019-09-08T10:44:58 0200</time>
      </trkpt>
      <trkpt lat="48.3534" lon="-3.95487">
        <ele>372.273</ele>
        <time>2019-09-08T10:45:04 0200</time>
      </trkpt>
      <trkpt lat="48.3535" lon="-3.95491">
        <ele>372.68</ele>
        <time>2019-09-08T10:45:09 0200</time>
      </trkpt>
      <trkpt lat="48.3536" lon="-3.95501">
        <ele>372.866</ele>
        <time>2019-09-08T10:45:14 0200</time>
      </trkpt>
      <trkpt lat="48.3537" lon="-3.95528">
        <ele>373.587</ele>
        <time>2019-09-08T10:45:19 0200</time>
      </trkpt>
      <trkpt lat="48.3538" lon="-3.95558">
        <ele>376.065</ele>
        <time>2019-09-08T10:45:24 0200</time>
      </trkpt>
      <trkpt lat="48.3539" lon="-3.95589">
        <ele>375.072</ele>
        <time>2019-09-08T10:45:29 0200</time>
      </trkpt>
      <trkpt lat="48.354" lon="-3.95626">
        <ele>373.286</ele>
        <time>2019-09-08T10:45:34 0200</time>
      </trkpt>
      <trkpt lat="48.3542" lon="-3.95662">
        <ele>370.625</ele>
        <time>2019-09-08T10:45:39 0200</time>
      </trkpt>
      <trkpt lat="48.3543" lon="-3.95705">
        <ele>369.058</ele>
        <time>2019-09-08T10:45:44 0200</time>
      </trkpt>
      <trkpt lat="48.3544" lon="-3.95742">
        <ele>367.643</ele>
        <time>2019-09-08T10:45:49 0200</time>
      </trkpt>
      <trkpt lat="48.3545" lon="-3.95781">
        <ele>365.094</ele>
        <time>2019-09-08T10:45:54 0200</time>
      </trkpt>
      <trkpt lat="48.3546" lon="-3.95818">
        <ele>362.401</ele>
        <time>2019-09-08T10:45:59 0200</time>
      </trkpt>
      <trkpt lat="48.3546" lon="-3.95846">
        <ele>361.351</ele>
        <time>2019-09-08T10:46:04 0200</time>
      </trkpt>
      <trkpt lat="48.3548" lon="-3.95882">
        <ele>358.412</ele>
        <time>2019-09-08T10:46:09 0200</time>
      </trkpt>
      <trkpt lat="48.3549" lon="-3.95903">
        <ele>359.384</ele>
        <time>2019-09-08T10:46:14 0200</time>
      </trkpt>
      <trkpt lat="48.3551" lon="-3.95932">
        <ele>359.833</ele>
        <time>2019-09-08T10:46:19 0200</time>
      </trkpt>
      <trkpt lat="48.3552" lon="-3.95953">
        <ele>355.933</ele>
        <time>2019-09-08T10:46:24 0200</time>
      </trkpt>
      <trkpt lat="48.3553" lon="-3.95976">
        <ele>352.873</ele>
        <time>2019-09-08T10:46:29 0200</time>
      </trkpt>
      <trkpt lat="48.3555" lon="-3.95998">
        <ele>348.067</ele>
        <time>2019-09-08T10:46:34 0200</time>
      </trkpt>
      <trkpt lat="48.3557" lon="-3.96022">
        <ele>345.041</ele>
        <time>2019-09-08T10:46:39 0200</time>
      </trkpt>
      <trkpt lat="48.3559" lon="-3.96045">
        <ele>344.61</ele>
        <time>2019-09-08T10:46:44 0200</time>
      </trkpt>
      <trkpt lat="48.3561" lon="-3.96068">
        <ele>344.599</ele>
        <time>2019-09-08T10:46:49 0200</time>
      </trkpt>
      <trkpt lat="48.3562" lon="-3.96092">
        <ele>345.745</ele>
        <time>2019-09-08T10:46:54 0200</time>
      </trkpt>
      <trkpt lat="48.3564" lon="-3.96121">
        <ele>347.023</ele>
        <time>2019-09-08T10:46:59 0200</time>
      </trkpt>
      <trkpt lat="48.3565" lon="-3.9613">
        <ele>347.359</ele>
        <time>2019-09-08T10:47:04 0200</time>
      </trkpt>
      <trkpt lat="48.3567" lon="-3.96105">
        <ele>350.549</ele>
        <time>2019-09-08T10:47:09 0200</time>
      </trkpt>
      <trkpt lat="48.3568" lon="-3.961">
        <ele>351.257</ele>
        <time>2019-09-08T10:47:14 0200</time>
      </trkpt>
      <trkpt lat="48.357" lon="-3.96097">
        <ele>351.231</ele>
        <time>2019-09-08T10:47:19 0200</time>
      </trkpt>
      <trkpt lat="48.3572" lon="-3.96095">
        <ele>351.44</ele>
        <time>2019-09-08T10:47:25 0200</time>
      </trkpt>
      <trkpt lat="48.3573" lon="-3.96098">
        <ele>351.763</ele>
        <time>2019-09-08T10:47:30 0200</time>
      </trkpt>
      <trkpt lat="48.3575" lon="-3.96099">
        <ele>351.935</ele>
        <time>2019-09-08T10:47:35 0200</time>
      </trkpt>
      <trkpt lat="48.3576" lon="-3.96097">
        <ele>351.998</ele>
        <time>2019-09-08T10:47:40 0200</time>
      </trkpt>
      <trkpt lat="48.3577" lon="-3.96093">
        <ele>352.101</ele>
        <time>2019-09-08T10:47:45 0200</time>
      </trkpt>
      <trkpt lat="48.3579" lon="-3.96093">
        <ele>352.319</ele>
        <time>2019-09-08T10:47:50 0200</time>
      </trkpt>
      <trkpt lat="48.358" lon="-3.96094">
        <ele>352.559</ele>
        <time>2019-09-08T10:47:55 0200</time>
      </trkpt>
      <trkpt lat="48.3581" lon="-3.96093">
        <ele>353.108</ele>
        <time>2019-09-08T10:48:00 0200</time>
      </trkpt>
      <trkpt lat="48.3582" lon="-3.9609">
        <ele>353.423</ele>
        <time>2019-09-08T10:48:05 0200</time>
      </trkpt>
      <trkpt lat="48.3584" lon="-3.96088">
        <ele>353.793</ele>
        <time>2019-09-08T10:48:10 0200</time>
      </trkpt>
      <trkpt lat="48.3585" lon="-3.9609">
        <ele>353.998</ele>
        <time>2019-09-08T10:48:15 0200</time>
      </trkpt>
      <trkpt lat="48.3587" lon="-3.96092">
        <ele>354.4</ele>
        <time>2019-09-08T10:48:20 0200</time>
      </trkpt>
      <trkpt lat="48.3588" lon="-3.96092">
        <ele>354.79</ele>
        <time>2019-09-08T10:48:25 0200</time>
      </trkpt>
      <trkpt lat="48.3589" lon="-3.96095">
        <ele>355.446</ele>
        <time>2019-09-08T10:48:30 0200</time>
      </trkpt>
      <trkpt lat="48.359" lon="-3.96097">
        <ele>355.81</ele>
        <time>2019-09-08T10:48:35 0200</time>
      </trkpt>
      <trkpt lat="48.3592" lon="-3.96103">
        <ele>357.078</ele>
        <time>2019-09-08T10:48:40 0200</time>
      </trkpt>
      <trkpt lat="48.3592" lon="-3.96104">
        <ele>357.516</ele>
        <time>2019-09-08T10:48:45 0200</time>
      </trkpt>
      <trkpt lat="48.3593" lon="-3.96107">
        <ele>358.75</ele>
        <time>2019-09-08T10:48:50 0200</time>
      </trkpt>
      <trkpt lat="48.3594" lon="-3.96107">
        <ele>359.392</ele>
        <time>2019-09-08T10:48:55 0200</time>
      </trkpt>
      <trkpt lat="48.3596" lon="-3.96101">
        <ele>359.819</ele>
        <time>2019-09-08T10:49:01 0200</time>
      </trkpt>
      <trkpt lat="48.3597" lon="-3.96099">
        <ele>360.015</ele>
        <time>2019-09-08T10:49:06 0200</time>
      </trkpt>
      <trkpt lat="48.3598" lon="-3.96091">
        <ele>360.495</ele>
        <time>2019-09-08T10:49:11 0200</time>
      </trkpt>
      <trkpt lat="48.3599" lon="-3.96087">
        <ele>360.66</ele>
        <time>2019-09-08T10:49:16 0200</time>
      </trkpt>
      <trkpt lat="48.36" lon="-3.96083">
        <ele>361.031</ele>
        <time>2019-09-08T10:49:21 0200</time>
      </trkpt>
      <trkpt lat="48.3602" lon="-3.96079">
        <ele>361.107</ele>
        <time>2019-09-08T10:49:26 0200</time>
      </trkpt>
      <trkpt lat="48.3603" lon="-3.96078">
        <ele>361.43</ele>
        <time>2019-09-08T10:49:31 0200</time>
      </trkpt>
      <trkpt lat="48.3604" lon="-3.96074">
        <ele>361.933</ele>
        <time>2019-09-08T10:49:36 0200</time>
      </trkpt>
      <trkpt lat="48.3606" lon="-3.96071">
        <ele>362.678</ele>
        <time>2019-09-08T10:49:41 0200</time>
      </trkpt>
      <trkpt lat="48.3607" lon="-3.9607">
        <ele>362.99</ele>
        <time>2019-09-08T10:49:46 0200</time>
      </trkpt>
      <trkpt lat="48.3608" lon="-3.9607">
        <ele>363.485</ele>
        <time>2019-09-08T10:49:51 0200</time>
      </trkpt>
      <trkpt lat="48.361" lon="-3.96065">
        <ele>363.677</ele>
        <time>2019-09-08T10:49:56 0200</time>
      </trkpt>
      <trkpt lat="48.3611" lon="-3.96057">
        <ele>364.003</ele>
        <time>2019-09-08T10:50:01 0200</time>
      </trkpt>
      <trkpt lat="48.3612" lon="-3.96052">
        <ele>364.558</ele>
        <time>2019-09-08T10:50:06 0200</time>
      </trkpt>
      <trkpt lat="48.3614" lon="-3.96041">
        <ele>365.276</ele>
        <time>2019-09-08T10:50:11 0200</time>
      </trkpt>
      <trkpt lat="48.3615" lon="-3.96031">
        <ele>365.484</ele>
        <time>2019-09-08T10:50:16 0200</time>
      </trkpt>
      <trkpt lat="48.3616" lon="-3.96019">
        <ele>365.522</ele>
        <time>2019-09-08T10:50:21 0200</time>
      </trkpt>
      <trkpt lat="48.3617" lon="-3.96011">
        <ele>365.685</ele>
        <time>2019-09-08T10:50:26 0200</time>
      </trkpt>
      <trkpt lat="48.3619" lon="-3.96002">
        <ele>366.196</ele>
        <time>2019-09-08T10:50:31 0200</time>
      </trkpt>
      <trkpt lat="48.362" lon="-3.95996">
        <ele>366.552</ele>
        <time>2019-09-08T10:50:36 0200</time>
      </trkpt>
      <trkpt lat="48.3621" lon="-3.95987">
        <ele>366.959</ele>
        <time>2019-09-08T10:50:41 0200</time>
      </trkpt>
      <trkpt lat="48.3622" lon="-3.9598">
        <ele>367.248</ele>
        <time>2019-09-08T10:50:46 0200</time>
      </trkpt>
      <trkpt lat="48.3624" lon="-3.9597">
        <ele>367.634</ele>
        <time>2019-09-08T10:50:51 0200</time>
      </trkpt>
      <trkpt lat="48.3625" lon="-3.95963">
        <ele>367.944</ele>
        <time>2019-09-08T10:50:56 0200</time>
      </trkpt>
      <trkpt lat="48.3626" lon="-3.95953">
        <ele>368.499</ele>
        <time>2019-09-08T10:51:01 0200</time>
      </trkpt>
      <trkpt lat="48.3627" lon="-3.95947">
        <ele>368.926</ele>
        <time>2019-09-08T10:51:07 0200</time>
      </trkpt>
      <trkpt lat="48.3629" lon="-3.95936">
        <ele>369.369</ele>
        <time>2019-09-08T10:51:12 0200</time>
      </trkpt>
      <trkpt lat="48.3629" lon="-3.95929">
        <ele>369.755</ele>
        <time>2019-09-08T10:51:17 0200</time>
      </trkpt>
      <trkpt lat="48.3631" lon="-3.9592">
        <ele>370.35</ele>
        <time>2019-09-08T10:51:22 0200</time>
      </trkpt>
      <trkpt lat="48.3632" lon="-3.95912">
        <ele>370.622</ele>
        <time>2019-09-08T10:51:27 0200</time>
      </trkpt>
      <trkpt lat="48.3633" lon="-3.95902">
        <ele>370.774</ele>
        <time>2019-09-08T10:51:32 0200</time>
      </trkpt>
      <trkpt lat="48.3634" lon="-3.95893">
        <ele>370.973</ele>
        <time>2019-09-08T10:51:37 0200</time>
      </trkpt>
      <trkpt lat="48.3634" lon="-3.95886">
        <ele>371.461</ele>
        <time>2019-09-08T10:51:42 0200</time>
      </trkpt>
      <trkpt lat="48.3635" lon="-3.95876">
        <ele>372.209</ele>
        <time>2019-09-08T10:51:47 0200</time>
      </trkpt>
      <trkpt lat="48.3636" lon="-3.95865">
        <ele>372.77</ele>
        <time>2019-09-08T10:51:52 0200</time>
      </trkpt>
      <trkpt lat="48.3637" lon="-3.95853">
        <ele>373.322</ele>
        <time>2019-09-08T10:51:57 0200</time>
      </trkpt>
      <trkpt lat="48.3638" lon="-3.95841">
        <ele>373.515</ele>
        <time>2019-09-08T10:52:02 0200</time>
      </trkpt>
      <trkpt lat="48.3639" lon="-3.95829">
        <ele>373.67</ele>
        <time>2019-09-08T10:52:07 0200</time>
      </trkpt>
      <trkpt lat="48.3639" lon="-3.95823">
        <ele>373.938</ele>
        <time>2019-09-08T10:52:12 0200</time>
      </trkpt>
      <trkpt lat="48.364" lon="-3.95806">
        <ele>374.992</ele>
        <time>2019-09-08T10:52:17 0200</time>
      </trkpt>
      <trkpt lat="48.3641" lon="-3.95801">
        <ele>375.585</ele>
        <time>2019-09-08T10:52:22 0200</time>
      </trkpt>
      <trkpt lat="48.3642" lon="-3.95788">
        <ele>376.411</ele>
        <time>2019-09-08T10:52:27 0200</time>
      </trkpt>
      <trkpt lat="48.3642" lon="-3.95774">
        <ele>376.791</ele>
        <time>2019-09-08T10:52:32 0200</time>
      </trkpt>
      <trkpt lat="48.3643" lon="-3.95767">
        <ele>377.009</ele>
        <time>2019-09-08T10:52:37 0200</time>
      </trkpt>
      <trkpt lat="48.3644" lon="-3.95757">
        <ele>377.598</ele>
        <time>2019-09-08T10:52:42 0200</time>
      </trkpt>
      <trkpt lat="48.3645" lon="-3.95748">
        <ele>378.156</ele>
        <time>2019-09-08T10:52:47 0200</time>
      </trkpt>
      <trkpt lat="48.3646" lon="-3.95738">
        <ele>378.919</ele>
        <time>2019-09-08T10:52:52 0200</time>
      </trkpt>
      <trkpt lat="48.3646" lon="-3.95733">
        <ele>379.608</ele>
        <time>2019-09-08T10:52:57 0200</time>
      </trkpt>
      <trkpt lat="48.3647" lon="-3.95727">
        <ele>380.482</ele>
        <time>2019-09-08T10:53:02 0200</time>
      </trkpt>
      <trkpt lat="48.3648" lon="-3.95722">
        <ele>380.672</ele>
        <time>2019-09-08T10:53:07 0200</time>
      </trkpt>
      <trkpt lat="48.3648" lon="-3.95712">
        <ele>381.354</ele>
        <time>2019-09-08T10:53:12 0200</time>
      </trkpt>
      <trkpt lat="48.3649" lon="-3.95705">
        <ele>381.749</ele>
        <time>2019-09-08T10:53:18 0200</time>
      </trkpt>
      <trkpt lat="48.3649" lon="-3.95691">
        <ele>382.237</ele>
        <time>2019-09-08T10:53:23 0200</time>
      </trkpt>
      <trkpt lat="48.365" lon="-3.95683">
        <ele>382.667</ele>
        <time>2019-09-08T10:53:28 0200</time>
      </trkpt>
      <trkpt lat="48.365" lon="-3.95667">
        <ele>383.308</ele>
        <time>2019-09-08T10:53:33 0200</time>
      </trkpt>
      <trkpt lat="48.365" lon="-3.95659">
        <ele>383.861</ele>
        <time>2019-09-08T10:53:38 0200</time>
      </trkpt>
      <trkpt lat="48.365" lon="-3.95643">
        <ele>384.253</ele>
        <time>2019-09-08T10:53:43 0200</time>
      </trkpt>
      <trkpt lat="48.365" lon="-3.95637">
        <ele>384.588</ele>
        <time>2019-09-08T10:53:48 0200</time>
      </trkpt>
      <trkpt lat="48.3651" lon="-3.95623">
        <ele>384.857</ele>
        <time>2019-09-08T10:53:53 0200</time>
      </trkpt>
      <trkpt lat="48.3652" lon="-3.95618">
        <ele>385.399</ele>
        <time>2019-09-08T10:53:58 0200</time>
      </trkpt>
      <trkpt lat="48.3652" lon="-3.95617">
        <ele>385.663</ele>
        <time>2019-09-08T10:54:03 0200</time>
      </trkpt>
      <trkpt lat="48.3653" lon="-3.95614">
        <ele>386.414</ele>
        <time>2019-09-08T10:54:08 0200</time>
      </trkpt>
      <trkpt lat="48.3653" lon="-3.95611">
        <ele>386.746</ele>
        <time>2019-09-08T10:54:13 0200</time>
      </trkpt>
      <trkpt lat="48.3654" lon="-3.95608">
        <ele>386.831</ele>
        <time>2019-09-08T10:54:18 0200</time>
      </trkpt>
      <trkpt lat="48.3655" lon="-3.95603">
        <ele>387.435</ele>
        <time>2019-09-08T10:54:23 0200</time>
      </trkpt>
      <trkpt lat="48.3655" lon="-3.95601">
        <ele>387.703</ele>
        <time>2019-09-08T10:54:28 0200</time>
      </trkpt>
      <trkpt lat="48.3656" lon="-3.9559">
        <ele>388.549</ele>
        <time>2019-09-08T10:54:33 0200</time>
      </trkpt>
      <trkpt lat="48.3656" lon="-3.9559">
        <ele>388.549</ele>
        <time>2019-09-08T10:54:38 0200</time>
      </trkpt>
      <trkpt lat="48.3656" lon="-3.95588">
        <ele>389.145</ele>
        <time>2019-09-08T10:54:43 0200</time>
      </trkpt>
      <trkpt lat="48.3657" lon="-3.95589">
        <ele>389.479</ele>
        <time>2019-09-08T10:54:48 0200</time>
      </trkpt>
      <trkpt lat="48.3657" lon="-3.95588">
        <ele>390.366</ele>
        <time>2019-09-08T10:54:53 0200</time>
      </trkpt>
      <trkpt lat="48.3658" lon="-3.95588">
        <ele>391.315</ele>
        <time>2019-09-08T10:54:58 0200</time>
      </trkpt>
      <trkpt lat="48.3658" lon="-3.95586">
        <ele>392.176</ele>
        <time>2019-09-08T10:55:03 0200</time>
      </trkpt>
      <trkpt lat="48.3659" lon="-3.95586">
        <ele>392.605</ele>
        <time>2019-09-08T10:55:08 0200</time>
      </trkpt>
      <trkpt lat="48.3659" lon="-3.95583">
        <ele>393.384</ele>
        <time>2019-09-08T10:55:13 0200</time>
      </trkpt>
      <trkpt lat="48.3659" lon="-3.95583">
        <ele>393.384</ele>
        <time>2019-09-08T10:55:18 0200</time>
      </trkpt>
      <trkpt lat="48.366" lon="-3.95581">
        <ele>394.254</ele>
        <time>2019-09-08T10:55:23 0200</time>
      </trkpt>
      <trkpt lat="48.366" lon="-3.95581">
        <ele>394.254</ele>
        <time>2019-09-08T10:55:29 0200</time>
      </trkpt>
      <trkpt lat="48.366" lon="-3.95577">
        <ele>395.205</ele>
        <time>2019-09-08T10:55:33 0200</time>
      </trkpt>
      <trkpt lat="48.3661" lon="-3.95576">
        <ele>395.862</ele>
        <time>2019-09-08T10:55:38 0200</time>
      </trkpt>
      <trkpt lat="48.3661" lon="-3.95575">
        <ele>396.577</ele>
        <time>2019-09-08T10:55:43 0200</time>
      </trkpt>
      <trkpt lat="48.3661" lon="-3.95575">
        <ele>396.577</ele>
        <time>2019-09-08T10:55:48 0200</time>
      </trkpt>
      <trkpt lat="48.3661" lon="-3.95575">
        <ele>396.577</ele>
        <time>2019-09-08T10:55:53 0200</time>
      </trkpt>
      <trkpt lat="48.3662" lon="-3.95574">
        <ele>398.455</ele>
        <time>2019-09-08T10:55:58 0200</time>
      </trkpt>
      <trkpt lat="48.3662" lon="-3.95574">
        <ele>398.455</ele>
        <time>2019-09-08T10:56:04 0200</time>
      </trkpt>
      <trkpt lat="48.3663" lon="-3.95574">
        <ele>399.291</ele>
        <time>2019-09-08T10:56:09 0200</time>
      </trkpt>
      <trkpt lat="48.3663" lon="-3.95575">
        <ele>399.814</ele>
        <time>2019-09-08T10:56:13 0200</time>
      </trkpt>
      <trkpt lat="48.3663" lon="-3.95575">
        <ele>399.814</ele>
        <time>2019-09-08T10:56:18 0200</time>
      </trkpt>
      <trkpt lat="48.3664" lon="-3.95577">
        <ele>401.406</ele>
        <time>2019-09-08T10:56:24 0200</time>
      </trkpt>
      <trkpt lat="48.3664" lon="-3.95577">
        <ele>401.406</ele>
        <time>2019-09-08T10:56:29 0200</time>
      </trkpt>
      <trkpt lat="48.3664" lon="-3.95577">
        <ele>401.406</ele>
        <time>2019-09-08T10:56:34 0200</time>
      </trkpt>
      <trkpt lat="48.3664" lon="-3.95569">
        <ele>403.069</ele>
        <time>2019-09-08T10:56:39 0200</time>
      </trkpt>
      <trkpt lat="48.3664" lon="-3.95563">
        <ele>404.134</ele>
        <time>2019-09-08T10:56:44 0200</time>
      </trkpt>
      <trkpt lat="48.3665" lon="-3.95561">
        <ele>405.253</ele>
        <time>2019-09-08T10:56:49 0200</time>
      </trkpt>
      <trkpt lat="48.3665" lon="-3.95561">
        <ele>405.253</ele>
        <time>2019-09-08T10:56:54 0200</time>
      </trkpt>
      <trkpt lat="48.3665" lon="-3.95561">
        <ele>405.253</ele>
        <time>2019-09-08T10:56:59 0200</time>
      </trkpt>
      <trkpt lat="48.3665" lon="-3.95561">
        <ele>405.253</ele>
        <time>2019-09-08T10:57:04 0200</time>
      </trkpt>
      <trkpt lat="48.3665" lon="-3.95561">
        <ele>405.253</ele>
        <time>2019-09-08T10:57:10 0200</time>
      </trkpt>
      <trkpt lat="48.3665" lon="-3.95561">
        <ele>405.253</ele>
        <time>2019-09-08T10:57:15 0200</time>
      </trkpt>
      <trkpt lat="48.3665" lon="-3.95567">
        <ele>406.439</ele>
        <time>2019-09-08T10:57:20 0200</time>
      </trkpt>
      <trkpt lat="48.3666" lon="-3.95569">
        <ele>406.794</ele>
        <time>2019-09-08T10:57:25 0200</time>
      </trkpt>
      <trkpt lat="48.3666" lon="-3.95568">
        <ele>407.136</ele>
        <time>2019-09-08T10:57:30 0200</time>
      </trkpt>
      <trkpt lat="48.3667" lon="-3.95567">
        <ele>408.626</ele>
        <time>2019-09-08T10:57:35 0200</time>
      </trkpt>
      <trkpt lat="48.3668" lon="-3.95568">
        <ele>408.977</ele>
        <time>2019-09-08T10:57:40 0200</time>
      </trkpt>
      <trkpt lat="48.3668" lon="-3.9557">
        <ele>409.311</ele>
        <time>2019-09-08T10:57:45 0200</time>
      </trkpt>
      <trkpt lat="48.3669" lon="-3.95566">
        <ele>409.894</ele>
        <time>2019-09-08T10:57:50 0200</time>
      </trkpt>
      <trkpt lat="48.367" lon="-3.95563">
        <ele>410.33</ele>
        <time>2019-09-08T10:57:55 0200</time>
      </trkpt>
      <trkpt lat="48.367" lon="-3.9556">
        <ele>410.853</ele>
        <time>2019-09-08T10:58:00 0200</time>
      </trkpt>
      <trkpt lat="48.3671" lon="-3.95557">
        <ele>411.696</ele>
        <time>2019-09-08T10:58:05 0200</time>
      </trkpt>
      <trkpt lat="48.3672" lon="-3.95556">
        <ele>411.935</ele>
        <time>2019-09-08T10:58:10 0200</time>
      </trkpt>
      <trkpt lat="48.3672" lon="-3.95553">
        <ele>412.325</ele>
        <time>2019-09-08T10:58:15 0200</time>
      </trkpt>
      <trkpt lat="48.3673" lon="-3.95551">
        <ele>412.303</ele>
        <time>2019-09-08T10:58:20 0200</time>
      </trkpt>
      <trkpt lat="48.3673" lon="-3.9555">
        <ele>412.527</ele>
        <time>2019-09-08T10:58:25 0200</time>
      </trkpt>
      <trkpt lat="48.3674" lon="-3.95552">
        <ele>412.868</ele>
        <time>2019-09-08T10:58:30 0200</time>
      </trkpt>
      <trkpt lat="48.3674" lon="-3.95552">
        <ele>412.868</ele>
        <time>2019-09-08T10:58:35 0200</time>
      </trkpt>
      <trkpt lat="48.3675" lon="-3.95551">
        <ele>413.781</ele>
        <time>2019-09-08T10:58:41 0200</time>
      </trkpt>
      <trkpt lat="48.3676" lon="-3.95548">
        <ele>414.403</ele>
        <time>2019-09-08T10:58:46 0200</time>
      </trkpt>
      <trkpt lat="48.3676" lon="-3.95546">
        <ele>414.383</ele>
        <time>2019-09-08T10:58:51 0200</time>
      </trkpt>
      <trkpt lat="48.3676" lon="-3.95546">
        <ele>414.383</ele>
        <time>2019-09-08T10:58:56 0200</time>
      </trkpt>
      <trkpt lat="48.3676" lon="-3.95546">
        <ele>414.383</ele>
        <time>2019-09-08T10:59:01 0200</time>
      </trkpt>
      <trkpt lat="48.3678" lon="-3.9554">
        <ele>415.116</ele>
        <time>2019-09-08T10:59:06 0200</time>
      </trkpt>
      <trkpt lat="48.3679" lon="-3.95542">
        <ele>415.648</ele>
        <time>2019-09-08T10:59:11 0200</time>
      </trkpt>
      <trkpt lat="48.3681" lon="-3.95543">
        <ele>415.69</ele>
        <time>2019-09-08T10:59:16 0200</time>
      </trkpt>
      <trkpt lat="48.3682" lon="-3.95543">
        <ele>415.797</ele>
        <time>2019-09-08T10:59:21 0200</time>
      </trkpt>
      <trkpt lat="48.3683" lon="-3.95545">
        <ele>416.131</ele>
        <time>2019-09-08T10:59:26 0200</time>
      </trkpt>
      <trkpt lat="48.3684" lon="-3.95542">
        <ele>416.187</ele>
        <time>2019-09-08T10:59:31 0200</time>
      </trkpt>
      <trkpt lat="48.3686" lon="-3.95539">
        <ele>416.632</ele>
        <time>2019-09-08T10:59:36 0200</time>
      </trkpt>
      <trkpt lat="48.3687" lon="-3.95534">
        <ele>417.063</ele>
        <time>2019-09-08T10:59:41 0200</time>
      </trkpt>
      <trkpt lat="48.3688" lon="-3.95528">
        <ele>417.515</ele>
        <time>2019-09-08T10:59:46 0200</time>
      </trkpt>
      <trkpt lat="48.3689" lon="-3.95522">
        <ele>417.792</ele>
        <time>2019-09-08T10:59:51 0200</time>
      </trkpt>
      <trkpt lat="48.369" lon="-3.95518">
        <ele>418.327</ele>
        <time>2019-09-08T10:59:56 0200</time>
      </trkpt>
      <trkpt lat="48.3691" lon="-3.95514">
        <ele>418.904</ele>
        <time>2019-09-08T11:00:01 0200</time>
      </trkpt>
      <trkpt lat="48.3692" lon="-3.95512">
        <ele>419.194</ele>
        <time>2019-09-08T11:00:06 0200</time>
      </trkpt>
      <trkpt lat="48.3693" lon="-3.95505">
        <ele>419.866</ele>
        <time>2019-09-08T11:00:11 0200</time>
      </trkpt>
      <trkpt lat="48.3693" lon="-3.95501">
        <ele>420.209</ele>
        <time>2019-09-08T11:00:16 0200</time>
      </trkpt>
      <trkpt lat="48.3694" lon="-3.95496">
        <ele>420.659</ele>
        <time>2019-09-08T11:00:21 0200</time>
      </trkpt>
      <trkpt lat="48.3695" lon="-3.9549">
        <ele>421.065</ele>
        <time>2019-09-08T11:00:26 0200</time>
      </trkpt>
      <trkpt lat="48.3696" lon="-3.95483">
        <ele>421.561</ele>
        <time>2019-09-08T11:00:31 0200</time>
      </trkpt>
      <trkpt lat="48.3698" lon="-3.95477">
        <ele>422.043</ele>
        <time>2019-09-08T11:00:36 0200</time>
      </trkpt>
      <trkpt lat="48.3698" lon="-3.95474">
        <ele>422.311</ele>
        <time>2019-09-08T11:00:41 0200</time>
      </trkpt>
      <trkpt lat="48.37" lon="-3.95465">
        <ele>422.786</ele>
        <time>2019-09-08T11:00:47 0200</time>
      </trkpt>
      <trkpt lat="48.3701" lon="-3.95459">
        <ele>423.011</ele>
        <time>2019-09-08T11:00:52 0200</time>
      </trkpt>
      <trkpt lat="48.3702" lon="-3.95453">
        <ele>423.374</ele>
        <time>2019-09-08T11:00:57 0200</time>
      </trkpt>
      <trkpt lat="48.3703" lon="-3.95451">
        <ele>423.666</ele>
        <time>2019-09-08T11:01:02 0200</time>
      </trkpt>
      <trkpt lat="48.3704" lon="-3.95444">
        <ele>423.761</ele>
        <time>2019-09-08T11:01:07 0200</time>
      </trkpt>
      <trkpt lat="48.3705" lon="-3.95438">
        <ele>423.561</ele>
        <time>2019-09-08T11:01:12 0200</time>
      </trkpt>
      <trkpt lat="48.3706" lon="-3.95434">
        <ele>423.501</ele>
        <time>2019-09-08T11:01:17 0200</time>
      </trkpt>
      <trkpt lat="48.3707" lon="-3.95431">
        <ele>423.531</ele>
        <time>2019-09-08T11:01:22 0200</time>
      </trkpt>
      <trkpt lat="48.3708" lon="-3.95429">
        <ele>423.409</ele>
        <time>2019-09-08T11:01:27 0200</time>
      </trkpt>
      <trkpt lat="48.3708" lon="-3.95426">
        <ele>423.37</ele>
        <time>2019-09-08T11:01:32 0200</time>
      </trkpt>
      <trkpt lat="48.3709" lon="-3.95419">
        <ele>423.683</ele>
        <time>2019-09-08T11:01:37 0200</time>
      </trkpt>
      <trkpt lat="48.371" lon="-3.95411">
        <ele>424.284</ele>
        <time>2019-09-08T11:01:42 0200</time>
      </trkpt>
      <trkpt lat="48.3711" lon="-3.95407">
        <ele>424.561</ele>
        <time>2019-09-08T11:01:47 0200</time>
      </trkpt>
      <trkpt lat="48.3712" lon="-3.95397">
        <ele>425.103</ele>
        <time>2019-09-08T11:01:52 0200</time>
      </trkpt>
      <trkpt lat="48.3713" lon="-3.9539">
        <ele>425.658</ele>
        <time>2019-09-08T11:01:57 0200</time>
      </trkpt>
      <trkpt lat="48.3713" lon="-3.95387">
        <ele>425.809</ele>
        <time>2019-09-08T11:02:02 0200</time>
      </trkpt>
      <trkpt lat="48.3714" lon="-3.9538">
        <ele>426.142</ele>
        <time>2019-09-08T11:02:07 0200</time>
      </trkpt>
      <trkpt lat="48.3715" lon="-3.95371">
        <ele>426.393</ele>
        <time>2019-09-08T11:02:12 0200</time>
      </trkpt>
      <trkpt lat="48.3716" lon="-3.95368">
        <ele>426.683</ele>
        <time>2019-09-08T11:02:17 0200</time>
      </trkpt>
      <trkpt lat="48.3717" lon="-3.95362">
        <ele>427.204</ele>
        <time>2019-09-08T11:02:22 0200</time>
      </trkpt>
      <trkpt lat="48.3718" lon="-3.95359">
        <ele>427.638</ele>
        <time>2019-09-08T11:02:27 0200</time>
      </trkpt>
      <trkpt lat="48.3719" lon="-3.95357">
        <ele>427.872</ele>
        <time>2019-09-08T11:02:32 0200</time>
      </trkpt>
      <trkpt lat="48.372" lon="-3.95352">
        <ele>428.506</ele>
        <time>2019-09-08T11:02:37 0200</time>
      </trkpt>
      <trkpt lat="48.3721" lon="-3.95348">
        <ele>429.118</ele>
        <time>2019-09-08T11:02:42 0200</time>
      </trkpt>
      <trkpt lat="48.3722" lon="-3.95347">
        <ele>429.481</ele>
        <time>2019-09-08T11:02:47 0200</time>
      </trkpt>
      <trkpt lat="48.3722" lon="-3.95344">
        <ele>429.712</ele>
        <time>2019-09-08T11:02:52 0200</time>
      </trkpt>
      <trkpt lat="48.3723" lon="-3.9534">
        <ele>430.131</ele>
        <time>2019-09-08T11:02:57 0200</time>
      </trkpt>
      <trkpt lat="48.3724" lon="-3.95338">
        <ele>430.677</ele>
        <time>2019-09-08T11:03:03 0200</time>
      </trkpt>
      <trkpt lat="48.3725" lon="-3.95335">
        <ele>430.896</ele>
        <time>2019-09-08T11:03:08 0200</time>
      </trkpt>
      <trkpt lat="48.3725" lon="-3.95335">
        <ele>430.896</ele>
        <time>2019-09-08T11:03:13 0200</time>
      </trkpt>
      <trkpt lat="48.3725" lon="-3.95335">
        <ele>430.896</ele>
        <time>2019-09-08T11:03:18 0200</time>
      </trkpt>
      <trkpt lat="48.3725" lon="-3.95335">
        <ele>430.896</ele>
        <time>2019-09-08T11:03:23 0200</time>
      </trkpt>
      <trkpt lat="48.3725" lon="-3.95335">
        <ele>430.896</ele>
        <time>2019-09-08T11:03:28 0200</time>
      </trkpt>
      <trkpt lat="48.3725" lon="-3.95335">
        <ele>430.896</ele>
        <time>2019-09-08T11:03:33 0200</time>
      </trkpt>
      <trkpt lat="48.3725" lon="-3.95335">
        <ele>430.896</ele>
        <time>2019-09-08T11:03:38 0200</time>
      </trkpt>
      <trkpt lat="48.3725" lon="-3.95335">
        <ele>430.896</ele>
        <time>2019-09-08T11:03:43 0200</time>
      </trkpt>
      <trkpt lat="48.3725" lon="-3.95335">
        <ele>430.896</ele>
        <time>2019-09-08T11:03:48 0200</time>
      </trkpt>
      <trkpt lat="48.3725" lon="-3.95335">
        <ele>430.896</ele>
        <time>2019-09-08T11:03:53 0200</time>
      </trkpt>
      <trkpt lat="48.3725" lon="-3.95335">
        <ele>430.896</ele>
        <time>2019-09-08T11:03:58 0200</time>
      </trkpt>
      <trkpt lat="48.3725" lon="-3.95335">
        <ele>430.896</ele>
        <time>2019-09-08T11:04:03 0200</time>
      </trkpt>
      <trkpt lat="48.3725" lon="-3.95335">
        <ele>430.896</ele>
        <time>2019-09-08T11:04:08 0200</time>
      </trkpt>
      <trkpt lat="48.3726" lon="-3.95328">
        <ele>431.48</ele>
        <time>2019-09-08T11:04:13 0200</time>
      </trkpt>
      <trkpt lat="48.3727" lon="-3.95318">
        <ele>431.761</ele>
        <time>2019-09-08T11:04:18 0200</time>
      </trkpt>
      <trkpt lat="48.3728" lon="-3.95308">
        <ele>431.779</ele>
        <time>2019-09-08T11:04:23 0200</time>
      </trkpt>
      <trkpt lat="48.373" lon="-3.9529">
        <ele>431.857</ele>
        <time>2019-09-08T11:04:28 0200</time>
      </trkpt>
      <trkpt lat="48.3732" lon="-3.95278">
        <ele>431.924</ele>
        <time>2019-09-08T11:04:33 0200</time>
      </trkpt>
      <trkpt lat="48.3734" lon="-3.95266">
        <ele>431.519</ele>
        <time>2019-09-08T11:04:39 0200</time>
      </trkpt>
      <trkpt lat="48.3735" lon="-3.95256">
        <ele>429.826</ele>
        <time>2019-09-08T11:04:44 0200</time>
      </trkpt>
      <trkpt lat="48.3738" lon="-3.95247">
        <ele>427.44</ele>
        <time>2019-09-08T11:04:49 0200</time>
      </trkpt>
      <trkpt lat="48.374" lon="-3.95241">
        <ele>427.394</ele>
        <time>2019-09-08T11:04:54 0200</time>
      </trkpt>
      <trkpt lat="48.3742" lon="-3.95229">
        <ele>423.09</ele>
        <time>2019-09-08T11:04:59 0200</time>
      </trkpt>
      <trkpt lat="48.3745" lon="-3.9522">
        <ele>421.89</ele>
        <time>2019-09-08T11:05:04 0200</time>
      </trkpt>
      <trkpt lat="48.3747" lon="-3.95215">
        <ele>420.897</ele>
        <time>2019-09-08T11:05:09 0200</time>
      </trkpt>
      <trkpt lat="48.3749" lon="-3.95209">
        <ele>420.399</ele>
        <time>2019-09-08T11:05:14 0200</time>
      </trkpt>
      <trkpt lat="48.3751" lon="-3.95198">
        <ele>419.789</ele>
        <time>2019-09-08T11:05:19 0200</time>
      </trkpt>
      <trkpt lat="48.3752" lon="-3.95187">
        <ele>418.623</ele>
        <time>2019-09-08T11:05:24 0200</time>
      </trkpt>
      <trkpt lat="48.3754" lon="-3.95172">
        <ele>417.379</ele>
        <time>2019-09-08T11:05:29 0200</time>
      </trkpt>
      <trkpt lat="48.3755" lon="-3.95151">
        <ele>417.009</ele>
        <time>2019-09-08T11:05:34 0200</time>
      </trkpt>
      <trkpt lat="48.3757" lon="-3.95132">
        <ele>415.467</ele>
        <time>2019-09-08T11:05:39 0200</time>
      </trkpt>
      <trkpt lat="48.3758" lon="-3.95123">
        <ele>413.593</ele>
        <time>2019-09-08T11:05:44 0200</time>
      </trkpt>
      <trkpt lat="48.376" lon="-3.95112">
        <ele>410.647</ele>
        <time>2019-09-08T11:05:49 0200</time>
      </trkpt>
      <trkpt lat="48.3763" lon="-3.95102">
        <ele>408.219</ele>
        <time>2019-09-08T11:05:54 0200</time>
      </trkpt>
      <trkpt lat="48.3765" lon="-3.95103">
        <ele>404.112</ele>
        <time>2019-09-08T11:05:59 0200</time>
      </trkpt>
      <trkpt lat="48.3767" lon="-3.95101">
        <ele>402.961</ele>
        <time>2019-09-08T11:06:04 0200</time>
      </trkpt>
      <trkpt lat="48.3768" lon="-3.95102">
        <ele>402.655</ele>
        <time>2019-09-08T11:06:09 0200</time>
      </trkpt>
      <trkpt lat="48.3769" lon="-3.95108">
        <ele>402.405</ele>
        <time>2019-09-08T11:06:14 0200</time>
      </trkpt>
      <trkpt lat="48.3771" lon="-3.95109">
        <ele>401.788</ele>
        <time>2019-09-08T11:06:19 0200</time>
      </trkpt>
      <trkpt lat="48.3771" lon="-3.95105">
        <ele>401.758</ele>
        <time>2019-09-08T11:06:24 0200</time>
      </trkpt>
      <trkpt lat="48.3772" lon="-3.95089">
        <ele>401.625</ele>
        <time>2019-09-08T11:06:29 0200</time>
      </trkpt>
      <trkpt lat="48.3773" lon="-3.95078">
        <ele>401.631</ele>
        <time>2019-09-08T11:06:34 0200</time>
      </trkpt>
      <trkpt lat="48.3775" lon="-3.95058">
        <ele>402.239</ele>
        <time>2019-09-08T11:06:39 0200</time>
      </trkpt>
      <trkpt lat="48.3777" lon="-3.95034">
        <ele>398.921</ele>
        <time>2019-09-08T11:06:44 0200</time>
      </trkpt>
      <trkpt lat="48.3779" lon="-3.95015">
        <ele>396.76</ele>
        <time>2019-09-08T11:06:49 0200</time>
      </trkpt>
      <trkpt lat="48.3781" lon="-3.94991">
        <ele>395.717</ele>
        <time>2019-09-08T11:06:54 0200</time>
      </trkpt>
      <trkpt lat="48.3784" lon="-3.94974">
        <ele>395.757</ele>
        <time>2019-09-08T11:07:00 0200</time>
      </trkpt>
      <trkpt lat="48.3786" lon="-3.94961">
        <ele>392.615</ele>
        <time>2019-09-08T11:07:05 0200</time>
      </trkpt>
      <trkpt lat="48.3789" lon="-3.94935">
        <ele>389.1</ele>
        <time>2019-09-08T11:07:10 0200</time>
      </trkpt>
      <trkpt lat="48.3792" lon="-3.94918">
        <ele>387.568</ele>
        <time>2019-09-08T11:07:15 0200</time>
      </trkpt>
      <trkpt lat="48.3793" lon="-3.94896">
        <ele>386.13</ele>
        <time>2019-09-08T11:07:20 0200</time>
      </trkpt>
      <trkpt lat="48.3794" lon="-3.94867">
        <ele>385.327</ele>
        <time>2019-09-08T11:07:25 0200</time>
      </trkpt>
      <trkpt lat="48.3796" lon="-3.94837">
        <ele>383.68</ele>
        <time>2019-09-08T11:07:30 0200</time>
      </trkpt>
      <trkpt lat="48.3798" lon="-3.9481">
        <ele>382.612</ele>
        <time>2019-09-08T11:07:35 0200</time>
      </trkpt>
      <trkpt lat="48.38" lon="-3.94779">
        <ele>380.871</ele>
        <time>2019-09-08T11:07:40 0200</time>
      </trkpt>
      <trkpt lat="48.3802" lon="-3.94751">
        <ele>377.685</ele>
        <time>2019-09-08T11:07:45 0200</time>
      </trkpt>
      <trkpt lat="48.3804" lon="-3.94726">
        <ele>375.148</ele>
        <time>2019-09-08T11:07:50 0200</time>
      </trkpt>
      <trkpt lat="48.3805" lon="-3.94712">
        <ele>374.602</ele>
        <time>2019-09-08T11:07:55 0200</time>
      </trkpt>
      <trkpt lat="48.3807" lon="-3.94697">
        <ele>374.214</ele>
        <time>2019-09-08T11:08:00 0200</time>
      </trkpt>
      <trkpt lat="48.3808" lon="-3.94679">
        <ele>373.363</ele>
        <time>2019-09-08T11:08:05 0200</time>
      </trkpt>
      <trkpt lat="48.381" lon="-3.94664">
        <ele>371.021</ele>
        <time>2019-09-08T11:08:10 0200</time>
      </trkpt>
      <trkpt lat="48.3811" lon="-3.94653">
        <ele>369.458</ele>
        <time>2019-09-08T11:08:15 0200</time>
      </trkpt>
      <trkpt lat="48.3814" lon="-3.94632">
        <ele>365.003</ele>
        <time>2019-09-08T11:08:20 0200</time>
      </trkpt>
      <trkpt lat="48.3815" lon="-3.94616">
        <ele>365.098</ele>
        <time>2019-09-08T11:08:25 0200</time>
      </trkpt>
      <trkpt lat="48.3816" lon="-3.94589">
        <ele>363.012</ele>
        <time>2019-09-08T11:08:30 0200</time>
      </trkpt>
      <trkpt lat="48.3818" lon="-3.94559">
        <ele>361.645</ele>
        <time>2019-09-08T11:08:35 0200</time>
      </trkpt>
      <trkpt lat="48.3819" lon="-3.94542">
        <ele>358.168</ele>
        <time>2019-09-08T11:08:40 0200</time>
      </trkpt>
      <trkpt lat="48.3822" lon="-3.94518">
        <ele>355.566</ele>
        <time>2019-09-08T11:08:45 0200</time>
      </trkpt>
      <trkpt lat="48.3823" lon="-3.94489">
        <ele>353.162</ele>
        <time>2019-09-08T11:08:50 0200</time>
      </trkpt>
      <trkpt lat="48.3825" lon="-3.94464">
        <ele>351.499</ele>
        <time>2019-09-08T11:08:55 0200</time>
      </trkpt>
      <trkpt lat="48.3827" lon="-3.94446">
        <ele>352.064</ele>
        <time>2019-09-08T11:09:00 0200</time>
      </trkpt>
      <trkpt lat="48.3829" lon="-3.94428">
        <ele>353.695</ele>
        <time>2019-09-08T11:09:05 0200</time>
      </trkpt>
      <trkpt lat="48.3831" lon="-3.9442">
        <ele>353.728</ele>
        <time>2019-09-08T11:09:10 0200</time>
      </trkpt>
      <trkpt lat="48.3831" lon="-3.9442">
        <ele>353.728</ele>
        <time>2019-09-08T11:09:15 0200</time>
      </trkpt>
      <trkpt lat="48.3831" lon="-3.9442">
        <ele>353.728</ele>
        <time>2019-09-08T11:09:21 0200</time>
      </trkpt>
      <trkpt lat="48.3831" lon="-3.9442">
        <ele>353.728</ele>
        <time>2019-09-08T11:09:26 0200</time>
      </trkpt>
      <trkpt lat="48.3831" lon="-3.9442">
        <ele>353.728</ele>
        <time>2019-09-08T11:09:31 0200</time>
      </trkpt>
      <trkpt lat="48.3831" lon="-3.9442">
        <ele>353.728</ele>
        <time>2019-09-08T11:09:36 0200</time>
      </trkpt>
      <trkpt lat="48.3831" lon="-3.9442">
        <ele>353.728</ele>
        <time>2019-09-08T11:09:41 0200</time>
      </trkpt>
      <trkpt lat="48.3831" lon="-3.9442">
        <ele>353.728</ele>
        <time>2019-09-08T11:09:46 0200</time>
      </trkpt>
      <trkpt lat="48.3831" lon="-3.9442">
        <ele>353.728</ele>
        <time>2019-09-08T11:09:51 0200</time>
      </trkpt>
      <trkpt lat="48.3831" lon="-3.9442">
        <ele>353.728</ele>
        <time>2019-09-08T11:09:56 0200</time>
      </trkpt>
      <trkpt lat="48.3831" lon="-3.9442">
        <ele>353.728</ele>
        <time>2019-09-08T11:10:01 0200</time>
      </trkpt>
      <trkpt lat="48.3831" lon="-3.9442">
        <ele>353.728</ele>
        <time>2019-09-08T11:10:06 0200</time>
      </trkpt>
      <trkpt lat="48.3831" lon="-3.9442">
        <ele>353.728</ele>
        <time>2019-09-08T11:10:11 0200</time>
      </trkpt>
      <trkpt lat="48.3831" lon="-3.9442">
        <ele>353.728</ele>
        <time>2019-09-08T11:10:16 0200</time>
      </trkpt>
      <trkpt lat="48.3831" lon="-3.9442">
        <ele>353.728</ele>
        <time>2019-09-08T11:10:21 0200</time>
      </trkpt>
      <trkpt lat="48.3831" lon="-3.9442">
        <ele>353.728</ele>
        <time>2019-09-08T11:10:26 0200</time>
      </trkpt>
      <trkpt lat="48.3831" lon="-3.9442">
        <ele>353.728</ele>
        <time>2019-09-08T11:10:31 0200</time>
      </trkpt>
      <trkpt lat="48.3831" lon="-3.9442">
        <ele>353.728</ele>
        <time>2019-09-08T11:10:37 0200</time>
      </trkpt>
      <trkpt lat="48.3831" lon="-3.9442">
        <ele>353.728</ele>
        <time>2019-09-08T11:10:42 0200</time>
      </trkpt>
      <trkpt lat="48.3831" lon="-3.9442">
        <ele>353.728</ele>
        <time>2019-09-08T11:10:47 0200</time>
      </trkpt>
      <trkpt lat="48.3831" lon="-3.9442">
        <ele>353.728</ele>
        <time>2019-09-08T11:10:52 0200</time>
      </trkpt>
      <trkpt lat="48.3831" lon="-3.9442">
        <ele>353.728</ele>
        <time>2019-09-08T11:10:57 0200</time>
      </trkpt>
      <trkpt lat="48.3831" lon="-3.9442">
        <ele>353.728</ele>
        <time>2019-09-08T11:11:02 0200</time>
      </trkpt>
      <trkpt lat="48.3831" lon="-3.9442">
        <ele>353.728</ele>
        <time>2019-09-08T11:11:07 0200</time>
      </trkpt>
      <trkpt lat="48.3831" lon="-3.9442">
        <ele>353.728</ele>
        <time>2019-09-08T11:11:12 0200</time>
      </trkpt>
      <trkpt lat="48.3831" lon="-3.9442">
        <ele>353.728</ele>
        <time>2019-09-08T11:11:17 0200</time>
      </trkpt>
      <trkpt lat="48.3831" lon="-3.9442">
        <ele>353.728</ele>
        <time>2019-09-08T11:11:22 0200</time>
      </trkpt>
      <trkpt lat="48.3831" lon="-3.9442">
        <ele>353.728</ele>
        <time>2019-09-08T11:11:27 0200</time>
      </trkpt>
      <trkpt lat="48.3831" lon="-3.9442">
        <ele>353.728</ele>
        <time>2019-09-08T11:11:32 0200</time>
      </trkpt>
      <trkpt lat="48.3831" lon="-3.9442">
        <ele>353.728</ele>
        <time>2019-09-08T11:11:37 0200</time>
      </trkpt>
      <trkpt lat="48.3831" lon="-3.9442">
        <ele>353.728</ele>
        <time>2019-09-08T11:11:42 0200</time>
      </trkpt>
      <trkpt lat="48.3831" lon="-3.9442">
        <ele>353.728</ele>
        <time>2019-09-08T11:11:47 0200</time>
      </trkpt>
      <trkpt lat="48.3831" lon="-3.9442">
        <ele>353.728</ele>
        <time>2019-09-08T11:11:52 0200</time>
      </trkpt>
      <trkpt lat="48.3831" lon="-3.9442">
        <ele>353.728</ele>
        <time>2019-09-08T11:11:57 0200</time>
      </trkpt>
      <trkpt lat="48.3831" lon="-3.9442">
        <ele>353.728</ele>
        <time>2019-09-08T11:12:02 0200</time>
      </trkpt>
      <trkpt lat="48.3831" lon="-3.9442">
        <ele>353.728</ele>
        <time>2019-09-08T11:12:07 0200</time>
      </trkpt>
      <trkpt lat="48.3831" lon="-3.9442">
        <ele>353.728</ele>
        <time>2019-09-08T11:12:12 0200</time>
      </trkpt>
      <trkpt lat="48.3831" lon="-3.9442">
        <ele>353.728</ele>
        <time>2019-09-08T11:12:17 0200</time>
      </trkpt>
      <trkpt lat="48.3831" lon="-3.9442">
        <ele>353.728</ele>
        <time>2019-09-08T11:12:23 0200</time>
      </trkpt>
      <trkpt lat="48.3831" lon="-3.9442">
        <ele>353.728</ele>
        <time>2019-09-08T11:12:28 0200</time>
      </trkpt>
      <trkpt lat="48.3831" lon="-3.9442">
        <ele>353.728</ele>
        <time>2019-09-08T11:12:33 0200</time>
      </trkpt>
      <trkpt lat="48.3831" lon="-3.9442">
        <ele>353.728</ele>
        <time>2019-09-08T11:12:38 0200</time>
      </trkpt>
      <trkpt lat="48.3831" lon="-3.9442">
        <ele>353.728</ele>
        <time>2019-09-08T11:12:43 0200</time>
      </trkpt>
      <trkpt lat="48.3831" lon="-3.9442">
        <ele>353.728</ele>
        <time>2019-09-08T11:12:48 0200</time>
      </trkpt>
      <trkpt lat="48.3831" lon="-3.9442">
        <ele>353.728</ele>
        <time>2019-09-08T11:12:53 0200</time>
      </trkpt>
      <trkpt lat="48.3831" lon="-3.9442">
        <ele>353.728</ele>
        <time>2019-09-08T11:12:58 0200</time>
      </trkpt>
      <trkpt lat="48.3831" lon="-3.9442">
        <ele>353.728</ele>
        <time>2019-09-08T11:13:03 0200</time>
      </trkpt>
      <trkpt lat="48.3831" lon="-3.9442">
        <ele>353.728</ele>
        <time>2019-09-08T11:13:08 0200</time>
      </trkpt>
      <trkpt lat="48.3831" lon="-3.9442">
        <ele>353.728</ele>
        <time>2019-09-08T11:13:13 0200</time>
      </trkpt>
      <trkpt lat="48.3831" lon="-3.9442">
        <ele>353.728</ele>
        <time>2019-09-08T11:13:19 0200</time>
      </trkpt>
      <trkpt lat="48.3831" lon="-3.9442">
        <ele>353.728</ele>
        <time>2019-09-08T11:13:24 0200</time>
      </trkpt>
      <trkpt lat="48.3831" lon="-3.9442">
        <ele>353.728</ele>
        <time>2019-09-08T11:13:29 0200</time>
      </trkpt>
      <trkpt lat="48.3831" lon="-3.9442">
        <ele>353.728</ele>
        <time>2019-09-08T11:13:34 0200</time>
      </trkpt>
      <trkpt lat="48.3831" lon="-3.9442">
        <ele>353.728</ele>
        <time>2019-09-08T11:13:39 0200</time>
      </trkpt>
      <trkpt lat="48.3831" lon="-3.9442">
        <ele>353.728</ele>
        <time>2019-09-08T11:13:44 0200</time>
      </trkpt>
      <trkpt lat="48.3831" lon="-3.9442">
        <ele>353.728</ele>
        <time>2019-09-08T11:13:49 0200</time>
      </trkpt>
      <trkpt lat="48.3831" lon="-3.9442">
        <ele>353.728</ele>
        <time>2019-09-08T11:13:54 0200</time>
      </trkpt>
      <trkpt lat="48.3831" lon="-3.9442">
        <ele>353.728</ele>
        <time>2019-09-08T11:13:59 0200</time>
      </trkpt>
      <trkpt lat="48.3831" lon="-3.94411">
        <ele>350.723</ele>
        <time>2019-09-08T11:14:04 0200</time>
      </trkpt>
      <trkpt lat="48.3831" lon="-3.94395">
        <ele>350.643</ele>
        <time>2019-09-08T11:14:09 0200</time>
      </trkpt>
      <trkpt lat="48.3832" lon="-3.94378">
        <ele>350.446</ele>
        <time>2019-09-08T11:14:14 0200</time>
      </trkpt>
      <trkpt lat="48.3832" lon="-3.94378">
        <ele>350.446</ele>
        <time>2019-09-08T11:14:19 0200</time>
      </trkpt>
      <trkpt lat="48.3832" lon="-3.94378">
        <ele>350.446</ele>
        <time>2019-09-08T11:14:24 0200</time>
      </trkpt>
      <trkpt lat="48.3832" lon="-3.94378">
        <ele>350.446</ele>
        <time>2019-09-08T11:14:29 0200</time>
      </trkpt>
      <trkpt lat="48.3832" lon="-3.94378">
        <ele>350.446</ele>
        <time>2019-09-08T11:14:34 0200</time>
      </trkpt>
      <trkpt lat="48.3832" lon="-3.94365">
        <ele>350.043</ele>
        <time>2019-09-08T11:14:39 0200</time>
      </trkpt>
      <trkpt lat="48.3832" lon="-3.9436">
        <ele>349.691</ele>
        <time>2019-09-08T11:14:44 0200</time>
      </trkpt>
      <trkpt lat="48.3832" lon="-3.9436">
        <ele>349.691</ele>
        <time>2019-09-08T11:14:49 0200</time>
      </trkpt>
      <trkpt lat="48.3833" lon="-3.94355">
        <ele>349.235</ele>
        <time>2019-09-08T11:14:55 0200</time>
      </trkpt>
      <trkpt lat="48.3835" lon="-3.94345">
        <ele>349.007</ele>
        <time>2019-09-08T11:15:00 0200</time>
      </trkpt>
      <trkpt lat="48.3835" lon="-3.94341">
        <ele>349.09</ele>
        <time>2019-09-08T11:15:05 0200</time>
      </trkpt>
      <trkpt lat="48.3836" lon="-3.94331">
        <ele>349.026</ele>
        <time>2019-09-08T11:15:10 0200</time>
      </trkpt>
      <trkpt lat="48.3838" lon="-3.94329">
        <ele>349.192</ele>
        <time>2019-09-08T11:15:15 0200</time>
      </trkpt>
      <trkpt lat="48.3839" lon="-3.9433">
        <ele>349.374</ele>
        <time>2019-09-08T11:15:20 0200</time>
      </trkpt>
      <trkpt lat="48.3841" lon="-3.94329">
        <ele>349.719</ele>
        <time>2019-09-08T11:15:25 0200</time>
      </trkpt>
      <trkpt lat="48.3842" lon="-3.94328">
        <ele>349.991</ele>
        <time>2019-09-08T11:15:30 0200</time>
      </trkpt>
      <trkpt lat="48.3844" lon="-3.94327">
        <ele>350.079</ele>
        <time>2019-09-08T11:15:35 0200</time>
      </trkpt>
      <trkpt lat="48.3846" lon="-3.94327">
        <ele>350.308</ele>
        <time>2019-09-08T11:15:40 0200</time>
      </trkpt>
      <trkpt lat="48.3847" lon="-3.94329">
        <ele>350.64</ele>
        <time>2019-09-08T11:15:45 0200</time>
      </trkpt>
      <trkpt lat="48.3849" lon="-3.94335">
        <ele>350.919</ele>
        <time>2019-09-08T11:15:50 0200</time>
      </trkpt>
      <trkpt lat="48.385" lon="-3.94338">
        <ele>351.449</ele>
        <time>2019-09-08T11:15:56 0200</time>
      </trkpt>
      <trkpt lat="48.3853" lon="-3.9434">
        <ele>350.245</ele>
        <time>2019-09-08T11:16:01 0200</time>
      </trkpt>
      <trkpt lat="48.3854" lon="-3.94337">
        <ele>348.525</ele>
        <time>2019-09-08T11:16:06 0200</time>
      </trkpt>
      <trkpt lat="48.3857" lon="-3.94329">
        <ele>347.92</ele>
        <time>2019-09-08T11:16:11 0200</time>
      </trkpt>
      <trkpt lat="48.3859" lon="-3.94323">
        <ele>347.722</ele>
        <time>2019-09-08T11:16:16 0200</time>
      </trkpt>
      <trkpt lat="48.3861" lon="-3.94315">
        <ele>346.418</ele>
        <time>2019-09-08T11:16:21 0200</time>
      </trkpt>
      <trkpt lat="48.3862" lon="-3.9431">
        <ele>345.218</ele>
        <time>2019-09-08T11:16:26 0200</time>
      </trkpt>
      <trkpt lat="48.3865" lon="-3.94298">
        <ele>344.731</ele>
        <time>2019-09-08T11:16:31 0200</time>
      </trkpt>
      <trkpt lat="48.3867" lon="-3.94282">
        <ele>345.502</ele>
        <time>2019-09-08T11:16:36 0200</time>
      </trkpt>
      <trkpt lat="48.3869" lon="-3.94268">
        <ele>346.154</ele>
        <time>2019-09-08T11:16:41 0200</time>
      </trkpt>
      <trkpt lat="48.3871" lon="-3.94257">
        <ele>344.962</ele>
        <time>2019-09-08T11:16:46 0200</time>
      </trkpt>
      <trkpt lat="48.3873" lon="-3.94252">
        <ele>344.325</ele>
        <time>2019-09-08T11:16:51 0200</time>
      </trkpt>
      <trkpt lat="48.3875" lon="-3.94257">
        <ele>344.557</ele>
        <time>2019-09-08T11:16:56 0200</time>
      </trkpt>
      <trkpt lat="48.3876" lon="-3.94277">
        <ele>344.32</ele>
        <time>2019-09-08T11:17:01 0200</time>
      </trkpt>
      <trkpt lat="48.3877" lon="-3.94296">
        <ele>344.293</ele>
        <time>2019-09-08T11:17:06 0200</time>
      </trkpt>
      <trkpt lat="48.3877" lon="-3.9431">
        <ele>343.907</ele>
        <time>2019-09-08T11:17:11 0200</time>
      </trkpt>
      <trkpt lat="48.3879" lon="-3.94308">
        <ele>343.736</ele>
        <time>2019-09-08T11:17:16 0200</time>
      </trkpt>
      <trkpt lat="48.3881" lon="-3.94307">
        <ele>343.704</ele>
        <time>2019-09-08T11:17:21 0200</time>
      </trkpt>
      <trkpt lat="48.3881" lon="-3.94307">
        <ele>343.704</ele>
        <time>2019-09-08T11:17:26 0200</time>
      </trkpt>
      <trkpt lat="48.3881" lon="-3.94307">
        <ele>343.704</ele>
        <time>2019-09-08T11:17:31 0200</time>
      </trkpt>
      <trkpt lat="48.3881" lon="-3.94307">
        <ele>343.704</ele>
        <time>2019-09-08T11:17:36 0200</time>
      </trkpt>
      <trkpt lat="48.3881" lon="-3.94307">
        <ele>343.704</ele>
        <time>2019-09-08T11:17:41 0200</time>
      </trkpt>
      <trkpt lat="48.3881" lon="-3.94307">
        <ele>343.704</ele>
        <time>2019-09-08T11:17:46 0200</time>
      </trkpt>
      <trkpt lat="48.3881" lon="-3.94307">
        <ele>342.943</ele>
        <time>2019-09-08T11:17:51 0200</time>
      </trkpt>
      <trkpt lat="48.3882" lon="-3.94309">
        <ele>342.951</ele>
        <time>2019-09-08T11:17:56 0200</time>
      </trkpt>
      <trkpt lat="48.3883" lon="-3.94311">
        <ele>343.052</ele>
        <time>2019-09-08T11:18:01 0200</time>
      </trkpt>
      <trkpt lat="48.3883" lon="-3.94311">
        <ele>343.052</ele>
        <time>2019-09-08T11:18:07 0200</time>
      </trkpt>
      <trkpt lat="48.3883" lon="-3.94311">
        <ele>343.052</ele>
        <time>2019-09-08T11:18:12 0200</time>
      </trkpt>
      <trkpt lat="48.3884" lon="-3.94315">
        <ele>343.526</ele>
        <time>2019-09-08T11:18:17 0200</time>
      </trkpt>
      <trkpt lat="48.3885" lon="-3.94318">
        <ele>343.81</ele>
        <time>2019-09-08T11:18:22 0200</time>
      </trkpt>
      <trkpt lat="48.3885" lon="-3.94318">
        <ele>343.81</ele>
        <time>2019-09-08T11:18:27 0200</time>
      </trkpt>
      <trkpt lat="48.3886" lon="-3.94319">
        <ele>344.098</ele>
        <time>2019-09-08T11:18:32 0200</time>
      </trkpt>
      <trkpt lat="48.3888" lon="-3.9432">
        <ele>344.327</ele>
        <time>2019-09-08T11:18:37 0200</time>
      </trkpt>
      <trkpt lat="48.3888" lon="-3.94322">
        <ele>344.502</ele>
        <time>2019-09-08T11:18:42 0200</time>
      </trkpt>
      <trkpt lat="48.3889" lon="-3.94328">
        <ele>345.076</ele>
        <time>2019-09-08T11:18:47 0200</time>
      </trkpt>
      <trkpt lat="48.3889" lon="-3.94328">
        <ele>345.076</ele>
        <time>2019-09-08T11:18:52 0200</time>
      </trkpt>
      <trkpt lat="48.3889" lon="-3.94328">
        <ele>345.076</ele>
        <time>2019-09-08T11:18:57 0200</time>
      </trkpt>
      <trkpt lat="48.389" lon="-3.94331">
        <ele>345.565</ele>
        <time>2019-09-08T11:19:02 0200</time>
      </trkpt>
      <trkpt lat="48.3891" lon="-3.94333">
        <ele>345.924</ele>
        <time>2019-09-08T11:19:07 0200</time>
      </trkpt>
      <trkpt lat="48.3891" lon="-3.94335">
        <ele>346.052</ele>
        <time>2019-09-08T11:19:12 0200</time>
      </trkpt>
      <trkpt lat="48.3892" lon="-3.94341">
        <ele>345.973</ele>
        <time>2019-09-08T11:19:17 0200</time>
      </trkpt>
      <trkpt lat="48.3893" lon="-3.94345">
        <ele>345.824</ele>
        <time>2019-09-08T11:19:22 0200</time>
      </trkpt>
      <trkpt lat="48.3893" lon="-3.94345">
        <ele>345.824</ele>
        <time>2019-09-08T11:19:27 0200</time>
      </trkpt>
      <trkpt lat="48.3893" lon="-3.94345">
        <ele>345.824</ele>
        <time>2019-09-08T11:19:32 0200</time>
      </trkpt>
      <trkpt lat="48.3893" lon="-3.94345">
        <ele>345.824</ele>
        <time>2019-09-08T11:19:37 0200</time>
      </trkpt>
      <trkpt lat="48.3893" lon="-3.94345">
        <ele>345.824</ele>
        <time>2019-09-08T11:19:42 0200</time>
      </trkpt>
      <trkpt lat="48.3894" lon="-3.94353">
        <ele>346.351</ele>
        <time>2019-09-08T11:19:47 0200</time>
      </trkpt>
      <trkpt lat="48.3894" lon="-3.94355">
        <ele>346.382</ele>
        <time>2019-09-08T11:19:52 0200</time>
      </trkpt>
      <trkpt lat="48.3896" lon="-3.94362">
        <ele>346.983</ele>
        <time>2019-09-08T11:19:57 0200</time>
      </trkpt>
      <trkpt lat="48.3896" lon="-3.94362">
        <ele>347.221</ele>
        <time>2019-09-08T11:20:03 0200</time>
      </trkpt>
      <trkpt lat="48.3897" lon="-3.94357">
        <ele>347.781</ele>
        <time>2019-09-08T11:20:08 0200</time>
      </trkpt>
      <trkpt lat="48.3898" lon="-3.94369">
        <ele>348.217</ele>
        <time>2019-09-08T11:20:13 0200</time>
      </trkpt>
      <trkpt lat="48.3899" lon="-3.94373">
        <ele>348.537</ele>
        <time>2019-09-08T11:20:18 0200</time>
      </trkpt>
      <trkpt lat="48.39" lon="-3.9438">
        <ele>349.05</ele>
        <time>2019-09-08T11:20:23 0200</time>
      </trkpt>
      <trkpt lat="48.3901" lon="-3.94385">
        <ele>349.289</ele>
        <time>2019-09-08T11:20:28 0200</time>
      </trkpt>
      <trkpt lat="48.3901" lon="-3.94385">
        <ele>349.289</ele>
        <time>2019-09-08T11:20:33 0200</time>
      </trkpt>
      <trkpt lat="48.3901" lon="-3.94385">
        <ele>349.289</ele>
        <time>2019-09-08T11:20:38 0200</time>
      </trkpt>
      <trkpt lat="48.3902" lon="-3.94394">
        <ele>349.982</ele>
        <time>2019-09-08T11:20:43 0200</time>
      </trkpt>
      <trkpt lat="48.3902" lon="-3.94396">
        <ele>350.023</ele>
        <time>2019-09-08T11:20:48 0200</time>
      </trkpt>
      <trkpt lat="48.3903" lon="-3.944">
        <ele>350.712</ele>
        <time>2019-09-08T11:20:53 0200</time>
      </trkpt>
      <trkpt lat="48.3904" lon="-3.94402">
        <ele>351.137</ele>
        <time>2019-09-08T11:20:58 0200</time>
      </trkpt>
      <trkpt lat="48.3905" lon="-3.94408">
        <ele>351.959</ele>
        <time>2019-09-08T11:21:03 0200</time>
      </trkpt>
      <trkpt lat="48.3905" lon="-3.94411">
        <ele>352.427</ele>
        <time>2019-09-08T11:21:09 0200</time>
      </trkpt>
      <trkpt lat="48.3906" lon="-3.94415">
        <ele>352.691</ele>
        <time>2019-09-08T11:21:14 0200</time>
      </trkpt>
      <trkpt lat="48.3906" lon="-3.94415">
        <ele>352.691</ele>
        <time>2019-09-08T11:21:19 0200</time>
      </trkpt>
      <trkpt lat="48.3906" lon="-3.94415">
        <ele>352.691</ele>
        <time>2019-09-08T11:21:24 0200</time>
      </trkpt>
      <trkpt lat="48.3906" lon="-3.94415">
        <ele>352.691</ele>
        <time>2019-09-08T11:21:29 0200</time>
      </trkpt>
      <trkpt lat="48.3906" lon="-3.94415">
        <ele>352.691</ele>
        <time>2019-09-08T11:21:34 0200</time>
      </trkpt>
      <trkpt lat="48.3906" lon="-3.9442">
        <ele>352.929</ele>
        <time>2019-09-08T11:21:39 0200</time>
      </trkpt>
      <trkpt lat="48.3907" lon="-3.94431">
        <ele>352.557</ele>
        <time>2019-09-08T11:21:44 0200</time>
      </trkpt>
      <trkpt lat="48.3908" lon="-3.94436">
        <ele>352.451</ele>
        <time>2019-09-08T11:21:49 0200</time>
      </trkpt>
      <trkpt lat="48.3908" lon="-3.94441">
        <ele>352.533</ele>
        <time>2019-09-08T11:21:54 0200</time>
      </trkpt>
      <trkpt lat="48.3908" lon="-3.94441">
        <ele>352.533</ele>
        <time>2019-09-08T11:21:59 0200</time>
      </trkpt>
      <trkpt lat="48.3909" lon="-3.94446">
        <ele>353.243</ele>
        <time>2019-09-08T11:22:04 0200</time>
      </trkpt>
      <trkpt lat="48.3909" lon="-3.94446">
        <ele>353.243</ele>
        <time>2019-09-08T11:22:09 0200</time>
      </trkpt>
      <trkpt lat="48.3909" lon="-3.94446">
        <ele>353.243</ele>
        <time>2019-09-08T11:22:14 0200</time>
      </trkpt>
      <trkpt lat="48.391" lon="-3.94451">
        <ele>354.701</ele>
        <time>2019-09-08T11:22:19 0200</time>
      </trkpt>
      <trkpt lat="48.391" lon="-3.94453">
        <ele>355.107</ele>
        <time>2019-09-08T11:22:24 0200</time>
      </trkpt>
      <trkpt lat="48.3911" lon="-3.94455">
        <ele>355.783</ele>
        <time>2019-09-08T11:22:29 0200</time>
      </trkpt>
      <trkpt lat="48.3911" lon="-3.9446">
        <ele>356.183</ele>
        <time>2019-09-08T11:22:34 0200</time>
      </trkpt>
      <trkpt lat="48.3911" lon="-3.94467">
        <ele>356.853</ele>
        <time>2019-09-08T11:22:39 0200</time>
      </trkpt>
      <trkpt lat="48.3912" lon="-3.94475">
        <ele>357.919</ele>
        <time>2019-09-08T11:22:44 0200</time>
      </trkpt>
      <trkpt lat="48.3913" lon="-3.9448">
        <ele>358.748</ele>
        <time>2019-09-08T11:22:49 0200</time>
      </trkpt>
      <trkpt lat="48.3913" lon="-3.94482">
        <ele>359.445</ele>
        <time>2019-09-08T11:22:54 0200</time>
      </trkpt>
      <trkpt lat="48.3913" lon="-3.94482">
        <ele>359.445</ele>
        <time>2019-09-08T11:22:59 0200</time>
      </trkpt>
      <trkpt lat="48.3914" lon="-3.94484">
        <ele>360.301</ele>
        <time>2019-09-08T11:23:04 0200</time>
      </trkpt>
      <trkpt lat="48.3915" lon="-3.94492">
        <ele>361.312</ele>
        <time>2019-09-08T11:23:09 0200</time>
      </trkpt>
      <trkpt lat="48.3915" lon="-3.94496">
        <ele>362.098</ele>
        <time>2019-09-08T11:23:14 0200</time>
      </trkpt>
      <trkpt lat="48.3915" lon="-3.94496">
        <ele>362.098</ele>
        <time>2019-09-08T11:23:20 0200</time>
      </trkpt>
      <trkpt lat="48.3915" lon="-3.94496">
        <ele>362.098</ele>
        <time>2019-09-08T11:23:25 0200</time>
      </trkpt>
      <trkpt lat="48.3915" lon="-3.94501">
        <ele>363.079</ele>
        <time>2019-09-08T11:23:30 0200</time>
      </trkpt>
      <trkpt lat="48.3916" lon="-3.94506">
        <ele>363.937</ele>
        <time>2019-09-08T11:23:35 0200</time>
      </trkpt>
      <trkpt lat="48.3918" lon="-3.94512">
        <ele>364.547</ele>
        <time>2019-09-08T11:23:40 0200</time>
      </trkpt>
      <trkpt lat="48.3919" lon="-3.94517">
        <ele>364.796</ele>
        <time>2019-09-08T11:23:45 0200</time>
      </trkpt>
      <trkpt lat="48.3919" lon="-3.9452">
        <ele>365.199</ele>
        <time>2019-09-08T11:23:50 0200</time>
      </trkpt>
      <trkpt lat="48.392" lon="-3.94523">
        <ele>365.622</ele>
        <time>2019-09-08T11:23:55 0200</time>
      </trkpt>
      <trkpt lat="48.3921" lon="-3.94513">
        <ele>366.883</ele>
        <time>2019-09-08T11:24:00 0200</time>
      </trkpt>
      <trkpt lat="48.3921" lon="-3.94506">
        <ele>367.144</ele>
        <time>2019-09-08T11:24:05 0200</time>
      </trkpt>
      <trkpt lat="48.392" lon="-3.94493">
        <ele>367.852</ele>
        <time>2019-09-08T11:24:10 0200</time>
      </trkpt>
      <trkpt lat="48.392" lon="-3.94479">
        <ele>368.552</ele>
        <time>2019-09-08T11:24:15 0200</time>
      </trkpt>
      <trkpt lat="48.3919" lon="-3.94459">
        <ele>369.049</ele>
        <time>2019-09-08T11:24:20 0200</time>
      </trkpt>
      <trkpt lat="48.3919" lon="-3.94443">
        <ele>369.414</ele>
        <time>2019-09-08T11:24:25 0200</time>
      </trkpt>
      <trkpt lat="48.3918" lon="-3.94419">
        <ele>369.866</ele>
        <time>2019-09-08T11:24:30 0200</time>
      </trkpt>
      <trkpt lat="48.3918" lon="-3.94402">
        <ele>370.229</ele>
        <time>2019-09-08T11:24:35 0200</time>
      </trkpt>
      <trkpt lat="48.3918" lon="-3.94375">
        <ele>370.862</ele>
        <time>2019-09-08T11:24:40 0200</time>
      </trkpt>
      <trkpt lat="48.3918" lon="-3.94356">
        <ele>371.227</ele>
        <time>2019-09-08T11:24:45 0200</time>
      </trkpt>
      <trkpt lat="48.3918" lon="-3.94328">
        <ele>371.701</ele>
        <time>2019-09-08T11:24:50 0200</time>
      </trkpt>
      <trkpt lat="48.3917" lon="-3.94309">
        <ele>371.832</ele>
        <time>2019-09-08T11:24:55 0200</time>
      </trkpt>
      <trkpt lat="48.3917" lon="-3.94278">
        <ele>371.63</ele>
        <time>2019-09-08T11:25:00 0200</time>
      </trkpt>
      <trkpt lat="48.3917" lon="-3.94255">
        <ele>371.334</ele>
        <time>2019-09-08T11:25:05 0200</time>
      </trkpt>
      <trkpt lat="48.3917" lon="-3.94224">
        <ele>368.384</ele>
        <time>2019-09-08T11:25:10 0200</time>
      </trkpt>
      <trkpt lat="48.3916" lon="-3.94184">
        <ele>367.796</ele>
        <time>2019-09-08T11:25:15 0200</time>
      </trkpt>
      <trkpt lat="48.3914" lon="-3.94154">
        <ele>368.338</ele>
        <time>2019-09-08T11:25:20 0200</time>
      </trkpt>
      <trkpt lat="48.3911" lon="-3.9412">
        <ele>368.199</ele>
        <time>2019-09-08T11:25:26 0200</time>
      </trkpt>
      <trkpt lat="48.3909" lon="-3.94085">
        <ele>366.828</ele>
        <time>2019-09-08T11:25:31 0200</time>
      </trkpt>
      <trkpt lat="48.3906" lon="-3.94047">
        <ele>364.746</ele>
        <time>2019-09-08T11:25:36 0200</time>
      </trkpt>
      <trkpt lat="48.3903" lon="-3.94008">
        <ele>362.891</ele>
        <time>2019-09-08T11:25:41 0200</time>
      </trkpt>
      <trkpt lat="48.39" lon="-3.93969">
        <ele>362.052</ele>
        <time>2019-09-08T11:25:46 0200</time>
      </trkpt>
      <trkpt lat="48.3898" lon="-3.93932">
        <ele>361.252</ele>
        <time>2019-09-08T11:25:51 0200</time>
      </trkpt>
      <trkpt lat="48.3895" lon="-3.93897">
        <ele>360.365</ele>
        <time>2019-09-08T11:25:56 0200</time>
      </trkpt>
      <trkpt lat="48.3893" lon="-3.93865">
        <ele>360.694</ele>
        <time>2019-09-08T11:26:01 0200</time>
      </trkpt>
      <trkpt lat="48.3891" lon="-3.93836">
        <ele>361.636</ele>
        <time>2019-09-08T11:26:06 0200</time>
      </trkpt>
      <trkpt lat="48.3889" lon="-3.93806">
        <ele>362.937</ele>
        <time>2019-09-08T11:26:11 0200</time>
      </trkpt>
      <trkpt lat="48.3887" lon="-3.9379">
        <ele>363.489</ele>
        <time>2019-09-08T11:26:16 0200</time>
      </trkpt>
      <trkpt lat="48.3887" lon="-3.93777">
        <ele>363.534</ele>
        <time>2019-09-08T11:26:21 0200</time>
      </trkpt>
      <trkpt lat="48.3887" lon="-3.93761">
        <ele>363.559</ele>
        <time>2019-09-08T11:26:26 0200</time>
      </trkpt>
      <trkpt lat="48.3888" lon="-3.93743">
        <ele>363.433</ele>
        <time>2019-09-08T11:26:31 0200</time>
      </trkpt>
      <trkpt lat="48.389" lon="-3.93729">
        <ele>363.297</ele>
        <time>2019-09-08T11:26:36 0200</time>
      </trkpt>
      <trkpt lat="48.3892" lon="-3.93711">
        <ele>363.089</ele>
        <time>2019-09-08T11:26:41 0200</time>
      </trkpt>
      <trkpt lat="48.3893" lon="-3.93699">
        <ele>362.896</ele>
        <time>2019-09-08T11:26:46 0200</time>
      </trkpt>
      <trkpt lat="48.3894" lon="-3.9368">
        <ele>362.796</ele>
        <time>2019-09-08T11:26:52 0200</time>
      </trkpt>
      <trkpt lat="48.3895" lon="-3.93668">
        <ele>362.582</ele>
        <time>2019-09-08T11:26:57 0200</time>
      </trkpt>
      <trkpt lat="48.3897" lon="-3.93652">
        <ele>362.293</ele>
        <time>2019-09-08T11:27:02 0200</time>
      </trkpt>
      <trkpt lat="48.3898" lon="-3.93643">
        <ele>362.386</ele>
        <time>2019-09-08T11:27:07 0200</time>
      </trkpt>
      <trkpt lat="48.3899" lon="-3.93631">
        <ele>362.542</ele>
        <time>2019-09-08T11:27:12 0200</time>
      </trkpt>
      <trkpt lat="48.39" lon="-3.93614">
        <ele>363.502</ele>
        <time>2019-09-08T11:27:17 0200</time>
      </trkpt>
      <trkpt lat="48.3901" lon="-3.93604">
        <ele>364.198</ele>
        <time>2019-09-08T11:27:22 0200</time>
      </trkpt>
      <trkpt lat="48.3902" lon="-3.93592">
        <ele>365.122</ele>
        <time>2019-09-08T11:27:27 0200</time>
      </trkpt>
      <trkpt lat="48.3903" lon="-3.93583">
        <ele>365.552</ele>
        <time>2019-09-08T11:27:32 0200</time>
      </trkpt>
      <trkpt lat="48.3905" lon="-3.93568">
        <ele>366.146</ele>
        <time>2019-09-08T11:27:37 0200</time>
      </trkpt>
      <trkpt lat="48.3906" lon="-3.93559">
        <ele>366.587</ele>
        <time>2019-09-08T11:27:42 0200</time>
      </trkpt>
      <trkpt lat="48.3907" lon="-3.93545">
        <ele>367.252</ele>
        <time>2019-09-08T11:27:47 0200</time>
      </trkpt>
      <trkpt lat="48.3908" lon="-3.93536">
        <ele>367.693</ele>
        <time>2019-09-08T11:27:52 0200</time>
      </trkpt>
      <trkpt lat="48.3909" lon="-3.93522">
        <ele>368.439</ele>
        <time>2019-09-08T11:27:57 0200</time>
      </trkpt>
      <trkpt lat="48.391" lon="-3.93508">
        <ele>369.183</ele>
        <time>2019-09-08T11:28:02 0200</time>
      </trkpt>
      <trkpt lat="48.3911" lon="-3.93499">
        <ele>369.637</ele>
        <time>2019-09-08T11:28:07 0200</time>
      </trkpt>
      <trkpt lat="48.3912" lon="-3.93485">
        <ele>370.415</ele>
        <time>2019-09-08T11:28:12 0200</time>
      </trkpt>
      <trkpt lat="48.3913" lon="-3.93475">
        <ele>370.972</ele>
        <time>2019-09-08T11:28:17 0200</time>
      </trkpt>
      <trkpt lat="48.3914" lon="-3.93461">
        <ele>371.847</ele>
        <time>2019-09-08T11:28:22 0200</time>
      </trkpt>
      <trkpt lat="48.3915" lon="-3.93452">
        <ele>372.402</ele>
        <time>2019-09-08T11:28:27 0200</time>
      </trkpt>
      <trkpt lat="48.3916" lon="-3.93438">
        <ele>373.176</ele>
        <time>2019-09-08T11:28:33 0200</time>
      </trkpt>
      <trkpt lat="48.3917" lon="-3.93429">
        <ele>373.705</ele>
        <time>2019-09-08T11:28:38 0200</time>
      </trkpt>
      <trkpt lat="48.3919" lon="-3.93414">
        <ele>374.6</ele>
        <time>2019-09-08T11:28:43 0200</time>
      </trkpt>
      <trkpt lat="48.3919" lon="-3.93404">
        <ele>375.193</ele>
        <time>2019-09-08T11:28:48 0200</time>
      </trkpt>
      <trkpt lat="48.3921" lon="-3.93387">
        <ele>376.048</ele>
        <time>2019-09-08T11:28:53 0200</time>
      </trkpt>
      <trkpt lat="48.3921" lon="-3.93376">
        <ele>376.609</ele>
        <time>2019-09-08T11:28:58 0200</time>
      </trkpt>
      <trkpt lat="48.3922" lon="-3.93357">
        <ele>377.441</ele>
        <time>2019-09-08T11:29:03 0200</time>
      </trkpt>
      <trkpt lat="48.3923" lon="-3.93344">
        <ele>377.931</ele>
        <time>2019-09-08T11:29:08 0200</time>
      </trkpt>
      <trkpt lat="48.3924" lon="-3.93325">
        <ele>378.667</ele>
        <time>2019-09-08T11:29:13 0200</time>
      </trkpt>
      <trkpt lat="48.3924" lon="-3.93312">
        <ele>379.04</ele>
        <time>2019-09-08T11:29:18 0200</time>
      </trkpt>
      <trkpt lat="48.3925" lon="-3.93292">
        <ele>379.623</ele>
        <time>2019-09-08T11:29:23 0200</time>
      </trkpt>
      <trkpt lat="48.3926" lon="-3.93278">
        <ele>380.034</ele>
        <time>2019-09-08T11:29:28 0200</time>
      </trkpt>
      <trkpt lat="48.3927" lon="-3.93261">
        <ele>380.829</ele>
        <time>2019-09-08T11:29:34 0200</time>
      </trkpt>
      <trkpt lat="48.3928" lon="-3.93248">
        <ele>381.378</ele>
        <time>2019-09-08T11:29:39 0200</time>
      </trkpt>
      <trkpt lat="48.3929" lon="-3.93229">
        <ele>382.173</ele>
        <time>2019-09-08T11:29:44 0200</time>
      </trkpt>
      <trkpt lat="48.393" lon="-3.9321">
        <ele>382.84</ele>
        <time>2019-09-08T11:29:49 0200</time>
      </trkpt>
      <trkpt lat="48.3931" lon="-3.93199">
        <ele>383.332</ele>
        <time>2019-09-08T11:29:54 0200</time>
      </trkpt>
      <trkpt lat="48.3932" lon="-3.93179">
        <ele>384.053</ele>
        <time>2019-09-08T11:29:59 0200</time>
      </trkpt>
      <trkpt lat="48.3933" lon="-3.93165">
        <ele>384.543</ele>
        <time>2019-09-08T11:30:04 0200</time>
      </trkpt>
      <trkpt lat="48.3935" lon="-3.93141">
        <ele>386.87</ele>
        <time>2019-09-08T11:30:09 0200</time>
      </trkpt>
      <trkpt lat="48.3937" lon="-3.93118">
        <ele>387.824</ele>
        <time>2019-09-08T11:30:14 0200</time>
      </trkpt>
      <trkpt lat="48.3938" lon="-3.93091">
        <ele>388.193</ele>
        <time>2019-09-08T11:30:19 0200</time>
      </trkpt>
      <trkpt lat="48.394" lon="-3.93066">
        <ele>387.899</ele>
        <time>2019-09-08T11:30:24 0200</time>
      </trkpt>
      <trkpt lat="48.3942" lon="-3.93043">
        <ele>387.778</ele>
        <time>2019-09-08T11:30:29 0200</time>
      </trkpt>
      <trkpt lat="48.3943" lon="-3.93019">
        <ele>387.688</ele>
        <time>2019-09-08T11:30:34 0200</time>
      </trkpt>
      <trkpt lat="48.3945" lon="-3.92999">
        <ele>387.764</ele>
        <time>2019-09-08T11:30:39 0200</time>
      </trkpt>
      <trkpt lat="48.3946" lon="-3.9297">
        <ele>388.154</ele>
        <time>2019-09-08T11:30:44 0200</time>
      </trkpt>
      <trkpt lat="48.3948" lon="-3.92942">
        <ele>388.237</ele>
        <time>2019-09-08T11:30:49 0200</time>
      </trkpt>
      <trkpt lat="48.395" lon="-3.92919">
        <ele>388.177</ele>
        <time>2019-09-08T11:30:54 0200</time>
      </trkpt>
      <trkpt lat="48.3952" lon="-3.92896">
        <ele>388.501</ele>
        <time>2019-09-08T11:30:59 0200</time>
      </trkpt>
      <trkpt lat="48.3953" lon="-3.92875">
        <ele>388.574</ele>
        <time>2019-09-08T11:31:05 0200</time>
      </trkpt>
      <trkpt lat="48.3955" lon="-3.92852">
        <ele>389.549</ele>
        <time>2019-09-08T11:31:10 0200</time>
      </trkpt>
      <trkpt lat="48.3956" lon="-3.92836">
        <ele>390.675</ele>
        <time>2019-09-08T11:31:15 0200</time>
      </trkpt>
      <trkpt lat="48.3958" lon="-3.92815">
        <ele>390.837</ele>
        <time>2019-09-08T11:31:20 0200</time>
      </trkpt>
      <trkpt lat="48.3959" lon="-3.928">
        <ele>390.691</ele>
        <time>2019-09-08T11:31:25 0200</time>
      </trkpt>
      <trkpt lat="48.3961" lon="-3.92778">
        <ele>390.557</ele>
        <time>2019-09-08T11:31:30 0200</time>
      </trkpt>
      <trkpt lat="48.3962" lon="-3.92763">
        <ele>390.643</ele>
        <time>2019-09-08T11:31:35 0200</time>
      </trkpt>
      <trkpt lat="48.3964" lon="-3.92741">
        <ele>391.137</ele>
        <time>2019-09-08T11:31:40 0200</time>
      </trkpt>
      <trkpt lat="48.3965" lon="-3.92726">
        <ele>391.415</ele>
        <time>2019-09-08T11:31:45 0200</time>
      </trkpt>
      <trkpt lat="48.3967" lon="-3.92703">
        <ele>391.399</ele>
        <time>2019-09-08T11:31:50 0200</time>
      </trkpt>
      <trkpt lat="48.3969" lon="-3.9268">
        <ele>392.274</ele>
        <time>2019-09-08T11:31:55 0200</time>
      </trkpt>
      <trkpt lat="48.397" lon="-3.92665">
        <ele>392.559</ele>
        <time>2019-09-08T11:32:00 0200</time>
      </trkpt>
      <trkpt lat="48.3972" lon="-3.92643">
        <ele>392.489</ele>
        <time>2019-09-08T11:32:05 0200</time>
      </trkpt>
      <trkpt lat="48.3973" lon="-3.92621">
        <ele>392.488</ele>
        <time>2019-09-08T11:32:10 0200</time>
      </trkpt>
      <trkpt lat="48.3975" lon="-3.92605">
        <ele>391.679</ele>
        <time>2019-09-08T11:32:15 0200</time>
      </trkpt>
      <trkpt lat="48.3977" lon="-3.92577">
        <ele>391.022</ele>
        <time>2019-09-08T11:32:20 0200</time>
      </trkpt>
      <trkpt lat="48.3979" lon="-3.92553">
        <ele>391.39</ele>
        <time>2019-09-08T11:32:25 0200</time>
      </trkpt>
      <trkpt lat="48.398" lon="-3.9253">
        <ele>391.659</ele>
        <time>2019-09-08T11:32:30 0200</time>
      </trkpt>
      <trkpt lat="48.3982" lon="-3.92508">
        <ele>391.493</ele>
        <time>2019-09-08T11:32:35 0200</time>
      </trkpt>
      <trkpt lat="48.3984" lon="-3.92486">
        <ele>391.594</ele>
        <time>2019-09-08T11:32:40 0200</time>
      </trkpt>
      <trkpt lat="48.3986" lon="-3.92463">
        <ele>392.389</ele>
        <time>2019-09-08T11:32:45 0200</time>
      </trkpt>
      <trkpt lat="48.3988" lon="-3.9244">
        <ele>392.751</ele>
        <time>2019-09-08T11:32:50 0200</time>
      </trkpt>
      <trkpt lat="48.3989" lon="-3.92416">
        <ele>392.43</ele>
        <time>2019-09-08T11:32:56 0200</time>
      </trkpt>
      <trkpt lat="48.3991" lon="-3.92394">
        <ele>392.069</ele>
        <time>2019-09-08T11:33:01 0200</time>
      </trkpt>
      <trkpt lat="48.3993" lon="-3.92371">
        <ele>392.294</ele>
        <time>2019-09-08T11:33:06 0200</time>
      </trkpt>
      <trkpt lat="48.3995" lon="-3.9235">
        <ele>392.174</ele>
        <time>2019-09-08T11:33:11 0200</time>
      </trkpt>
      <trkpt lat="48.3996" lon="-3.92334">
        <ele>392.357</ele>
        <time>2019-09-08T11:33:16 0200</time>
      </trkpt>
      <trkpt lat="48.3998" lon="-3.92314">
        <ele>392.919</ele>
        <time>2019-09-08T11:33:21 0200</time>
      </trkpt>
      <trkpt lat="48.3999" lon="-3.9229">
        <ele>393.565</ele>
        <time>2019-09-08T11:33:26 0200</time>
      </trkpt>
      <trkpt lat="48.4" lon="-3.92273">
        <ele>393.185</ele>
        <time>2019-09-08T11:33:31 0200</time>
      </trkpt>
      <trkpt lat="48.4002" lon="-3.92248">
        <ele>393.181</ele>
        <time>2019-09-08T11:33:36 0200</time>
      </trkpt>
      <trkpt lat="48.4002" lon="-3.9223">
        <ele>393.519</ele>
        <time>2019-09-08T11:33:41 0200</time>
      </trkpt>
      <trkpt lat="48.4004" lon="-3.92204">
        <ele>393.992</ele>
        <time>2019-09-08T11:33:46 0200</time>
      </trkpt>
      <trkpt lat="48.4005" lon="-3.92178">
        <ele>394.56</ele>
        <time>2019-09-08T11:33:51 0200</time>
      </trkpt>
      <trkpt lat="48.4006" lon="-3.92161">
        <ele>394.796</ele>
        <time>2019-09-08T11:33:56 0200</time>
      </trkpt>
      <trkpt lat="48.4008" lon="-3.92136">
        <ele>394.999</ele>
        <time>2019-09-08T11:34:01 0200</time>
      </trkpt>
      <trkpt lat="48.4009" lon="-3.92119">
        <ele>395.276</ele>
        <time>2019-09-08T11:34:06 0200</time>
      </trkpt>
      <trkpt lat="48.4011" lon="-3.9209">
        <ele>395.849</ele>
        <time>2019-09-08T11:34:11 0200</time>
      </trkpt>
      <trkpt lat="48.4012" lon="-3.92069">
        <ele>395.538</ele>
        <time>2019-09-08T11:34:16 0200</time>
      </trkpt>
      <trkpt lat="48.4013" lon="-3.92037">
        <ele>393.313</ele>
        <time>2019-09-08T11:34:21 0200</time>
      </trkpt>
      <trkpt lat="48.4015" lon="-3.92018">
        <ele>392.384</ele>
        <time>2019-09-08T11:34:26 0200</time>
      </trkpt>
      <trkpt lat="48.4016" lon="-3.91987">
        <ele>391.539</ele>
        <time>2019-09-08T11:34:31 0200</time>
      </trkpt>
      <trkpt lat="48.4018" lon="-3.91961">
        <ele>391.116</ele>
        <time>2019-09-08T11:34:36 0200</time>
      </trkpt>
      <trkpt lat="48.4019" lon="-3.91935">
        <ele>391.792</ele>
        <time>2019-09-08T11:34:42 0200</time>
      </trkpt>
      <trkpt lat="48.402" lon="-3.91907">
        <ele>390.954</ele>
        <time>2019-09-08T11:34:47 0200</time>
      </trkpt>
      <trkpt lat="48.4021" lon="-3.91886">
        <ele>390.834</ele>
        <time>2019-09-08T11:34:52 0200</time>
      </trkpt>
      <trkpt lat="48.4022" lon="-3.91854">
        <ele>391.359</ele>
        <time>2019-09-08T11:34:57 0200</time>
      </trkpt>
      <trkpt lat="48.4023" lon="-3.91833">
        <ele>391.537</ele>
        <time>2019-09-08T11:35:02 0200</time>
      </trkpt>
      <trkpt lat="48.4024" lon="-3.918">
        <ele>391.749</ele>
        <time>2019-09-08T11:35:07 0200</time>
      </trkpt>
      <trkpt lat="48.4025" lon="-3.9178">
        <ele>391.816</ele>
        <time>2019-09-08T11:35:12 0200</time>
      </trkpt>
      <trkpt lat="48.4026" lon="-3.91751">
        <ele>391.947</ele>
        <time>2019-09-08T11:35:17 0200</time>
      </trkpt>
      <trkpt lat="48.4027" lon="-3.91733">
        <ele>391.99</ele>
        <time>2019-09-08T11:35:22 0200</time>
      </trkpt>
      <trkpt lat="48.4028" lon="-3.91705">
        <ele>392.21</ele>
        <time>2019-09-08T11:35:27 0200</time>
      </trkpt>
      <trkpt lat="48.4028" lon="-3.91685">
        <ele>392.435</ele>
        <time>2019-09-08T11:35:32 0200</time>
      </trkpt>
      <trkpt lat="48.4029" lon="-3.91653">
        <ele>393.313</ele>
        <time>2019-09-08T11:35:37 0200</time>
      </trkpt>
      <trkpt lat="48.4029" lon="-3.91626">
        <ele>393.834</ele>
        <time>2019-09-08T11:35:42 0200</time>
      </trkpt>
      <trkpt lat="48.4029" lon="-3.91609">
        <ele>394.229</ele>
        <time>2019-09-08T11:35:47 0200</time>
      </trkpt>
      <trkpt lat="48.4029" lon="-3.91609">
        <ele>394.229</ele>
        <time>2019-09-08T11:35:52 0200</time>
      </trkpt>
      <trkpt lat="48.4029" lon="-3.91609">
        <ele>394.229</ele>
        <time>2019-09-08T11:35:57 0200</time>
      </trkpt>
      <trkpt lat="48.4029" lon="-3.91609">
        <ele>394.229</ele>
        <time>2019-09-08T11:36:02 0200</time>
      </trkpt>
      <trkpt lat="48.403" lon="-3.9159">
        <ele>395.787</ele>
        <time>2019-09-08T11:36:07 0200</time>
      </trkpt>
      <trkpt lat="48.403" lon="-3.91559">
        <ele>396.447</ele>
        <time>2019-09-08T11:36:12 0200</time>
      </trkpt>
      <trkpt lat="48.403" lon="-3.91537">
        <ele>396.596</ele>
        <time>2019-09-08T11:36:17 0200</time>
      </trkpt>
      <trkpt lat="48.4031" lon="-3.91507">
        <ele>396.507</ele>
        <time>2019-09-08T11:36:23 0200</time>
      </trkpt>
      <trkpt lat="48.4031" lon="-3.91487">
        <ele>396.49</ele>
        <time>2019-09-08T11:36:28 0200</time>
      </trkpt>
      <trkpt lat="48.4031" lon="-3.91455">
        <ele>396.675</ele>
        <time>2019-09-08T11:36:33 0200</time>
      </trkpt>
      <trkpt lat="48.4031" lon="-3.91433">
        <ele>396.514</ele>
        <time>2019-09-08T11:36:38 0200</time>
      </trkpt>
      <trkpt lat="48.4032" lon="-3.91398">
        <ele>396.071</ele>
        <time>2019-09-08T11:36:43 0200</time>
      </trkpt>
      <trkpt lat="48.4032" lon="-3.91375">
        <ele>395.915</ele>
        <time>2019-09-08T11:36:48 0200</time>
      </trkpt>
      <trkpt lat="48.4032" lon="-3.91341">
        <ele>395.685</ele>
        <time>2019-09-08T11:36:53 0200</time>
      </trkpt>
      <trkpt lat="48.4033" lon="-3.91317">
        <ele>395.394</ele>
        <time>2019-09-08T11:36:58 0200</time>
      </trkpt>
      <trkpt lat="48.4033" lon="-3.91284">
        <ele>394.929</ele>
        <time>2019-09-08T11:37:03 0200</time>
      </trkpt>
      <trkpt lat="48.4034" lon="-3.91234">
        <ele>393.249</ele>
        <time>2019-09-08T11:37:08 0200</time>
      </trkpt>
      <trkpt lat="48.4035" lon="-3.91199">
        <ele>393.205</ele>
        <time>2019-09-08T11:37:13 0200</time>
      </trkpt>
      <trkpt lat="48.4035" lon="-3.91166">
        <ele>393.037</ele>
        <time>2019-09-08T11:37:18 0200</time>
      </trkpt>
      <trkpt lat="48.4036" lon="-3.91141">
        <ele>393.19</ele>
        <time>2019-09-08T11:37:23 0200</time>
      </trkpt>
      <trkpt lat="48.4036" lon="-3.91105">
        <ele>393.337</ele>
        <time>2019-09-08T11:37:28 0200</time>
      </trkpt>
      <trkpt lat="48.4037" lon="-3.91083">
        <ele>393.272</ele>
        <time>2019-09-08T11:37:33 0200</time>
      </trkpt>
      <trkpt lat="48.4038" lon="-3.91051">
        <ele>393.189</ele>
        <time>2019-09-08T11:37:38 0200</time>
      </trkpt>
      <trkpt lat="48.4038" lon="-3.91031">
        <ele>393.292</ele>
        <time>2019-09-08T11:37:43 0200</time>
      </trkpt>
      <trkpt lat="48.4039" lon="-3.91003">
        <ele>392.876</ele>
        <time>2019-09-08T11:37:48 0200</time>
      </trkpt>
      <trkpt lat="48.404" lon="-3.90986">
        <ele>392.9</ele>
        <time>2019-09-08T11:37:53 0200</time>
      </trkpt>
      <trkpt lat="48.4042" lon="-3.90959">
        <ele>394.068</ele>
        <time>2019-09-08T11:37:58 0200</time>
      </trkpt>
      <trkpt lat="48.4043" lon="-3.90941">
        <ele>395.478</ele>
        <time>2019-09-08T11:38:03 0200</time>
      </trkpt>
      <trkpt lat="48.4044" lon="-3.90913">
        <ele>395.027</ele>
        <time>2019-09-08T11:38:08 0200</time>
      </trkpt>
      <trkpt lat="48.4046" lon="-3.90889">
        <ele>395.682</ele>
        <time>2019-09-08T11:38:13 0200</time>
      </trkpt>
      <trkpt lat="48.4047" lon="-3.90868">
        <ele>396.249</ele>
        <time>2019-09-08T11:38:18 0200</time>
      </trkpt>
      <trkpt lat="48.4048" lon="-3.90841">
        <ele>395.603</ele>
        <time>2019-09-08T11:38:23 0200</time>
      </trkpt>
      <trkpt lat="48.405" lon="-3.90814">
        <ele>393.805</ele>
        <time>2019-09-08T11:38:28 0200</time>
      </trkpt>
      <trkpt lat="48.4051" lon="-3.90787">
        <ele>393.902</ele>
        <time>2019-09-08T11:38:33 0200</time>
      </trkpt>
      <trkpt lat="48.4052" lon="-3.90756">
        <ele>394.795</ele>
        <time>2019-09-08T11:38:38 0200</time>
      </trkpt>
      <trkpt lat="48.4053" lon="-3.90736">
        <ele>396.044</ele>
        <time>2019-09-08T11:38:44 0200</time>
      </trkpt>
      <trkpt lat="48.4055" lon="-3.90706">
        <ele>397.222</ele>
        <time>2019-09-08T11:38:49 0200</time>
      </trkpt>
      <trkpt lat="48.4056" lon="-3.90686">
        <ele>397.374</ele>
        <time>2019-09-08T11:38:54 0200</time>
      </trkpt>
      <trkpt lat="48.4057" lon="-3.90657">
        <ele>397.769</ele>
        <time>2019-09-08T11:38:59 0200</time>
      </trkpt>
      <trkpt lat="48.4058" lon="-3.90637">
        <ele>398.097</ele>
        <time>2019-09-08T11:39:04 0200</time>
      </trkpt>
      <trkpt lat="48.406" lon="-3.90607">
        <ele>398.264</ele>
        <time>2019-09-08T11:39:09 0200</time>
      </trkpt>
      <trkpt lat="48.4061" lon="-3.90587">
        <ele>398.099</ele>
        <time>2019-09-08T11:39:14 0200</time>
      </trkpt>
      <trkpt lat="48.4062" lon="-3.90558">
        <ele>398.997</ele>
        <time>2019-09-08T11:39:19 0200</time>
      </trkpt>
      <trkpt lat="48.4064" lon="-3.90526">
        <ele>397.614</ele>
        <time>2019-09-08T11:39:24 0200</time>
      </trkpt>
      <trkpt lat="48.4065" lon="-3.90497">
        <ele>396.818</ele>
        <time>2019-09-08T11:39:29 0200</time>
      </trkpt>
      <trkpt lat="48.4065" lon="-3.90474">
        <ele>395.409</ele>
        <time>2019-09-08T11:39:34 0200</time>
      </trkpt>
      <trkpt lat="48.4066" lon="-3.90437">
        <ele>394.829</ele>
        <time>2019-09-08T11:39:39 0200</time>
      </trkpt>
      <trkpt lat="48.4067" lon="-3.90405">
        <ele>395.405</ele>
        <time>2019-09-08T11:39:44 0200</time>
      </trkpt>
      <trkpt lat="48.4067" lon="-3.90372">
        <ele>396.551</ele>
        <time>2019-09-08T11:39:49 0200</time>
      </trkpt>
      <trkpt lat="48.4068" lon="-3.90348">
        <ele>397.016</ele>
        <time>2019-09-08T11:39:54 0200</time>
      </trkpt>
      <trkpt lat="48.4069" lon="-3.90313">
        <ele>397.551</ele>
        <time>2019-09-08T11:39:59 0200</time>
      </trkpt>
      <trkpt lat="48.4069" lon="-3.90281">
        <ele>398.089</ele>
        <time>2019-09-08T11:40:04 0200</time>
      </trkpt>
      <trkpt lat="48.407" lon="-3.9025">
        <ele>397.724</ele>
        <time>2019-09-08T11:40:09 0200</time>
      </trkpt>
      <trkpt lat="48.407" lon="-3.90226">
        <ele>397.917</ele>
        <time>2019-09-08T11:40:14 0200</time>
      </trkpt>
      <trkpt lat="48.4071" lon="-3.9019">
        <ele>398.885</ele>
        <time>2019-09-08T11:40:19 0200</time>
      </trkpt>
      <trkpt lat="48.4072" lon="-3.90165">
        <ele>399.038</ele>
        <time>2019-09-08T11:40:24 0200</time>
      </trkpt>
      <trkpt lat="48.4072" lon="-3.90134">
        <ele>398.44</ele>
        <time>2019-09-08T11:40:29 0200</time>
      </trkpt>
      <trkpt lat="48.4073" lon="-3.90098">
        <ele>397.36</ele>
        <time>2019-09-08T11:40:34 0200</time>
      </trkpt>
      <trkpt lat="48.4074" lon="-3.90075">
        <ele>396.894</ele>
        <time>2019-09-08T11:40:39 0200</time>
      </trkpt>
      <trkpt lat="48.4075" lon="-3.90041">
        <ele>396.706</ele>
        <time>2019-09-08T11:40:44 0200</time>
      </trkpt>
      <trkpt lat="48.4075" lon="-3.90019">
        <ele>396.574</ele>
        <time>2019-09-08T11:40:49 0200</time>
      </trkpt>
      <trkpt lat="48.4076" lon="-3.89988">
        <ele>397.181</ele>
        <time>2019-09-08T11:40:55 0200</time>
      </trkpt>
      <trkpt lat="48.4077" lon="-3.89968">
        <ele>397.051</ele>
        <time>2019-09-08T11:41:00 0200</time>
      </trkpt>
      <trkpt lat="48.4079" lon="-3.89943">
        <ele>397.888</ele>
        <time>2019-09-08T11:41:05 0200</time>
      </trkpt>
      <trkpt lat="48.408" lon="-3.89924">
        <ele>396.947</ele>
        <time>2019-09-08T11:41:10 0200</time>
      </trkpt>
      <trkpt lat="48.4081" lon="-3.89897">
        <ele>396.976</ele>
        <time>2019-09-08T11:41:15 0200</time>
      </trkpt>
      <trkpt lat="48.4083" lon="-3.89879">
        <ele>397.297</ele>
        <time>2019-09-08T11:41:20 0200</time>
      </trkpt>
      <trkpt lat="48.4084" lon="-3.89851">
        <ele>396.343</ele>
        <time>2019-09-08T11:41:25 0200</time>
      </trkpt>
      <trkpt lat="48.4085" lon="-3.89833">
        <ele>395.441</ele>
        <time>2019-09-08T11:41:30 0200</time>
      </trkpt>
      <trkpt lat="48.4087" lon="-3.89808">
        <ele>396.329</ele>
        <time>2019-09-08T11:41:35 0200</time>
      </trkpt>
      <trkpt lat="48.4089" lon="-3.89793">
        <ele>397.652</ele>
        <time>2019-09-08T11:41:40 0200</time>
      </trkpt>
      <trkpt lat="48.4091" lon="-3.89772">
        <ele>398.581</ele>
        <time>2019-09-08T11:41:45 0200</time>
      </trkpt>
      <trkpt lat="48.4093" lon="-3.89751">
        <ele>397.905</ele>
        <time>2019-09-08T11:41:50 0200</time>
      </trkpt>
      <trkpt lat="48.4094" lon="-3.89737">
        <ele>397.612</ele>
        <time>2019-09-08T11:41:55 0200</time>
      </trkpt>
      <trkpt lat="48.4096" lon="-3.89717">
        <ele>398.005</ele>
        <time>2019-09-08T11:42:00 0200</time>
      </trkpt>
      <trkpt lat="48.4097" lon="-3.89703">
        <ele>397.907</ele>
        <time>2019-09-08T11:42:05 0200</time>
      </trkpt>
      <trkpt lat="48.4099" lon="-3.89673">
        <ele>397.456</ele>
        <time>2019-09-08T11:42:10 0200</time>
      </trkpt>
      <trkpt lat="48.41" lon="-3.89645">
        <ele>395.437</ele>
        <time>2019-09-08T11:42:15 0200</time>
      </trkpt>
      <trkpt lat="48.4101" lon="-3.89621">
        <ele>395.085</ele>
        <time>2019-09-08T11:42:20 0200</time>
      </trkpt>
      <trkpt lat="48.4102" lon="-3.89582">
        <ele>393.67</ele>
        <time>2019-09-08T11:42:25 0200</time>
      </trkpt>
      <trkpt lat="48.4103" lon="-3.8956">
        <ele>396.173</ele>
        <time>2019-09-08T11:42:30 0200</time>
      </trkpt>
      <trkpt lat="48.4104" lon="-3.89532">
        <ele>394.54</ele>
        <time>2019-09-08T11:42:35 0200</time>
      </trkpt>
      <trkpt lat="48.4105" lon="-3.895">
        <ele>393.281</ele>
        <time>2019-09-08T11:42:40 0200</time>
      </trkpt>
      <trkpt lat="48.4106" lon="-3.89478">
        <ele>393.096</ele>
        <time>2019-09-08T11:42:46 0200</time>
      </trkpt>
      <trkpt lat="48.4107" lon="-3.89468">
        <ele>393.571</ele>
        <time>2019-09-08T11:42:51 0200</time>
      </trkpt>
      <trkpt lat="48.4109" lon="-3.89444">
        <ele>393.532</ele>
        <time>2019-09-08T11:42:56 0200</time>
      </trkpt>
      <trkpt lat="48.411" lon="-3.89424">
        <ele>393.909</ele>
        <time>2019-09-08T11:43:01 0200</time>
      </trkpt>
      <trkpt lat="48.4111" lon="-3.89394">
        <ele>394.179</ele>
        <time>2019-09-08T11:43:06 0200</time>
      </trkpt>
      <trkpt lat="48.4112" lon="-3.89379">
        <ele>394.206</ele>
        <time>2019-09-08T11:43:11 0200</time>
      </trkpt>
      <trkpt lat="48.4113" lon="-3.89346">
        <ele>394.269</ele>
        <time>2019-09-08T11:43:16 0200</time>
      </trkpt>
      <trkpt lat="48.4113" lon="-3.89326">
        <ele>394.223</ele>
        <time>2019-09-08T11:43:21 0200</time>
      </trkpt>
      <trkpt lat="48.4114" lon="-3.89297">
        <ele>394.525</ele>
        <time>2019-09-08T11:43:26 0200</time>
      </trkpt>
      <trkpt lat="48.4114" lon="-3.89277">
        <ele>394.658</ele>
        <time>2019-09-08T11:43:31 0200</time>
      </trkpt>
      <trkpt lat="48.4115" lon="-3.89249">
        <ele>394.676</ele>
        <time>2019-09-08T11:43:36 0200</time>
      </trkpt>
      <trkpt lat="48.4114" lon="-3.89233">
        <ele>394.957</ele>
        <time>2019-09-08T11:43:41 0200</time>
      </trkpt>
      <trkpt lat="48.4114" lon="-3.89207">
        <ele>395.543</ele>
        <time>2019-09-08T11:43:46 0200</time>
      </trkpt>
      <trkpt lat="48.4114" lon="-3.89187">
        <ele>395.947</ele>
        <time>2019-09-08T11:43:51 0200</time>
      </trkpt>
      <trkpt lat="48.4114" lon="-3.89149">
        <ele>396.21</ele>
        <time>2019-09-08T11:43:56 0200</time>
      </trkpt>
      <trkpt lat="48.4114" lon="-3.89126">
        <ele>395.412</ele>
        <time>2019-09-08T11:44:01 0200</time>
      </trkpt>
      <trkpt lat="48.4114" lon="-3.89092">
        <ele>394.13</ele>
        <time>2019-09-08T11:44:06 0200</time>
      </trkpt>
      <trkpt lat="48.4114" lon="-3.89072">
        <ele>396.003</ele>
        <time>2019-09-08T11:44:11 0200</time>
      </trkpt>
      <trkpt lat="48.4115" lon="-3.89059">
        <ele>396.468</ele>
        <time>2019-09-08T11:44:16 0200</time>
      </trkpt>
      <trkpt lat="48.4114" lon="-3.89029">
        <ele>396.98</ele>
        <time>2019-09-08T11:44:22 0200</time>
      </trkpt>
      <trkpt lat="48.4114" lon="-3.89011">
        <ele>397.739</ele>
        <time>2019-09-08T11:44:27 0200</time>
      </trkpt>
      <trkpt lat="48.4113" lon="-3.8901">
        <ele>398.216</ele>
        <time>2019-09-08T11:44:32 0200</time>
      </trkpt>
      <trkpt lat="48.4112" lon="-3.89003">
        <ele>398.746</ele>
        <time>2019-09-08T11:44:37 0200</time>
      </trkpt>
      <trkpt lat="48.4111" lon="-3.88974">
        <ele>399.367</ele>
        <time>2019-09-08T11:44:42 0200</time>
      </trkpt>
      <trkpt lat="48.4111" lon="-3.88951">
        <ele>400.59</ele>
        <time>2019-09-08T11:44:47 0200</time>
      </trkpt>
      <trkpt lat="48.411" lon="-3.88915">
        <ele>401.598</ele>
        <time>2019-09-08T11:44:52 0200</time>
      </trkpt>
      <trkpt lat="48.411" lon="-3.88891">
        <ele>400.562</ele>
        <time>2019-09-08T11:44:57 0200</time>
      </trkpt>
      <trkpt lat="48.4109" lon="-3.88857">
        <ele>400.063</ele>
        <time>2019-09-08T11:45:02 0200</time>
      </trkpt>
      <trkpt lat="48.4107" lon="-3.8882">
        <ele>402.413</ele>
        <time>2019-09-08T11:45:07 0200</time>
      </trkpt>
      <trkpt lat="48.4106" lon="-3.88787">
        <ele>401.709</ele>
        <time>2019-09-08T11:45:12 0200</time>
      </trkpt>
      <trkpt lat="48.4105" lon="-3.88749">
        <ele>399.451</ele>
        <time>2019-09-08T11:45:17 0200</time>
      </trkpt>
      <trkpt lat="48.4105" lon="-3.88723">
        <ele>397.382</ele>
        <time>2019-09-08T11:45:22 0200</time>
      </trkpt>
      <trkpt lat="48.4104" lon="-3.88686">
        <ele>394.61</ele>
        <time>2019-09-08T11:45:27 0200</time>
      </trkpt>
      <trkpt lat="48.4104" lon="-3.88649">
        <ele>393.105</ele>
        <time>2019-09-08T11:45:32 0200</time>
      </trkpt>
      <trkpt lat="48.4104" lon="-3.88608">
        <ele>388.02</ele>
        <time>2019-09-08T11:45:37 0200</time>
      </trkpt>
      <trkpt lat="48.4103" lon="-3.88581">
        <ele>388.239</ele>
        <time>2019-09-08T11:45:42 0200</time>
      </trkpt>
      <trkpt lat="48.4103" lon="-3.88569">
        <ele>388.019</ele>
        <time>2019-09-08T11:45:47 0200</time>
      </trkpt>
      <trkpt lat="48.4103" lon="-3.88569">
        <ele>388.019</ele>
        <time>2019-09-08T11:45:52 0200</time>
      </trkpt>
      <trkpt lat="48.4103" lon="-3.88569">
        <ele>388.019</ele>
        <time>2019-09-08T11:45:57 0200</time>
      </trkpt>
      <trkpt lat="48.4103" lon="-3.88569">
        <ele>388.019</ele>
        <time>2019-09-08T11:46:02 0200</time>
      </trkpt>
      <trkpt lat="48.4103" lon="-3.88569">
        <ele>388.019</ele>
        <time>2019-09-08T11:46:07 0200</time>
      </trkpt>
      <trkpt lat="48.4103" lon="-3.88544">
        <ele>388.236</ele>
        <time>2019-09-08T11:46:12 0200</time>
      </trkpt>
      <trkpt lat="48.4103" lon="-3.88506">
        <ele>388.95</ele>
        <time>2019-09-08T11:46:17 0200</time>
      </trkpt>
      <trkpt lat="48.4102" lon="-3.88472">
        <ele>389.963</ele>
        <time>2019-09-08T11:46:22 0200</time>
      </trkpt>
      <trkpt lat="48.4102" lon="-3.88436">
        <ele>390.203</ele>
        <time>2019-09-08T11:46:27 0200</time>
      </trkpt>
      <trkpt lat="48.4101" lon="-3.88397">
        <ele>389.236</ele>
        <time>2019-09-08T11:46:32 0200</time>
      </trkpt>
      <trkpt lat="48.4101" lon="-3.8836">
        <ele>389.465</ele>
        <time>2019-09-08T11:46:37 0200</time>
      </trkpt>
      <trkpt lat="48.4101" lon="-3.88322">
        <ele>389.617</ele>
        <time>2019-09-08T11:46:43 0200</time>
      </trkpt>
      <trkpt lat="48.41" lon="-3.88281">
        <ele>387.736</ele>
        <time>2019-09-08T11:46:48 0200</time>
      </trkpt>
      <trkpt lat="48.41" lon="-3.88239">
        <ele>386.143</ele>
        <time>2019-09-08T11:46:53 0200</time>
      </trkpt>
      <trkpt lat="48.4099" lon="-3.88196">
        <ele>383.547</ele>
        <time>2019-09-08T11:46:58 0200</time>
      </trkpt>
      <trkpt lat="48.4099" lon="-3.88151">
        <ele>382.999</ele>
        <time>2019-09-08T11:47:03 0200</time>
      </trkpt>
      <trkpt lat="48.4099" lon="-3.88112">
        <ele>381.395</ele>
        <time>2019-09-08T11:47:08 0200</time>
      </trkpt>
      <trkpt lat="48.4098" lon="-3.88083">
        <ele>380.018</ele>
        <time>2019-09-08T11:47:13 0200</time>
      </trkpt>
      <trkpt lat="48.4097" lon="-3.88052">
        <ele>379.511</ele>
        <time>2019-09-08T11:47:18 0200</time>
      </trkpt>
      <trkpt lat="48.4096" lon="-3.88016">
        <ele>379.645</ele>
        <time>2019-09-08T11:47:23 0200</time>
      </trkpt>
      <trkpt lat="48.4095" lon="-3.87968">
        <ele>378.269</ele>
        <time>2019-09-08T11:47:28 0200</time>
      </trkpt>
      <trkpt lat="48.4094" lon="-3.87931">
        <ele>378.272</ele>
        <time>2019-09-08T11:47:33 0200</time>
      </trkpt>
      <trkpt lat="48.4093" lon="-3.87904">
        <ele>379.107</ele>
        <time>2019-09-08T11:47:38 0200</time>
      </trkpt>
      <trkpt lat="48.4092" lon="-3.87863">
        <ele>378.607</ele>
        <time>2019-09-08T11:47:43 0200</time>
      </trkpt>
      <trkpt lat="48.409" lon="-3.87824">
        <ele>376.024</ele>
        <time>2019-09-08T11:47:48 0200</time>
      </trkpt>
      <trkpt lat="48.4088" lon="-3.87788">
        <ele>375.102</ele>
        <time>2019-09-08T11:47:53 0200</time>
      </trkpt>
      <trkpt lat="48.4086" lon="-3.87756">
        <ele>373.285</ele>
        <time>2019-09-08T11:47:58 0200</time>
      </trkpt>
      <trkpt lat="48.4085" lon="-3.87722">
        <ele>371.33</ele>
        <time>2019-09-08T11:48:03 0200</time>
      </trkpt>
      <trkpt lat="48.4083" lon="-3.8769">
        <ele>371.478</ele>
        <time>2019-09-08T11:48:08 0200</time>
      </trkpt>
      <trkpt lat="48.4081" lon="-3.87658">
        <ele>369.952</ele>
        <time>2019-09-08T11:48:13 0200</time>
      </trkpt>
      <trkpt lat="48.4079" lon="-3.87627">
        <ele>369.386</ele>
        <time>2019-09-08T11:48:18 0200</time>
      </trkpt>
      <trkpt lat="48.4078" lon="-3.87596">
        <ele>370.158</ele>
        <time>2019-09-08T11:48:23 0200</time>
      </trkpt>
      <trkpt lat="48.4076" lon="-3.87565">
        <ele>367.696</ele>
        <time>2019-09-08T11:48:28 0200</time>
      </trkpt>
      <trkpt lat="48.4074" lon="-3.87534">
        <ele>364.298</ele>
        <time>2019-09-08T11:48:33 0200</time>
      </trkpt>
      <trkpt lat="48.4072" lon="-3.87518">
        <ele>363.876</ele>
        <time>2019-09-08T11:48:38 0200</time>
      </trkpt>
      <trkpt lat="48.4069" lon="-3.87495">
        <ele>363.188</ele>
        <time>2019-09-08T11:48:43 0200</time>
      </trkpt>
      <trkpt lat="48.4067" lon="-3.87483">
        <ele>361.202</ele>
        <time>2019-09-08T11:48:49 0200</time>
      </trkpt>
      <trkpt lat="48.4064" lon="-3.87478">
        <ele>361.773</ele>
        <time>2019-09-08T11:48:54 0200</time>
      </trkpt>
      <trkpt lat="48.4061" lon="-3.8748">
        <ele>361.259</ele>
        <time>2019-09-08T11:48:59 0200</time>
      </trkpt>
      <trkpt lat="48.4059" lon="-3.87481">
        <ele>359.365</ele>
        <time>2019-09-08T11:49:04 0200</time>
      </trkpt>
      <trkpt lat="48.4056" lon="-3.8748">
        <ele>357.977</ele>
        <time>2019-09-08T11:49:09 0200</time>
      </trkpt>
      <trkpt lat="48.4053" lon="-3.87474">
        <ele>356.851</ele>
        <time>2019-09-08T11:49:14 0200</time>
      </trkpt>
      <trkpt lat="48.4051" lon="-3.8746">
        <ele>356.919</ele>
        <time>2019-09-08T11:49:19 0200</time>
      </trkpt>
      <trkpt lat="48.4049" lon="-3.87437">
        <ele>355.595</ele>
        <time>2019-09-08T11:49:25 0200</time>
      </trkpt>
      <trkpt lat="48.4046" lon="-3.87404">
        <ele>356.206</ele>
        <time>2019-09-08T11:49:30 0200</time>
      </trkpt>
      <trkpt lat="48.4045" lon="-3.87376">
        <ele>356.765</ele>
        <time>2019-09-08T11:49:35 0200</time>
      </trkpt>
      <trkpt lat="48.4043" lon="-3.87345">
        <ele>355.12</ele>
        <time>2019-09-08T11:49:40 0200</time>
      </trkpt>
      <trkpt lat="48.4041" lon="-3.87315">
        <ele>355.036</ele>
        <time>2019-09-08T11:49:45 0200</time>
      </trkpt>
      <trkpt lat="48.404" lon="-3.87284">
        <ele>353.2</ele>
        <time>2019-09-08T11:49:50 0200</time>
      </trkpt>
      <trkpt lat="48.4038" lon="-3.87249">
        <ele>353.187</ele>
        <time>2019-09-08T11:49:55 0200</time>
      </trkpt>
      <trkpt lat="48.4036" lon="-3.87213">
        <ele>351.485</ele>
        <time>2019-09-08T11:50:00 0200</time>
      </trkpt>
      <trkpt lat="48.4035" lon="-3.87175">
        <ele>350.236</ele>
        <time>2019-09-08T11:50:05 0200</time>
      </trkpt>
      <trkpt lat="48.4034" lon="-3.87138">
        <ele>351.673</ele>
        <time>2019-09-08T11:50:10 0200</time>
      </trkpt>
      <trkpt lat="48.4031" lon="-3.87107">
        <ele>350.908</ele>
        <time>2019-09-08T11:50:15 0200</time>
      </trkpt>
      <trkpt lat="48.4029" lon="-3.87085">
        <ele>349.176</ele>
        <time>2019-09-08T11:50:20 0200</time>
      </trkpt>
      <trkpt lat="48.4026" lon="-3.87069">
        <ele>346.844</ele>
        <time>2019-09-08T11:50:25 0200</time>
      </trkpt>
      <trkpt lat="48.4023" lon="-3.87064">
        <ele>344.87</ele>
        <time>2019-09-08T11:50:30 0200</time>
      </trkpt>
      <trkpt lat="48.402" lon="-3.87066">
        <ele>342.589</ele>
        <time>2019-09-08T11:50:35 0200</time>
      </trkpt>
      <trkpt lat="48.4017" lon="-3.87063">
        <ele>340.543</ele>
        <time>2019-09-08T11:50:40 0200</time>
      </trkpt>
      <trkpt lat="48.4014" lon="-3.87046">
        <ele>338.16</ele>
        <time>2019-09-08T11:50:45 0200</time>
      </trkpt>
      <trkpt lat="48.4011" lon="-3.87019">
        <ele>336.124</ele>
        <time>2019-09-08T11:50:51 0200</time>
      </trkpt>
      <trkpt lat="48.401" lon="-3.86985">
        <ele>337.246</ele>
        <time>2019-09-08T11:50:56 0200</time>
      </trkpt>
      <trkpt lat="48.4008" lon="-3.86938">
        <ele>338.021</ele>
        <time>2019-09-08T11:51:01 0200</time>
      </trkpt>
      <trkpt lat="48.4008" lon="-3.86895">
        <ele>337.789</ele>
        <time>2019-09-08T11:51:06 0200</time>
      </trkpt>
      <trkpt lat="48.4008" lon="-3.86852">
        <ele>337.097</ele>
        <time>2019-09-08T11:51:11 0200</time>
      </trkpt>
      <trkpt lat="48.401" lon="-3.8681">
        <ele>333.617</ele>
        <time>2019-09-08T11:51:16 0200</time>
      </trkpt>
      <trkpt lat="48.4012" lon="-3.86775">
        <ele>330.072</ele>
        <time>2019-09-08T11:51:21 0200</time>
      </trkpt>
      <trkpt lat="48.4014" lon="-3.86741">
        <ele>324.893</ele>
        <time>2019-09-08T11:51:26 0200</time>
      </trkpt>
      <trkpt lat="48.4016" lon="-3.86711">
        <ele>324.399</ele>
        <time>2019-09-08T11:51:31 0200</time>
      </trkpt>
      <trkpt lat="48.4019" lon="-3.86682">
        <ele>326.578</ele>
        <time>2019-09-08T11:51:36 0200</time>
      </trkpt>
      <trkpt lat="48.4021" lon="-3.86651">
        <ele>325.771</ele>
        <time>2019-09-08T11:51:41 0200</time>
      </trkpt>
      <trkpt lat="48.4023" lon="-3.86591">
        <ele>325.973</ele>
        <time>2019-09-08T11:51:46 0200</time>
      </trkpt>
      <trkpt lat="48.4023" lon="-3.86539">
        <ele>323.974</ele>
        <time>2019-09-08T11:51:51 0200</time>
      </trkpt>
      <trkpt lat="48.4022" lon="-3.86503">
        <ele>322.538</ele>
        <time>2019-09-08T11:51:56 0200</time>
      </trkpt>
      <trkpt lat="48.402" lon="-3.86459">
        <ele>324.249</ele>
        <time>2019-09-08T11:52:01 0200</time>
      </trkpt>
      <trkpt lat="48.4019" lon="-3.86421">
        <ele>325.071</ele>
        <time>2019-09-08T11:52:06 0200</time>
      </trkpt>
      <trkpt lat="48.4017" lon="-3.86389">
        <ele>324.432</ele>
        <time>2019-09-08T11:52:11 0200</time>
      </trkpt>
      <trkpt lat="48.4014" lon="-3.86355">
        <ele>324.844</ele>
        <time>2019-09-08T11:52:16 0200</time>
      </trkpt>
      <trkpt lat="48.4012" lon="-3.86318">
        <ele>324.56</ele>
        <time>2019-09-08T11:52:21 0200</time>
      </trkpt>
      <trkpt lat="48.401" lon="-3.86282">
        <ele>322.723</ele>
        <time>2019-09-08T11:52:26 0200</time>
      </trkpt>
      <trkpt lat="48.4008" lon="-3.86257">
        <ele>319.761</ele>
        <time>2019-09-08T11:52:31 0200</time>
      </trkpt>
      <trkpt lat="48.4006" lon="-3.86244">
        <ele>318.842</ele>
        <time>2019-09-08T11:52:37 0200</time>
      </trkpt>
      <trkpt lat="48.4005" lon="-3.86241">
        <ele>318.586</ele>
        <time>2019-09-08T11:52:42 0200</time>
      </trkpt>
      <trkpt lat="48.4002" lon="-3.86244">
        <ele>314.928</ele>
        <time>2019-09-08T11:52:47 0200</time>
      </trkpt>
      <trkpt lat="48.4" lon="-3.86262">
        <ele>310.163</ele>
        <time>2019-09-08T11:52:52 0200</time>
      </trkpt>
      <trkpt lat="48.3997" lon="-3.86293">
        <ele>313.23</ele>
        <time>2019-09-08T11:52:57 0200</time>
      </trkpt>
      <trkpt lat="48.3994" lon="-3.86322">
        <ele>316.791</ele>
        <time>2019-09-08T11:53:02 0200</time>
      </trkpt>
      <trkpt lat="48.3991" lon="-3.86351">
        <ele>317.609</ele>
        <time>2019-09-08T11:53:07 0200</time>
      </trkpt>
      <trkpt lat="48.3989" lon="-3.8637">
        <ele>316.747</ele>
        <time>2019-09-08T11:53:12 0200</time>
      </trkpt>
      <trkpt lat="48.3987" lon="-3.8639">
        <ele>315.542</ele>
        <time>2019-09-08T11:53:17 0200</time>
      </trkpt>
      <trkpt lat="48.3985" lon="-3.86421">
        <ele>315.959</ele>
        <time>2019-09-08T11:53:22 0200</time>
      </trkpt>
      <trkpt lat="48.3983" lon="-3.86444">
        <ele>317.974</ele>
        <time>2019-09-08T11:53:27 0200</time>
      </trkpt>
      <trkpt lat="48.398" lon="-3.86453">
        <ele>317.973</ele>
        <time>2019-09-08T11:53:32 0200</time>
      </trkpt>
      <trkpt lat="48.3977" lon="-3.86463">
        <ele>314.832</ele>
        <time>2019-09-08T11:53:37 0200</time>
      </trkpt>
      <trkpt lat="48.3974" lon="-3.86467">
        <ele>313.914</ele>
        <time>2019-09-08T11:53:42 0200</time>
      </trkpt>
      <trkpt lat="48.3973" lon="-3.86466">
        <ele>313.516</ele>
        <time>2019-09-08T11:53:47 0200</time>
      </trkpt>
      <trkpt lat="48.397" lon="-3.86458">
        <ele>311.954</ele>
        <time>2019-09-08T11:53:52 0200</time>
      </trkpt>
      <trkpt lat="48.3967" lon="-3.8645">
        <ele>311.876</ele>
        <time>2019-09-08T11:53:57 0200</time>
      </trkpt>
      <trkpt lat="48.3966" lon="-3.86439">
        <ele>312.066</ele>
        <time>2019-09-08T11:54:02 0200</time>
      </trkpt>
      <trkpt lat="48.3964" lon="-3.86427">
        <ele>311.91</ele>
        <time>2019-09-08T11:54:07 0200</time>
      </trkpt>
      <trkpt lat="48.3961" lon="-3.8641">
        <ele>311.153</ele>
        <time>2019-09-08T11:54:12 0200</time>
      </trkpt>
      <trkpt lat="48.3959" lon="-3.8639">
        <ele>311.671</ele>
        <time>2019-09-08T11:54:17 0200</time>
      </trkpt>
      <trkpt lat="48.3955" lon="-3.86367">
        <ele>311.718</ele>
        <time>2019-09-08T11:54:22 0200</time>
      </trkpt>
      <trkpt lat="48.3952" lon="-3.86338">
        <ele>312.912</ele>
        <time>2019-09-08T11:54:27 0200</time>
      </trkpt>
      <trkpt lat="48.3949" lon="-3.86305">
        <ele>310.102</ele>
        <time>2019-09-08T11:54:32 0200</time>
      </trkpt>
      <trkpt lat="48.3947" lon="-3.86264">
        <ele>306.65</ele>
        <time>2019-09-08T11:54:37 0200</time>
      </trkpt>
      <trkpt lat="48.3946" lon="-3.86233">
        <ele>306.9</ele>
        <time>2019-09-08T11:54:43 0200</time>
      </trkpt>
      <trkpt lat="48.3946" lon="-3.86215">
        <ele>306.417</ele>
        <time>2019-09-08T11:54:48 0200</time>
      </trkpt>
      <trkpt lat="48.3946" lon="-3.86176">
        <ele>305.527</ele>
        <time>2019-09-08T11:54:53 0200</time>
      </trkpt>
      <trkpt lat="48.3946" lon="-3.86149">
        <ele>305.713</ele>
        <time>2019-09-08T11:54:58 0200</time>
      </trkpt>
      <trkpt lat="48.3947" lon="-3.86118">
        <ele>304.075</ele>
        <time>2019-09-08T11:55:03 0200</time>
      </trkpt>
      <trkpt lat="48.3946" lon="-3.86089">
        <ele>301.881</ele>
        <time>2019-09-08T11:55:08 0200</time>
      </trkpt>
      <trkpt lat="48.3947" lon="-3.8606">
        <ele>301.239</ele>
        <time>2019-09-08T11:55:14 0200</time>
      </trkpt>
      <trkpt lat="48.3947" lon="-3.86038">
        <ele>300.652</ele>
        <time>2019-09-08T11:55:19 0200</time>
      </trkpt>
      <trkpt lat="48.3946" lon="-3.86009">
        <ele>300.512</ele>
        <time>2019-09-08T11:55:24 0200</time>
      </trkpt>
      <trkpt lat="48.3945" lon="-3.85975">
        <ele>298.265</ele>
        <time>2019-09-08T11:55:29 0200</time>
      </trkpt>
      <trkpt lat="48.3943" lon="-3.85942">
        <ele>297.095</ele>
        <time>2019-09-08T11:55:34 0200</time>
      </trkpt>
      <trkpt lat="48.3942" lon="-3.85917">
        <ele>298.762</ele>
        <time>2019-09-08T11:55:39 0200</time>
      </trkpt>
      <trkpt lat="48.394" lon="-3.85894">
        <ele>298.945</ele>
        <time>2019-09-08T11:55:44 0200</time>
      </trkpt>
      <trkpt lat="48.3939" lon="-3.85888">
        <ele>299.444</ele>
        <time>2019-09-08T11:55:49 0200</time>
      </trkpt>
      <trkpt lat="48.3938" lon="-3.85895">
        <ele>299.875</ele>
        <time>2019-09-08T11:55:54 0200</time>
      </trkpt>
      <trkpt lat="48.3937" lon="-3.859">
        <ele>301.843</ele>
        <time>2019-09-08T11:55:59 0200</time>
      </trkpt>
      <trkpt lat="48.3935" lon="-3.85899">
        <ele>300.986</ele>
        <time>2019-09-08T11:56:04 0200</time>
      </trkpt>
      <trkpt lat="48.3932" lon="-3.8589">
        <ele>298.33</ele>
        <time>2019-09-08T11:56:09 0200</time>
      </trkpt>
      <trkpt lat="48.393" lon="-3.85885">
        <ele>298.292</ele>
        <time>2019-09-08T11:56:14 0200</time>
      </trkpt>
      <trkpt lat="48.3927" lon="-3.85885">
        <ele>298.87</ele>
        <time>2019-09-08T11:56:19 0200</time>
      </trkpt>
      <trkpt lat="48.3926" lon="-3.85891">
        <ele>299.232</ele>
        <time>2019-09-08T11:56:24 0200</time>
      </trkpt>
      <trkpt lat="48.3924" lon="-3.85906">
        <ele>298.522</ele>
        <time>2019-09-08T11:56:29 0200</time>
      </trkpt>
      <trkpt lat="48.3922" lon="-3.85915">
        <ele>297.426</ele>
        <time>2019-09-08T11:56:34 0200</time>
      </trkpt>
      <trkpt lat="48.3921" lon="-3.85921">
        <ele>297.435</ele>
        <time>2019-09-08T11:56:39 0200</time>
      </trkpt>
      <trkpt lat="48.3919" lon="-3.85928">
        <ele>297.64</ele>
        <time>2019-09-08T11:56:45 0200</time>
      </trkpt>
      <trkpt lat="48.3917" lon="-3.85929">
        <ele>298.005</ele>
        <time>2019-09-08T11:56:50 0200</time>
      </trkpt>
      <trkpt lat="48.3915" lon="-3.8592">
        <ele>298.64</ele>
        <time>2019-09-08T11:56:55 0200</time>
      </trkpt>
      <trkpt lat="48.3914" lon="-3.85899">
        <ele>299.167</ele>
        <time>2019-09-08T11:57:00 0200</time>
      </trkpt>
      <trkpt lat="48.3914" lon="-3.85899">
        <ele>299.167</ele>
        <time>2019-09-08T11:57:05 0200</time>
      </trkpt>
      <trkpt lat="48.3914" lon="-3.85876">
        <ele>300.373</ele>
        <time>2019-09-08T11:57:10 0200</time>
      </trkpt>
      <trkpt lat="48.3914" lon="-3.85862">
        <ele>300.899</ele>
        <time>2019-09-08T11:57:15 0200</time>
      </trkpt>
      <trkpt lat="48.3914" lon="-3.85854">
        <ele>301.02</ele>
        <time>2019-09-08T11:57:20 0200</time>
      </trkpt>
      <trkpt lat="48.3914" lon="-3.8584">
        <ele>300.829</ele>
        <time>2019-09-08T11:57:25 0200</time>
      </trkpt>
      <trkpt lat="48.3914" lon="-3.8584">
        <ele>300.829</ele>
        <time>2019-09-08T11:57:30 0200</time>
      </trkpt>
      <trkpt lat="48.3915" lon="-3.85809">
        <ele>300.756</ele>
        <time>2019-09-08T11:57:35 0200</time>
      </trkpt>
      <trkpt lat="48.3915" lon="-3.85802">
        <ele>301.412</ele>
        <time>2019-09-08T11:57:40 0200</time>
      </trkpt>
      <trkpt lat="48.3916" lon="-3.85776">
        <ele>303.338</ele>
        <time>2019-09-08T11:57:45 0200</time>
      </trkpt>
      <trkpt lat="48.3917" lon="-3.85763">
        <ele>303.838</ele>
        <time>2019-09-08T11:57:50 0200</time>
      </trkpt>
      <trkpt lat="48.3916" lon="-3.8575">
        <ele>304.188</ele>
        <time>2019-09-08T11:57:55 0200</time>
      </trkpt>
      <trkpt lat="48.3917" lon="-3.85737">
        <ele>304.959</ele>
        <time>2019-09-08T11:58:00 0200</time>
      </trkpt>
      <trkpt lat="48.3916" lon="-3.85711">
        <ele>305.817</ele>
        <time>2019-09-08T11:58:05 0200</time>
      </trkpt>
      <trkpt lat="48.3915" lon="-3.85686">
        <ele>306.339</ele>
        <time>2019-09-08T11:58:10 0200</time>
      </trkpt>
      <trkpt lat="48.3914" lon="-3.85666">
        <ele>307.029</ele>
        <time>2019-09-08T11:58:15 0200</time>
      </trkpt>
      <trkpt lat="48.3915" lon="-3.8564">
        <ele>307.942</ele>
        <time>2019-09-08T11:58:20 0200</time>
      </trkpt>
      <trkpt lat="48.3915" lon="-3.85625">
        <ele>308.744</ele>
        <time>2019-09-08T11:58:25 0200</time>
      </trkpt>
      <trkpt lat="48.3915" lon="-3.85615">
        <ele>309.3</ele>
        <time>2019-09-08T11:58:30 0200</time>
      </trkpt>
      <trkpt lat="48.3915" lon="-3.85601">
        <ele>310.598</ele>
        <time>2019-09-08T11:58:35 0200</time>
      </trkpt>
      <trkpt lat="48.3914" lon="-3.85597">
        <ele>311.034</ele>
        <time>2019-09-08T11:58:40 0200</time>
      </trkpt>
      <trkpt lat="48.3914" lon="-3.85583">
        <ele>311.762</ele>
        <time>2019-09-08T11:58:46 0200</time>
      </trkpt>
      <trkpt lat="48.3914" lon="-3.85576">
        <ele>311.935</ele>
        <time>2019-09-08T11:58:51 0200</time>
      </trkpt>
      <trkpt lat="48.3914" lon="-3.85576">
        <ele>311.935</ele>
        <time>2019-09-08T11:58:56 0200</time>
      </trkpt>
      <trkpt lat="48.3914" lon="-3.85576">
        <ele>311.935</ele>
        <time>2019-09-08T11:59:01 0200</time>
      </trkpt>
      <trkpt lat="48.3914" lon="-3.85576">
        <ele>311.935</ele>
        <time>2019-09-08T11:59:06 0200</time>
      </trkpt>
      <trkpt lat="48.3914" lon="-3.85576">
        <ele>311.935</ele>
        <time>2019-09-08T11:59:11 0200</time>
      </trkpt>
      <trkpt lat="48.3914" lon="-3.85576">
        <ele>311.935</ele>
        <time>2019-09-08T11:59:16 0200</time>
      </trkpt>
      <trkpt lat="48.3914" lon="-3.85576">
        <ele>311.935</ele>
        <time>2019-09-08T11:59:21 0200</time>
      </trkpt>
      <trkpt lat="48.3914" lon="-3.85576">
        <ele>311.935</ele>
        <time>2019-09-08T11:59:26 0200</time>
      </trkpt>
      <trkpt lat="48.3914" lon="-3.85576">
        <ele>311.935</ele>
        <time>2019-09-08T11:59:31 0200</time>
      </trkpt>
      <trkpt lat="48.3914" lon="-3.85576">
        <ele>311.935</ele>
        <time>2019-09-08T11:59:36 0200</time>
      </trkpt>
      <trkpt lat="48.3914" lon="-3.85576">
        <ele>311.935</ele>
        <time>2019-09-08T11:59:41 0200</time>
      </trkpt>
      <trkpt lat="48.3914" lon="-3.85576">
        <ele>311.935</ele>
        <time>2019-09-08T11:59:46 0200</time>
      </trkpt>
      <trkpt lat="48.3914" lon="-3.85576">
        <ele>311.935</ele>
        <time>2019-09-08T11:59:51 0200</time>
      </trkpt>
      <trkpt lat="48.3914" lon="-3.85576">
        <ele>311.935</ele>
        <time>2019-09-08T11:59:56 0200</time>
      </trkpt>
      <trkpt lat="48.3914" lon="-3.85576">
        <ele>311.935</ele>
        <time>2019-09-08T12:00:01 0200</time>
      </trkpt>
      <trkpt lat="48.3914" lon="-3.85576">
        <ele>311.935</ele>
        <time>2019-09-08T12:00:06 0200</time>
      </trkpt>
      <trkpt lat="48.3914" lon="-3.85576">
        <ele>311.935</ele>
        <time>2019-09-08T12:00:12 0200</time>
      </trkpt>
      <trkpt lat="48.3914" lon="-3.85576">
        <ele>311.935</ele>
        <time>2019-09-08T12:00:17 0200</time>
      </trkpt>
      <trkpt lat="48.3914" lon="-3.85576">
        <ele>311.935</ele>
        <time>2019-09-08T12:00:22 0200</time>
      </trkpt>
      <trkpt lat="48.3914" lon="-3.85576">
        <ele>311.935</ele>
        <time>2019-09-08T12:00:27 0200</time>
      </trkpt>
      <trkpt lat="48.3914" lon="-3.85576">
        <ele>311.935</ele>
        <time>2019-09-08T12:00:32 0200</time>
      </trkpt>
      <trkpt lat="48.3914" lon="-3.85576">
        <ele>311.935</ele>
        <time>2019-09-08T12:00:37 0200</time>
      </trkpt>
      <trkpt lat="48.3914" lon="-3.85576">
        <ele>311.935</ele>
        <time>2019-09-08T12:00:42 0200</time>
      </trkpt>
      <trkpt lat="48.3914" lon="-3.85576">
        <ele>311.935</ele>
        <time>2019-09-08T12:00:47 0200</time>
      </trkpt>
      <trkpt lat="48.3914" lon="-3.85576">
        <ele>311.935</ele>
        <time>2019-09-08T12:00:52 0200</time>
      </trkpt>
      <trkpt lat="48.3914" lon="-3.85576">
        <ele>311.935</ele>
        <time>2019-09-08T12:00:57 0200</time>
      </trkpt>
      <trkpt lat="48.3914" lon="-3.85576">
        <ele>311.935</ele>
        <time>2019-09-08T12:01:02 0200</time>
      </trkpt>
      <trkpt lat="48.3914" lon="-3.85576">
        <ele>311.935</ele>
        <time>2019-09-08T12:01:07 0200</time>
      </trkpt>
      <trkpt lat="48.3914" lon="-3.85576">
        <ele>311.935</ele>
        <time>2019-09-08T12:01:12 0200</time>
      </trkpt>
      <trkpt lat="48.3914" lon="-3.85576">
        <ele>311.935</ele>
        <time>2019-09-08T12:01:17 0200</time>
      </trkpt>
      <trkpt lat="48.3914" lon="-3.85576">
        <ele>311.935</ele>
        <time>2019-09-08T12:01:22 0200</time>
      </trkpt>
      <trkpt lat="48.3914" lon="-3.85576">
        <ele>311.935</ele>
        <time>2019-09-08T12:01:28 0200</time>
      </trkpt>
      <trkpt lat="48.3914" lon="-3.85576">
        <ele>311.935</ele>
        <time>2019-09-08T12:01:33 0200</time>
      </trkpt>
      <trkpt lat="48.3914" lon="-3.85576">
        <ele>311.935</ele>
        <time>2019-09-08T12:01:38 0200</time>
      </trkpt>
      <trkpt lat="48.3914" lon="-3.85576">
        <ele>311.935</ele>
        <time>2019-09-08T12:01:43 0200</time>
      </trkpt>
      <trkpt lat="48.3914" lon="-3.85576">
        <ele>311.935</ele>
        <time>2019-09-08T12:01:48 0200</time>
      </trkpt>
      <trkpt lat="48.3914" lon="-3.85576">
        <ele>311.935</ele>
        <time>2019-09-08T12:01:53 0200</time>
      </trkpt>
      <trkpt lat="48.3914" lon="-3.85576">
        <ele>311.935</ele>
        <time>2019-09-08T12:01:58 0200</time>
      </trkpt>
      <trkpt lat="48.3914" lon="-3.85576">
        <ele>311.935</ele>
        <time>2019-09-08T12:02:03 0200</time>
      </trkpt>
      <trkpt lat="48.3914" lon="-3.85576">
        <ele>311.935</ele>
        <time>2019-09-08T12:02:08 0200</time>
      </trkpt>
      <trkpt lat="48.3914" lon="-3.85549">
        <ele>317.138</ele>
        <time>2019-09-08T12:02:13 0200</time>
      </trkpt>
      <trkpt lat="48.3914" lon="-3.85549">
        <ele>317.138</ele>
        <time>2019-09-08T12:02:18 0200</time>
      </trkpt>
      <trkpt lat="48.3914" lon="-3.85549">
        <ele>317.138</ele>
        <time>2019-09-08T12:02:23 0200</time>
      </trkpt>
      <trkpt lat="48.3914" lon="-3.85549">
        <ele>317.138</ele>
        <time>2019-09-08T12:02:28 0200</time>
      </trkpt>
      <trkpt lat="48.3914" lon="-3.85549">
        <ele>317.138</ele>
        <time>2019-09-08T12:02:33 0200</time>
      </trkpt>
      <trkpt lat="48.3914" lon="-3.85549">
        <ele>317.138</ele>
        <time>2019-09-08T12:02:38 0200</time>
      </trkpt>
      <trkpt lat="48.3914" lon="-3.85549">
        <ele>317.138</ele>
        <time>2019-09-08T12:02:43 0200</time>
      </trkpt>
      <trkpt lat="48.3914" lon="-3.85549">
        <ele>317.138</ele>
        <time>2019-09-08T12:02:48 0200</time>
      </trkpt>
      <trkpt lat="48.3914" lon="-3.85549">
        <ele>317.138</ele>
        <time>2019-09-08T12:02:53 0200</time>
      </trkpt>
      <trkpt lat="48.3914" lon="-3.85549">
        <ele>317.138</ele>
        <time>2019-09-08T12:02:58 0200</time>
      </trkpt>
      <trkpt lat="48.3914" lon="-3.85549">
        <ele>317.138</ele>
        <time>2019-09-08T12:03:03 0200</time>
      </trkpt>
      <trkpt lat="48.3914" lon="-3.85549">
        <ele>317.138</ele>
        <time>2019-09-08T12:03:08 0200</time>
      </trkpt>
      <trkpt lat="48.3914" lon="-3.85549">
        <ele>317.138</ele>
        <time>2019-09-08T12:03:13 0200</time>
      </trkpt>
      <trkpt lat="48.3914" lon="-3.85549">
        <ele>317.138</ele>
        <time>2019-09-08T12:03:18 0200</time>
      </trkpt>
      <trkpt lat="48.3914" lon="-3.85549">
        <ele>317.138</ele>
        <time>2019-09-08T12:03:24 0200</time>
      </trkpt>
      <trkpt lat="48.3914" lon="-3.85549">
        <ele>317.138</ele>
        <time>2019-09-08T12:03:29 0200</time>
      </trkpt>
      <trkpt lat="48.3914" lon="-3.85549">
        <ele>317.138</ele>
        <time>2019-09-08T12:03:34 0200</time>
      </trkpt>
      <trkpt lat="48.3914" lon="-3.85549">
        <ele>317.138</ele>
        <time>2019-09-08T12:03:39 0200</time>
      </trkpt>
      <trkpt lat="48.3914" lon="-3.85549">
        <ele>317.138</ele>
        <time>2019-09-08T12:03:44 0200</time>
      </trkpt>
      <trkpt lat="48.3914" lon="-3.85549">
        <ele>317.138</ele>
        <time>2019-09-08T12:03:49 0200</time>
      </trkpt>
      <trkpt lat="48.3914" lon="-3.85549">
        <ele>317.138</ele>
        <time>2019-09-08T12:03:54 0200</time>
      </trkpt>
      <trkpt lat="48.3914" lon="-3.85549">
        <ele>317.138</ele>
        <time>2019-09-08T12:03:59 0200</time>
      </trkpt>
      <trkpt lat="48.3914" lon="-3.85549">
        <ele>317.138</ele>
        <time>2019-09-08T12:04:04 0200</time>
      </trkpt>
      <trkpt lat="48.3914" lon="-3.85549">
        <ele>317.138</ele>
        <time>2019-09-08T12:04:09 0200</time>
      </trkpt>
      <trkpt lat="48.3914" lon="-3.85549">
        <ele>317.138</ele>
        <time>2019-09-08T12:04:14 0200</time>
      </trkpt>
      <trkpt lat="48.3914" lon="-3.85549">
        <ele>317.138</ele>
        <time>2019-09-08T12:04:19 0200</time>
      </trkpt>
      <trkpt lat="48.3914" lon="-3.85549">
        <ele>317.138</ele>
        <time>2019-09-08T12:04:25 0200</time>
      </trkpt>
      <trkpt lat="48.3914" lon="-3.85549">
        <ele>317.138</ele>
        <time>2019-09-08T12:04:30 0200</time>
      </trkpt>
      <trkpt lat="48.3914" lon="-3.85549">
        <ele>317.138</ele>
        <time>2019-09-08T12:04:35 0200</time>
      </trkpt>
      <trkpt lat="48.3914" lon="-3.85549">
        <ele>317.138</ele>
        <time>2019-09-08T12:04:40 0200</time>
      </trkpt>
      <trkpt lat="48.3914" lon="-3.85549">
        <ele>317.138</ele>
        <time>2019-09-08T12:04:45 0200</time>
      </trkpt>
      <trkpt lat="48.3914" lon="-3.85549">
        <ele>317.138</ele>
        <time>2019-09-08T12:04:50 0200</time>
      </trkpt>
      <trkpt lat="48.3914" lon="-3.85549">
        <ele>317.138</ele>
        <time>2019-09-08T12:04:55 0200</time>
      </trkpt>
      <trkpt lat="48.3914" lon="-3.85549">
        <ele>317.138</ele>
        <time>2019-09-08T12:05:00 0200</time>
      </trkpt>
      <trkpt lat="48.3914" lon="-3.85549">
        <ele>317.138</ele>
        <time>2019-09-08T12:05:05 0200</time>
      </trkpt>
      <trkpt lat="48.3914" lon="-3.85549">
        <ele>317.138</ele>
        <time>2019-09-08T12:05:10 0200</time>
      </trkpt>
      <trkpt lat="48.3914" lon="-3.85549">
        <ele>317.138</ele>
        <time>2019-09-08T12:05:15 0200</time>
      </trkpt>
      <trkpt lat="48.3914" lon="-3.85549">
        <ele>317.138</ele>
        <time>2019-09-08T12:05:20 0200</time>
      </trkpt>
      <trkpt lat="48.3914" lon="-3.85549">
        <ele>317.138</ele>
        <time>2019-09-08T12:05:25 0200</time>
      </trkpt>
      <trkpt lat="48.3914" lon="-3.85549">
        <ele>317.138</ele>
        <time>2019-09-08T12:05:30 0200</time>
      </trkpt>
      <trkpt lat="48.3914" lon="-3.85549">
        <ele>317.138</ele>
        <time>2019-09-08T12:05:35 0200</time>
      </trkpt>
      <trkpt lat="48.3914" lon="-3.85549">
        <ele>317.138</ele>
        <time>2019-09-08T12:05:40 0200</time>
      </trkpt>
      <trkpt lat="48.3914" lon="-3.85549">
        <ele>317.138</ele>
        <time>2019-09-08T12:05:45 0200</time>
      </trkpt>
      <trkpt lat="48.3914" lon="-3.85549">
        <ele>317.138</ele>
        <time>2019-09-08T12:05:50 0200</time>
      </trkpt>
      <trkpt lat="48.3914" lon="-3.85549">
        <ele>317.138</ele>
        <time>2019-09-08T12:05:55 0200</time>
      </trkpt>
      <trkpt lat="48.3914" lon="-3.85549">
        <ele>317.138</ele>
        <time>2019-09-08T12:06:00 0200</time>
      </trkpt>
      <trkpt lat="48.3914" lon="-3.85549">
        <ele>317.138</ele>
        <time>2019-09-08T12:06:05 0200</time>
      </trkpt>
      <trkpt lat="48.3914" lon="-3.85549">
        <ele>317.138</ele>
        <time>2019-09-08T12:06:10 0200</time>
      </trkpt>
      <trkpt lat="48.3914" lon="-3.85549">
        <ele>311.219</ele>
        <time>2019-09-08T12:06:15 0200</time>
      </trkpt>
      <trkpt lat="48.3914" lon="-3.85549">
        <ele>311.219</ele>
        <time>2019-09-08T12:06:20 0200</time>
      </trkpt>
      <trkpt lat="48.3914" lon="-3.85562">
        <ele>310.214</ele>
        <time>2019-09-08T12:06:25 0200</time>
      </trkpt>
      <trkpt lat="48.3915" lon="-3.85567">
        <ele>310.303</ele>
        <time>2019-09-08T12:06:30 0200</time>
      </trkpt>
      <trkpt lat="48.3915" lon="-3.85567">
        <ele>310.303</ele>
        <time>2019-09-08T12:06:36 0200</time>
      </trkpt>
      <trkpt lat="48.3914" lon="-3.85579">
        <ele>310.49</ele>
        <time>2019-09-08T12:06:41 0200</time>
      </trkpt>
      <trkpt lat="48.3914" lon="-3.85579">
        <ele>310.49</ele>
        <time>2019-09-08T12:06:46 0200</time>
      </trkpt>
      <trkpt lat="48.3914" lon="-3.85579">
        <ele>310.49</ele>
        <time>2019-09-08T12:06:51 0200</time>
      </trkpt>
      <trkpt lat="48.3915" lon="-3.85573">
        <ele>309.455</ele>
        <time>2019-09-08T12:06:56 0200</time>
      </trkpt>
      <trkpt lat="48.3915" lon="-3.85573">
        <ele>309.455</ele>
        <time>2019-09-08T12:07:01 0200</time>
      </trkpt>
      <trkpt lat="48.3915" lon="-3.85573">
        <ele>309.455</ele>
        <time>2019-09-08T12:07:06 0200</time>
      </trkpt>
      <trkpt lat="48.3915" lon="-3.85565">
        <ele>310.719</ele>
        <time>2019-09-08T12:07:11 0200</time>
      </trkpt>
      <trkpt lat="48.3915" lon="-3.85565">
        <ele>310.719</ele>
        <time>2019-09-08T12:07:16 0200</time>
      </trkpt>
      <trkpt lat="48.3915" lon="-3.85565">
        <ele>310.719</ele>
        <time>2019-09-08T12:07:21 0200</time>
      </trkpt>
      <trkpt lat="48.3915" lon="-3.85565">
        <ele>310.719</ele>
        <time>2019-09-08T12:07:26 0200</time>
      </trkpt>
      <trkpt lat="48.3915" lon="-3.85565">
        <ele>310.719</ele>
        <time>2019-09-08T12:07:31 0200</time>
      </trkpt>
      <trkpt lat="48.3915" lon="-3.85565">
        <ele>310.719</ele>
        <time>2019-09-08T12:07:36 0200</time>
      </trkpt>
      <trkpt lat="48.3915" lon="-3.85565">
        <ele>310.719</ele>
        <time>2019-09-08T12:07:41 0200</time>
      </trkpt>
      <trkpt lat="48.3915" lon="-3.85565">
        <ele>310.719</ele>
        <time>2019-09-08T12:07:46 0200</time>
      </trkpt>
      <trkpt lat="48.3915" lon="-3.85565">
        <ele>310.719</ele>
        <time>2019-09-08T12:07:51 0200</time>
      </trkpt>
      <trkpt lat="48.3915" lon="-3.85565">
        <ele>310.719</ele>
        <time>2019-09-08T12:07:56 0200</time>
      </trkpt>
      <trkpt lat="48.3916" lon="-3.85552">
        <ele>313.029</ele>
        <time>2019-09-08T12:08:01 0200</time>
      </trkpt>
      <trkpt lat="48.3916" lon="-3.85544">
        <ele>313.518</ele>
        <time>2019-09-08T12:08:06 0200</time>
      </trkpt>
      <trkpt lat="48.3916" lon="-3.85529">
        <ele>314.284</ele>
        <time>2019-09-08T12:08:11 0200</time>
      </trkpt>
      <trkpt lat="48.3916" lon="-3.85511">
        <ele>314.481</ele>
        <time>2019-09-08T12:08:16 0200</time>
      </trkpt>
      <trkpt lat="48.3916" lon="-3.85497">
        <ele>314.724</ele>
        <time>2019-09-08T12:08:21 0200</time>
      </trkpt>
      <trkpt lat="48.3916" lon="-3.85481">
        <ele>315.243</ele>
        <time>2019-09-08T12:08:26 0200</time>
      </trkpt>
      <trkpt lat="48.3916" lon="-3.85471">
        <ele>315.715</ele>
        <time>2019-09-08T12:08:31 0200</time>
      </trkpt>
      <trkpt lat="48.3916" lon="-3.85452">
        <ele>316.364</ele>
        <time>2019-09-08T12:08:36 0200</time>
      </trkpt>
      <trkpt lat="48.3916" lon="-3.85436">
        <ele>316.444</ele>
        <time>2019-09-08T12:08:41 0200</time>
      </trkpt>
      <trkpt lat="48.3915" lon="-3.85411">
        <ele>316.666</ele>
        <time>2019-09-08T12:08:46 0200</time>
      </trkpt>
      <trkpt lat="48.3915" lon="-3.85393">
        <ele>317.346</ele>
        <time>2019-09-08T12:08:52 0200</time>
      </trkpt>
      <trkpt lat="48.3914" lon="-3.85372">
        <ele>317.793</ele>
        <time>2019-09-08T12:08:57 0200</time>
      </trkpt>
      <trkpt lat="48.3913" lon="-3.85341">
        <ele>318.925</ele>
        <time>2019-09-08T12:09:02 0200</time>
      </trkpt>
      <trkpt lat="48.3913" lon="-3.85321">
        <ele>319.044</ele>
        <time>2019-09-08T12:09:07 0200</time>
      </trkpt>
      <trkpt lat="48.3912" lon="-3.85293">
        <ele>318.796</ele>
        <time>2019-09-08T12:09:12 0200</time>
      </trkpt>
      <trkpt lat="48.3911" lon="-3.85273">
        <ele>319.061</ele>
        <time>2019-09-08T12:09:17 0200</time>
      </trkpt>
      <trkpt lat="48.3911" lon="-3.85254">
        <ele>319.729</ele>
        <time>2019-09-08T12:09:22 0200</time>
      </trkpt>
      <trkpt lat="48.391" lon="-3.85237">
        <ele>320.154</ele>
        <time>2019-09-08T12:09:27 0200</time>
      </trkpt>
      <trkpt lat="48.3909" lon="-3.85212">
        <ele>320.58</ele>
        <time>2019-09-08T12:09:32 0200</time>
      </trkpt>
      <trkpt lat="48.3908" lon="-3.85196">
        <ele>321.064</ele>
        <time>2019-09-08T12:09:37 0200</time>
      </trkpt>
      <trkpt lat="48.3908" lon="-3.85184">
        <ele>321.437</ele>
        <time>2019-09-08T12:09:42 0200</time>
      </trkpt>
      <trkpt lat="48.3907" lon="-3.85158">
        <ele>321.959</ele>
        <time>2019-09-08T12:09:47 0200</time>
      </trkpt>
      <trkpt lat="48.3906" lon="-3.85143">
        <ele>322.295</ele>
        <time>2019-09-08T12:09:52 0200</time>
      </trkpt>
      <trkpt lat="48.3905" lon="-3.8513">
        <ele>323.018</ele>
        <time>2019-09-08T12:09:57 0200</time>
      </trkpt>
      <trkpt lat="48.3904" lon="-3.85113">
        <ele>324.056</ele>
        <time>2019-09-08T12:10:02 0200</time>
      </trkpt>
      <trkpt lat="48.3903" lon="-3.85103">
        <ele>324.804</ele>
        <time>2019-09-08T12:10:07 0200</time>
      </trkpt>
      <trkpt lat="48.3902" lon="-3.85092">
        <ele>325.237</ele>
        <time>2019-09-08T12:10:12 0200</time>
      </trkpt>
      <trkpt lat="48.3901" lon="-3.85084">
        <ele>325.605</ele>
        <time>2019-09-08T12:10:17 0200</time>
      </trkpt>
      <trkpt lat="48.3901" lon="-3.85084">
        <ele>325.605</ele>
        <time>2019-09-08T12:10:22 0200</time>
      </trkpt>
      <trkpt lat="48.3901" lon="-3.85063">
        <ele>326.451</ele>
        <time>2019-09-08T12:10:28 0200</time>
      </trkpt>
      <trkpt lat="48.3901" lon="-3.85054">
        <ele>326.447</ele>
        <time>2019-09-08T12:10:33 0200</time>
      </trkpt>
      <trkpt lat="48.39" lon="-3.8503">
        <ele>326.451</ele>
        <time>2019-09-08T12:10:37 0200</time>
      </trkpt>
      <trkpt lat="48.3899" lon="-3.85013">
        <ele>326.532</ele>
        <time>2019-09-08T12:10:42 0200</time>
      </trkpt>
      <trkpt lat="48.3898" lon="-3.84989">
        <ele>326.936</ele>
        <time>2019-09-08T12:10:47 0200</time>
      </trkpt>
      <trkpt lat="48.3897" lon="-3.84963">
        <ele>328.968</ele>
        <time>2019-09-08T12:10:52 0200</time>
      </trkpt>
      <trkpt lat="48.3896" lon="-3.84942">
        <ele>328.963</ele>
        <time>2019-09-08T12:10:57 0200</time>
      </trkpt>
      <trkpt lat="48.3895" lon="-3.84919">
        <ele>329.136</ele>
        <time>2019-09-08T12:11:02 0200</time>
      </trkpt>
      <trkpt lat="48.3895" lon="-3.84901">
        <ele>329.055</ele>
        <time>2019-09-08T12:11:07 0200</time>
      </trkpt>
      <trkpt lat="48.3894" lon="-3.84874">
        <ele>329.257</ele>
        <time>2019-09-08T12:11:12 0200</time>
      </trkpt>
      <trkpt lat="48.3893" lon="-3.84843">
        <ele>329.242</ele>
        <time>2019-09-08T12:11:17 0200</time>
      </trkpt>
      <trkpt lat="48.3893" lon="-3.84813">
        <ele>328.535</ele>
        <time>2019-09-08T12:11:22 0200</time>
      </trkpt>
      <trkpt lat="48.3893" lon="-3.8477">
        <ele>321.532</ele>
        <time>2019-09-08T12:11:27 0200</time>
      </trkpt>
      <trkpt lat="48.3894" lon="-3.8473">
        <ele>319.435</ele>
        <time>2019-09-08T12:11:32 0200</time>
      </trkpt>
      <trkpt lat="48.3893" lon="-3.84691">
        <ele>321.014</ele>
        <time>2019-09-08T12:11:37 0200</time>
      </trkpt>
      <trkpt lat="48.3895" lon="-3.8464">
        <ele>317.203</ele>
        <time>2019-09-08T12:11:42 0200</time>
      </trkpt>
      <trkpt lat="48.3896" lon="-3.8458">
        <ele>312.45</ele>
        <time>2019-09-08T12:11:48 0200</time>
      </trkpt>
      <trkpt lat="48.3897" lon="-3.84513">
        <ele>308.366</ele>
        <time>2019-09-08T12:11:53 0200</time>
      </trkpt>
      <trkpt lat="48.3897" lon="-3.84446">
        <ele>304.711</ele>
        <time>2019-09-08T12:11:58 0200</time>
      </trkpt>
      <trkpt lat="48.3895" lon="-3.8439">
        <ele>306.35</ele>
        <time>2019-09-08T12:12:03 0200</time>
      </trkpt>
      <trkpt lat="48.3893" lon="-3.84343">
        <ele>307.468</ele>
        <time>2019-09-08T12:12:08 0200</time>
      </trkpt>
      <trkpt lat="48.3891" lon="-3.84305">
        <ele>307.976</ele>
        <time>2019-09-08T12:12:13 0200</time>
      </trkpt>
      <trkpt lat="48.3889" lon="-3.84275">
        <ele>307.959</ele>
        <time>2019-09-08T12:12:18 0200</time>
      </trkpt>
      <trkpt lat="48.3889" lon="-3.84232">
        <ele>308.113</ele>
        <time>2019-09-08T12:12:23 0200</time>
      </trkpt>
      <trkpt lat="48.3889" lon="-3.84191">
        <ele>307.673</ele>
        <time>2019-09-08T12:12:28 0200</time>
      </trkpt>
      <trkpt lat="48.3888" lon="-3.84163">
        <ele>308.981</ele>
        <time>2019-09-08T12:12:33 0200</time>
      </trkpt>
      <trkpt lat="48.3887" lon="-3.84138">
        <ele>309.658</ele>
        <time>2019-09-08T12:12:38 0200</time>
      </trkpt>
      <trkpt lat="48.3886" lon="-3.84122">
        <ele>309.509</ele>
        <time>2019-09-08T12:12:43 0200</time>
      </trkpt>
      <trkpt lat="48.3885" lon="-3.8409">
        <ele>309.975</ele>
        <time>2019-09-08T12:12:48 0200</time>
      </trkpt>
      <trkpt lat="48.3885" lon="-3.84062">
        <ele>310.27</ele>
        <time>2019-09-08T12:12:53 0200</time>
      </trkpt>
      <trkpt lat="48.3883" lon="-3.84024">
        <ele>311.799</ele>
        <time>2019-09-08T12:12:58 0200</time>
      </trkpt>
      <trkpt lat="48.3883" lon="-3.83992">
        <ele>312.589</ele>
        <time>2019-09-08T12:13:03 0200</time>
      </trkpt>
      <trkpt lat="48.3882" lon="-3.8395">
        <ele>311.734</ele>
        <time>2019-09-08T12:13:08 0200</time>
      </trkpt>
      <trkpt lat="48.3884" lon="-3.83911">
        <ele>310.327</ele>
        <time>2019-09-08T12:13:13 0200</time>
      </trkpt>
      <trkpt lat="48.3885" lon="-3.83875">
        <ele>311.959</ele>
        <time>2019-09-08T12:13:18 0200</time>
      </trkpt>
      <trkpt lat="48.3886" lon="-3.83846">
        <ele>310.624</ele>
        <time>2019-09-08T12:13:23 0200</time>
      </trkpt>
      <trkpt lat="48.3887" lon="-3.83816">
        <ele>309.224</ele>
        <time>2019-09-08T12:13:29 0200</time>
      </trkpt>
      <trkpt lat="48.3888" lon="-3.83784">
        <ele>306.311</ele>
        <time>2019-09-08T12:13:34 0200</time>
      </trkpt>
      <trkpt lat="48.389" lon="-3.83742">
        <ele>305.348</ele>
        <time>2019-09-08T12:13:39 0200</time>
      </trkpt>
      <trkpt lat="48.3891" lon="-3.83702">
        <ele>303.858</ele>
        <time>2019-09-08T12:13:44 0200</time>
      </trkpt>
      <trkpt lat="48.3891" lon="-3.83674">
        <ele>304.133</ele>
        <time>2019-09-08T12:13:49 0200</time>
      </trkpt>
      <trkpt lat="48.3891" lon="-3.83655">
        <ele>304.129</ele>
        <time>2019-09-08T12:13:54 0200</time>
      </trkpt>
      <trkpt lat="48.3891" lon="-3.83625">
        <ele>304.106</ele>
        <time>2019-09-08T12:13:59 0200</time>
      </trkpt>
      <trkpt lat="48.3891" lon="-3.83607">
        <ele>304.346</ele>
        <time>2019-09-08T12:14:04 0200</time>
      </trkpt>
      <trkpt lat="48.3891" lon="-3.83582">
        <ele>304.977</ele>
        <time>2019-09-08T12:14:09 0200</time>
      </trkpt>
      <trkpt lat="48.3891" lon="-3.83564">
        <ele>305.657</ele>
        <time>2019-09-08T12:14:14 0200</time>
      </trkpt>
      <trkpt lat="48.3891" lon="-3.83537">
        <ele>306.992</ele>
        <time>2019-09-08T12:14:19 0200</time>
      </trkpt>
      <trkpt lat="48.3891" lon="-3.8352">
        <ele>307.824</ele>
        <time>2019-09-08T12:14:24 0200</time>
      </trkpt>
      <trkpt lat="48.3891" lon="-3.83505">
        <ele>308.54</ele>
        <time>2019-09-08T12:14:29 0200</time>
      </trkpt>
      <trkpt lat="48.3891" lon="-3.83473">
        <ele>309.055</ele>
        <time>2019-09-08T12:14:34 0200</time>
      </trkpt>
      <trkpt lat="48.3891" lon="-3.83449">
        <ele>309.381</ele>
        <time>2019-09-08T12:14:39 0200</time>
      </trkpt>
      <trkpt lat="48.3891" lon="-3.83422">
        <ele>309.892</ele>
        <time>2019-09-08T12:14:44 0200</time>
      </trkpt>
      <trkpt lat="48.3891" lon="-3.83401">
        <ele>310.353</ele>
        <time>2019-09-08T12:14:49 0200</time>
      </trkpt>
      <trkpt lat="48.3892" lon="-3.83368">
        <ele>311.852</ele>
        <time>2019-09-08T12:14:54 0200</time>
      </trkpt>
      <trkpt lat="48.3892" lon="-3.83337">
        <ele>314.107</ele>
        <time>2019-09-08T12:14:59 0200</time>
      </trkpt>
      <trkpt lat="48.3892" lon="-3.83311">
        <ele>314.914</ele>
        <time>2019-09-08T12:15:04 0200</time>
      </trkpt>
      <trkpt lat="48.3892" lon="-3.83277">
        <ele>315.295</ele>
        <time>2019-09-08T12:15:09 0200</time>
      </trkpt>
      <trkpt lat="48.3892" lon="-3.83254">
        <ele>316.266</ele>
        <time>2019-09-08T12:15:14 0200</time>
      </trkpt>
      <trkpt lat="48.3892" lon="-3.8322">
        <ele>315.28</ele>
        <time>2019-09-08T12:15:19 0200</time>
      </trkpt>
      <trkpt lat="48.3891" lon="-3.8319">
        <ele>314.42</ele>
        <time>2019-09-08T12:15:24 0200</time>
      </trkpt>
      <trkpt lat="48.3891" lon="-3.83164">
        <ele>314.524</ele>
        <time>2019-09-08T12:15:30 0200</time>
      </trkpt>
      <trkpt lat="48.3891" lon="-3.83138">
        <ele>316.517</ele>
        <time>2019-09-08T12:15:35 0200</time>
      </trkpt>
      <trkpt lat="48.3891" lon="-3.83105">
        <ele>318.395</ele>
        <time>2019-09-08T12:15:40 0200</time>
      </trkpt>
      <trkpt lat="48.3891" lon="-3.83069">
        <ele>320.328</ele>
        <time>2019-09-08T12:15:45 0200</time>
      </trkpt>
      <trkpt lat="48.3891" lon="-3.83032">
        <ele>317.536</ele>
        <time>2019-09-08T12:15:50 0200</time>
      </trkpt>
      <trkpt lat="48.3891" lon="-3.82986">
        <ele>317.204</ele>
        <time>2019-09-08T12:15:55 0200</time>
      </trkpt>
      <trkpt lat="48.3892" lon="-3.82938">
        <ele>314.408</ele>
        <time>2019-09-08T12:16:00 0200</time>
      </trkpt>
      <trkpt lat="48.3893" lon="-3.82888">
        <ele>313.283</ele>
        <time>2019-09-08T12:16:05 0200</time>
      </trkpt>
      <trkpt lat="48.3894" lon="-3.82829">
        <ele>311.354</ele>
        <time>2019-09-08T12:16:10 0200</time>
      </trkpt>
      <trkpt lat="48.3894" lon="-3.82776">
        <ele>311.251</ele>
        <time>2019-09-08T12:16:15 0200</time>
      </trkpt>
      <trkpt lat="48.3895" lon="-3.82726">
        <ele>309.706</ele>
        <time>2019-09-08T12:16:20 0200</time>
      </trkpt>
      <trkpt lat="48.3897" lon="-3.82668">
        <ele>308.468</ele>
        <time>2019-09-08T12:16:25 0200</time>
      </trkpt>
      <trkpt lat="48.39" lon="-3.82607">
        <ele>310.3</ele>
        <time>2019-09-08T12:16:30 0200</time>
      </trkpt>
      <trkpt lat="48.3903" lon="-3.82544">
        <ele>305.778</ele>
        <time>2019-09-08T12:16:36 0200</time>
      </trkpt>
      <trkpt lat="48.3902" lon="-3.82472">
        <ele>302.808</ele>
        <time>2019-09-08T12:16:41 0200</time>
      </trkpt>
      <trkpt lat="48.3901" lon="-3.82405">
        <ele>299.959</ele>
        <time>2019-09-08T12:16:46 0200</time>
      </trkpt>
      <trkpt lat="48.3901" lon="-3.82347">
        <ele>299.218</ele>
        <time>2019-09-08T12:16:51 0200</time>
      </trkpt>
      <trkpt lat="48.3901" lon="-3.8229">
        <ele>299.552</ele>
        <time>2019-09-08T12:16:56 0200</time>
      </trkpt>
      <trkpt lat="48.3899" lon="-3.82238">
        <ele>299.558</ele>
        <time>2019-09-08T12:17:01 0200</time>
      </trkpt>
      <trkpt lat="48.3898" lon="-3.82188">
        <ele>299.742</ele>
        <time>2019-09-08T12:17:06 0200</time>
      </trkpt>
      <trkpt lat="48.3897" lon="-3.82142">
        <ele>299.904</ele>
        <time>2019-09-08T12:17:11 0200</time>
      </trkpt>
      <trkpt lat="48.3896" lon="-3.82113">
        <ele>302.719</ele>
        <time>2019-09-08T12:17:16 0200</time>
      </trkpt>
      <trkpt lat="48.3895" lon="-3.82074">
        <ele>305.371</ele>
        <time>2019-09-08T12:17:21 0200</time>
      </trkpt>
      <trkpt lat="48.3895" lon="-3.82045">
        <ele>304.65</ele>
        <time>2019-09-08T12:17:26 0200</time>
      </trkpt>
      <trkpt lat="48.3894" lon="-3.81999">
        <ele>300.102</ele>
        <time>2019-09-08T12:17:31 0200</time>
      </trkpt>
      <trkpt lat="48.3894" lon="-3.81956">
        <ele>298.568</ele>
        <time>2019-09-08T12:17:36 0200</time>
      </trkpt>
      <trkpt lat="48.3893" lon="-3.81916">
        <ele>298.778</ele>
        <time>2019-09-08T12:17:41 0200</time>
      </trkpt>
      <trkpt lat="48.3892" lon="-3.81876">
        <ele>301.041</ele>
        <time>2019-09-08T12:17:46 0200</time>
      </trkpt>
      <trkpt lat="48.3891" lon="-3.81839">
        <ele>300.754</ele>
        <time>2019-09-08T12:17:51 0200</time>
      </trkpt>
      <trkpt lat="48.389" lon="-3.81803">
        <ele>302.167</ele>
        <time>2019-09-08T12:17:56 0200</time>
      </trkpt>
      <trkpt lat="48.3889" lon="-3.8177">
        <ele>304.548</ele>
        <time>2019-09-08T12:18:01 0200</time>
      </trkpt>
      <trkpt lat="48.3888" lon="-3.8174">
        <ele>303.638</ele>
        <time>2019-09-08T12:18:06 0200</time>
      </trkpt>
      <trkpt lat="48.3887" lon="-3.8171">
        <ele>304.557</ele>
        <time>2019-09-08T12:18:11 0200</time>
      </trkpt>
      <trkpt lat="48.3886" lon="-3.81684">
        <ele>306.019</ele>
        <time>2019-09-08T12:18:16 0200</time>
      </trkpt>
      <trkpt lat="48.3885" lon="-3.81646">
        <ele>309.047</ele>
        <time>2019-09-08T12:18:21 0200</time>
      </trkpt>
      <trkpt lat="48.3885" lon="-3.81622">
        <ele>309.438</ele>
        <time>2019-09-08T12:18:26 0200</time>
      </trkpt>
      <trkpt lat="48.3884" lon="-3.81581">
        <ele>306.745</ele>
        <time>2019-09-08T12:18:31 0200</time>
      </trkpt>
      <trkpt lat="48.3883" lon="-3.81551">
        <ele>305.073</ele>
        <time>2019-09-08T12:18:36 0200</time>
      </trkpt>
      <trkpt lat="48.3882" lon="-3.81516">
        <ele>305.333</ele>
        <time>2019-09-08T12:18:41 0200</time>
      </trkpt>
      <trkpt lat="48.3881" lon="-3.81482">
        <ele>303.582</ele>
        <time>2019-09-08T12:18:47 0200</time>
      </trkpt>
      <trkpt lat="48.388" lon="-3.81443">
        <ele>299.88</ele>
        <time>2019-09-08T12:18:52 0200</time>
      </trkpt>
      <trkpt lat="48.3879" lon="-3.81404">
        <ele>299.899</ele>
        <time>2019-09-08T12:18:58 0200</time>
      </trkpt>
      <trkpt lat="48.3878" lon="-3.81363">
        <ele>300.94</ele>
        <time>2019-09-08T12:19:03 0200</time>
      </trkpt>
      <trkpt lat="48.3878" lon="-3.81335">
        <ele>301.301</ele>
        <time>2019-09-08T12:19:08 0200</time>
      </trkpt>
      <trkpt lat="48.3876" lon="-3.81299">
        <ele>303.854</ele>
        <time>2019-09-08T12:19:13 0200</time>
      </trkpt>
      <trkpt lat="48.3875" lon="-3.81262">
        <ele>305.848</ele>
        <time>2019-09-08T12:19:18 0200</time>
      </trkpt>
      <trkpt lat="48.3874" lon="-3.8122">
        <ele>305.102</ele>
        <time>2019-09-08T12:19:23 0200</time>
      </trkpt>
      <trkpt lat="48.3874" lon="-3.81185">
        <ele>304.534</ele>
        <time>2019-09-08T12:19:27 0200</time>
      </trkpt>
      <trkpt lat="48.3875" lon="-3.81155">
        <ele>304.535</ele>
        <time>2019-09-08T12:19:32 0200</time>
      </trkpt>
      <trkpt lat="48.3874" lon="-3.81113">
        <ele>305.315</ele>
        <time>2019-09-08T12:19:37 0200</time>
      </trkpt>
      <trkpt lat="48.3874" lon="-3.8107">
        <ele>304.68</ele>
        <time>2019-09-08T12:19:42 0200</time>
      </trkpt>
      <trkpt lat="48.3873" lon="-3.81034">
        <ele>304.278</ele>
        <time>2019-09-08T12:19:48 0200</time>
      </trkpt>
      <trkpt lat="48.3871" lon="-3.80996">
        <ele>300.713</ele>
        <time>2019-09-08T12:19:53 0200</time>
      </trkpt>
      <trkpt lat="48.387" lon="-3.80963">
        <ele>294.911</ele>
        <time>2019-09-08T12:19:58 0200</time>
      </trkpt>
      <trkpt lat="48.3869" lon="-3.80933">
        <ele>292.986</ele>
        <time>2019-09-08T12:20:03 0200</time>
      </trkpt>
      <trkpt lat="48.3868" lon="-3.8089">
        <ele>290.938</ele>
        <time>2019-09-08T12:20:08 0200</time>
      </trkpt>
      <trkpt lat="48.3867" lon="-3.8086">
        <ele>293.109</ele>
        <time>2019-09-08T12:20:13 0200</time>
      </trkpt>
      <trkpt lat="48.3866" lon="-3.80818">
        <ele>290.152</ele>
        <time>2019-09-08T12:20:18 0200</time>
      </trkpt>
      <trkpt lat="48.3865" lon="-3.80775">
        <ele>287.987</ele>
        <time>2019-09-08T12:20:23 0200</time>
      </trkpt>
      <trkpt lat="48.3864" lon="-3.80735">
        <ele>282.732</ele>
        <time>2019-09-08T12:20:28 0200</time>
      </trkpt>
      <trkpt lat="48.3862" lon="-3.80682">
        <ele>280.414</ele>
        <time>2019-09-08T12:20:33 0200</time>
      </trkpt>
      <trkpt lat="48.3862" lon="-3.80632">
        <ele>278.647</ele>
        <time>2019-09-08T12:20:38 0200</time>
      </trkpt>
      <trkpt lat="48.3861" lon="-3.80595">
        <ele>275.885</ele>
        <time>2019-09-08T12:20:44 0200</time>
      </trkpt>
      <trkpt lat="48.3861" lon="-3.8056">
        <ele>272.056</ele>
        <time>2019-09-08T12:20:49 0200</time>
      </trkpt>
      <trkpt lat="48.386" lon="-3.80505">
        <ele>271.512</ele>
        <time>2019-09-08T12:20:54 0200</time>
      </trkpt>
      <trkpt lat="48.3861" lon="-3.80449">
        <ele>269.463</ele>
        <time>2019-09-08T12:20:59 0200</time>
      </trkpt>
      <trkpt lat="48.3861" lon="-3.80404">
        <ele>271.307</ele>
        <time>2019-09-08T12:21:04 0200</time>
      </trkpt>
      <trkpt lat="48.386" lon="-3.80359">
        <ele>271.184</ele>
        <time>2019-09-08T12:21:09 0200</time>
      </trkpt>
      <trkpt lat="48.3858" lon="-3.80307">
        <ele>268.981</ele>
        <time>2019-09-08T12:21:14 0200</time>
      </trkpt>
      <trkpt lat="48.3856" lon="-3.80269">
        <ele>267.521</ele>
        <time>2019-09-08T12:21:19 0200</time>
      </trkpt>
      <trkpt lat="48.3855" lon="-3.80236">
        <ele>267.652</ele>
        <time>2019-09-08T12:21:24 0200</time>
      </trkpt>
      <trkpt lat="48.3854" lon="-3.80183">
        <ele>266.456</ele>
        <time>2019-09-08T12:21:29 0200</time>
      </trkpt>
      <trkpt lat="48.3854" lon="-3.80136">
        <ele>263.243</ele>
        <time>2019-09-08T12:21:34 0200</time>
      </trkpt>
      <trkpt lat="48.3853" lon="-3.80082">
        <ele>259.44</ele>
        <time>2019-09-08T12:21:39 0200</time>
      </trkpt>
      <trkpt lat="48.3852" lon="-3.80038">
        <ele>256.828</ele>
        <time>2019-09-08T12:21:44 0200</time>
      </trkpt>
      <trkpt lat="48.3851" lon="-3.80016">
        <ele>257.232</ele>
        <time>2019-09-08T12:21:49 0200</time>
      </trkpt>
      <trkpt lat="48.3851" lon="-3.80016">
        <ele>257.232</ele>
        <time>2019-09-08T12:21:54 0200</time>
      </trkpt>
      <trkpt lat="48.3851" lon="-3.80005">
        <ele>257.558</ele>
        <time>2019-09-08T12:21:59 0200</time>
      </trkpt>
      <trkpt lat="48.3851" lon="-3.80005">
        <ele>257.558</ele>
        <time>2019-09-08T12:22:04 0200</time>
      </trkpt>
      <trkpt lat="48.385" lon="-3.79986">
        <ele>257.943</ele>
        <time>2019-09-08T12:22:09 0200</time>
      </trkpt>
      <trkpt lat="48.385" lon="-3.79958">
        <ele>258.159</ele>
        <time>2019-09-08T12:22:14 0200</time>
      </trkpt>
      <trkpt lat="48.3849" lon="-3.79944">
        <ele>258.131</ele>
        <time>2019-09-08T12:22:19 0200</time>
      </trkpt>
      <trkpt lat="48.3849" lon="-3.79922">
        <ele>258.362</ele>
        <time>2019-09-08T12:22:24 0200</time>
      </trkpt>
      <trkpt lat="48.3848" lon="-3.79908">
        <ele>258.589</ele>
        <time>2019-09-08T12:22:29 0200</time>
      </trkpt>
      <trkpt lat="48.3847" lon="-3.79886">
        <ele>259.404</ele>
        <time>2019-09-08T12:22:34 0200</time>
      </trkpt>
      <trkpt lat="48.3847" lon="-3.7987">
        <ele>260.085</ele>
        <time>2019-09-08T12:22:39 0200</time>
      </trkpt>
      <trkpt lat="48.3847" lon="-3.79863">
        <ele>260.34</ele>
        <time>2019-09-08T12:22:44 0200</time>
      </trkpt>
      <trkpt lat="48.3846" lon="-3.7985">
        <ele>260.692</ele>
        <time>2019-09-08T12:22:49 0200</time>
      </trkpt>
      <trkpt lat="48.3845" lon="-3.79835">
        <ele>261.041</ele>
        <time>2019-09-08T12:22:54 0200</time>
      </trkpt>
      <trkpt lat="48.3845" lon="-3.79823">
        <ele>261.613</ele>
        <time>2019-09-08T12:22:59 0200</time>
      </trkpt>
      <trkpt lat="48.3844" lon="-3.79818">
        <ele>261.792</ele>
        <time>2019-09-08T12:23:04 0200</time>
      </trkpt>
      <trkpt lat="48.3844" lon="-3.79805">
        <ele>262.447</ele>
        <time>2019-09-08T12:23:09 0200</time>
      </trkpt>
      <trkpt lat="48.3844" lon="-3.79796">
        <ele>262.879</ele>
        <time>2019-09-08T12:23:15 0200</time>
      </trkpt>
      <trkpt lat="48.3843" lon="-3.79782">
        <ele>264.548</ele>
        <time>2019-09-08T12:23:20 0200</time>
      </trkpt>
      <trkpt lat="48.3842" lon="-3.79769">
        <ele>266.183</ele>
        <time>2019-09-08T12:23:25 0200</time>
      </trkpt>
      <trkpt lat="48.3842" lon="-3.79763">
        <ele>266.952</ele>
        <time>2019-09-08T12:23:30 0200</time>
      </trkpt>
      <trkpt lat="48.3841" lon="-3.79749">
        <ele>268.619</ele>
        <time>2019-09-08T12:23:35 0200</time>
      </trkpt>
      <trkpt lat="48.3841" lon="-3.79749">
        <ele>268.619</ele>
        <time>2019-09-08T12:23:40 0200</time>
      </trkpt>
      <trkpt lat="48.3841" lon="-3.79728">
        <ele>269.594</ele>
        <time>2019-09-08T12:23:45 0200</time>
      </trkpt>
      <trkpt lat="48.384" lon="-3.79713">
        <ele>270.3</ele>
        <time>2019-09-08T12:23:50 0200</time>
      </trkpt>
      <trkpt lat="48.384" lon="-3.79713">
        <ele>270.3</ele>
        <time>2019-09-08T12:23:55 0200</time>
      </trkpt>
      <trkpt lat="48.3839" lon="-3.79694">
        <ele>271.269</ele>
        <time>2019-09-08T12:24:00 0200</time>
      </trkpt>
      <trkpt lat="48.3839" lon="-3.79689">
        <ele>271.43</ele>
        <time>2019-09-08T12:24:05 0200</time>
      </trkpt>
      <trkpt lat="48.3838" lon="-3.79678">
        <ele>271.793</ele>
        <time>2019-09-08T12:24:10 0200</time>
      </trkpt>
      <trkpt lat="48.3837" lon="-3.79666">
        <ele>271.859</ele>
        <time>2019-09-08T12:24:15 0200</time>
      </trkpt>
      <trkpt lat="48.3836" lon="-3.79657">
        <ele>272.025</ele>
        <time>2019-09-08T12:24:20 0200</time>
      </trkpt>
      <trkpt lat="48.3836" lon="-3.79643">
        <ele>273.217</ele>
        <time>2019-09-08T12:24:25 0200</time>
      </trkpt>
      <trkpt lat="48.3835" lon="-3.79633">
        <ele>274.238</ele>
        <time>2019-09-08T12:24:30 0200</time>
      </trkpt>
      <trkpt lat="48.3834" lon="-3.79616">
        <ele>275.723</ele>
        <time>2019-09-08T12:24:35 0200</time>
      </trkpt>
      <trkpt lat="48.3833" lon="-3.79603">
        <ele>276.966</ele>
        <time>2019-09-08T12:24:40 0200</time>
      </trkpt>
      <trkpt lat="48.3833" lon="-3.79603">
        <ele>276.966</ele>
        <time>2019-09-08T12:24:45 0200</time>
      </trkpt>
      <trkpt lat="48.3832" lon="-3.79587">
        <ele>278.259</ele>
        <time>2019-09-08T12:24:50 0200</time>
      </trkpt>
      <trkpt lat="48.383" lon="-3.79567">
        <ele>279.321</ele>
        <time>2019-09-08T12:24:56 0200</time>
      </trkpt>
      <trkpt lat="48.3829" lon="-3.79554">
        <ele>280.016</ele>
        <time>2019-09-08T12:25:01 0200</time>
      </trkpt>
      <trkpt lat="48.3828" lon="-3.79534">
        <ele>281.194</ele>
        <time>2019-09-08T12:25:06 0200</time>
      </trkpt>
      <trkpt lat="48.3827" lon="-3.79527">
        <ele>281.69</ele>
        <time>2019-09-08T12:25:11 0200</time>
      </trkpt>
      <trkpt lat="48.3827" lon="-3.7951">
        <ele>283.653</ele>
        <time>2019-09-08T12:25:16 0200</time>
      </trkpt>
      <trkpt lat="48.3826" lon="-3.79498">
        <ele>284.842</ele>
        <time>2019-09-08T12:25:21 0200</time>
      </trkpt>
      <trkpt lat="48.3825" lon="-3.7948">
        <ele>285.986</ele>
        <time>2019-09-08T12:25:26 0200</time>
      </trkpt>
      <trkpt lat="48.3825" lon="-3.79474">
        <ele>286.874</ele>
        <time>2019-09-08T12:25:31 0200</time>
      </trkpt>
      <trkpt lat="48.3824" lon="-3.79453">
        <ele>288.772</ele>
        <time>2019-09-08T12:25:36 0200</time>
      </trkpt>
      <trkpt lat="48.3824" lon="-3.79453">
        <ele>288.772</ele>
        <time>2019-09-08T12:25:41 0200</time>
      </trkpt>
      <trkpt lat="48.3823" lon="-3.79434">
        <ele>290.062</ele>
        <time>2019-09-08T12:25:46 0200</time>
      </trkpt>
      <trkpt lat="48.3823" lon="-3.79408">
        <ele>290.424</ele>
        <time>2019-09-08T12:25:51 0200</time>
      </trkpt>
      <trkpt lat="48.3822" lon="-3.79398">
        <ele>290.455</ele>
        <time>2019-09-08T12:25:56 0200</time>
      </trkpt>
      <trkpt lat="48.3821" lon="-3.79394">
        <ele>290.522</ele>
        <time>2019-09-08T12:26:01 0200</time>
      </trkpt>
      <trkpt lat="48.382" lon="-3.79383">
        <ele>291.286</ele>
        <time>2019-09-08T12:26:06 0200</time>
      </trkpt>
      <trkpt lat="48.382" lon="-3.79383">
        <ele>291.286</ele>
        <time>2019-09-08T12:26:11 0200</time>
      </trkpt>
      <trkpt lat="48.382" lon="-3.79383">
        <ele>291.286</ele>
        <time>2019-09-08T12:26:16 0200</time>
      </trkpt>
      <trkpt lat="48.3819" lon="-3.79377">
        <ele>290.061</ele>
        <time>2019-09-08T12:26:21 0200</time>
      </trkpt>
      <trkpt lat="48.3818" lon="-3.79359">
        <ele>289.488</ele>
        <time>2019-09-08T12:26:26 0200</time>
      </trkpt>
      <trkpt lat="48.3817" lon="-3.79342">
        <ele>288.608</ele>
        <time>2019-09-08T12:26:31 0200</time>
      </trkpt>
      <trkpt lat="48.3816" lon="-3.79324">
        <ele>288.506</ele>
        <time>2019-09-08T12:26:36 0200</time>
      </trkpt>
      <trkpt lat="48.3815" lon="-3.79291">
        <ele>287.34</ele>
        <time>2019-09-08T12:26:41 0200</time>
      </trkpt>
      <trkpt lat="48.3814" lon="-3.79259">
        <ele>283.435</ele>
        <time>2019-09-08T12:26:46 0200</time>
      </trkpt>
      <trkpt lat="48.3814" lon="-3.79224">
        <ele>281.512</ele>
        <time>2019-09-08T12:26:51 0200</time>
      </trkpt>
      <trkpt lat="48.3814" lon="-3.79183">
        <ele>280.042</ele>
        <time>2019-09-08T12:26:56 0200</time>
      </trkpt>
      <trkpt lat="48.3813" lon="-3.79132">
        <ele>279.784</ele>
        <time>2019-09-08T12:27:02 0200</time>
      </trkpt>
      <trkpt lat="48.3812" lon="-3.79091">
        <ele>277.488</ele>
        <time>2019-09-08T12:27:07 0200</time>
      </trkpt>
      <trkpt lat="48.3812" lon="-3.79047">
        <ele>277.047</ele>
        <time>2019-09-08T12:27:12 0200</time>
      </trkpt>
      <trkpt lat="48.3811" lon="-3.79013">
        <ele>276.486</ele>
        <time>2019-09-08T12:27:17 0200</time>
      </trkpt>
      <trkpt lat="48.3809" lon="-3.78989">
        <ele>278.658</ele>
        <time>2019-09-08T12:27:22 0200</time>
      </trkpt>
      <trkpt lat="48.3807" lon="-3.78974">
        <ele>278.978</ele>
        <time>2019-09-08T12:27:27 0200</time>
      </trkpt>
      <trkpt lat="48.3805" lon="-3.78964">
        <ele>279.523</ele>
        <time>2019-09-08T12:27:32 0200</time>
      </trkpt>
      <trkpt lat="48.3802" lon="-3.7896">
        <ele>280.268</ele>
        <time>2019-09-08T12:27:37 0200</time>
      </trkpt>
      <trkpt lat="48.38" lon="-3.78957">
        <ele>282.249</ele>
        <time>2019-09-08T12:27:42 0200</time>
      </trkpt>
      <trkpt lat="48.3798" lon="-3.78944">
        <ele>282.51</ele>
        <time>2019-09-08T12:27:47 0200</time>
      </trkpt>
      <trkpt lat="48.3796" lon="-3.78926">
        <ele>282.136</ele>
        <time>2019-09-08T12:27:52 0200</time>
      </trkpt>
      <trkpt lat="48.3795" lon="-3.78921">
        <ele>281.274</ele>
        <time>2019-09-08T12:27:57 0200</time>
      </trkpt>
      <trkpt lat="48.3795" lon="-3.78921">
        <ele>280.825</ele>
        <time>2019-09-08T12:28:02 0200</time>
      </trkpt>
      <trkpt lat="48.3794" lon="-3.789">
        <ele>278.942</ele>
        <time>2019-09-08T12:28:07 0200</time>
      </trkpt>
      <trkpt lat="48.3793" lon="-3.78874">
        <ele>277.543</ele>
        <time>2019-09-08T12:28:12 0200</time>
      </trkpt>
      <trkpt lat="48.3792" lon="-3.7885">
        <ele>277.147</ele>
        <time>2019-09-08T12:28:17 0200</time>
      </trkpt>
      <trkpt lat="48.3791" lon="-3.78823">
        <ele>276.914</ele>
        <time>2019-09-08T12:28:22 0200</time>
      </trkpt>
      <trkpt lat="48.379" lon="-3.78807">
        <ele>276.424</ele>
        <time>2019-09-08T12:28:27 0200</time>
      </trkpt>
      <trkpt lat="48.3788" lon="-3.7879">
        <ele>275.975</ele>
        <time>2019-09-08T12:28:32 0200</time>
      </trkpt>
      <trkpt lat="48.3787" lon="-3.78766">
        <ele>275.388</ele>
        <time>2019-09-08T12:28:37 0200</time>
      </trkpt>
      <trkpt lat="48.3787" lon="-3.78736">
        <ele>274.44</ele>
        <time>2019-09-08T12:28:42 0200</time>
      </trkpt>
      <trkpt lat="48.3786" lon="-3.78708">
        <ele>272.719</ele>
        <time>2019-09-08T12:28:47 0200</time>
      </trkpt>
      <trkpt lat="48.3785" lon="-3.78693">
        <ele>271.751</ele>
        <time>2019-09-08T12:28:52 0200</time>
      </trkpt>
      <trkpt lat="48.3784" lon="-3.78677">
        <ele>270.701</ele>
        <time>2019-09-08T12:28:58 0200</time>
      </trkpt>
      <trkpt lat="48.3783" lon="-3.78653">
        <ele>269.615</ele>
        <time>2019-09-08T12:29:03 0200</time>
      </trkpt>
      <trkpt lat="48.3782" lon="-3.78629">
        <ele>267.754</ele>
        <time>2019-09-08T12:29:08 0200</time>
      </trkpt>
      <trkpt lat="48.3781" lon="-3.78602">
        <ele>267.041</ele>
        <time>2019-09-08T12:29:13 0200</time>
      </trkpt>
      <trkpt lat="48.3781" lon="-3.78586">
        <ele>266.72</ele>
        <time>2019-09-08T12:29:18 0200</time>
      </trkpt>
      <trkpt lat="48.378" lon="-3.78564">
        <ele>266.221</ele>
        <time>2019-09-08T12:29:23 0200</time>
      </trkpt>
      <trkpt lat="48.3779" lon="-3.7855">
        <ele>265.718</ele>
        <time>2019-09-08T12:29:28 0200</time>
      </trkpt>
      <trkpt lat="48.3778" lon="-3.78526">
        <ele>264.835</ele>
        <time>2019-09-08T12:29:33 0200</time>
      </trkpt>
      <trkpt lat="48.3778" lon="-3.7851">
        <ele>264.341</ele>
        <time>2019-09-08T12:29:38 0200</time>
      </trkpt>
      <trkpt lat="48.3777" lon="-3.78494">
        <ele>264.147</ele>
        <time>2019-09-08T12:29:43 0200</time>
      </trkpt>
      <trkpt lat="48.3777" lon="-3.78479">
        <ele>264.194</ele>
        <time>2019-09-08T12:29:48 0200</time>
      </trkpt>
      <trkpt lat="48.3776" lon="-3.78466">
        <ele>264.649</ele>
        <time>2019-09-08T12:29:53 0200</time>
      </trkpt>
      <trkpt lat="48.3774" lon="-3.78445">
        <ele>266.316</ele>
        <time>2019-09-08T12:29:58 0200</time>
      </trkpt>
      <trkpt lat="48.3773" lon="-3.78411">
        <ele>266.626</ele>
        <time>2019-09-08T12:30:03 0200</time>
      </trkpt>
      <trkpt lat="48.3772" lon="-3.7838">
        <ele>265.45</ele>
        <time>2019-09-08T12:30:08 0200</time>
      </trkpt>
      <trkpt lat="48.3771" lon="-3.78347">
        <ele>264.361</ele>
        <time>2019-09-08T12:30:13 0200</time>
      </trkpt>
      <trkpt lat="48.377" lon="-3.78315">
        <ele>262.964</ele>
        <time>2019-09-08T12:30:18 0200</time>
      </trkpt>
      <trkpt lat="48.377" lon="-3.78277">
        <ele>261.53</ele>
        <time>2019-09-08T12:30:23 0200</time>
      </trkpt>
      <trkpt lat="48.3769" lon="-3.78234">
        <ele>257.908</ele>
        <time>2019-09-08T12:30:28 0200</time>
      </trkpt>
      <trkpt lat="48.3768" lon="-3.78185">
        <ele>256.881</ele>
        <time>2019-09-08T12:30:33 0200</time>
      </trkpt>
      <trkpt lat="48.3768" lon="-3.78156">
        <ele>255.921</ele>
        <time>2019-09-08T12:30:38 0200</time>
      </trkpt>
      <trkpt lat="48.3767" lon="-3.78149">
        <ele>255.817</ele>
        <time>2019-09-08T12:30:43 0200</time>
      </trkpt>
      <trkpt lat="48.3767" lon="-3.78132">
        <ele>255.939</ele>
        <time>2019-09-08T12:30:48 0200</time>
      </trkpt>
      <trkpt lat="48.3768" lon="-3.78121">
        <ele>256.055</ele>
        <time>2019-09-08T12:30:53 0200</time>
      </trkpt>
      <trkpt lat="48.3769" lon="-3.78108">
        <ele>256.126</ele>
        <time>2019-09-08T12:30:58 0200</time>
      </trkpt>
      <trkpt lat="48.377" lon="-3.78091">
        <ele>255.983</ele>
        <time>2019-09-08T12:31:03 0200</time>
      </trkpt>
      <trkpt lat="48.377" lon="-3.78079">
        <ele>256.231</ele>
        <time>2019-09-08T12:31:09 0200</time>
      </trkpt>
      <trkpt lat="48.3771" lon="-3.78066">
        <ele>257.014</ele>
        <time>2019-09-08T12:31:14 0200</time>
      </trkpt>
      <trkpt lat="48.3772" lon="-3.78056">
        <ele>258.28</ele>
        <time>2019-09-08T12:31:19 0200</time>
      </trkpt>
      <trkpt lat="48.3773" lon="-3.78056">
        <ele>259.132</ele>
        <time>2019-09-08T12:31:24 0200</time>
      </trkpt>
      <trkpt lat="48.3774" lon="-3.78054">
        <ele>260.152</ele>
        <time>2019-09-08T12:31:29 0200</time>
      </trkpt>
      <trkpt lat="48.3775" lon="-3.78052">
        <ele>260.635</ele>
        <time>2019-09-08T12:31:34 0200</time>
      </trkpt>
      <trkpt lat="48.3776" lon="-3.78052">
        <ele>260.821</ele>
        <time>2019-09-08T12:31:39 0200</time>
      </trkpt>
      <trkpt lat="48.3777" lon="-3.78053">
        <ele>261.213</ele>
        <time>2019-09-08T12:31:44 0200</time>
      </trkpt>
      <trkpt lat="48.3778" lon="-3.78053">
        <ele>261.917</ele>
        <time>2019-09-08T12:31:49 0200</time>
      </trkpt>
      <trkpt lat="48.3779" lon="-3.78051">
        <ele>262.662</ele>
        <time>2019-09-08T12:31:54 0200</time>
      </trkpt>
      <trkpt lat="48.378" lon="-3.78052">
        <ele>263.603</ele>
        <time>2019-09-08T12:31:59 0200</time>
      </trkpt>
      <trkpt lat="48.3781" lon="-3.7805">
        <ele>264.309</ele>
        <time>2019-09-08T12:32:04 0200</time>
      </trkpt>
      <trkpt lat="48.3782" lon="-3.78049">
        <ele>265.537</ele>
        <time>2019-09-08T12:32:09 0200</time>
      </trkpt>
      <trkpt lat="48.3783" lon="-3.78048">
        <ele>265.946</ele>
        <time>2019-09-08T12:32:14 0200</time>
      </trkpt>
      <trkpt lat="48.3785" lon="-3.78048">
        <ele>266.252</ele>
        <time>2019-09-08T12:32:19 0200</time>
      </trkpt>
      <trkpt lat="48.3785" lon="-3.78047">
        <ele>266.472</ele>
        <time>2019-09-08T12:32:24 0200</time>
      </trkpt>
      <trkpt lat="48.3786" lon="-3.78045">
        <ele>267.332</ele>
        <time>2019-09-08T12:32:29 0200</time>
      </trkpt>
      <trkpt lat="48.3787" lon="-3.78043">
        <ele>268.005</ele>
        <time>2019-09-08T12:32:34 0200</time>
      </trkpt>
      <trkpt lat="48.3789" lon="-3.78037">
        <ele>268.545</ele>
        <time>2019-09-08T12:32:39 0200</time>
      </trkpt>
      <trkpt lat="48.3789" lon="-3.78026">
        <ele>269.475</ele>
        <time>2019-09-08T12:32:44 0200</time>
      </trkpt>
      <trkpt lat="48.379" lon="-3.78013">
        <ele>270.008</ele>
        <time>2019-09-08T12:32:49 0200</time>
      </trkpt>
      <trkpt lat="48.3791" lon="-3.78">
        <ele>270.45</ele>
        <time>2019-09-08T12:32:54 0200</time>
      </trkpt>
      <trkpt lat="48.3792" lon="-3.77978">
        <ele>271.103</ele>
        <time>2019-09-08T12:32:59 0200</time>
      </trkpt>
      <trkpt lat="48.3792" lon="-3.77961">
        <ele>271.401</ele>
        <time>2019-09-08T12:33:04 0200</time>
      </trkpt>
      <trkpt lat="48.3793" lon="-3.77933">
        <ele>274.277</ele>
        <time>2019-09-08T12:33:09 0200</time>
      </trkpt>
      <trkpt lat="48.3794" lon="-3.77915">
        <ele>274.534</ele>
        <time>2019-09-08T12:33:14 0200</time>
      </trkpt>
      <trkpt lat="48.3795" lon="-3.77887">
        <ele>275.42</ele>
        <time>2019-09-08T12:33:19 0200</time>
      </trkpt>
      <trkpt lat="48.3796" lon="-3.77859">
        <ele>278.404</ele>
        <time>2019-09-08T12:33:24 0200</time>
      </trkpt>
      <trkpt lat="48.3797" lon="-3.77836">
        <ele>280.757</ele>
        <time>2019-09-08T12:33:29 0200</time>
      </trkpt>
      <trkpt lat="48.3799" lon="-3.77806">
        <ele>277.35</ele>
        <time>2019-09-08T12:33:35 0200</time>
      </trkpt>
      <trkpt lat="48.3801" lon="-3.77785">
        <ele>278.139</ele>
        <time>2019-09-08T12:33:40 0200</time>
      </trkpt>
      <trkpt lat="48.3801" lon="-3.77759">
        <ele>278.049</ele>
        <time>2019-09-08T12:33:45 0200</time>
      </trkpt>
      <trkpt lat="48.38" lon="-3.77712">
        <ele>277.585</ele>
        <time>2019-09-08T12:33:50 0200</time>
      </trkpt>
      <trkpt lat="48.3801" lon="-3.77675">
        <ele>278.089</ele>
        <time>2019-09-08T12:33:55 0200</time>
      </trkpt>
      <trkpt lat="48.3802" lon="-3.77642">
        <ele>278.306</ele>
        <time>2019-09-08T12:34:00 0200</time>
      </trkpt>
      <trkpt lat="48.3803" lon="-3.77617">
        <ele>276.905</ele>
        <time>2019-09-08T12:34:05 0200</time>
      </trkpt>
      <trkpt lat="48.3804" lon="-3.77586">
        <ele>276.705</ele>
        <time>2019-09-08T12:34:10 0200</time>
      </trkpt>
      <trkpt lat="48.3805" lon="-3.77561">
        <ele>276.651</ele>
        <time>2019-09-08T12:34:15 0200</time>
      </trkpt>
      <trkpt lat="48.3806" lon="-3.77544">
        <ele>277.246</ele>
        <time>2019-09-08T12:34:20 0200</time>
      </trkpt>
      <trkpt lat="48.3807" lon="-3.77516">
        <ele>278.002</ele>
        <time>2019-09-08T12:34:25 0200</time>
      </trkpt>
      <trkpt lat="48.3807" lon="-3.77502">
        <ele>278.61</ele>
        <time>2019-09-08T12:34:30 0200</time>
      </trkpt>
      <trkpt lat="48.3808" lon="-3.77487">
        <ele>279.214</ele>
        <time>2019-09-08T12:34:35 0200</time>
      </trkpt>
      <trkpt lat="48.3809" lon="-3.7747">
        <ele>280.072</ele>
        <time>2019-09-08T12:34:40 0200</time>
      </trkpt>
      <trkpt lat="48.381" lon="-3.77447">
        <ele>281.107</ele>
        <time>2019-09-08T12:34:45 0200</time>
      </trkpt>
      <trkpt lat="48.381" lon="-3.77429">
        <ele>281.637</ele>
        <time>2019-09-08T12:34:50 0200</time>
      </trkpt>
      <trkpt lat="48.3811" lon="-3.77402">
        <ele>282.623</ele>
        <time>2019-09-08T12:34:55 0200</time>
      </trkpt>
      <trkpt lat="48.3812" lon="-3.77388">
        <ele>284.522</ele>
        <time>2019-09-08T12:35:00 0200</time>
      </trkpt>
      <trkpt lat="48.3814" lon="-3.77369">
        <ele>285.302</ele>
        <time>2019-09-08T12:35:05 0200</time>
      </trkpt>
      <trkpt lat="48.3815" lon="-3.77348">
        <ele>286.587</ele>
        <time>2019-09-08T12:35:10 0200</time>
      </trkpt>
      <trkpt lat="48.3816" lon="-3.77329">
        <ele>287.256</ele>
        <time>2019-09-08T12:35:15 0200</time>
      </trkpt>
      <trkpt lat="48.3818" lon="-3.77319">
        <ele>287.6</ele>
        <time>2019-09-08T12:35:20 0200</time>
      </trkpt>
      <trkpt lat="48.382" lon="-3.77296">
        <ele>288.801</ele>
        <time>2019-09-08T12:35:25 0200</time>
      </trkpt>
      <trkpt lat="48.3822" lon="-3.77275">
        <ele>289.124</ele>
        <time>2019-09-08T12:35:30 0200</time>
      </trkpt>
      <trkpt lat="48.382" lon="-3.77253">
        <ele>288.949</ele>
        <time>2019-09-08T12:35:35 0200</time>
      </trkpt>
      <trkpt lat="48.3817" lon="-3.77216">
        <ele>285.934</ele>
        <time>2019-09-08T12:35:40 0200</time>
      </trkpt>
      <trkpt lat="48.3814" lon="-3.77169">
        <ele>281.456</ele>
        <time>2019-09-08T12:35:45 0200</time>
      </trkpt>
      <trkpt lat="48.3813" lon="-3.77114">
        <ele>278.111</ele>
        <time>2019-09-08T12:35:51 0200</time>
      </trkpt>
      <trkpt lat="48.3811" lon="-3.77064">
        <ele>276.982</ele>
        <time>2019-09-08T12:35:56 0200</time>
      </trkpt>
      <trkpt lat="48.3809" lon="-3.77024">
        <ele>275.664</ele>
        <time>2019-09-08T12:36:01 0200</time>
      </trkpt>
      <trkpt lat="48.3808" lon="-3.76987">
        <ele>274.718</ele>
        <time>2019-09-08T12:36:06 0200</time>
      </trkpt>
      <trkpt lat="48.3806" lon="-3.76952">
        <ele>273.6</ele>
        <time>2019-09-08T12:36:11 0200</time>
      </trkpt>
      <trkpt lat="48.3804" lon="-3.76918">
        <ele>274.156</ele>
        <time>2019-09-08T12:36:16 0200</time>
      </trkpt>
      <trkpt lat="48.3802" lon="-3.76879">
        <ele>271.909</ele>
        <time>2019-09-08T12:36:21 0200</time>
      </trkpt>
      <trkpt lat="48.3801" lon="-3.76836">
        <ele>269.801</ele>
        <time>2019-09-08T12:36:26 0200</time>
      </trkpt>
      <trkpt lat="48.38" lon="-3.76788">
        <ele>268.559</ele>
        <time>2019-09-08T12:36:31 0200</time>
      </trkpt>
      <trkpt lat="48.3798" lon="-3.76744">
        <ele>268.959</ele>
        <time>2019-09-08T12:36:36 0200</time>
      </trkpt>
      <trkpt lat="48.3796" lon="-3.76702">
        <ele>269.13</ele>
        <time>2019-09-08T12:36:41 0200</time>
      </trkpt>
      <trkpt lat="48.3796" lon="-3.76677">
        <ele>269.629</ele>
        <time>2019-09-08T12:36:46 0200</time>
      </trkpt>
      <trkpt lat="48.3795" lon="-3.76629">
        <ele>269.154</ele>
        <time>2019-09-08T12:36:51 0200</time>
      </trkpt>
      <trkpt lat="48.3795" lon="-3.76577">
        <ele>262.538</ele>
        <time>2019-09-08T12:36:56 0200</time>
      </trkpt>
      <trkpt lat="48.3794" lon="-3.76528">
        <ele>257.849</ele>
        <time>2019-09-08T12:37:01 0200</time>
      </trkpt>
      <trkpt lat="48.3793" lon="-3.76485">
        <ele>256.907</ele>
        <time>2019-09-08T12:37:06 0200</time>
      </trkpt>
      <trkpt lat="48.3791" lon="-3.76449">
        <ele>254.618</ele>
        <time>2019-09-08T12:37:11 0200</time>
      </trkpt>
      <trkpt lat="48.379" lon="-3.76417">
        <ele>254.746</ele>
        <time>2019-09-08T12:37:16 0200</time>
      </trkpt>
      <trkpt lat="48.3791" lon="-3.76357">
        <ele>255.921</ele>
        <time>2019-09-08T12:37:21 0200</time>
      </trkpt>
      <trkpt lat="48.3791" lon="-3.7634">
        <ele>255.921</ele>
        <time>2019-09-08T12:37:26 0200</time>
      </trkpt>
      <trkpt lat="48.3791" lon="-3.76335">
        <ele>255.608</ele>
        <time>2019-09-08T12:37:31 0200</time>
      </trkpt>
      <trkpt lat="48.3789" lon="-3.76316">
        <ele>255.342</ele>
        <time>2019-09-08T12:37:36 0200</time>
      </trkpt>
      <trkpt lat="48.3788" lon="-3.76302">
        <ele>255.405</ele>
        <time>2019-09-08T12:37:41 0200</time>
      </trkpt>
      <trkpt lat="48.3787" lon="-3.76282">
        <ele>255.493</ele>
        <time>2019-09-08T12:37:46 0200</time>
      </trkpt>
      <trkpt lat="48.3787" lon="-3.76282">
        <ele>255.493</ele>
        <time>2019-09-08T12:37:51 0200</time>
      </trkpt>
      <trkpt lat="48.3786" lon="-3.76265">
        <ele>255.362</ele>
        <time>2019-09-08T12:37:57 0200</time>
      </trkpt>
      <trkpt lat="48.3786" lon="-3.76265">
        <ele>255.362</ele>
        <time>2019-09-08T12:38:02 0200</time>
      </trkpt>
      <trkpt lat="48.3785" lon="-3.76254">
        <ele>256.332</ele>
        <time>2019-09-08T12:38:07 0200</time>
      </trkpt>
      <trkpt lat="48.3785" lon="-3.76246">
        <ele>256.909</ele>
        <time>2019-09-08T12:38:12 0200</time>
      </trkpt>
      <trkpt lat="48.3785" lon="-3.76246">
        <ele>256.909</ele>
        <time>2019-09-08T12:38:17 0200</time>
      </trkpt>
      <trkpt lat="48.3784" lon="-3.7623">
        <ele>257.813</ele>
        <time>2019-09-08T12:38:22 0200</time>
      </trkpt>
      <trkpt lat="48.3784" lon="-3.76223">
        <ele>258.246</ele>
        <time>2019-09-08T12:38:27 0200</time>
      </trkpt>
      <trkpt lat="48.3783" lon="-3.76209">
        <ele>259.74</ele>
        <time>2019-09-08T12:38:32 0200</time>
      </trkpt>
      <trkpt lat="48.3783" lon="-3.76209">
        <ele>259.74</ele>
        <time>2019-09-08T12:38:37 0200</time>
      </trkpt>
      <trkpt lat="48.3783" lon="-3.76209">
        <ele>259.74</ele>
        <time>2019-09-08T12:38:42 0200</time>
      </trkpt>
      <trkpt lat="48.3782" lon="-3.76198">
        <ele>261.354</ele>
        <time>2019-09-08T12:38:47 0200</time>
      </trkpt>
      <trkpt lat="48.3782" lon="-3.76193">
        <ele>261.968</ele>
        <time>2019-09-08T12:38:52 0200</time>
      </trkpt>
      <trkpt lat="48.3782" lon="-3.76193">
        <ele>261.968</ele>
        <time>2019-09-08T12:38:57 0200</time>
      </trkpt>
      <trkpt lat="48.3782" lon="-3.76193">
        <ele>261.968</ele>
        <time>2019-09-08T12:39:02 0200</time>
      </trkpt>
      <trkpt lat="48.3782" lon="-3.76193">
        <ele>261.968</ele>
        <time>2019-09-08T12:39:07 0200</time>
      </trkpt>
      <trkpt lat="48.3782" lon="-3.76193">
        <ele>261.968</ele>
        <time>2019-09-08T12:39:12 0200</time>
      </trkpt>
      <trkpt lat="48.3782" lon="-3.76193">
        <ele>261.968</ele>
        <time>2019-09-08T12:39:17 0200</time>
      </trkpt>
      <trkpt lat="48.378" lon="-3.76172">
        <ele>263.745</ele>
        <time>2019-09-08T12:39:22 0200</time>
      </trkpt>
      <trkpt lat="48.378" lon="-3.76168">
        <ele>264.189</ele>
        <time>2019-09-08T12:39:27 0200</time>
      </trkpt>
      <trkpt lat="48.3779" lon="-3.7616">
        <ele>264.669</ele>
        <time>2019-09-08T12:39:32 0200</time>
      </trkpt>
      <trkpt lat="48.3778" lon="-3.76148">
        <ele>265.258</ele>
        <time>2019-09-08T12:39:37 0200</time>
      </trkpt>
      <trkpt lat="48.3777" lon="-3.76128">
        <ele>265.517</ele>
        <time>2019-09-08T12:39:42 0200</time>
      </trkpt>
      <trkpt lat="48.3776" lon="-3.76117">
        <ele>265.624</ele>
        <time>2019-09-08T12:39:47 0200</time>
      </trkpt>
      <trkpt lat="48.3774" lon="-3.76091">
        <ele>265.728</ele>
        <time>2019-09-08T12:39:52 0200</time>
      </trkpt>
      <trkpt lat="48.3775" lon="-3.76071">
        <ele>265.616</ele>
        <time>2019-09-08T12:39:58 0200</time>
      </trkpt>
      <trkpt lat="48.3776" lon="-3.76053">
        <ele>265.62</ele>
        <time>2019-09-08T12:40:03 0200</time>
      </trkpt>
      <trkpt lat="48.3776" lon="-3.76033">
        <ele>265.807</ele>
        <time>2019-09-08T12:40:08 0200</time>
      </trkpt>
      <trkpt lat="48.3777" lon="-3.76017">
        <ele>266.085</ele>
        <time>2019-09-08T12:40:13 0200</time>
      </trkpt>
      <trkpt lat="48.3777" lon="-3.76001">
        <ele>266.535</ele>
        <time>2019-09-08T12:40:18 0200</time>
      </trkpt>
      <trkpt lat="48.3778" lon="-3.75979">
        <ele>266.841</ele>
        <time>2019-09-08T12:40:23 0200</time>
      </trkpt>
      <trkpt lat="48.3778" lon="-3.75966">
        <ele>267.034</ele>
        <time>2019-09-08T12:40:28 0200</time>
      </trkpt>
      <trkpt lat="48.3779" lon="-3.75949">
        <ele>267.039</ele>
        <time>2019-09-08T12:40:33 0200</time>
      </trkpt>
      <trkpt lat="48.378" lon="-3.75927">
        <ele>267.019</ele>
        <time>2019-09-08T12:40:38 0200</time>
      </trkpt>
      <trkpt lat="48.378" lon="-3.75914">
        <ele>267.074</ele>
        <time>2019-09-08T12:40:43 0200</time>
      </trkpt>
      <trkpt lat="48.3781" lon="-3.7589">
        <ele>267.617</ele>
        <time>2019-09-08T12:40:48 0200</time>
      </trkpt>
      <trkpt lat="48.3781" lon="-3.75877">
        <ele>268.087</ele>
        <time>2019-09-08T12:40:53 0200</time>
      </trkpt>
      <trkpt lat="48.3782" lon="-3.75863">
        <ele>268.277</ele>
        <time>2019-09-08T12:40:58 0200</time>
      </trkpt>
      <trkpt lat="48.3783" lon="-3.75842">
        <ele>268.818</ele>
        <time>2019-09-08T12:41:03 0200</time>
      </trkpt>
      <trkpt lat="48.3783" lon="-3.75829">
        <ele>268.828</ele>
        <time>2019-09-08T12:41:08 0200</time>
      </trkpt>
      <trkpt lat="48.3784" lon="-3.75814">
        <ele>269.049</ele>
        <time>2019-09-08T12:41:13 0200</time>
      </trkpt>
      <trkpt lat="48.3785" lon="-3.7579">
        <ele>269.136</ele>
        <time>2019-09-08T12:41:18 0200</time>
      </trkpt>
      <trkpt lat="48.3785" lon="-3.75775">
        <ele>269.398</ele>
        <time>2019-09-08T12:41:23 0200</time>
      </trkpt>
      <trkpt lat="48.3786" lon="-3.75759">
        <ele>269.746</ele>
        <time>2019-09-08T12:41:28 0200</time>
      </trkpt>
      <trkpt lat="48.3786" lon="-3.75744">
        <ele>270.081</ele>
        <time>2019-09-08T12:41:33 0200</time>
      </trkpt>
      <trkpt lat="48.3787" lon="-3.75723">
        <ele>270.552</ele>
        <time>2019-09-08T12:41:38 0200</time>
      </trkpt>
      <trkpt lat="48.3787" lon="-3.75707">
        <ele>270.853</ele>
        <time>2019-09-08T12:41:43 0200</time>
      </trkpt>
      <trkpt lat="48.3788" lon="-3.75683">
        <ele>271.489</ele>
        <time>2019-09-08T12:41:48 0200</time>
      </trkpt>
      <trkpt lat="48.3788" lon="-3.75666">
        <ele>271.787</ele>
        <time>2019-09-08T12:41:54 0200</time>
      </trkpt>
      <trkpt lat="48.3788" lon="-3.75638">
        <ele>272.013</ele>
        <time>2019-09-08T12:41:59 0200</time>
      </trkpt>
      <trkpt lat="48.3788" lon="-3.7562">
        <ele>272.24</ele>
        <time>2019-09-08T12:42:04 0200</time>
      </trkpt>
      <trkpt lat="48.3788" lon="-3.75593">
        <ele>272.435</ele>
        <time>2019-09-08T12:42:09 0200</time>
      </trkpt>
      <trkpt lat="48.3788" lon="-3.75568">
        <ele>272.692</ele>
        <time>2019-09-08T12:42:14 0200</time>
      </trkpt>
      <trkpt lat="48.3788" lon="-3.75552">
        <ele>272.858</ele>
        <time>2019-09-08T12:42:19 0200</time>
      </trkpt>
      <trkpt lat="48.3788" lon="-3.75529">
        <ele>273.032</ele>
        <time>2019-09-08T12:42:24 0200</time>
      </trkpt>
      <trkpt lat="48.3787" lon="-3.75533">
        <ele>273.461</ele>
        <time>2019-09-08T12:42:29 0200</time>
      </trkpt>
      <trkpt lat="48.3785" lon="-3.75543">
        <ele>275.137</ele>
        <time>2019-09-08T12:42:34 0200</time>
      </trkpt>
      <trkpt lat="48.3783" lon="-3.75542">
        <ele>276.639</ele>
        <time>2019-09-08T12:42:39 0200</time>
      </trkpt>
      <trkpt lat="48.3781" lon="-3.75537">
        <ele>277.197</ele>
        <time>2019-09-08T12:42:44 0200</time>
      </trkpt>
      <trkpt lat="48.3778" lon="-3.75537">
        <ele>276.34</ele>
        <time>2019-09-08T12:42:49 0200</time>
      </trkpt>
      <trkpt lat="48.3776" lon="-3.75533">
        <ele>278.144</ele>
        <time>2019-09-08T12:42:54 0200</time>
      </trkpt>
      <trkpt lat="48.3774" lon="-3.7553">
        <ele>276.971</ele>
        <time>2019-09-08T12:42:59 0200</time>
      </trkpt>
      <trkpt lat="48.3771" lon="-3.75517">
        <ele>276.85</ele>
        <time>2019-09-08T12:43:04 0200</time>
      </trkpt>
      <trkpt lat="48.3768" lon="-3.75497">
        <ele>275.846</ele>
        <time>2019-09-08T12:43:09 0200</time>
      </trkpt>
      <trkpt lat="48.3765" lon="-3.75471">
        <ele>276.534</ele>
        <time>2019-09-08T12:43:14 0200</time>
      </trkpt>
      <trkpt lat="48.3763" lon="-3.75456">
        <ele>274.389</ele>
        <time>2019-09-08T12:43:19 0200</time>
      </trkpt>
      <trkpt lat="48.3761" lon="-3.7544">
        <ele>274.303</ele>
        <time>2019-09-08T12:43:24 0200</time>
      </trkpt>
      <trkpt lat="48.3758" lon="-3.75415">
        <ele>273.196</ele>
        <time>2019-09-08T12:43:30 0200</time>
      </trkpt>
      <trkpt lat="48.3756" lon="-3.75408">
        <ele>271.727</ele>
        <time>2019-09-08T12:43:35 0200</time>
      </trkpt>
      <trkpt lat="48.3754" lon="-3.75411">
        <ele>270.008</ele>
        <time>2019-09-08T12:43:40 0200</time>
      </trkpt>
      <trkpt lat="48.375" lon="-3.75407">
        <ele>262.236</ele>
        <time>2019-09-08T12:43:45 0200</time>
      </trkpt>
      <trkpt lat="48.3748" lon="-3.75422">
        <ele>260.8</ele>
        <time>2019-09-08T12:43:50 0200</time>
      </trkpt>
      <trkpt lat="48.3745" lon="-3.75414">
        <ele>259.036</ele>
        <time>2019-09-08T12:43:55 0200</time>
      </trkpt>
      <trkpt lat="48.3741" lon="-3.75401">
        <ele>259.298</ele>
        <time>2019-09-08T12:44:00 0200</time>
      </trkpt>
      <trkpt lat="48.3737" lon="-3.75379">
        <ele>254.918</ele>
        <time>2019-09-08T12:44:05 0200</time>
      </trkpt>
      <trkpt lat="48.3732" lon="-3.75355">
        <ele>253.549</ele>
        <time>2019-09-08T12:44:10 0200</time>
      </trkpt>
      <trkpt lat="48.3728" lon="-3.75337">
        <ele>250.926</ele>
        <time>2019-09-08T12:44:15 0200</time>
      </trkpt>
      <trkpt lat="48.3724" lon="-3.75322">
        <ele>248.883</ele>
        <time>2019-09-08T12:44:20 0200</time>
      </trkpt>
      <trkpt lat="48.3721" lon="-3.75327">
        <ele>250.577</ele>
        <time>2019-09-08T12:44:25 0200</time>
      </trkpt>
      <trkpt lat="48.3717" lon="-3.75329">
        <ele>249.07</ele>
        <time>2019-09-08T12:44:30 0200</time>
      </trkpt>
      <trkpt lat="48.3714" lon="-3.75328">
        <ele>251.251</ele>
        <time>2019-09-08T12:44:35 0200</time>
      </trkpt>
      <trkpt lat="48.3713" lon="-3.75324">
        <ele>250.788</ele>
        <time>2019-09-08T12:44:40 0200</time>
      </trkpt>
      <trkpt lat="48.3711" lon="-3.75317">
        <ele>249.639</ele>
        <time>2019-09-08T12:44:45 0200</time>
      </trkpt>
      <trkpt lat="48.3708" lon="-3.75306">
        <ele>252.14</ele>
        <time>2019-09-08T12:44:50 0200</time>
      </trkpt>
      <trkpt lat="48.3706" lon="-3.75299">
        <ele>252.428</ele>
        <time>2019-09-08T12:44:55 0200</time>
      </trkpt>
      <trkpt lat="48.3704" lon="-3.75289">
        <ele>252.472</ele>
        <time>2019-09-08T12:45:00 0200</time>
      </trkpt>
      <trkpt lat="48.3702" lon="-3.75273">
        <ele>252.567</ele>
        <time>2019-09-08T12:45:05 0200</time>
      </trkpt>
      <trkpt lat="48.3699" lon="-3.75259">
        <ele>256.634</ele>
        <time>2019-09-08T12:45:10 0200</time>
      </trkpt>
      <trkpt lat="48.3698" lon="-3.75247">
        <ele>258.754</ele>
        <time>2019-09-08T12:45:15 0200</time>
      </trkpt>
      <trkpt lat="48.3696" lon="-3.7524">
        <ele>258.934</ele>
        <time>2019-09-08T12:45:20 0200</time>
      </trkpt>
      <trkpt lat="48.3694" lon="-3.7523">
        <ele>260.368</ele>
        <time>2019-09-08T12:45:25 0200</time>
      </trkpt>
      <trkpt lat="48.3691" lon="-3.75218">
        <ele>260.751</ele>
        <time>2019-09-08T12:45:30 0200</time>
      </trkpt>
      <trkpt lat="48.3689" lon="-3.75215">
        <ele>262.104</ele>
        <time>2019-09-08T12:45:35 0200</time>
      </trkpt>
      <trkpt lat="48.3687" lon="-3.75217">
        <ele>259.33</ele>
        <time>2019-09-08T12:45:40 0200</time>
      </trkpt>
      <trkpt lat="48.3685" lon="-3.75253">
        <ele>253.842</ele>
        <time>2019-09-08T12:45:45 0200</time>
      </trkpt>
      <trkpt lat="48.3684" lon="-3.7529">
        <ele>250.59</ele>
        <time>2019-09-08T12:45:51 0200</time>
      </trkpt>
      <trkpt lat="48.3681" lon="-3.75304">
        <ele>244.745</ele>
        <time>2019-09-08T12:45:56 0200</time>
      </trkpt>
      <trkpt lat="48.3678" lon="-3.75278">
        <ele>237.266</ele>
        <time>2019-09-08T12:46:01 0200</time>
      </trkpt>
      <trkpt lat="48.3675" lon="-3.75259">
        <ele>233.388</ele>
        <time>2019-09-08T12:46:06 0200</time>
      </trkpt>
      <trkpt lat="48.3672" lon="-3.75242">
        <ele>233.119</ele>
        <time>2019-09-08T12:46:11 0200</time>
      </trkpt>
      <trkpt lat="48.3671" lon="-3.75255">
        <ele>232.464</ele>
        <time>2019-09-08T12:46:16 0200</time>
      </trkpt>
      <trkpt lat="48.3671" lon="-3.75277">
        <ele>228.89</ele>
        <time>2019-09-08T12:46:21 0200</time>
      </trkpt>
      <trkpt lat="48.3672" lon="-3.75314">
        <ele>228.971</ele>
        <time>2019-09-08T12:46:26 0200</time>
      </trkpt>
      <trkpt lat="48.3672" lon="-3.75345">
        <ele>231.351</ele>
        <time>2019-09-08T12:46:31 0200</time>
      </trkpt>
      <trkpt lat="48.3673" lon="-3.7538">
        <ele>232.7</ele>
        <time>2019-09-08T12:46:36 0200</time>
      </trkpt>
      <trkpt lat="48.3673" lon="-3.75406">
        <ele>232.924</ele>
        <time>2019-09-08T12:46:41 0200</time>
      </trkpt>
      <trkpt lat="48.3674" lon="-3.75445">
        <ele>233.766</ele>
        <time>2019-09-08T12:46:46 0200</time>
      </trkpt>
      <trkpt lat="48.3674" lon="-3.75484">
        <ele>232.429</ele>
        <time>2019-09-08T12:46:51 0200</time>
      </trkpt>
      <trkpt lat="48.3674" lon="-3.75523">
        <ele>232.209</ele>
        <time>2019-09-08T12:46:56 0200</time>
      </trkpt>
      <trkpt lat="48.3673" lon="-3.75562">
        <ele>233.751</ele>
        <time>2019-09-08T12:47:01 0200</time>
      </trkpt>
      <trkpt lat="48.3673" lon="-3.756">
        <ele>230.039</ele>
        <time>2019-09-08T12:47:06 0200</time>
      </trkpt>
      <trkpt lat="48.3674" lon="-3.75651">
        <ele>229.538</ele>
        <time>2019-09-08T12:47:11 0200</time>
      </trkpt>
      <trkpt lat="48.3674" lon="-3.75709">
        <ele>229.212</ele>
        <time>2019-09-08T12:47:17 0200</time>
      </trkpt>
      <trkpt lat="48.3672" lon="-3.75738">
        <ele>227.667</ele>
        <time>2019-09-08T12:47:22 0200</time>
      </trkpt>
      <trkpt lat="48.3668" lon="-3.7574">
        <ele>225.971</ele>
        <time>2019-09-08T12:47:27 0200</time>
      </trkpt>
      <trkpt lat="48.3666" lon="-3.75728">
        <ele>224.153</ele>
        <time>2019-09-08T12:47:32 0200</time>
      </trkpt>
      <trkpt lat="48.3663" lon="-3.75716">
        <ele>224.465</ele>
        <time>2019-09-08T12:47:37 0200</time>
      </trkpt>
      <trkpt lat="48.3662" lon="-3.75699">
        <ele>225.081</ele>
        <time>2019-09-08T12:47:41 0200</time>
      </trkpt>
      <trkpt lat="48.366" lon="-3.75664">
        <ele>226.156</ele>
        <time>2019-09-08T12:47:46 0200</time>
      </trkpt>
      <trkpt lat="48.3659" lon="-3.75636">
        <ele>226.344</ele>
        <time>2019-09-08T12:47:52 0200</time>
      </trkpt>
      <trkpt lat="48.3657" lon="-3.75596">
        <ele>224.68</ele>
        <time>2019-09-08T12:47:57 0200</time>
      </trkpt>
      <trkpt lat="48.3656" lon="-3.75555">
        <ele>224.726</ele>
        <time>2019-09-08T12:48:02 0200</time>
      </trkpt>
      <trkpt lat="48.3655" lon="-3.75523">
        <ele>223.191</ele>
        <time>2019-09-08T12:48:07 0200</time>
      </trkpt>
      <trkpt lat="48.3654" lon="-3.75482">
        <ele>223.392</ele>
        <time>2019-09-08T12:48:12 0200</time>
      </trkpt>
      <trkpt lat="48.3653" lon="-3.75446">
        <ele>221.684</ele>
        <time>2019-09-08T12:48:17 0200</time>
      </trkpt>
      <trkpt lat="48.3652" lon="-3.75411">
        <ele>222.654</ele>
        <time>2019-09-08T12:48:22 0200</time>
      </trkpt>
      <trkpt lat="48.3651" lon="-3.75376">
        <ele>223.203</ele>
        <time>2019-09-08T12:48:27 0200</time>
      </trkpt>
      <trkpt lat="48.365" lon="-3.75344">
        <ele>221.146</ele>
        <time>2019-09-08T12:48:32 0200</time>
      </trkpt>
      <trkpt lat="48.365" lon="-3.75296">
        <ele>219.966</ele>
        <time>2019-09-08T12:48:37 0200</time>
      </trkpt>
      <trkpt lat="48.3649" lon="-3.75257">
        <ele>219.492</ele>
        <time>2019-09-08T12:48:42 0200</time>
      </trkpt>
      <trkpt lat="48.3649" lon="-3.75224">
        <ele>220.492</ele>
        <time>2019-09-08T12:48:48 0200</time>
      </trkpt>
      <trkpt lat="48.3648" lon="-3.75201">
        <ele>221.143</ele>
        <time>2019-09-08T12:48:53 0200</time>
      </trkpt>
      <trkpt lat="48.3646" lon="-3.75165">
        <ele>222.801</ele>
        <time>2019-09-08T12:48:59 0200</time>
      </trkpt>
      <trkpt lat="48.3645" lon="-3.75152">
        <ele>222.78</ele>
        <time>2019-09-08T12:49:04 0200</time>
      </trkpt>
      <trkpt lat="48.3644" lon="-3.75177">
        <ele>221.381</ele>
        <time>2019-09-08T12:49:09 0200</time>
      </trkpt>
      <trkpt lat="48.3644" lon="-3.75213">
        <ele>219.706</ele>
        <time>2019-09-08T12:49:14 0200</time>
      </trkpt>
      <trkpt lat="48.3644" lon="-3.75243">
        <ele>217.153</ele>
        <time>2019-09-08T12:49:19 0200</time>
      </trkpt>
      <trkpt lat="48.3644" lon="-3.75282">
        <ele>217.009</ele>
        <time>2019-09-08T12:49:24 0200</time>
      </trkpt>
      <trkpt lat="48.3644" lon="-3.75322">
        <ele>218.049</ele>
        <time>2019-09-08T12:49:29 0200</time>
      </trkpt>
      <trkpt lat="48.3643" lon="-3.75353">
        <ele>219.529</ele>
        <time>2019-09-08T12:49:34 0200</time>
      </trkpt>
      <trkpt lat="48.3642" lon="-3.75384">
        <ele>220.722</ele>
        <time>2019-09-08T12:49:39 0200</time>
      </trkpt>
      <trkpt lat="48.3641" lon="-3.75412">
        <ele>220.629</ele>
        <time>2019-09-08T12:49:44 0200</time>
      </trkpt>
      <trkpt lat="48.364" lon="-3.75432">
        <ele>221.813</ele>
        <time>2019-09-08T12:49:49 0200</time>
      </trkpt>
      <trkpt lat="48.3638" lon="-3.75448">
        <ele>222.159</ele>
        <time>2019-09-08T12:49:54 0200</time>
      </trkpt>
      <trkpt lat="48.3636" lon="-3.75456">
        <ele>222.167</ele>
        <time>2019-09-08T12:49:59 0200</time>
      </trkpt>
      <trkpt lat="48.3634" lon="-3.75468">
        <ele>222.668</ele>
        <time>2019-09-08T12:50:04 0200</time>
      </trkpt>
      <trkpt lat="48.3632" lon="-3.75489">
        <ele>222.393</ele>
        <time>2019-09-08T12:50:10 0200</time>
      </trkpt>
      <trkpt lat="48.363" lon="-3.7551">
        <ele>221.501</ele>
        <time>2019-09-08T12:50:15 0200</time>
      </trkpt>
      <trkpt lat="48.3629" lon="-3.75523">
        <ele>221.779</ele>
        <time>2019-09-08T12:50:20 0200</time>
      </trkpt>
      <trkpt lat="48.3627" lon="-3.75522">
        <ele>221.81</ele>
        <time>2019-09-08T12:50:25 0200</time>
      </trkpt>
      <trkpt lat="48.3626" lon="-3.75525">
        <ele>222.05</ele>
        <time>2019-09-08T12:50:30 0200</time>
      </trkpt>
      <trkpt lat="48.3624" lon="-3.75524">
        <ele>222.746</ele>
        <time>2019-09-08T12:50:35 0200</time>
      </trkpt>
      <trkpt lat="48.3622" lon="-3.75522">
        <ele>222.931</ele>
        <time>2019-09-08T12:50:40 0200</time>
      </trkpt>
      <trkpt lat="48.362" lon="-3.7551">
        <ele>224.074</ele>
        <time>2019-09-08T12:50:45 0200</time>
      </trkpt>
      <trkpt lat="48.3618" lon="-3.75513">
        <ele>221.712</ele>
        <time>2019-09-08T12:50:51 0200</time>
      </trkpt>
      <trkpt lat="48.3616" lon="-3.75517">
        <ele>222.49</ele>
        <time>2019-09-08T12:50:56 0200</time>
      </trkpt>
      <trkpt lat="48.3614" lon="-3.75528">
        <ele>219.459</ele>
        <time>2019-09-08T12:51:01 0200</time>
      </trkpt>
      <trkpt lat="48.3613" lon="-3.75549">
        <ele>219.076</ele>
        <time>2019-09-08T12:51:06 0200</time>
      </trkpt>
      <trkpt lat="48.3612" lon="-3.7558">
        <ele>217.908</ele>
        <time>2019-09-08T12:51:11 0200</time>
      </trkpt>
      <trkpt lat="48.3612" lon="-3.75599">
        <ele>218.253</ele>
        <time>2019-09-08T12:51:16 0200</time>
      </trkpt>
      <trkpt lat="48.3611" lon="-3.75604">
        <ele>219.017</ele>
        <time>2019-09-08T12:51:21 0200</time>
      </trkpt>
      <trkpt lat="48.361" lon="-3.75594">
        <ele>219.513</ele>
        <time>2019-09-08T12:51:26 0200</time>
      </trkpt>
      <trkpt lat="48.361" lon="-3.75562">
        <ele>219.945</ele>
        <time>2019-09-08T12:51:30 0200</time>
      </trkpt>
      <trkpt lat="48.3611" lon="-3.75541">
        <ele>218.907</ele>
        <time>2019-09-08T12:51:35 0200</time>
      </trkpt>
      <trkpt lat="48.3611" lon="-3.75513">
        <ele>219.678</ele>
        <time>2019-09-08T12:51:40 0200</time>
      </trkpt>
      <trkpt lat="48.3613" lon="-3.75488">
        <ele>220.497</ele>
        <time>2019-09-08T12:51:45 0200</time>
      </trkpt>
      <trkpt lat="48.3614" lon="-3.75466">
        <ele>221.901</ele>
        <time>2019-09-08T12:51:50 0200</time>
      </trkpt>
      <trkpt lat="48.3615" lon="-3.75453">
        <ele>222.088</ele>
        <time>2019-09-08T12:51:56 0200</time>
      </trkpt>
      <trkpt lat="48.3616" lon="-3.75435">
        <ele>222.478</ele>
        <time>2019-09-08T12:52:01 0200</time>
      </trkpt>
      <trkpt lat="48.3618" lon="-3.75408">
        <ele>223.868</ele>
        <time>2019-09-08T12:52:06 0200</time>
      </trkpt>
      <trkpt lat="48.3618" lon="-3.75389">
        <ele>226.39</ele>
        <time>2019-09-08T12:52:11 0200</time>
      </trkpt>
      <trkpt lat="48.362" lon="-3.75349">
        <ele>225.962</ele>
        <time>2019-09-08T12:52:16 0200</time>
      </trkpt>
      <trkpt lat="48.3621" lon="-3.75317">
        <ele>224.581</ele>
        <time>2019-09-08T12:52:21 0200</time>
      </trkpt>
      <trkpt lat="48.3621" lon="-3.75288">
        <ele>223.038</ele>
        <time>2019-09-08T12:52:26 0200</time>
      </trkpt>
      <trkpt lat="48.3623" lon="-3.75249">
        <ele>222.616</ele>
        <time>2019-09-08T12:52:31 0200</time>
      </trkpt>
      <trkpt lat="48.3624" lon="-3.75221">
        <ele>225.373</ele>
        <time>2019-09-08T12:52:36 0200</time>
      </trkpt>
      <trkpt lat="48.3625" lon="-3.75191">
        <ele>225.324</ele>
        <time>2019-09-08T12:52:41 0200</time>
      </trkpt>
      <trkpt lat="48.3626" lon="-3.75173">
        <ele>225.472</ele>
        <time>2019-09-08T12:52:46 0200</time>
      </trkpt>
      <trkpt lat="48.3627" lon="-3.75139">
        <ele>224.039</ele>
        <time>2019-09-08T12:52:51 0200</time>
      </trkpt>
      <trkpt lat="48.3628" lon="-3.75113">
        <ele>221.259</ele>
        <time>2019-09-08T12:52:57 0200</time>
      </trkpt>
      <trkpt lat="48.3629" lon="-3.75079">
        <ele>223.322</ele>
        <time>2019-09-08T12:53:02 0200</time>
      </trkpt>
      <trkpt lat="48.363" lon="-3.7506">
        <ele>224.349</ele>
        <time>2019-09-08T12:53:07 0200</time>
      </trkpt>
      <trkpt lat="48.3631" lon="-3.75026">
        <ele>224.095</ele>
        <time>2019-09-08T12:53:12 0200</time>
      </trkpt>
      <trkpt lat="48.3632" lon="-3.74997">
        <ele>222.799</ele>
        <time>2019-09-08T12:53:17 0200</time>
      </trkpt>
      <trkpt lat="48.3633" lon="-3.74976">
        <ele>224.621</ele>
        <time>2019-09-08T12:53:22 0200</time>
      </trkpt>
      <trkpt lat="48.3634" lon="-3.74943">
        <ele>225.321</ele>
        <time>2019-09-08T12:53:27 0200</time>
      </trkpt>
      <trkpt lat="48.3635" lon="-3.74905">
        <ele>224.614</ele>
        <time>2019-09-08T12:53:32 0200</time>
      </trkpt>
      <trkpt lat="48.3635" lon="-3.74874">
        <ele>221.864</ele>
        <time>2019-09-08T12:53:37 0200</time>
      </trkpt>
      <trkpt lat="48.3635" lon="-3.74849">
        <ele>220.655</ele>
        <time>2019-09-08T12:53:42 0200</time>
      </trkpt>
      <trkpt lat="48.3636" lon="-3.7481">
        <ele>221.252</ele>
        <time>2019-09-08T12:53:47 0200</time>
      </trkpt>
      <trkpt lat="48.3635" lon="-3.74775">
        <ele>222.126</ele>
        <time>2019-09-08T12:53:52 0200</time>
      </trkpt>
      <trkpt lat="48.3634" lon="-3.74748">
        <ele>222.595</ele>
        <time>2019-09-08T12:53:57 0200</time>
      </trkpt>
      <trkpt lat="48.3633" lon="-3.74719">
        <ele>224.699</ele>
        <time>2019-09-08T12:54:02 0200</time>
      </trkpt>
      <trkpt lat="48.3632" lon="-3.74677">
        <ele>225.823</ele>
        <time>2019-09-08T12:54:07 0200</time>
      </trkpt>
      <trkpt lat="48.3631" lon="-3.74635">
        <ele>224.116</ele>
        <time>2019-09-08T12:54:13 0200</time>
      </trkpt>
      <trkpt lat="48.363" lon="-3.74603">
        <ele>223.067</ele>
        <time>2019-09-08T12:54:18 0200</time>
      </trkpt>
      <trkpt lat="48.3629" lon="-3.74589">
        <ele>222.723</ele>
        <time>2019-09-08T12:54:23 0200</time>
      </trkpt>
      <trkpt lat="48.3628" lon="-3.74594">
        <ele>219.173</ele>
        <time>2019-09-08T12:54:28 0200</time>
      </trkpt>
      <trkpt lat="48.3626" lon="-3.7461">
        <ele>217.833</ele>
        <time>2019-09-08T12:54:33 0200</time>
      </trkpt>
      <trkpt lat="48.3625" lon="-3.7462">
        <ele>217.417</ele>
        <time>2019-09-08T12:54:38 0200</time>
      </trkpt>
      <trkpt lat="48.3624" lon="-3.74625">
        <ele>216.735</ele>
        <time>2019-09-08T12:54:43 0200</time>
      </trkpt>
      <trkpt lat="48.3623" lon="-3.74625">
        <ele>216.606</ele>
        <time>2019-09-08T12:54:48 0200</time>
      </trkpt>
      <trkpt lat="48.3623" lon="-3.74619">
        <ele>216.886</ele>
        <time>2019-09-08T12:54:53 0200</time>
      </trkpt>
      <trkpt lat="48.3623" lon="-3.74604">
        <ele>217.944</ele>
        <time>2019-09-08T12:54:59 0200</time>
      </trkpt>
      <trkpt lat="48.3623" lon="-3.74595">
        <ele>218.275</ele>
        <time>2019-09-08T12:55:04 0200</time>
      </trkpt>
      <trkpt lat="48.3622" lon="-3.7458">
        <ele>218.847</ele>
        <time>2019-09-08T12:55:09 0200</time>
      </trkpt>
      <trkpt lat="48.3622" lon="-3.74574">
        <ele>218.962</ele>
        <time>2019-09-08T12:55:14 0200</time>
      </trkpt>
      <trkpt lat="48.3622" lon="-3.74566">
        <ele>219.205</ele>
        <time>2019-09-08T12:55:19 0200</time>
      </trkpt>
      <trkpt lat="48.3622" lon="-3.74558">
        <ele>219.634</ele>
        <time>2019-09-08T12:55:24 0200</time>
      </trkpt>
      <trkpt lat="48.3622" lon="-3.74558">
        <ele>219.634</ele>
        <time>2019-09-08T12:55:29 0200</time>
      </trkpt>
      <trkpt lat="48.3621" lon="-3.74544">
        <ele>221.773</ele>
        <time>2019-09-08T12:55:34 0200</time>
      </trkpt>
      <trkpt lat="48.3621" lon="-3.74538">
        <ele>222.711</ele>
        <time>2019-09-08T12:55:39 0200</time>
      </trkpt>
      <trkpt lat="48.3621" lon="-3.74531">
        <ele>223.436</ele>
        <time>2019-09-08T12:55:44 0200</time>
      </trkpt>
      <trkpt lat="48.3621" lon="-3.74523">
        <ele>223.746</ele>
        <time>2019-09-08T12:55:49 0200</time>
      </trkpt>
      <trkpt lat="48.362" lon="-3.74518">
        <ele>224.3</ele>
        <time>2019-09-08T12:55:54 0200</time>
      </trkpt>
      <trkpt lat="48.362" lon="-3.74512">
        <ele>224.835</ele>
        <time>2019-09-08T12:55:59 0200</time>
      </trkpt>
      <trkpt lat="48.362" lon="-3.74512">
        <ele>224.835</ele>
        <time>2019-09-08T12:56:04 0200</time>
      </trkpt>
      <trkpt lat="48.362" lon="-3.74506">
        <ele>226.263</ele>
        <time>2019-09-08T12:56:09 0200</time>
      </trkpt>
      <trkpt lat="48.362" lon="-3.74499">
        <ele>227.993</ele>
        <time>2019-09-08T12:56:15 0200</time>
      </trkpt>
      <trkpt lat="48.3619" lon="-3.74491">
        <ele>229.091</ele>
        <time>2019-09-08T12:56:20 0200</time>
      </trkpt>
      <trkpt lat="48.3619" lon="-3.74484">
        <ele>230.022</ele>
        <time>2019-09-08T12:56:25 0200</time>
      </trkpt>
      <trkpt lat="48.3619" lon="-3.74478">
        <ele>231.776</ele>
        <time>2019-09-08T12:56:30 0200</time>
      </trkpt>
      <trkpt lat="48.3619" lon="-3.7447">
        <ele>232.954</ele>
        <time>2019-09-08T12:56:35 0200</time>
      </trkpt>
      <trkpt lat="48.3619" lon="-3.7447">
        <ele>232.954</ele>
        <time>2019-09-08T12:56:40 0200</time>
      </trkpt>
      <trkpt lat="48.3619" lon="-3.7447">
        <ele>232.954</ele>
        <time>2019-09-08T12:56:45 0200</time>
      </trkpt>
      <trkpt lat="48.3619" lon="-3.7447">
        <ele>232.954</ele>
        <time>2019-09-08T12:56:50 0200</time>
      </trkpt>
      <trkpt lat="48.3619" lon="-3.74458">
        <ele>234.632</ele>
        <time>2019-09-08T12:56:55 0200</time>
      </trkpt>
      <trkpt lat="48.3619" lon="-3.74451">
        <ele>234.996</ele>
        <time>2019-09-08T12:57:00 0200</time>
      </trkpt>
      <trkpt lat="48.3618" lon="-3.74434">
        <ele>235.363</ele>
        <time>2019-09-08T12:57:05 0200</time>
      </trkpt>
      <trkpt lat="48.3618" lon="-3.74427">
        <ele>235.535</ele>
        <time>2019-09-08T12:57:10 0200</time>
      </trkpt>
      <trkpt lat="48.3617" lon="-3.74415">
        <ele>235.824</ele>
        <time>2019-09-08T12:57:15 0200</time>
      </trkpt>
      <trkpt lat="48.3616" lon="-3.74405">
        <ele>235.892</ele>
        <time>2019-09-08T12:57:21 0200</time>
      </trkpt>
      <trkpt lat="48.3615" lon="-3.74397">
        <ele>236.155</ele>
        <time>2019-09-08T12:57:26 0200</time>
      </trkpt>
      <trkpt lat="48.3615" lon="-3.74388">
        <ele>236.687</ele>
        <time>2019-09-08T12:57:31 0200</time>
      </trkpt>
      <trkpt lat="48.3615" lon="-3.74374">
        <ele>237.406</ele>
        <time>2019-09-08T12:57:36 0200</time>
      </trkpt>
      <trkpt lat="48.3615" lon="-3.74366">
        <ele>237.856</ele>
        <time>2019-09-08T12:57:41 0200</time>
      </trkpt>
      <trkpt lat="48.3614" lon="-3.74354">
        <ele>238.867</ele>
        <time>2019-09-08T12:57:46 0200</time>
      </trkpt>
      <trkpt lat="48.3614" lon="-3.74348">
        <ele>239.622</ele>
        <time>2019-09-08T12:57:51 0200</time>
      </trkpt>
      <trkpt lat="48.3613" lon="-3.74335">
        <ele>240.681</ele>
        <time>2019-09-08T12:57:56 0200</time>
      </trkpt>
      <trkpt lat="48.3613" lon="-3.7433">
        <ele>241.352</ele>
        <time>2019-09-08T12:58:01 0200</time>
      </trkpt>
      <trkpt lat="48.3612" lon="-3.74315">
        <ele>242.456</ele>
        <time>2019-09-08T12:58:06 0200</time>
      </trkpt>
      <trkpt lat="48.3611" lon="-3.74303">
        <ele>243.736</ele>
        <time>2019-09-08T12:58:11 0200</time>
      </trkpt>
      <trkpt lat="48.3611" lon="-3.74289">
        <ele>244.819</ele>
        <time>2019-09-08T12:58:16 0200</time>
      </trkpt>
      <trkpt lat="48.3611" lon="-3.74283">
        <ele>245.514</ele>
        <time>2019-09-08T12:58:21 0200</time>
      </trkpt>
      <trkpt lat="48.361" lon="-3.74269">
        <ele>246.238</ele>
        <time>2019-09-08T12:58:26 0200</time>
      </trkpt>
      <trkpt lat="48.3609" lon="-3.74262">
        <ele>246.766</ele>
        <time>2019-09-08T12:58:32 0200</time>
      </trkpt>
      <trkpt lat="48.3608" lon="-3.74246">
        <ele>247.269</ele>
        <time>2019-09-08T12:58:37 0200</time>
      </trkpt>
      <trkpt lat="48.3607" lon="-3.74225">
        <ele>250.343</ele>
        <time>2019-09-08T12:58:42 0200</time>
      </trkpt>
      <trkpt lat="48.3604" lon="-3.74223">
        <ele>250.378</ele>
        <time>2019-09-08T12:58:47 0200</time>
      </trkpt>
      <trkpt lat="48.3602" lon="-3.74235">
        <ele>247.439</ele>
        <time>2019-09-08T12:58:52 0200</time>
      </trkpt>
      <trkpt lat="48.3601" lon="-3.74253">
        <ele>247.481</ele>
        <time>2019-09-08T12:58:57 0200</time>
      </trkpt>
      <trkpt lat="48.36" lon="-3.74269">
        <ele>247.819</ele>
        <time>2019-09-08T12:59:02 0200</time>
      </trkpt>
      <trkpt lat="48.36" lon="-3.74277">
        <ele>247.864</ele>
        <time>2019-09-08T12:59:07 0200</time>
      </trkpt>
      <trkpt lat="48.3599" lon="-3.74293">
        <ele>248.135</ele>
        <time>2019-09-08T12:59:12 0200</time>
      </trkpt>
      <trkpt lat="48.3599" lon="-3.74307">
        <ele>248.24</ele>
        <time>2019-09-08T12:59:17 0200</time>
      </trkpt>
      <trkpt lat="48.3598" lon="-3.74319">
        <ele>248.62</ele>
        <time>2019-09-08T12:59:22 0200</time>
      </trkpt>
      <trkpt lat="48.3597" lon="-3.74325">
        <ele>248.982</ele>
        <time>2019-09-08T12:59:27 0200</time>
      </trkpt>
      <trkpt lat="48.3596" lon="-3.74331">
        <ele>249.282</ele>
        <time>2019-09-08T12:59:33 0200</time>
      </trkpt>
      <trkpt lat="48.3594" lon="-3.74342">
        <ele>249.225</ele>
        <time>2019-09-08T12:59:38 0200</time>
      </trkpt>
      <trkpt lat="48.3591" lon="-3.74356">
        <ele>247.304</ele>
        <time>2019-09-08T12:59:43 0200</time>
      </trkpt>
      <trkpt lat="48.3589" lon="-3.74367">
        <ele>246.922</ele>
        <time>2019-09-08T12:59:48 0200</time>
      </trkpt>
      <trkpt lat="48.3587" lon="-3.74379">
        <ele>248.565</ele>
        <time>2019-09-08T12:59:53 0200</time>
      </trkpt>
      <trkpt lat="48.3585" lon="-3.74393">
        <ele>251.588</ele>
        <time>2019-09-08T12:59:58 0200</time>
      </trkpt>
      <trkpt lat="48.3584" lon="-3.74399">
        <ele>252.86</ele>
        <time>2019-09-08T13:00:03 0200</time>
      </trkpt>
      <trkpt lat="48.3582" lon="-3.74411">
        <ele>253.425</ele>
        <time>2019-09-08T13:00:08 0200</time>
      </trkpt>
      <trkpt lat="48.3581" lon="-3.74417">
        <ele>253.604</ele>
        <time>2019-09-08T13:00:13 0200</time>
      </trkpt>
      <trkpt lat="48.3582" lon="-3.74423">
        <ele>253.643</ele>
        <time>2019-09-08T13:00:18 0200</time>
      </trkpt>
      <trkpt lat="48.3582" lon="-3.74419">
        <ele>254.105</ele>
        <time>2019-09-08T13:00:23 0200</time>
      </trkpt>
      <trkpt lat="48.3583" lon="-3.74421">
        <ele>254.717</ele>
        <time>2019-09-08T13:00:28 0200</time>
      </trkpt>
      <trkpt lat="48.3584" lon="-3.74422">
        <ele>255.32</ele>
        <time>2019-09-08T13:00:33 0200</time>
      </trkpt>
      <trkpt lat="48.3584" lon="-3.74422">
        <ele>255.32</ele>
        <time>2019-09-08T13:00:39 0200</time>
      </trkpt>
      <trkpt lat="48.3584" lon="-3.74422">
        <ele>255.32</ele>
      </trkpt>
      <trkpt lat="48.3584" lon="-3.74416">
        <ele>256.212</ele>
      </trkpt>
      <trkpt lat="48.3585" lon="-3.74413">
        <ele>256.543</ele>
      </trkpt>
      <trkpt lat="48.3585" lon="-3.74412">
        <ele>256.779</ele>
      </trkpt>
      <trkpt lat="48.3585" lon="-3.74412">
        <ele>256.779</ele>
      </trkpt>
      <trkpt lat="48.3586" lon="-3.74409">
        <ele>257.241</ele>
      </trkpt>
      <trkpt lat="48.3586" lon="-3.74409">
        <ele>257.241</ele>
      </trkpt>
      <trkpt lat="48.3586" lon="-3.74408">
        <ele>257.249</ele>
      </trkpt>
      <trkpt lat="48.3587" lon="-3.74416">
        <ele>257.449</ele>
      </trkpt>
      <trkpt lat="48.3587" lon="-3.74416">
        <ele>257.449</ele>
      </trkpt>
      <trkpt lat="48.3587" lon="-3.74416">
        <ele>257.449</ele>
      </trkpt>
      <trkpt lat="48.3587" lon="-3.74416">
        <ele>257.449</ele>
      </trkpt>
      <trkpt lat="48.3587" lon="-3.74416">
        <ele>257.449</ele>
      </trkpt>
      <trkpt lat="48.3587" lon="-3.74416">
        <ele>257.449</ele>
      </trkpt>
      <trkpt lat="48.3587" lon="-3.74416">
        <ele>257.449</ele>
      </trkpt>
      <trkpt lat="48.3587" lon="-3.74416">
        <ele>257.449</ele>
      </trkpt>
      <trkpt lat="48.3587" lon="-3.74416">
        <ele>257.449</ele>
      </trkpt>
      <trkpt lat="48.3587" lon="-3.74416">
        <ele>257.449</ele>
      </trkpt>
      <trkpt lat="48.3587" lon="-3.74416">
        <ele>257.449</ele>
      </trkpt>
    </trkseg>
  </trk>
</gpx>